<?xml version="1.0" encoding="UTF-8"?>
<gpx version="1.1" creator="2bulu-scraper" xmlns="http://www.topografix.com/GPX/1/1">
  <metadata><name>:07画稿溪九：恐龙足迹环线</name><desc>source: 2bulu.com trackId=78617915; exported 2026-09-01T14:44:25.203Z</desc>
    <bounds minlat="28.212998" minlon="105.636259" maxlat="28.243235" maxlon="105.657753"/>
    <link href="https://www.2bulu.com/track/t-KJlvr0iXfozp%252FR2KBg5Tzw%253D%253D.htm"><text>2bulu 源页面</text></link>
  </metadata>
  <wpt lat="28.243016" lon="105.641205"><ele>629</ele><name>起点</name></wpt>
  <wpt lat="28.243003" lon="105.641048"><ele>634</ele><name></name></wpt>
  <wpt lat="28.242876" lon="105.640563"><ele>636</ele><name></name></wpt>
  <wpt lat="28.242249" lon="105.639879"><ele>643</ele><name></name></wpt>
  <wpt lat="28.241479" lon="105.638683"><ele>670</ele><name>悬崖</name></wpt>
  <wpt lat="28.233561" lon="105.63799"><ele>763</ele><name>大山</name></wpt>
  <wpt lat="28.233018" lon="105.63838"><ele>790</ele><name></name></wpt>
  <wpt lat="28.232986" lon="105.638417"><ele>790</ele><name></name></wpt>
  <wpt lat="28.232298" lon="105.638732"><ele>794</ele><name></name></wpt>
  <wpt lat="28.229508" lon="105.639805"><ele>803</ele><name></name></wpt>
  <wpt lat="28.229474" lon="105.639848"><ele>799</ele><name></name></wpt>
  <wpt lat="28.224167" lon="105.640615"><ele>868</ele><name></name></wpt>
  <wpt lat="28.222955" lon="105.640605"><ele>856</ele><name></name></wpt>
  <wpt lat="28.222872" lon="105.640645"><ele>858</ele><name></name></wpt>
  <wpt lat="28.221703" lon="105.641143"><ele>886</ele><name></name></wpt>
  <wpt lat="28.220904" lon="105.641323"><ele>901</ele><name>河谷公路</name></wpt>
  <wpt lat="28.220854" lon="105.641349"><ele>902</ele><name></name></wpt>
  <wpt lat="28.219266" lon="105.641336"><ele>961</ele><name>竹林路</name></wpt>
  <wpt lat="28.21918" lon="105.641059"><ele>981</ele><name></name></wpt>
  <wpt lat="28.21897" lon="105.640717"><ele>999</ele><name>风景</name></wpt>
  <wpt lat="28.219687" lon="105.640168"><ele>991</ele><name></name></wpt>
  <wpt lat="28.219687" lon="105.640168"><ele>991</ele><name>青蛙石</name></wpt>
  <wpt lat="28.216192" lon="105.641049"><ele>1019</ele><name>恐龙足迹</name></wpt>
  <wpt lat="28.216022" lon="105.642081"><ele>1007</ele><name>恐龙足迹</name></wpt>
  <wpt lat="28.216009" lon="105.642132"><ele>1008</ele><name>恐龙足迹</name></wpt>
  <wpt lat="28.215941" lon="105.642002"><ele>1010</ele><name></name></wpt>
  <wpt lat="28.214798" lon="105.643634"><ele>1085</ele><name>翻山</name></wpt>
  <wpt lat="28.213019" lon="105.643845"><ele>1128</ele><name></name></wpt>
  <wpt lat="28.21312" lon="105.643861"><ele>1130</ele><name></name></wpt>
  <wpt lat="28.213166" lon="105.643859"><ele>1132</ele><name></name></wpt>
  <wpt lat="28.213395" lon="105.643925"><ele>1137</ele><name></name></wpt>
  <wpt lat="28.213525" lon="105.643981"><ele>1138</ele><name></name></wpt>
  <wpt lat="28.213565" lon="105.644007"><ele>1139</ele><name></name></wpt>
  <wpt lat="28.214005" lon="105.644419"><ele>1153</ele><name></name></wpt>
  <wpt lat="28.214423" lon="105.644604"><ele>1166</ele><name></name></wpt>
  <wpt lat="28.214676" lon="105.644761"><ele>1171</ele><name></name></wpt>
  <wpt lat="28.216395" lon="105.647408"><ele>1223</ele><name></name></wpt>
  <wpt lat="28.216465" lon="105.64732"><ele>1223</ele><name>看路</name></wpt>
  <wpt lat="28.216668" lon="105.647463"><ele>1228</ele><name>爬坡</name></wpt>
  <wpt lat="28.217659" lon="105.647625"><ele>1301</ele><name>山脊</name></wpt>
  <wpt lat="28.219408" lon="105.647065"><ele>1350</ele><name></name></wpt>
  <wpt lat="28.219408" lon="105.647065"><ele>1350</ele><name>山脊</name></wpt>
  <wpt lat="28.22131" lon="105.64691"><ele>1368</ele><name></name></wpt>
  <wpt lat="28.221463" lon="105.646933"><ele>1369</ele><name>山脊</name></wpt>
  <wpt lat="28.221729" lon="105.647005"><ele>1371</ele><name></name></wpt>
  <wpt lat="28.221681" lon="105.647025"><ele>1373</ele><name></name></wpt>
  <wpt lat="28.222767" lon="105.648725"><ele>1329</ele><name></name></wpt>
  <wpt lat="28.223845" lon="105.649099"><ele>1311</ele><name></name></wpt>
  <wpt lat="28.226145" lon="105.651005"><ele>1246</ele><name>竹林</name></wpt>
  <wpt lat="28.224769" lon="105.654085"><ele>1054</ele><name>农户</name></wpt>
  <wpt lat="28.224769" lon="105.654085"><ele>1054</ele><name>农户</name></wpt>
  <wpt lat="28.22522" lon="105.655781"><ele>990</ele><name>公路段</name></wpt>
  <wpt lat="28.225399" lon="105.655686"><ele>992</ele><name></name></wpt>
  <wpt lat="28.234718" lon="105.654336"><ele>894</ele><name>翻山</name></wpt>
  <wpt lat="28.23481" lon="105.654472"><ele>893</ele><name>土公路</name></wpt>
  <wpt lat="28.236209" lon="105.655253"><ele>873</ele><name>老房子</name></wpt>
  <wpt lat="28.236087" lon="105.654712"><ele>868</ele><name></name></wpt>
  <wpt lat="28.236083" lon="105.654333"><ele>872</ele><name>山脊鱼塘</name></wpt>
  <wpt lat="28.23839" lon="105.656524"><ele>734</ele><name>危险点</name></wpt>
  <wpt lat="28.239388" lon="105.654984"><ele>660</ele><name></name></wpt>
  <wpt lat="28.239576" lon="105.65413"><ele>660</ele><name></name></wpt>
  <wpt lat="28.239845" lon="105.653935"><ele>651</ele><name>过桥</name></wpt>
  <wpt lat="28.240189" lon="105.654232"><ele>654</ele><name>茶马古道</name></wpt>
  <wpt lat="28.240421" lon="105.654031"><ele>654</ele><name>农户</name></wpt>
  <wpt lat="28.240703" lon="105.653672"><ele>658</ele><name></name></wpt>
  <wpt lat="28.240875" lon="105.653528"><ele>664</ele><name></name></wpt>
  <wpt lat="28.241039" lon="105.653529"><ele>670</ele><name>茶马古道</name></wpt>
  <wpt lat="28.241039" lon="105.653529"><ele>670</ele><name></name></wpt>
  <wpt lat="28.241058" lon="105.653482"><ele>674</ele><name></name></wpt>
  <wpt lat="28.241203" lon="105.653266"><ele>685</ele><name></name></wpt>
  <wpt lat="28.241375" lon="105.653199"><ele>701</ele><name></name></wpt>
  <wpt lat="28.241301" lon="105.652639"><ele>653</ele><name>折返回茶马古道</name></wpt>
  <wpt lat="28.241397" lon="105.652428"><ele>648</ele><name></name></wpt>
  <wpt lat="28.241456" lon="105.652336"><ele>649</ele><name></name></wpt>
  <wpt lat="28.241739" lon="105.649679"><ele>649</ele><name>过河</name></wpt>
  <trk><name>:07画稿溪九：恐龙足迹环线</name>
      <trkseg>
        <trkpt lat="28.243235" lon="105.641557"><ele>651.0739</ele><time>2026-01-30T17:30:10.000Z</time></trkpt>
        <trkpt lat="28.243235" lon="105.641557"><ele>651.09296</ele><time>2026-01-30T17:30:11.000Z</time></trkpt>
        <trkpt lat="28.243234" lon="105.641556"><ele>650.79193</ele><time>2026-01-30T17:30:13.000Z</time></trkpt>
        <trkpt lat="28.243217" lon="105.641539"><ele>649.38824</ele><time>2026-01-30T17:30:15.000Z</time></trkpt>
        <trkpt lat="28.243155" lon="105.64147"><ele>642.97314</ele><time>2026-01-30T17:30:18.000Z</time></trkpt>
        <trkpt lat="28.243075" lon="105.641367"><ele>635.20105</ele><time>2026-01-30T17:30:21.000Z</time></trkpt>
        <trkpt lat="28.243014" lon="105.641244"><ele>627.1703</ele><time>2026-01-30T17:30:30.000Z</time></trkpt>
        <trkpt lat="28.243013" lon="105.641205"><ele>628.1442</ele><time>2026-01-30T17:30:35.000Z</time></trkpt>
        <trkpt lat="28.242998" lon="105.641164"><ele>629.98346</ele><time>2026-01-30T17:30:39.000Z</time></trkpt>
        <trkpt lat="28.242993" lon="105.641119"><ele>629.4123</ele><time>2026-01-30T17:30:42.000Z</time></trkpt>
        <trkpt lat="28.243002" lon="105.641047"><ele>633.9728</ele><time>2026-01-30T17:30:57.000Z</time></trkpt>
        <trkpt lat="28.242972" lon="105.641006"><ele>635.4714</ele><time>2026-01-30T17:31:11.000Z</time></trkpt>
        <trkpt lat="28.242953" lon="105.640949"><ele>636.88684</ele><time>2026-01-30T17:31:17.000Z</time></trkpt>
        <trkpt lat="28.242953" lon="105.640887"><ele>638.1202</ele><time>2026-01-30T17:31:23.000Z</time></trkpt>
        <trkpt lat="28.242937" lon="105.64083"><ele>638.1072</ele><time>2026-01-30T17:31:28.000Z</time></trkpt>
        <trkpt lat="28.242929" lon="105.64078"><ele>636.5129</ele><time>2026-01-30T17:31:32.000Z</time></trkpt>
        <trkpt lat="28.24291" lon="105.640727"><ele>635.5676</ele><time>2026-01-30T17:31:36.000Z</time></trkpt>
        <trkpt lat="28.242891" lon="105.640665"><ele>634.77277</ele><time>2026-01-30T17:31:41.000Z</time></trkpt>
        <trkpt lat="28.242871" lon="105.640614"><ele>637.8356</ele><time>2026-01-30T17:31:46.000Z</time></trkpt>
        <trkpt lat="28.242873" lon="105.640561"><ele>635.9672</ele><time>2026-01-30T17:31:58.000Z</time></trkpt>
        <trkpt lat="28.242865" lon="105.64051"><ele>633.6925</ele><time>2026-01-30T17:32:03.000Z</time></trkpt>
        <trkpt lat="28.242855" lon="105.640464"><ele>632.83276</ele><time>2026-01-30T17:32:06.000Z</time></trkpt>
        <trkpt lat="28.242848" lon="105.640396"><ele>631.82855</ele><time>2026-01-30T17:32:10.000Z</time></trkpt>
        <trkpt lat="28.242822" lon="105.640337"><ele>633.9531</ele><time>2026-01-30T17:32:14.000Z</time></trkpt>
        <trkpt lat="28.242782" lon="105.640301"><ele>638.97424</ele><time>2026-01-30T17:32:18.000Z</time></trkpt>
        <trkpt lat="28.242745" lon="105.640268"><ele>641.8904</ele><time>2026-01-30T17:32:22.000Z</time></trkpt>
        <trkpt lat="28.242706" lon="105.640233"><ele>645.3439</ele><time>2026-01-30T17:32:26.000Z</time></trkpt>
        <trkpt lat="28.242669" lon="105.640195"><ele>647.65845</ele><time>2026-01-30T17:32:31.000Z</time></trkpt>
        <trkpt lat="28.24264" lon="105.640159"><ele>647.96387</ele><time>2026-01-30T17:32:35.000Z</time></trkpt>
        <trkpt lat="28.242602" lon="105.640123"><ele>648.7239</ele><time>2026-01-30T17:32:40.000Z</time></trkpt>
        <trkpt lat="28.242564" lon="105.640099"><ele>647.9642</ele><time>2026-01-30T17:32:44.000Z</time></trkpt>
        <trkpt lat="28.242518" lon="105.640064"><ele>643.9314</ele><time>2026-01-30T17:32:49.000Z</time></trkpt>
        <trkpt lat="28.242481" lon="105.640032"><ele>642.6787</ele><time>2026-01-30T17:32:53.000Z</time></trkpt>
        <trkpt lat="28.242436" lon="105.639999"><ele>640.7807</ele><time>2026-01-30T17:32:58.000Z</time></trkpt>
        <trkpt lat="28.242398" lon="105.639965"><ele>639.0156</ele><time>2026-01-30T17:33:02.000Z</time></trkpt>
        <trkpt lat="28.242342" lon="105.639933"><ele>638.75397</ele><time>2026-01-30T17:33:08.000Z</time></trkpt>
        <trkpt lat="28.242299" lon="105.63991"><ele>639.9683</ele><time>2026-01-30T17:33:13.000Z</time></trkpt>
        <trkpt lat="28.242253" lon="105.639882"><ele>642.13873</ele><time>2026-01-30T17:33:18.000Z</time></trkpt>
        <trkpt lat="28.242203" lon="105.639848"><ele>641.88983</ele><time>2026-01-30T17:33:23.000Z</time></trkpt>
        <trkpt lat="28.242172" lon="105.639814"><ele>641.01196</ele><time>2026-01-30T17:33:26.000Z</time></trkpt>
        <trkpt lat="28.242128" lon="105.639782"><ele>641.344</ele><time>2026-01-30T17:33:30.000Z</time></trkpt>
        <trkpt lat="28.24208" lon="105.639756"><ele>642.7701</ele><time>2026-01-30T17:33:34.000Z</time></trkpt>
        <trkpt lat="28.242025" lon="105.639746"><ele>644.30804</ele><time>2026-01-30T17:33:38.000Z</time></trkpt>
        <trkpt lat="28.24198" lon="105.639741"><ele>645.6389</ele><time>2026-01-30T17:33:41.000Z</time></trkpt>
        <trkpt lat="28.241929" lon="105.639728"><ele>649.073</ele><time>2026-01-30T17:33:45.000Z</time></trkpt>
        <trkpt lat="28.241873" lon="105.639713"><ele>650.25006</ele><time>2026-01-30T17:33:50.000Z</time></trkpt>
        <trkpt lat="28.24183" lon="105.63971"><ele>651.0975</ele><time>2026-01-30T17:33:53.000Z</time></trkpt>
        <trkpt lat="28.241779" lon="105.639713"><ele>651.7038</ele><time>2026-01-30T17:33:56.000Z</time></trkpt>
        <trkpt lat="28.241712" lon="105.639709"><ele>654.17334</ele><time>2026-01-30T17:34:01.000Z</time></trkpt>
        <trkpt lat="28.24166" lon="105.639704"><ele>656.7894</ele><time>2026-01-30T17:34:05.000Z</time></trkpt>
        <trkpt lat="28.241607" lon="105.639678"><ele>660.31647</ele><time>2026-01-30T17:34:10.000Z</time></trkpt>
        <trkpt lat="28.241571" lon="105.639641"><ele>662.14606</ele><time>2026-01-30T17:34:14.000Z</time></trkpt>
        <trkpt lat="28.241533" lon="105.639594"><ele>662.74774</ele><time>2026-01-30T17:34:19.000Z</time></trkpt>
        <trkpt lat="28.241508" lon="105.639546"><ele>662.9456</ele><time>2026-01-30T17:34:23.000Z</time></trkpt>
        <trkpt lat="28.241478" lon="105.639496"><ele>664.2685</ele><time>2026-01-30T17:34:27.000Z</time></trkpt>
        <trkpt lat="28.241453" lon="105.639433"><ele>664.0928</ele><time>2026-01-30T17:34:31.000Z</time></trkpt>
        <trkpt lat="28.241439" lon="105.639368"><ele>664.41223</ele><time>2026-01-30T17:34:35.000Z</time></trkpt>
        <trkpt lat="28.241432" lon="105.639301"><ele>665.4818</ele><time>2026-01-30T17:34:40.000Z</time></trkpt>
        <trkpt lat="28.241443" lon="105.639245"><ele>663.97876</ele><time>2026-01-30T17:34:44.000Z</time></trkpt>
        <trkpt lat="28.24145" lon="105.639188"><ele>662.7106</ele><time>2026-01-30T17:34:49.000Z</time></trkpt>
        <trkpt lat="28.241457" lon="105.639133"><ele>661.5343</ele><time>2026-01-30T17:34:53.000Z</time></trkpt>
        <trkpt lat="28.241471" lon="105.639072"><ele>662.3463</ele><time>2026-01-30T17:34:58.000Z</time></trkpt>
        <trkpt lat="28.241481" lon="105.63902"><ele>663.71063</ele><time>2026-01-30T17:35:02.000Z</time></trkpt>
        <trkpt lat="28.24148" lon="105.638965"><ele>665.8157</ele><time>2026-01-30T17:35:06.000Z</time></trkpt>
        <trkpt lat="28.241461" lon="105.638907"><ele>667.1779</ele><time>2026-01-30T17:35:12.000Z</time></trkpt>
        <trkpt lat="28.241461" lon="105.63886"><ele>666.80994</ele><time>2026-01-30T17:35:16.000Z</time></trkpt>
        <trkpt lat="28.241463" lon="105.638803"><ele>665.9502</ele><time>2026-01-30T17:35:22.000Z</time></trkpt>
        <trkpt lat="28.241466" lon="105.638741"><ele>668.1165</ele><time>2026-01-30T17:35:32.000Z</time></trkpt>
        <trkpt lat="28.241476" lon="105.638695"><ele>669.99457</ele><time>2026-01-30T17:35:36.000Z</time></trkpt>
        <trkpt lat="28.241482" lon="105.638637"><ele>671.4882</ele><time>2026-01-30T17:35:41.000Z</time></trkpt>
        <trkpt lat="28.241492" lon="105.638583"><ele>673.08307</ele><time>2026-01-30T17:35:45.000Z</time></trkpt>
        <trkpt lat="28.24151" lon="105.638527"><ele>675.38605</ele><time>2026-01-30T17:35:49.000Z</time></trkpt>
        <trkpt lat="28.241521" lon="105.638469"><ele>677.76605</ele><time>2026-01-30T17:35:53.000Z</time></trkpt>
        <trkpt lat="28.241529" lon="105.638406"><ele>679.38043</ele><time>2026-01-30T17:35:57.000Z</time></trkpt>
        <trkpt lat="28.241547" lon="105.638344"><ele>681.05725</ele><time>2026-01-30T17:36:02.000Z</time></trkpt>
        <trkpt lat="28.24155" lon="105.638299"><ele>682.1364</ele><time>2026-01-30T17:36:05.000Z</time></trkpt>
        <trkpt lat="28.241559" lon="105.638239"><ele>683.28217</ele><time>2026-01-30T17:36:09.000Z</time></trkpt>
        <trkpt lat="28.241564" lon="105.638181"><ele>684.6105</ele><time>2026-01-30T17:36:13.000Z</time></trkpt>
        <trkpt lat="28.241572" lon="105.638128"><ele>685.1106</ele><time>2026-01-30T17:36:17.000Z</time></trkpt>
        <trkpt lat="28.241588" lon="105.638071"><ele>686.2153</ele><time>2026-01-30T17:36:21.000Z</time></trkpt>
        <trkpt lat="28.241603" lon="105.638008"><ele>687.5418</ele><time>2026-01-30T17:36:27.000Z</time></trkpt>
        <trkpt lat="28.241611" lon="105.637956"><ele>688.8161</ele><time>2026-01-30T17:36:32.000Z</time></trkpt>
        <trkpt lat="28.241609" lon="105.637907"><ele>690.69226</ele><time>2026-01-30T17:36:36.000Z</time></trkpt>
        <trkpt lat="28.241612" lon="105.637847"><ele>692.24426</ele><time>2026-01-30T17:36:41.000Z</time></trkpt>
        <trkpt lat="28.241618" lon="105.637786"><ele>693.62134</ele><time>2026-01-30T17:36:46.000Z</time></trkpt>
        <trkpt lat="28.241632" lon="105.637727"><ele>695.28265</ele><time>2026-01-30T17:36:50.000Z</time></trkpt>
        <trkpt lat="28.241641" lon="105.637671"><ele>696.21124</ele><time>2026-01-30T17:36:54.000Z</time></trkpt>
        <trkpt lat="28.241646" lon="105.637614"><ele>696.81036</ele><time>2026-01-30T17:36:58.000Z</time></trkpt>
        <trkpt lat="28.241652" lon="105.637566"><ele>696.973</ele><time>2026-01-30T17:37:01.000Z</time></trkpt>
        <trkpt lat="28.241671" lon="105.637502"><ele>698.68463</ele><time>2026-01-30T17:37:06.000Z</time></trkpt>
        <trkpt lat="28.241688" lon="105.637453"><ele>699.83185</ele><time>2026-01-30T17:37:10.000Z</time></trkpt>
        <trkpt lat="28.241697" lon="105.637392"><ele>700.8117</ele><time>2026-01-30T17:37:15.000Z</time></trkpt>
        <trkpt lat="28.241691" lon="105.637332"><ele>702.3109</ele><time>2026-01-30T17:37:20.000Z</time></trkpt>
        <trkpt lat="28.241696" lon="105.637282"><ele>704.0502</ele><time>2026-01-30T17:37:24.000Z</time></trkpt>
        <trkpt lat="28.241699" lon="105.637228"><ele>705.0439</ele><time>2026-01-30T17:37:28.000Z</time></trkpt>
        <trkpt lat="28.241708" lon="105.637165"><ele>707.7084</ele><time>2026-01-30T17:37:33.000Z</time></trkpt>
        <trkpt lat="28.241716" lon="105.63711"><ele>709.58984</ele><time>2026-01-30T17:37:37.000Z</time></trkpt>
        <trkpt lat="28.241725" lon="105.637056"><ele>711.30597</ele><time>2026-01-30T17:37:41.000Z</time></trkpt>
        <trkpt lat="28.241725" lon="105.636995"><ele>713.5562</ele><time>2026-01-30T17:37:46.000Z</time></trkpt>
        <trkpt lat="28.241718" lon="105.636949"><ele>714.82184</ele><time>2026-01-30T17:37:49.000Z</time></trkpt>
        <trkpt lat="28.241715" lon="105.63689"><ele>716.3239</ele><time>2026-01-30T17:37:53.000Z</time></trkpt>
        <trkpt lat="28.241706" lon="105.636834"><ele>718.1431</ele><time>2026-01-30T17:37:57.000Z</time></trkpt>
        <trkpt lat="28.241692" lon="105.636781"><ele>720.2627</ele><time>2026-01-30T17:38:01.000Z</time></trkpt>
        <trkpt lat="28.241686" lon="105.636715"><ele>720.0483</ele><time>2026-01-30T17:38:06.000Z</time></trkpt>
        <trkpt lat="28.241676" lon="105.636653"><ele>717.8744</ele><time>2026-01-30T17:38:11.000Z</time></trkpt>
        <trkpt lat="28.241659" lon="105.636602"><ele>715.6858</ele><time>2026-01-30T17:38:15.000Z</time></trkpt>
        <trkpt lat="28.241632" lon="105.636545"><ele>710.7105</ele><time>2026-01-30T17:38:19.000Z</time></trkpt>
        <trkpt lat="28.2416" lon="105.636499"><ele>711.1139</ele><time>2026-01-30T17:38:24.000Z</time></trkpt>
        <trkpt lat="28.241558" lon="105.636463"><ele>714.6853</ele><time>2026-01-30T17:38:30.000Z</time></trkpt>
        <trkpt lat="28.241524" lon="105.636424"><ele>716.8415</ele><time>2026-01-30T17:38:36.000Z</time></trkpt>
        <trkpt lat="28.241495" lon="105.636387"><ele>719.0231</ele><time>2026-01-30T17:38:40.000Z</time></trkpt>
        <trkpt lat="28.241456" lon="105.636343"><ele>720.8316</ele><time>2026-01-30T17:38:45.000Z</time></trkpt>
        <trkpt lat="28.241415" lon="105.636308"><ele>722.2737</ele><time>2026-01-30T17:38:49.000Z</time></trkpt>
        <trkpt lat="28.241368" lon="105.636286"><ele>724.2205</ele><time>2026-01-30T17:38:54.000Z</time></trkpt>
        <trkpt lat="28.241315" lon="105.636281"><ele>725.75305</ele><time>2026-01-30T17:39:01.000Z</time></trkpt>
        <trkpt lat="28.24126" lon="105.636301"><ele>725.4958</ele><time>2026-01-30T17:39:08.000Z</time></trkpt>
        <trkpt lat="28.241214" lon="105.636328"><ele>723.1975</ele><time>2026-01-30T17:39:15.000Z</time></trkpt>
        <trkpt lat="28.241176" lon="105.636356"><ele>715.6519</ele><time>2026-01-30T17:39:21.000Z</time></trkpt>
        <trkpt lat="28.241134" lon="105.636372"><ele>710.76697</ele><time>2026-01-30T17:39:26.000Z</time></trkpt>
        <trkpt lat="28.241082" lon="105.636389"><ele>705.91693</ele><time>2026-01-30T17:39:34.000Z</time></trkpt>
        <trkpt lat="28.241052" lon="105.636348"><ele>701.13934</ele><time>2026-01-30T17:39:45.000Z</time></trkpt>
        <trkpt lat="28.241086" lon="105.63632"><ele>694.6694</ele><time>2026-01-30T17:39:51.000Z</time></trkpt>
        <trkpt lat="28.241102" lon="105.636276"><ele>687.9762</ele><time>2026-01-30T17:39:56.000Z</time></trkpt>
        <trkpt lat="28.241062" lon="105.636259"><ele>686.8471</ele><time>2026-01-30T17:40:01.000Z</time></trkpt>
        <trkpt lat="28.241006" lon="105.636266"><ele>689.19415</ele><time>2026-01-30T17:40:05.000Z</time></trkpt>
        <trkpt lat="28.240939" lon="105.636287"><ele>693.47375</ele><time>2026-01-30T17:40:10.000Z</time></trkpt>
        <trkpt lat="28.240897" lon="105.63631"><ele>695.858</ele><time>2026-01-30T17:40:13.000Z</time></trkpt>
        <trkpt lat="28.240843" lon="105.636343"><ele>697.5082</ele><time>2026-01-30T17:40:17.000Z</time></trkpt>
        <trkpt lat="28.240784" lon="105.636366"><ele>699.0481</ele><time>2026-01-30T17:40:22.000Z</time></trkpt>
        <trkpt lat="28.240729" lon="105.636381"><ele>701.35724</ele><time>2026-01-30T17:40:27.000Z</time></trkpt>
        <trkpt lat="28.240696" lon="105.63641"><ele>699.5848</ele><time>2026-01-30T17:40:30.000Z</time></trkpt>
        <trkpt lat="28.24066" lon="105.63645"><ele>696.6819</ele><time>2026-01-30T17:40:34.000Z</time></trkpt>
        <trkpt lat="28.24061" lon="105.636468"><ele>694.033</ele><time>2026-01-30T17:40:39.000Z</time></trkpt>
        <trkpt lat="28.240562" lon="105.636496"><ele>695.5442</ele><time>2026-01-30T17:40:44.000Z</time></trkpt>
        <trkpt lat="28.240519" lon="105.636519"><ele>696.264</ele><time>2026-01-30T17:40:48.000Z</time></trkpt>
        <trkpt lat="28.240475" lon="105.636545"><ele>697.24207</ele><time>2026-01-30T17:40:52.000Z</time></trkpt>
        <trkpt lat="28.240432" lon="105.636574"><ele>697.0273</ele><time>2026-01-30T17:40:56.000Z</time></trkpt>
        <trkpt lat="28.240388" lon="105.636605"><ele>696.62115</ele><time>2026-01-30T17:41:00.000Z</time></trkpt>
        <trkpt lat="28.240331" lon="105.636627"><ele>695.8535</ele><time>2026-01-30T17:41:05.000Z</time></trkpt>
        <trkpt lat="28.240284" lon="105.636655"><ele>695.1254</ele><time>2026-01-30T17:41:09.000Z</time></trkpt>
        <trkpt lat="28.240248" lon="105.636693"><ele>695.34937</ele><time>2026-01-30T17:41:13.000Z</time></trkpt>
        <trkpt lat="28.2402" lon="105.636733"><ele>696.5262</ele><time>2026-01-30T17:41:18.000Z</time></trkpt>
        <trkpt lat="28.240167" lon="105.636773"><ele>698.2074</ele><time>2026-01-30T17:41:22.000Z</time></trkpt>
        <trkpt lat="28.240129" lon="105.636807"><ele>701.0832</ele><time>2026-01-30T17:41:26.000Z</time></trkpt>
        <trkpt lat="28.24009" lon="105.636836"><ele>700.8385</ele><time>2026-01-30T17:41:30.000Z</time></trkpt>
        <trkpt lat="28.240053" lon="105.636868"><ele>701.842</ele><time>2026-01-30T17:41:34.000Z</time></trkpt>
        <trkpt lat="28.240012" lon="105.636908"><ele>702.8248</ele><time>2026-01-30T17:41:39.000Z</time></trkpt>
        <trkpt lat="28.239966" lon="105.636936"><ele>704.1659</ele><time>2026-01-30T17:41:44.000Z</time></trkpt>
        <trkpt lat="28.239931" lon="105.636979"><ele>704.84576</ele><time>2026-01-30T17:41:48.000Z</time></trkpt>
        <trkpt lat="28.239889" lon="105.637003"><ele>706.6723</ele><time>2026-01-30T17:41:52.000Z</time></trkpt>
        <trkpt lat="28.239845" lon="105.637043"><ele>709.33185</ele><time>2026-01-30T17:41:57.000Z</time></trkpt>
        <trkpt lat="28.239817" lon="105.637089"><ele>711.42816</ele><time>2026-01-30T17:42:01.000Z</time></trkpt>
        <trkpt lat="28.239784" lon="105.637138"><ele>712.81287</ele><time>2026-01-30T17:42:06.000Z</time></trkpt>
        <trkpt lat="28.239767" lon="105.637181"><ele>713.53345</ele><time>2026-01-30T17:42:09.000Z</time></trkpt>
        <trkpt lat="28.239727" lon="105.637228"><ele>711.1213</ele><time>2026-01-30T17:42:14.000Z</time></trkpt>
        <trkpt lat="28.239683" lon="105.637259"><ele>705.93054</ele><time>2026-01-30T17:42:19.000Z</time></trkpt>
        <trkpt lat="28.239645" lon="105.637294"><ele>701.9951</ele><time>2026-01-30T17:42:24.000Z</time></trkpt>
        <trkpt lat="28.239612" lon="105.637328"><ele>698.408</ele><time>2026-01-30T17:42:28.000Z</time></trkpt>
        <trkpt lat="28.239582" lon="105.637359"><ele>696.8454</ele><time>2026-01-30T17:42:31.000Z</time></trkpt>
        <trkpt lat="28.239535" lon="105.637404"><ele>693.9362</ele><time>2026-01-30T17:42:36.000Z</time></trkpt>
        <trkpt lat="28.239499" lon="105.637441"><ele>691.40094</ele><time>2026-01-30T17:42:40.000Z</time></trkpt>
        <trkpt lat="28.239454" lon="105.637476"><ele>688.4976</ele><time>2026-01-30T17:42:45.000Z</time></trkpt>
        <trkpt lat="28.239418" lon="105.637507"><ele>693.52435</ele><time>2026-01-30T17:42:48.000Z</time></trkpt>
        <trkpt lat="28.239382" lon="105.637541"><ele>700.3757</ele><time>2026-01-30T17:42:51.000Z</time></trkpt>
        <trkpt lat="28.239335" lon="105.637576"><ele>708.3064</ele><time>2026-01-30T17:42:55.000Z</time></trkpt>
        <trkpt lat="28.239294" lon="105.637585"><ele>712.515</ele><time>2026-01-30T17:42:58.000Z</time></trkpt>
        <trkpt lat="28.239234" lon="105.637593"><ele>717.043</ele><time>2026-01-30T17:43:02.000Z</time></trkpt>
        <trkpt lat="28.239173" lon="105.637599"><ele>719.7653</ele><time>2026-01-30T17:43:06.000Z</time></trkpt>
        <trkpt lat="28.239116" lon="105.637617"><ele>723.54956</ele><time>2026-01-30T17:43:10.000Z</time></trkpt>
        <trkpt lat="28.239071" lon="105.637639"><ele>726.1452</ele><time>2026-01-30T17:43:13.000Z</time></trkpt>
        <trkpt lat="28.239024" lon="105.63766"><ele>729.7037</ele><time>2026-01-30T17:43:16.000Z</time></trkpt>
        <trkpt lat="28.238969" lon="105.637688"><ele>732.9586</ele><time>2026-01-30T17:43:20.000Z</time></trkpt>
        <trkpt lat="28.238919" lon="105.637719"><ele>737.3896</ele><time>2026-01-30T17:43:24.000Z</time></trkpt>
        <trkpt lat="28.238862" lon="105.63774"><ele>741.8594</ele><time>2026-01-30T17:43:29.000Z</time></trkpt>
        <trkpt lat="28.238808" lon="105.637748"><ele>747.51483</ele><time>2026-01-30T17:43:34.000Z</time></trkpt>
        <trkpt lat="28.238766" lon="105.637726"><ele>751.2628</ele><time>2026-01-30T17:43:38.000Z</time></trkpt>
        <trkpt lat="28.238723" lon="105.637723"><ele>754.35455</ele><time>2026-01-30T17:43:42.000Z</time></trkpt>
        <trkpt lat="28.238679" lon="105.637714"><ele>757.0199</ele><time>2026-01-30T17:43:46.000Z</time></trkpt>
        <trkpt lat="28.238631" lon="105.637705"><ele>760.4721</ele><time>2026-01-30T17:43:50.000Z</time></trkpt>
        <trkpt lat="28.238576" lon="105.637695"><ele>763.6367</ele><time>2026-01-30T17:43:56.000Z</time></trkpt>
        <trkpt lat="28.238545" lon="105.637718"><ele>765.296</ele><time>2026-01-30T17:43:59.000Z</time></trkpt>
        <trkpt lat="28.238503" lon="105.637727"><ele>766.89545</ele><time>2026-01-30T17:44:02.000Z</time></trkpt>
        <trkpt lat="28.23845" lon="105.637745"><ele>769.7124</ele><time>2026-01-30T17:44:06.000Z</time></trkpt>
        <trkpt lat="28.238404" lon="105.637761"><ele>770.87213</ele><time>2026-01-30T17:44:09.000Z</time></trkpt>
        <trkpt lat="28.238348" lon="105.637782"><ele>774.066</ele><time>2026-01-30T17:44:13.000Z</time></trkpt>
        <trkpt lat="28.23832" lon="105.637752"><ele>774.82153</ele><time>2026-01-30T17:44:16.000Z</time></trkpt>
        <trkpt lat="28.238265" lon="105.637712"><ele>775.7953</ele><time>2026-01-30T17:44:21.000Z</time></trkpt>
        <trkpt lat="28.238246" lon="105.637671"><ele>776.08295</ele><time>2026-01-30T17:44:23.000Z</time></trkpt>
        <trkpt lat="28.238217" lon="105.637607"><ele>776.45984</ele><time>2026-01-30T17:44:27.000Z</time></trkpt>
        <trkpt lat="28.238176" lon="105.63756"><ele>778.90985</ele><time>2026-01-30T17:44:32.000Z</time></trkpt>
        <trkpt lat="28.23814" lon="105.637526"><ele>781.5329</ele><time>2026-01-30T17:44:36.000Z</time></trkpt>
        <trkpt lat="28.238083" lon="105.637519"><ele>783.19476</ele><time>2026-01-30T17:44:41.000Z</time></trkpt>
        <trkpt lat="28.238029" lon="105.637525"><ele>784.0058</ele><time>2026-01-30T17:44:46.000Z</time></trkpt>
        <trkpt lat="28.237981" lon="105.637529"><ele>785.6229</ele><time>2026-01-30T17:44:50.000Z</time></trkpt>
        <trkpt lat="28.237935" lon="105.637538"><ele>786.56885</ele><time>2026-01-30T17:44:54.000Z</time></trkpt>
        <trkpt lat="28.237877" lon="105.637535"><ele>785.99133</ele><time>2026-01-30T17:45:00.000Z</time></trkpt>
        <trkpt lat="28.237835" lon="105.637538"><ele>785.7177</ele><time>2026-01-30T17:45:04.000Z</time></trkpt>
        <trkpt lat="28.237789" lon="105.637529"><ele>786.14716</ele><time>2026-01-30T17:45:08.000Z</time></trkpt>
        <trkpt lat="28.237726" lon="105.637506"><ele>786.81586</ele><time>2026-01-30T17:45:14.000Z</time></trkpt>
        <trkpt lat="28.237681" lon="105.637482"><ele>787.80817</ele><time>2026-01-30T17:45:19.000Z</time></trkpt>
        <trkpt lat="28.237639" lon="105.637463"><ele>789.3405</ele><time>2026-01-30T17:45:23.000Z</time></trkpt>
        <trkpt lat="28.2376" lon="105.637425"><ele>791.2879</ele><time>2026-01-30T17:45:28.000Z</time></trkpt>
        <trkpt lat="28.237555" lon="105.6374"><ele>792.4703</ele><time>2026-01-30T17:45:33.000Z</time></trkpt>
        <trkpt lat="28.237512" lon="105.637383"><ele>795.12537</ele><time>2026-01-30T17:45:37.000Z</time></trkpt>
        <trkpt lat="28.237458" lon="105.637369"><ele>797.43945</ele><time>2026-01-30T17:45:42.000Z</time></trkpt>
        <trkpt lat="28.237416" lon="105.637377"><ele>798.8226</ele><time>2026-01-30T17:45:45.000Z</time></trkpt>
        <trkpt lat="28.237359" lon="105.637368"><ele>799.0128</ele><time>2026-01-30T17:45:50.000Z</time></trkpt>
        <trkpt lat="28.237307" lon="105.637349"><ele>799.91296</ele><time>2026-01-30T17:45:55.000Z</time></trkpt>
        <trkpt lat="28.23726" lon="105.63734"><ele>798.6925</ele><time>2026-01-30T17:45:59.000Z</time></trkpt>
        <trkpt lat="28.237207" lon="105.637347"><ele>799.3178</ele><time>2026-01-30T17:46:03.000Z</time></trkpt>
        <trkpt lat="28.237153" lon="105.637351"><ele>799.6478</ele><time>2026-01-30T17:46:07.000Z</time></trkpt>
        <trkpt lat="28.2371" lon="105.637339"><ele>800.229</ele><time>2026-01-30T17:46:12.000Z</time></trkpt>
        <trkpt lat="28.237055" lon="105.637345"><ele>801.3232</ele><time>2026-01-30T17:46:16.000Z</time></trkpt>
        <trkpt lat="28.237013" lon="105.637367"><ele>803.20905</ele><time>2026-01-30T17:46:20.000Z</time></trkpt>
        <trkpt lat="28.236969" lon="105.637393"><ele>804.578</ele><time>2026-01-30T17:46:24.000Z</time></trkpt>
        <trkpt lat="28.236915" lon="105.637416"><ele>805.81775</ele><time>2026-01-30T17:46:30.000Z</time></trkpt>
        <trkpt lat="28.236863" lon="105.637422"><ele>806.7677</ele><time>2026-01-30T17:46:37.000Z</time></trkpt>
        <trkpt lat="28.236823" lon="105.637402"><ele>807.6678</ele><time>2026-01-30T17:46:41.000Z</time></trkpt>
        <trkpt lat="28.236771" lon="105.637381"><ele>808.4288</ele><time>2026-01-30T17:46:47.000Z</time></trkpt>
        <trkpt lat="28.23672" lon="105.637363"><ele>808.9835</ele><time>2026-01-30T17:46:52.000Z</time></trkpt>
        <trkpt lat="28.236674" lon="105.637347"><ele>809.4094</ele><time>2026-01-30T17:46:57.000Z</time></trkpt>
        <trkpt lat="28.236626" lon="105.637352"><ele>810.0432</ele><time>2026-01-30T17:47:01.000Z</time></trkpt>
        <trkpt lat="28.236574" lon="105.63736"><ele>810.46545</ele><time>2026-01-30T17:47:05.000Z</time></trkpt>
        <trkpt lat="28.236519" lon="105.637367"><ele>811.32245</ele><time>2026-01-30T17:47:11.000Z</time></trkpt>
        <trkpt lat="28.236478" lon="105.63736"><ele>810.61206</ele><time>2026-01-30T17:47:15.000Z</time></trkpt>
        <trkpt lat="28.236426" lon="105.637363"><ele>810.71045</ele><time>2026-01-30T17:47:20.000Z</time></trkpt>
        <trkpt lat="28.236376" lon="105.63736"><ele>811.0291</ele><time>2026-01-30T17:47:25.000Z</time></trkpt>
        <trkpt lat="28.236329" lon="105.637357"><ele>810.89935</ele><time>2026-01-30T17:47:30.000Z</time></trkpt>
        <trkpt lat="28.23628" lon="105.637351"><ele>811.05585</ele><time>2026-01-30T17:47:34.000Z</time></trkpt>
        <trkpt lat="28.236228" lon="105.637331"><ele>811.65234</ele><time>2026-01-30T17:47:38.000Z</time></trkpt>
        <trkpt lat="28.236169" lon="105.637312"><ele>811.54144</ele><time>2026-01-30T17:47:44.000Z</time></trkpt>
        <trkpt lat="28.236123" lon="105.637286"><ele>810.0103</ele><time>2026-01-30T17:47:49.000Z</time></trkpt>
        <trkpt lat="28.236077" lon="105.637261"><ele>808.93915</ele><time>2026-01-30T17:47:54.000Z</time></trkpt>
        <trkpt lat="28.236029" lon="105.637233"><ele>806.9522</ele><time>2026-01-30T17:48:00.000Z</time></trkpt>
        <trkpt lat="28.235988" lon="105.63721"><ele>805.7969</ele><time>2026-01-30T17:48:04.000Z</time></trkpt>
        <trkpt lat="28.235946" lon="105.637183"><ele>804.07245</ele><time>2026-01-30T17:48:08.000Z</time></trkpt>
        <trkpt lat="28.235896" lon="105.637156"><ele>802.03784</ele><time>2026-01-30T17:48:12.000Z</time></trkpt>
        <trkpt lat="28.235841" lon="105.637123"><ele>799.231</ele><time>2026-01-30T17:48:17.000Z</time></trkpt>
        <trkpt lat="28.235793" lon="105.637105"><ele>797.23883</ele><time>2026-01-30T17:48:21.000Z</time></trkpt>
        <trkpt lat="28.235739" lon="105.63708"><ele>794.69464</ele><time>2026-01-30T17:48:26.000Z</time></trkpt>
        <trkpt lat="28.23571" lon="105.637043"><ele>792.10944</ele><time>2026-01-30T17:48:29.000Z</time></trkpt>
        <trkpt lat="28.235686" lon="105.636995"><ele>789.2618</ele><time>2026-01-30T17:48:32.000Z</time></trkpt>
        <trkpt lat="28.23567" lon="105.636951"><ele>787.0818</ele><time>2026-01-30T17:48:34.000Z</time></trkpt>
        <trkpt lat="28.235642" lon="105.636878"><ele>781.9294</ele><time>2026-01-30T17:48:38.000Z</time></trkpt>
        <trkpt lat="28.235627" lon="105.636832"><ele>779.1106</ele><time>2026-01-30T17:48:40.000Z</time></trkpt>
        <trkpt lat="28.235584" lon="105.636789"><ele>771.3416</ele><time>2026-01-30T17:48:44.000Z</time></trkpt>
        <trkpt lat="28.235547" lon="105.636755"><ele>763.5772</ele><time>2026-01-30T17:48:48.000Z</time></trkpt>
        <trkpt lat="28.235514" lon="105.636713"><ele>753.5908</ele><time>2026-01-30T17:48:53.000Z</time></trkpt>
        <trkpt lat="28.235472" lon="105.636702"><ele>743.27277</ele><time>2026-01-30T17:48:58.000Z</time></trkpt>
        <trkpt lat="28.235421" lon="105.636706"><ele>737.35345</ele><time>2026-01-30T17:49:03.000Z</time></trkpt>
        <trkpt lat="28.235379" lon="105.636725"><ele>734.7582</ele><time>2026-01-30T17:49:07.000Z</time></trkpt>
        <trkpt lat="28.235338" lon="105.636758"><ele>734.01294</ele><time>2026-01-30T17:49:11.000Z</time></trkpt>
        <trkpt lat="28.235291" lon="105.63679"><ele>732.1421</ele><time>2026-01-30T17:49:16.000Z</time></trkpt>
        <trkpt lat="28.235249" lon="105.636813"><ele>730.8557</ele><time>2026-01-30T17:49:20.000Z</time></trkpt>
        <trkpt lat="28.235198" lon="105.636838"><ele>730.0382</ele><time>2026-01-30T17:49:25.000Z</time></trkpt>
        <trkpt lat="28.235147" lon="105.636846"><ele>727.5389</ele><time>2026-01-30T17:49:32.000Z</time></trkpt>
        <trkpt lat="28.235104" lon="105.636875"><ele>726.1595</ele><time>2026-01-30T17:49:38.000Z</time></trkpt>
        <trkpt lat="28.235057" lon="105.636899"><ele>725.6839</ele><time>2026-01-30T17:49:44.000Z</time></trkpt>
        <trkpt lat="28.23502" lon="105.636922"><ele>725.3498</ele><time>2026-01-30T17:49:48.000Z</time></trkpt>
        <trkpt lat="28.234974" lon="105.636952"><ele>726.1911</ele><time>2026-01-30T17:49:53.000Z</time></trkpt>
        <trkpt lat="28.23494" lon="105.636987"><ele>727.7817</ele><time>2026-01-30T17:49:57.000Z</time></trkpt>
        <trkpt lat="28.234905" lon="105.637025"><ele>729.5422</ele><time>2026-01-30T17:50:01.000Z</time></trkpt>
        <trkpt lat="28.234859" lon="105.637049"><ele>731.62695</ele><time>2026-01-30T17:50:06.000Z</time></trkpt>
        <trkpt lat="28.234813" lon="105.63708"><ele>733.5017</ele><time>2026-01-30T17:50:11.000Z</time></trkpt>
        <trkpt lat="28.234767" lon="105.637107"><ele>735.96326</ele><time>2026-01-30T17:50:16.000Z</time></trkpt>
        <trkpt lat="28.234722" lon="105.637134"><ele>738.1105</ele><time>2026-01-30T17:50:21.000Z</time></trkpt>
        <trkpt lat="28.234674" lon="105.637165"><ele>739.7473</ele><time>2026-01-30T17:50:26.000Z</time></trkpt>
        <trkpt lat="28.234633" lon="105.6372"><ele>740.72687</ele><time>2026-01-30T17:50:31.000Z</time></trkpt>
        <trkpt lat="28.234608" lon="105.63724"><ele>742.18207</ele><time>2026-01-30T17:50:35.000Z</time></trkpt>
        <trkpt lat="28.234568" lon="105.637279"><ele>743.5091</ele><time>2026-01-30T17:50:41.000Z</time></trkpt>
        <trkpt lat="28.234528" lon="105.637313"><ele>744.90625</ele><time>2026-01-30T17:50:47.000Z</time></trkpt>
        <trkpt lat="28.234491" lon="105.637342"><ele>746.4969</ele><time>2026-01-30T17:50:52.000Z</time></trkpt>
        <trkpt lat="28.234461" lon="105.637376"><ele>747.69226</ele><time>2026-01-30T17:50:56.000Z</time></trkpt>
        <trkpt lat="28.234417" lon="105.637418"><ele>748.59314</ele><time>2026-01-30T17:51:01.000Z</time></trkpt>
        <trkpt lat="28.234374" lon="105.637455"><ele>748.8958</ele><time>2026-01-30T17:51:06.000Z</time></trkpt>
        <trkpt lat="28.234337" lon="105.637503"><ele>749.76544</ele><time>2026-01-30T17:51:11.000Z</time></trkpt>
        <trkpt lat="28.234295" lon="105.637542"><ele>750.55383</ele><time>2026-01-30T17:51:16.000Z</time></trkpt>
        <trkpt lat="28.234258" lon="105.63757"><ele>751.29956</ele><time>2026-01-30T17:51:20.000Z</time></trkpt>
        <trkpt lat="28.234217" lon="105.637594"><ele>752.33307</ele><time>2026-01-30T17:51:24.000Z</time></trkpt>
        <trkpt lat="28.234169" lon="105.637622"><ele>753.80176</ele><time>2026-01-30T17:51:29.000Z</time></trkpt>
        <trkpt lat="28.23413" lon="105.637647"><ele>755.76465</ele><time>2026-01-30T17:51:33.000Z</time></trkpt>
        <trkpt lat="28.234091" lon="105.637681"><ele>756.9811</ele><time>2026-01-30T17:51:37.000Z</time></trkpt>
        <trkpt lat="28.234053" lon="105.637715"><ele>757.9807</ele><time>2026-01-30T17:51:41.000Z</time></trkpt>
        <trkpt lat="28.234012" lon="105.637744"><ele>758.55914</ele><time>2026-01-30T17:51:45.000Z</time></trkpt>
        <trkpt lat="28.233971" lon="105.63777"><ele>758.9174</ele><time>2026-01-30T17:51:49.000Z</time></trkpt>
        <trkpt lat="28.233923" lon="105.637797"><ele>759.17456</ele><time>2026-01-30T17:51:54.000Z</time></trkpt>
        <trkpt lat="28.23388" lon="105.637826"><ele>759.21277</ele><time>2026-01-30T17:51:59.000Z</time></trkpt>
        <trkpt lat="28.233831" lon="105.637848"><ele>759.68787</ele><time>2026-01-30T17:52:04.000Z</time></trkpt>
        <trkpt lat="28.233784" lon="105.637872"><ele>759.82623</ele><time>2026-01-30T17:52:09.000Z</time></trkpt>
        <trkpt lat="28.233744" lon="105.637891"><ele>760.7047</ele><time>2026-01-30T17:52:13.000Z</time></trkpt>
        <trkpt lat="28.233698" lon="105.637908"><ele>761.8137</ele><time>2026-01-30T17:52:17.000Z</time></trkpt>
        <trkpt lat="28.233649" lon="105.63794"><ele>762.44604</ele><time>2026-01-30T17:52:23.000Z</time></trkpt>
        <trkpt lat="28.233607" lon="105.637963"><ele>762.72003</ele><time>2026-01-30T17:52:28.000Z</time></trkpt>
        <trkpt lat="28.23356" lon="105.637991"><ele>763.09705</ele><time>2026-01-30T17:52:37.000Z</time></trkpt>
        <trkpt lat="28.233527" lon="105.638011"><ele>764.11255</ele><time>2026-01-30T17:52:41.000Z</time></trkpt>
        <trkpt lat="28.233489" lon="105.638039"><ele>764.5441</ele><time>2026-01-30T17:52:45.000Z</time></trkpt>
        <trkpt lat="28.233442" lon="105.638055"><ele>766.2077</ele><time>2026-01-30T17:52:50.000Z</time></trkpt>
        <trkpt lat="28.233396" lon="105.638068"><ele>767.4362</ele><time>2026-01-30T17:52:55.000Z</time></trkpt>
        <trkpt lat="28.233348" lon="105.638095"><ele>769.3199</ele><time>2026-01-30T17:53:01.000Z</time></trkpt>
        <trkpt lat="28.233313" lon="105.638123"><ele>771.74243</ele><time>2026-01-30T17:53:05.000Z</time></trkpt>
        <trkpt lat="28.233269" lon="105.638157"><ele>775.42285</ele><time>2026-01-30T17:53:10.000Z</time></trkpt>
        <trkpt lat="28.233229" lon="105.638194"><ele>778.8699</ele><time>2026-01-30T17:53:14.000Z</time></trkpt>
        <trkpt lat="28.233189" lon="105.638239"><ele>782.0862</ele><time>2026-01-30T17:53:18.000Z</time></trkpt>
        <trkpt lat="28.233151" lon="105.638285"><ele>785.1965</ele><time>2026-01-30T17:53:22.000Z</time></trkpt>
        <trkpt lat="28.233105" lon="105.638327"><ele>787.8697</ele><time>2026-01-30T17:53:27.000Z</time></trkpt>
        <trkpt lat="28.233057" lon="105.638353"><ele>788.2845</ele><time>2026-01-30T17:53:33.000Z</time></trkpt>
        <trkpt lat="28.23302" lon="105.638378"><ele>789.6168</ele><time>2026-01-30T17:53:38.000Z</time></trkpt>
        <trkpt lat="28.232984" lon="105.638417"><ele>789.8245</ele><time>2026-01-30T17:53:50.000Z</time></trkpt>
        <trkpt lat="28.232956" lon="105.638441"><ele>788.53735</ele><time>2026-01-30T17:53:55.000Z</time></trkpt>
        <trkpt lat="28.232903" lon="105.638449"><ele>789.032</ele><time>2026-01-30T17:54:01.000Z</time></trkpt>
        <trkpt lat="28.232863" lon="105.638485"><ele>790.52704</ele><time>2026-01-30T17:54:05.000Z</time></trkpt>
        <trkpt lat="28.232823" lon="105.638518"><ele>792.8572</ele><time>2026-01-30T17:54:09.000Z</time></trkpt>
        <trkpt lat="28.232783" lon="105.638552"><ele>794.26807</ele><time>2026-01-30T17:54:13.000Z</time></trkpt>
        <trkpt lat="28.232747" lon="105.63859"><ele>795.6197</ele><time>2026-01-30T17:54:17.000Z</time></trkpt>
        <trkpt lat="28.232706" lon="105.638623"><ele>796.09595</ele><time>2026-01-30T17:54:21.000Z</time></trkpt>
        <trkpt lat="28.23265" lon="105.638649"><ele>797.248</ele><time>2026-01-30T17:54:27.000Z</time></trkpt>
        <trkpt lat="28.232588" lon="105.638648"><ele>798.122</ele><time>2026-01-30T17:54:32.000Z</time></trkpt>
        <trkpt lat="28.232529" lon="105.638651"><ele>798.17993</ele><time>2026-01-30T17:54:38.000Z</time></trkpt>
        <trkpt lat="28.232483" lon="105.638666"><ele>796.78217</ele><time>2026-01-30T17:54:43.000Z</time></trkpt>
        <trkpt lat="28.232438" lon="105.63866"><ele>795.4947</ele><time>2026-01-30T17:54:48.000Z</time></trkpt>
        <trkpt lat="28.232387" lon="105.638674"><ele>793.44995</ele><time>2026-01-30T17:54:54.000Z</time></trkpt>
        <trkpt lat="28.23234" lon="105.638696"><ele>793.169</ele><time>2026-01-30T17:54:59.000Z</time></trkpt>
        <trkpt lat="28.232295" lon="105.638731"><ele>793.5287</ele><time>2026-01-30T17:55:09.000Z</time></trkpt>
        <trkpt lat="28.232258" lon="105.638753"><ele>793.7202</ele><time>2026-01-30T17:55:14.000Z</time></trkpt>
        <trkpt lat="28.232212" lon="105.638774"><ele>793.9496</ele><time>2026-01-30T17:55:19.000Z</time></trkpt>
        <trkpt lat="28.232165" lon="105.63881"><ele>794.60846</ele><time>2026-01-30T17:55:24.000Z</time></trkpt>
        <trkpt lat="28.232115" lon="105.638843"><ele>795.95966</ele><time>2026-01-30T17:55:29.000Z</time></trkpt>
        <trkpt lat="28.232064" lon="105.638879"><ele>794.8881</ele><time>2026-01-30T17:55:35.000Z</time></trkpt>
        <trkpt lat="28.23202" lon="105.638903"><ele>790.3225</ele><time>2026-01-30T17:55:40.000Z</time></trkpt>
        <trkpt lat="28.231979" lon="105.638879"><ele>781.2145</ele><time>2026-01-30T17:55:48.000Z</time></trkpt>
        <trkpt lat="28.231936" lon="105.638863"><ele>783.1842</ele><time>2026-01-30T17:55:56.000Z</time></trkpt>
        <trkpt lat="28.231887" lon="105.638863"><ele>793.96155</ele><time>2026-01-30T17:56:12.000Z</time></trkpt>
        <trkpt lat="28.23185" lon="105.638883"><ele>795.2857</ele><time>2026-01-30T17:56:16.000Z</time></trkpt>
        <trkpt lat="28.231813" lon="105.638866"><ele>796.9695</ele><time>2026-01-30T17:56:19.000Z</time></trkpt>
        <trkpt lat="28.231767" lon="105.638834"><ele>798.6636</ele><time>2026-01-30T17:56:23.000Z</time></trkpt>
        <trkpt lat="28.23171" lon="105.638826"><ele>800.7753</ele><time>2026-01-30T17:56:29.000Z</time></trkpt>
        <trkpt lat="28.231671" lon="105.63885"><ele>802.39624</ele><time>2026-01-30T17:56:33.000Z</time></trkpt>
        <trkpt lat="28.231614" lon="105.638867"><ele>813.6958</ele><time>2026-01-30T17:57:08.000Z</time></trkpt>
        <trkpt lat="28.231583" lon="105.638816"><ele>821.9849</ele><time>2026-01-30T17:57:32.000Z</time></trkpt>
        <trkpt lat="28.231545" lon="105.63885"><ele>823.29407</ele><time>2026-01-30T17:57:41.000Z</time></trkpt>
        <trkpt lat="28.231521" lon="105.638897"><ele>822.88916</ele><time>2026-01-30T17:57:47.000Z</time></trkpt>
        <trkpt lat="28.231485" lon="105.638936"><ele>822.98926</ele><time>2026-01-30T17:57:52.000Z</time></trkpt>
        <trkpt lat="28.231445" lon="105.638958"><ele>822.9232</ele><time>2026-01-30T17:57:56.000Z</time></trkpt>
        <trkpt lat="28.231399" lon="105.638981"><ele>822.3561</ele><time>2026-01-30T17:58:00.000Z</time></trkpt>
        <trkpt lat="28.231357" lon="105.638992"><ele>822.21655</ele><time>2026-01-30T17:58:03.000Z</time></trkpt>
        <trkpt lat="28.231304" lon="105.639008"><ele>823.0705</ele><time>2026-01-30T17:58:07.000Z</time></trkpt>
        <trkpt lat="28.231267" lon="105.638978"><ele>822.6827</ele><time>2026-01-30T17:58:11.000Z</time></trkpt>
        <trkpt lat="28.231232" lon="105.638982"><ele>822.45575</ele><time>2026-01-30T17:58:15.000Z</time></trkpt>
        <trkpt lat="28.231192" lon="105.63902"><ele>821.2358</ele><time>2026-01-30T17:58:20.000Z</time></trkpt>
        <trkpt lat="28.231148" lon="105.639056"><ele>820.68256</ele><time>2026-01-30T17:58:24.000Z</time></trkpt>
        <trkpt lat="28.231093" lon="105.639051"><ele>821.1191</ele><time>2026-01-30T17:58:28.000Z</time></trkpt>
        <trkpt lat="28.231034" lon="105.63904"><ele>820.2452</ele><time>2026-01-30T17:58:34.000Z</time></trkpt>
        <trkpt lat="28.230987" lon="105.639059"><ele>820.39453</ele><time>2026-01-30T17:58:39.000Z</time></trkpt>
        <trkpt lat="28.230941" lon="105.639077"><ele>820.30444</ele><time>2026-01-30T17:58:44.000Z</time></trkpt>
        <trkpt lat="28.230895" lon="105.639091"><ele>820.014</ele><time>2026-01-30T17:58:48.000Z</time></trkpt>
        <trkpt lat="28.230838" lon="105.639082"><ele>819.07764</ele><time>2026-01-30T17:58:53.000Z</time></trkpt>
        <trkpt lat="28.230817" lon="105.639046"><ele>818.3864</ele><time>2026-01-30T17:58:55.000Z</time></trkpt>
        <trkpt lat="28.230771" lon="105.639045"><ele>817.06683</ele><time>2026-01-30T17:59:00.000Z</time></trkpt>
        <trkpt lat="28.23073" lon="105.639067"><ele>817.00183</ele><time>2026-01-30T17:59:05.000Z</time></trkpt>
        <trkpt lat="28.230687" lon="105.639066"><ele>817.13403</ele><time>2026-01-30T17:59:10.000Z</time></trkpt>
        <trkpt lat="28.230651" lon="105.639093"><ele>816.3978</ele><time>2026-01-30T17:59:13.000Z</time></trkpt>
        <trkpt lat="28.230594" lon="105.639136"><ele>816.6754</ele><time>2026-01-30T17:59:18.000Z</time></trkpt>
        <trkpt lat="28.230556" lon="105.639181"><ele>817.5465</ele><time>2026-01-30T17:59:21.000Z</time></trkpt>
        <trkpt lat="28.230514" lon="105.639208"><ele>817.1069</ele><time>2026-01-30T17:59:24.000Z</time></trkpt>
        <trkpt lat="28.230479" lon="105.639242"><ele>817.39954</ele><time>2026-01-30T17:59:27.000Z</time></trkpt>
        <trkpt lat="28.230437" lon="105.639282"><ele>818.2765</ele><time>2026-01-30T17:59:31.000Z</time></trkpt>
        <trkpt lat="28.23039" lon="105.639314"><ele>819.5574</ele><time>2026-01-30T17:59:36.000Z</time></trkpt>
        <trkpt lat="28.230342" lon="105.639335"><ele>819.93353</ele><time>2026-01-30T17:59:40.000Z</time></trkpt>
        <trkpt lat="28.230289" lon="105.639357"><ele>820.5427</ele><time>2026-01-30T17:59:45.000Z</time></trkpt>
        <trkpt lat="28.230241" lon="105.639345"><ele>820.5296</ele><time>2026-01-30T17:59:50.000Z</time></trkpt>
        <trkpt lat="28.230205" lon="105.639363"><ele>820.3058</ele><time>2026-01-30T17:59:54.000Z</time></trkpt>
        <trkpt lat="28.230165" lon="105.639396"><ele>820.1533</ele><time>2026-01-30T17:59:58.000Z</time></trkpt>
        <trkpt lat="28.230115" lon="105.639386"><ele>819.31213</ele><time>2026-01-30T18:00:03.000Z</time></trkpt>
        <trkpt lat="28.230076" lon="105.639405"><ele>816.28174</ele><time>2026-01-30T18:00:09.000Z</time></trkpt>
        <trkpt lat="28.230038" lon="105.639438"><ele>813.8136</ele><time>2026-01-30T18:00:15.000Z</time></trkpt>
        <trkpt lat="28.229991" lon="105.639453"><ele>810.143</ele><time>2026-01-30T18:00:22.000Z</time></trkpt>
        <trkpt lat="28.229953" lon="105.639483"><ele>809.3882</ele><time>2026-01-30T18:00:28.000Z</time></trkpt>
        <trkpt lat="28.229909" lon="105.639516"><ele>808.0862</ele><time>2026-01-30T18:00:33.000Z</time></trkpt>
        <trkpt lat="28.229868" lon="105.639559"><ele>808.603</ele><time>2026-01-30T18:00:37.000Z</time></trkpt>
        <trkpt lat="28.229824" lon="105.639597"><ele>807.08405</ele><time>2026-01-30T18:00:41.000Z</time></trkpt>
        <trkpt lat="28.229776" lon="105.639642"><ele>807.7199</ele><time>2026-01-30T18:00:47.000Z</time></trkpt>
        <trkpt lat="28.229734" lon="105.63965"><ele>809.9222</ele><time>2026-01-30T18:00:51.000Z</time></trkpt>
        <trkpt lat="28.229683" lon="105.639666"><ele>810.3967</ele><time>2026-01-30T18:00:58.000Z</time></trkpt>
        <trkpt lat="28.229653" lon="105.639685"><ele>810.6923</ele><time>2026-01-30T18:01:01.000Z</time></trkpt>
        <trkpt lat="28.229631" lon="105.639734"><ele>810.50244</ele><time>2026-01-30T18:01:07.000Z</time></trkpt>
        <trkpt lat="28.229606" lon="105.639765"><ele>810.3977</ele><time>2026-01-30T18:01:10.000Z</time></trkpt>
        <trkpt lat="28.229566" lon="105.639795"><ele>808.9385</ele><time>2026-01-30T18:01:14.000Z</time></trkpt>
        <trkpt lat="28.229507" lon="105.639809"><ele>803.1035</ele><time>2026-01-30T18:01:26.000Z</time></trkpt>
        <trkpt lat="28.229475" lon="105.639844"><ele>798.93695</ele><time>2026-01-30T18:01:37.000Z</time></trkpt>
        <trkpt lat="28.229442" lon="105.639869"><ele>798.4321</ele><time>2026-01-30T18:01:41.000Z</time></trkpt>
        <trkpt lat="28.229402" lon="105.639892"><ele>799.2536</ele><time>2026-01-30T18:01:45.000Z</time></trkpt>
        <trkpt lat="28.229346" lon="105.639906"><ele>798.37115</ele><time>2026-01-30T18:01:50.000Z</time></trkpt>
        <trkpt lat="28.229297" lon="105.639902"><ele>797.19196</ele><time>2026-01-30T18:01:54.000Z</time></trkpt>
        <trkpt lat="28.229247" lon="105.639912"><ele>795.31494</ele><time>2026-01-30T18:01:59.000Z</time></trkpt>
        <trkpt lat="28.229201" lon="105.639906"><ele>795.0852</ele><time>2026-01-30T18:02:03.000Z</time></trkpt>
        <trkpt lat="28.229152" lon="105.639901"><ele>795.91113</ele><time>2026-01-30T18:02:07.000Z</time></trkpt>
        <trkpt lat="28.229095" lon="105.639889"><ele>797.0713</ele><time>2026-01-30T18:02:12.000Z</time></trkpt>
        <trkpt lat="28.229039" lon="105.639888"><ele>799.7332</ele><time>2026-01-30T18:02:17.000Z</time></trkpt>
        <trkpt lat="28.228995" lon="105.639879"><ele>801.84937</ele><time>2026-01-30T18:02:21.000Z</time></trkpt>
        <trkpt lat="28.228948" lon="105.639878"><ele>804.0668</ele><time>2026-01-30T18:02:25.000Z</time></trkpt>
        <trkpt lat="28.228894" lon="105.639891"><ele>807.11694</ele><time>2026-01-30T18:02:30.000Z</time></trkpt>
        <trkpt lat="28.228855" lon="105.639901"><ele>808.2834</ele><time>2026-01-30T18:02:33.000Z</time></trkpt>
        <trkpt lat="28.228795" lon="105.639911"><ele>804.38837</ele><time>2026-01-30T18:02:39.000Z</time></trkpt>
        <trkpt lat="28.228752" lon="105.639921"><ele>803.72107</ele><time>2026-01-30T18:02:43.000Z</time></trkpt>
        <trkpt lat="28.228708" lon="105.639928"><ele>803.74945</ele><time>2026-01-30T18:02:47.000Z</time></trkpt>
        <trkpt lat="28.228653" lon="105.63994"><ele>800.3001</ele><time>2026-01-30T18:02:53.000Z</time></trkpt>
        <trkpt lat="28.228616" lon="105.639962"><ele>797.3368</ele><time>2026-01-30T18:02:57.000Z</time></trkpt>
        <trkpt lat="28.228572" lon="105.639988"><ele>792.8813</ele><time>2026-01-30T18:03:02.000Z</time></trkpt>
        <trkpt lat="28.228523" lon="105.640002"><ele>787.92865</ele><time>2026-01-30T18:03:07.000Z</time></trkpt>
        <trkpt lat="28.228476" lon="105.640023"><ele>784.0843</ele><time>2026-01-30T18:03:12.000Z</time></trkpt>
        <trkpt lat="28.228424" lon="105.640033"><ele>781.4148</ele><time>2026-01-30T18:03:17.000Z</time></trkpt>
        <trkpt lat="28.228374" lon="105.64004"><ele>780.26215</ele><time>2026-01-30T18:03:22.000Z</time></trkpt>
        <trkpt lat="28.228327" lon="105.640032"><ele>780.3603</ele><time>2026-01-30T18:03:27.000Z</time></trkpt>
        <trkpt lat="28.228282" lon="105.640021"><ele>779.8666</ele><time>2026-01-30T18:03:31.000Z</time></trkpt>
        <trkpt lat="28.228232" lon="105.640025"><ele>779.2996</ele><time>2026-01-30T18:03:36.000Z</time></trkpt>
        <trkpt lat="28.228182" lon="105.640034"><ele>778.8696</ele><time>2026-01-30T18:03:41.000Z</time></trkpt>
        <trkpt lat="28.228143" lon="105.640007"><ele>778.90247</ele><time>2026-01-30T18:03:45.000Z</time></trkpt>
        <trkpt lat="28.2281" lon="105.640007"><ele>778.7386</ele><time>2026-01-30T18:03:50.000Z</time></trkpt>
        <trkpt lat="28.22805" lon="105.640018"><ele>778.1735</ele><time>2026-01-30T18:03:58.000Z</time></trkpt>
        <trkpt lat="28.228001" lon="105.640015"><ele>777.7101</ele><time>2026-01-30T18:04:06.000Z</time></trkpt>
        <trkpt lat="28.227952" lon="105.640002"><ele>778.19476</ele><time>2026-01-30T18:04:12.000Z</time></trkpt>
        <trkpt lat="28.227902" lon="105.639994"><ele>778.1749</ele><time>2026-01-30T18:04:18.000Z</time></trkpt>
        <trkpt lat="28.227853" lon="105.639992"><ele>778.5713</ele><time>2026-01-30T18:04:23.000Z</time></trkpt>
        <trkpt lat="28.227805" lon="105.640002"><ele>779.4709</ele><time>2026-01-30T18:04:28.000Z</time></trkpt>
        <trkpt lat="28.227757" lon="105.640003"><ele>780.34894</ele><time>2026-01-30T18:04:33.000Z</time></trkpt>
        <trkpt lat="28.227704" lon="105.639995"><ele>781.9077</ele><time>2026-01-30T18:04:38.000Z</time></trkpt>
        <trkpt lat="28.227651" lon="105.639994"><ele>782.76575</ele><time>2026-01-30T18:04:44.000Z</time></trkpt>
        <trkpt lat="28.227599" lon="105.639988"><ele>784.1779</ele><time>2026-01-30T18:04:49.000Z</time></trkpt>
        <trkpt lat="28.22755" lon="105.639986"><ele>785.1898</ele><time>2026-01-30T18:04:54.000Z</time></trkpt>
        <trkpt lat="28.2275" lon="105.639989"><ele>785.78265</ele><time>2026-01-30T18:04:59.000Z</time></trkpt>
        <trkpt lat="28.227453" lon="105.639987"><ele>786.1141</ele><time>2026-01-30T18:05:04.000Z</time></trkpt>
        <trkpt lat="28.227409" lon="105.639998"><ele>787.07587</ele><time>2026-01-30T18:05:08.000Z</time></trkpt>
        <trkpt lat="28.227359" lon="105.640012"><ele>788.63745</ele><time>2026-01-30T18:05:13.000Z</time></trkpt>
        <trkpt lat="28.227308" lon="105.640021"><ele>789.22437</ele><time>2026-01-30T18:05:18.000Z</time></trkpt>
        <trkpt lat="28.227257" lon="105.640028"><ele>789.846</ele><time>2026-01-30T18:05:23.000Z</time></trkpt>
        <trkpt lat="28.227202" lon="105.640033"><ele>794.7343</ele><time>2026-01-30T18:05:28.000Z</time></trkpt>
        <trkpt lat="28.227155" lon="105.640037"><ele>801.93005</ele><time>2026-01-30T18:05:32.000Z</time></trkpt>
        <trkpt lat="28.227107" lon="105.640037"><ele>809.10376</ele><time>2026-01-30T18:05:36.000Z</time></trkpt>
        <trkpt lat="28.227058" lon="105.64005"><ele>814.44165</ele><time>2026-01-30T18:05:40.000Z</time></trkpt>
        <trkpt lat="28.227008" lon="105.640065"><ele>817.77</ele><time>2026-01-30T18:05:44.000Z</time></trkpt>
        <trkpt lat="28.226963" lon="105.640085"><ele>820.1004</ele><time>2026-01-30T18:05:48.000Z</time></trkpt>
        <trkpt lat="28.226915" lon="105.640107"><ele>821.97217</ele><time>2026-01-30T18:05:53.000Z</time></trkpt>
        <trkpt lat="28.22687" lon="105.640123"><ele>823.3386</ele><time>2026-01-30T18:05:58.000Z</time></trkpt>
        <trkpt lat="28.226826" lon="105.640128"><ele>824.03076</ele><time>2026-01-30T18:06:03.000Z</time></trkpt>
        <trkpt lat="28.226776" lon="105.640126"><ele>824.6123</ele><time>2026-01-30T18:06:09.000Z</time></trkpt>
        <trkpt lat="28.226731" lon="105.640111"><ele>824.38806</ele><time>2026-01-30T18:06:15.000Z</time></trkpt>
        <trkpt lat="28.226685" lon="105.640089"><ele>824.9925</ele><time>2026-01-30T18:06:20.000Z</time></trkpt>
        <trkpt lat="28.226637" lon="105.640059"><ele>826.104</ele><time>2026-01-30T18:06:25.000Z</time></trkpt>
        <trkpt lat="28.226589" lon="105.640042"><ele>827.23193</ele><time>2026-01-30T18:06:31.000Z</time></trkpt>
        <trkpt lat="28.226542" lon="105.640039"><ele>826.90674</ele><time>2026-01-30T18:06:36.000Z</time></trkpt>
        <trkpt lat="28.22649" lon="105.64004"><ele>827.5152</ele><time>2026-01-30T18:06:42.000Z</time></trkpt>
        <trkpt lat="28.226445" lon="105.640046"><ele>827.90906</ele><time>2026-01-30T18:06:47.000Z</time></trkpt>
        <trkpt lat="28.226403" lon="105.640067"><ele>828.94183</ele><time>2026-01-30T18:06:51.000Z</time></trkpt>
        <trkpt lat="28.226357" lon="105.640108"><ele>829.9683</ele><time>2026-01-30T18:06:56.000Z</time></trkpt>
        <trkpt lat="28.226309" lon="105.640144"><ele>831.1156</ele><time>2026-01-30T18:07:01.000Z</time></trkpt>
        <trkpt lat="28.226274" lon="105.640178"><ele>832.26953</ele><time>2026-01-30T18:07:04.000Z</time></trkpt>
        <trkpt lat="28.226243" lon="105.640221"><ele>833.8003</ele><time>2026-01-30T18:07:07.000Z</time></trkpt>
        <trkpt lat="28.226196" lon="105.640268"><ele>835.77234</ele><time>2026-01-30T18:07:12.000Z</time></trkpt>
        <trkpt lat="28.226146" lon="105.64029"><ele>836.66516</ele><time>2026-01-30T18:07:17.000Z</time></trkpt>
        <trkpt lat="28.2261" lon="105.640311"><ele>838.4514</ele><time>2026-01-30T18:07:23.000Z</time></trkpt>
        <trkpt lat="28.226059" lon="105.640326"><ele>840.205</ele><time>2026-01-30T18:07:27.000Z</time></trkpt>
        <trkpt lat="28.226008" lon="105.64033"><ele>842.00726</ele><time>2026-01-30T18:07:33.000Z</time></trkpt>
        <trkpt lat="28.225972" lon="105.640364"><ele>843.12085</ele><time>2026-01-30T18:07:39.000Z</time></trkpt>
        <trkpt lat="28.225926" lon="105.640361"><ele>841.07263</ele><time>2026-01-30T18:07:46.000Z</time></trkpt>
        <trkpt lat="28.22588" lon="105.640366"><ele>839.6432</ele><time>2026-01-30T18:07:51.000Z</time></trkpt>
        <trkpt lat="28.225828" lon="105.640371"><ele>839.4626</ele><time>2026-01-30T18:07:56.000Z</time></trkpt>
        <trkpt lat="28.225779" lon="105.640367"><ele>838.8854</ele><time>2026-01-30T18:08:01.000Z</time></trkpt>
        <trkpt lat="28.225729" lon="105.640373"><ele>836.2388</ele><time>2026-01-30T18:08:08.000Z</time></trkpt>
        <trkpt lat="28.225688" lon="105.640394"><ele>833.7183</ele><time>2026-01-30T18:08:13.000Z</time></trkpt>
        <trkpt lat="28.22564" lon="105.64043"><ele>832.14276</ele><time>2026-01-30T18:08:18.000Z</time></trkpt>
        <trkpt lat="28.225594" lon="105.640464"><ele>831.0232</ele><time>2026-01-30T18:08:23.000Z</time></trkpt>
        <trkpt lat="28.225547" lon="105.640496"><ele>831.80817</ele><time>2026-01-30T18:08:28.000Z</time></trkpt>
        <trkpt lat="28.225499" lon="105.640515"><ele>831.80194</ele><time>2026-01-30T18:08:33.000Z</time></trkpt>
        <trkpt lat="28.225452" lon="105.640523"><ele>831.7521</ele><time>2026-01-30T18:08:38.000Z</time></trkpt>
        <trkpt lat="28.225405" lon="105.640538"><ele>832.6737</ele><time>2026-01-30T18:08:43.000Z</time></trkpt>
        <trkpt lat="28.225364" lon="105.640557"><ele>832.96466</ele><time>2026-01-30T18:08:47.000Z</time></trkpt>
        <trkpt lat="28.22532" lon="105.640576"><ele>834.19586</ele><time>2026-01-30T18:08:51.000Z</time></trkpt>
        <trkpt lat="28.225266" lon="105.640601"><ele>835.5034</ele><time>2026-01-30T18:08:57.000Z</time></trkpt>
        <trkpt lat="28.225216" lon="105.640619"><ele>836.6069</ele><time>2026-01-30T18:09:02.000Z</time></trkpt>
        <trkpt lat="28.225165" lon="105.640621"><ele>838.4573</ele><time>2026-01-30T18:09:07.000Z</time></trkpt>
        <trkpt lat="28.225115" lon="105.640603"><ele>835.8637</ele><time>2026-01-30T18:09:13.000Z</time></trkpt>
        <trkpt lat="28.225071" lon="105.6406"><ele>836.5564</ele><time>2026-01-30T18:09:18.000Z</time></trkpt>
        <trkpt lat="28.225031" lon="105.640617"><ele>838.6096</ele><time>2026-01-30T18:09:22.000Z</time></trkpt>
        <trkpt lat="28.224982" lon="105.640633"><ele>841.43256</ele><time>2026-01-30T18:09:27.000Z</time></trkpt>
        <trkpt lat="28.224927" lon="105.640639"><ele>844.1621</ele><time>2026-01-30T18:09:33.000Z</time></trkpt>
        <trkpt lat="28.224876" lon="105.640649"><ele>846.55347</ele><time>2026-01-30T18:09:39.000Z</time></trkpt>
        <trkpt lat="28.224836" lon="105.64066"><ele>848.76294</ele><time>2026-01-30T18:09:43.000Z</time></trkpt>
        <trkpt lat="28.224775" lon="105.64067"><ele>850.41455</ele><time>2026-01-30T18:09:51.000Z</time></trkpt>
        <trkpt lat="28.224728" lon="105.640666"><ele>851.8812</ele><time>2026-01-30T18:09:56.000Z</time></trkpt>
        <trkpt lat="28.224675" lon="105.640657"><ele>851.5411</ele><time>2026-01-30T18:10:03.000Z</time></trkpt>
        <trkpt lat="28.224624" lon="105.640655"><ele>852.56665</ele><time>2026-01-30T18:10:10.000Z</time></trkpt>
        <trkpt lat="28.22458" lon="105.640651"><ele>854.0566</ele><time>2026-01-30T18:10:15.000Z</time></trkpt>
        <trkpt lat="28.224537" lon="105.640634"><ele>856.0523</ele><time>2026-01-30T18:10:20.000Z</time></trkpt>
        <trkpt lat="28.224481" lon="105.640624"><ele>857.94476</ele><time>2026-01-30T18:10:28.000Z</time></trkpt>
        <trkpt lat="28.22443" lon="105.640612"><ele>860.3453</ele><time>2026-01-30T18:10:35.000Z</time></trkpt>
        <trkpt lat="28.224377" lon="105.640602"><ele>857.14667</ele><time>2026-01-30T18:10:43.000Z</time></trkpt>
        <trkpt lat="28.224332" lon="105.640587"><ele>852.7199</ele><time>2026-01-30T18:10:49.000Z</time></trkpt>
        <trkpt lat="28.224289" lon="105.640556"><ele>844.09314</ele><time>2026-01-30T18:10:57.000Z</time></trkpt>
        <trkpt lat="28.224247" lon="105.640558"><ele>844.3043</ele><time>2026-01-30T18:11:03.000Z</time></trkpt>
        <trkpt lat="28.2242" lon="105.640561"><ele>851.177</ele><time>2026-01-30T18:11:07.000Z</time></trkpt>
        <trkpt lat="28.224164" lon="105.640613"><ele>867.22266</ele><time>2026-01-30T18:11:22.000Z</time></trkpt>
        <trkpt lat="28.224115" lon="105.640611"><ele>883.15607</ele><time>2026-01-30T18:12:15.000Z</time></trkpt>
        <trkpt lat="28.224075" lon="105.640624"><ele>883.19775</ele><time>2026-01-30T18:12:21.000Z</time></trkpt>
        <trkpt lat="28.22403" lon="105.640609"><ele>883.1919</ele><time>2026-01-30T18:12:26.000Z</time></trkpt>
        <trkpt lat="28.223976" lon="105.640598"><ele>882.9069</ele><time>2026-01-30T18:12:31.000Z</time></trkpt>
        <trkpt lat="28.22393" lon="105.640581"><ele>882.0053</ele><time>2026-01-30T18:12:34.000Z</time></trkpt>
        <trkpt lat="28.223867" lon="105.640582"><ele>878.72406</ele><time>2026-01-30T18:12:40.000Z</time></trkpt>
        <trkpt lat="28.22382" lon="105.640588"><ele>874.8868</ele><time>2026-01-30T18:12:45.000Z</time></trkpt>
        <trkpt lat="28.223774" lon="105.640587"><ele>872.7694</ele><time>2026-01-30T18:12:50.000Z</time></trkpt>
        <trkpt lat="28.223728" lon="105.640589"><ele>873.68396</ele><time>2026-01-30T18:12:54.000Z</time></trkpt>
        <trkpt lat="28.223673" lon="105.640594"><ele>874.0777</ele><time>2026-01-30T18:12:59.000Z</time></trkpt>
        <trkpt lat="28.223618" lon="105.640596"><ele>868.4553</ele><time>2026-01-30T18:13:05.000Z</time></trkpt>
        <trkpt lat="28.223565" lon="105.640597"><ele>862.35626</ele><time>2026-01-30T18:13:11.000Z</time></trkpt>
        <trkpt lat="28.223519" lon="105.640606"><ele>857.56305</ele><time>2026-01-30T18:13:17.000Z</time></trkpt>
        <trkpt lat="28.223472" lon="105.6406"><ele>853.93414</ele><time>2026-01-30T18:13:23.000Z</time></trkpt>
        <trkpt lat="28.223422" lon="105.640603"><ele>852.4906</ele><time>2026-01-30T18:13:28.000Z</time></trkpt>
        <trkpt lat="28.223367" lon="105.6406"><ele>851.6657</ele><time>2026-01-30T18:13:33.000Z</time></trkpt>
        <trkpt lat="28.22332" lon="105.640601"><ele>852.57446</ele><time>2026-01-30T18:13:37.000Z</time></trkpt>
        <trkpt lat="28.223277" lon="105.640608"><ele>853.8212</ele><time>2026-01-30T18:13:40.000Z</time></trkpt>
        <trkpt lat="28.223218" lon="105.640616"><ele>854.96063</ele><time>2026-01-30T18:13:44.000Z</time></trkpt>
        <trkpt lat="28.223161" lon="105.640622"><ele>855.76544</ele><time>2026-01-30T18:13:48.000Z</time></trkpt>
        <trkpt lat="28.223107" lon="105.640622"><ele>856.7845</ele><time>2026-01-30T18:13:52.000Z</time></trkpt>
        <trkpt lat="28.223051" lon="105.640611"><ele>856.15094</ele><time>2026-01-30T18:13:57.000Z</time></trkpt>
        <trkpt lat="28.223005" lon="105.6406"><ele>855.68445</ele><time>2026-01-30T18:14:01.000Z</time></trkpt>
        <trkpt lat="28.222959" lon="105.640601"><ele>855.57623</ele><time>2026-01-30T18:14:05.000Z</time></trkpt>
        <trkpt lat="28.22291" lon="105.640617"><ele>856.20544</ele><time>2026-01-30T18:14:57.000Z</time></trkpt>
        <trkpt lat="28.222881" lon="105.640643"><ele>857.99005</ele><time>2026-01-30T18:15:08.000Z</time></trkpt>
        <trkpt lat="28.222834" lon="105.640668"><ele>858.4865</ele><time>2026-01-30T18:15:13.000Z</time></trkpt>
        <trkpt lat="28.222796" lon="105.640708"><ele>859.106</ele><time>2026-01-30T18:15:18.000Z</time></trkpt>
        <trkpt lat="28.222754" lon="105.640741"><ele>859.5947</ele><time>2026-01-30T18:15:24.000Z</time></trkpt>
        <trkpt lat="28.222722" lon="105.640775"><ele>861.8346</ele><time>2026-01-30T18:15:29.000Z</time></trkpt>
        <trkpt lat="28.222677" lon="105.6408"><ele>863.957</ele><time>2026-01-30T18:15:35.000Z</time></trkpt>
        <trkpt lat="28.222638" lon="105.640829"><ele>865.5705</ele><time>2026-01-30T18:15:41.000Z</time></trkpt>
        <trkpt lat="28.222595" lon="105.640847"><ele>865.4747</ele><time>2026-01-30T18:15:47.000Z</time></trkpt>
        <trkpt lat="28.222553" lon="105.640872"><ele>866.3886</ele><time>2026-01-30T18:15:53.000Z</time></trkpt>
        <trkpt lat="28.222507" lon="105.640901"><ele>867.92816</ele><time>2026-01-30T18:15:59.000Z</time></trkpt>
        <trkpt lat="28.22246" lon="105.640925"><ele>868.77203</ele><time>2026-01-30T18:16:05.000Z</time></trkpt>
        <trkpt lat="28.222417" lon="105.640949"><ele>870.0988</ele><time>2026-01-30T18:16:11.000Z</time></trkpt>
        <trkpt lat="28.222366" lon="105.640964"><ele>872.41046</ele><time>2026-01-30T18:16:18.000Z</time></trkpt>
        <trkpt lat="28.222316" lon="105.640979"><ele>872.74976</ele><time>2026-01-30T18:16:26.000Z</time></trkpt>
        <trkpt lat="28.222273" lon="105.641004"><ele>872.9434</ele><time>2026-01-30T18:16:33.000Z</time></trkpt>
        <trkpt lat="28.222229" lon="105.641024"><ele>872.7317</ele><time>2026-01-30T18:16:39.000Z</time></trkpt>
        <trkpt lat="28.222185" lon="105.641044"><ele>874.0088</ele><time>2026-01-30T18:16:44.000Z</time></trkpt>
        <trkpt lat="28.222143" lon="105.641073"><ele>876.4801</ele><time>2026-01-30T18:16:49.000Z</time></trkpt>
        <trkpt lat="28.222096" lon="105.641089"><ele>878.65283</ele><time>2026-01-30T18:16:54.000Z</time></trkpt>
        <trkpt lat="28.222047" lon="105.641095"><ele>879.7505</ele><time>2026-01-30T18:16:59.000Z</time></trkpt>
        <trkpt lat="28.221993" lon="105.641102"><ele>881.55634</ele><time>2026-01-30T18:17:05.000Z</time></trkpt>
        <trkpt lat="28.221944" lon="105.641105"><ele>882.66864</ele><time>2026-01-30T18:17:12.000Z</time></trkpt>
        <trkpt lat="28.2219" lon="105.641114"><ele>882.48944</ele><time>2026-01-30T18:17:18.000Z</time></trkpt>
        <trkpt lat="28.221849" lon="105.641117"><ele>881.64307</ele><time>2026-01-30T18:17:26.000Z</time></trkpt>
        <trkpt lat="28.221806" lon="105.641128"><ele>882.1213</ele><time>2026-01-30T18:17:33.000Z</time></trkpt>
        <trkpt lat="28.22176" lon="105.641139"><ele>884.48145</ele><time>2026-01-30T18:17:40.000Z</time></trkpt>
        <trkpt lat="28.221706" lon="105.641143"><ele>886.25</ele><time>2026-01-30T18:17:48.000Z</time></trkpt>
        <trkpt lat="28.221655" lon="105.641131"><ele>886.12195</ele><time>2026-01-30T18:17:56.000Z</time></trkpt>
        <trkpt lat="28.221612" lon="105.64115"><ele>885.2237</ele><time>2026-01-30T18:18:03.000Z</time></trkpt>
        <trkpt lat="28.221566" lon="105.641165"><ele>885.97534</ele><time>2026-01-30T18:18:09.000Z</time></trkpt>
        <trkpt lat="28.221512" lon="105.641175"><ele>886.8862</ele><time>2026-01-30T18:18:16.000Z</time></trkpt>
        <trkpt lat="28.221465" lon="105.641182"><ele>887.9303</ele><time>2026-01-30T18:18:22.000Z</time></trkpt>
        <trkpt lat="28.221414" lon="105.641196"><ele>888.55035</ele><time>2026-01-30T18:18:31.000Z</time></trkpt>
        <trkpt lat="28.221371" lon="105.641192"><ele>889.9311</ele><time>2026-01-30T18:18:37.000Z</time></trkpt>
        <trkpt lat="28.22132" lon="105.64121"><ele>891.202</ele><time>2026-01-30T18:18:44.000Z</time></trkpt>
        <trkpt lat="28.221274" lon="105.641221"><ele>891.85364</ele><time>2026-01-30T18:18:50.000Z</time></trkpt>
        <trkpt lat="28.22123" lon="105.641234"><ele>891.7134</ele><time>2026-01-30T18:18:56.000Z</time></trkpt>
        <trkpt lat="28.221182" lon="105.641247"><ele>892.2941</ele><time>2026-01-30T18:19:02.000Z</time></trkpt>
        <trkpt lat="28.221137" lon="105.641263"><ele>893.40894</ele><time>2026-01-30T18:19:08.000Z</time></trkpt>
        <trkpt lat="28.221092" lon="105.641283"><ele>894.5853</ele><time>2026-01-30T18:19:13.000Z</time></trkpt>
        <trkpt lat="28.221044" lon="105.641299"><ele>895.3063</ele><time>2026-01-30T18:19:19.000Z</time></trkpt>
        <trkpt lat="28.220996" lon="105.641314"><ele>897.45435</ele><time>2026-01-30T18:19:25.000Z</time></trkpt>
        <trkpt lat="28.220953" lon="105.641326"><ele>898.60657</ele><time>2026-01-30T18:19:30.000Z</time></trkpt>
        <trkpt lat="28.220908" lon="105.641326"><ele>900.34753</ele><time>2026-01-30T18:19:35.000Z</time></trkpt>
        <trkpt lat="28.220853" lon="105.641349"><ele>901.9279</ele><time>2026-01-30T18:20:03.000Z</time></trkpt>
        <trkpt lat="28.22082" lon="105.641363"><ele>901.88403</ele><time>2026-01-30T18:20:09.000Z</time></trkpt>
        <trkpt lat="28.220767" lon="105.641378"><ele>902.9097</ele><time>2026-01-30T18:20:15.000Z</time></trkpt>
        <trkpt lat="28.220714" lon="105.641393"><ele>903.6859</ele><time>2026-01-30T18:20:22.000Z</time></trkpt>
        <trkpt lat="28.220667" lon="105.641408"><ele>904.49445</ele><time>2026-01-30T18:20:29.000Z</time></trkpt>
        <trkpt lat="28.220625" lon="105.641419"><ele>905.1544</ele><time>2026-01-30T18:20:35.000Z</time></trkpt>
        <trkpt lat="28.22058" lon="105.641442"><ele>906.71045</ele><time>2026-01-30T18:20:43.000Z</time></trkpt>
        <trkpt lat="28.220537" lon="105.641457"><ele>908.71606</ele><time>2026-01-30T18:20:51.000Z</time></trkpt>
        <trkpt lat="28.220491" lon="105.64148"><ele>909.89294</ele><time>2026-01-30T18:20:59.000Z</time></trkpt>
        <trkpt lat="28.220445" lon="105.641509"><ele>911.7513</ele><time>2026-01-30T18:21:07.000Z</time></trkpt>
        <trkpt lat="28.220406" lon="105.641536"><ele>911.0228</ele><time>2026-01-30T18:21:14.000Z</time></trkpt>
        <trkpt lat="28.220369" lon="105.64157"><ele>911.67444</ele><time>2026-01-30T18:21:21.000Z</time></trkpt>
        <trkpt lat="28.220332" lon="105.641601"><ele>913.50146</ele><time>2026-01-30T18:21:27.000Z</time></trkpt>
        <trkpt lat="28.220291" lon="105.641628"><ele>915.07465</ele><time>2026-01-30T18:21:33.000Z</time></trkpt>
        <trkpt lat="28.220241" lon="105.641654"><ele>917.5713</ele><time>2026-01-30T18:21:40.000Z</time></trkpt>
        <trkpt lat="28.220193" lon="105.641648"><ele>919.33765</ele><time>2026-01-30T18:21:46.000Z</time></trkpt>
        <trkpt lat="28.220145" lon="105.641652"><ele>920.2422</ele><time>2026-01-30T18:21:53.000Z</time></trkpt>
        <trkpt lat="28.220105" lon="105.641678"><ele>921.5311</ele><time>2026-01-30T18:22:01.000Z</time></trkpt>
        <trkpt lat="28.220058" lon="105.6417"><ele>928.6486</ele><time>2026-01-30T18:23:13.000Z</time></trkpt>
        <trkpt lat="28.220017" lon="105.641712"><ele>927.2462</ele><time>2026-01-30T18:23:27.000Z</time></trkpt>
        <trkpt lat="28.219971" lon="105.641732"><ele>925.9948</ele><time>2026-01-30T18:23:36.000Z</time></trkpt>
        <trkpt lat="28.219925" lon="105.641748"><ele>924.8368</ele><time>2026-01-30T18:24:09.000Z</time></trkpt>
        <trkpt lat="28.219893" lon="105.641766"><ele>926.0235</ele><time>2026-01-30T18:24:15.000Z</time></trkpt>
        <trkpt lat="28.219847" lon="105.641792"><ele>928.2225</ele><time>2026-01-30T18:24:21.000Z</time></trkpt>
        <trkpt lat="28.219792" lon="105.641821"><ele>930.2694</ele><time>2026-01-30T18:24:29.000Z</time></trkpt>
        <trkpt lat="28.219741" lon="105.641838"><ele>931.8757</ele><time>2026-01-30T18:24:36.000Z</time></trkpt>
        <trkpt lat="28.219695" lon="105.64185"><ele>933.3452</ele><time>2026-01-30T18:24:41.000Z</time></trkpt>
        <trkpt lat="28.219643" lon="105.64186"><ele>934.0404</ele><time>2026-01-30T18:24:47.000Z</time></trkpt>
        <trkpt lat="28.219589" lon="105.641856"><ele>934.6788</ele><time>2026-01-30T18:24:53.000Z</time></trkpt>
        <trkpt lat="28.219546" lon="105.641846"><ele>934.9214</ele><time>2026-01-30T18:24:57.000Z</time></trkpt>
        <trkpt lat="28.219494" lon="105.641837"><ele>935.2972</ele><time>2026-01-30T18:25:04.000Z</time></trkpt>
        <trkpt lat="28.219519" lon="105.641801"><ele>937.3023</ele><time>2026-01-30T18:25:15.000Z</time></trkpt>
        <trkpt lat="28.219566" lon="105.641774"><ele>936.7358</ele><time>2026-01-30T18:25:22.000Z</time></trkpt>
        <trkpt lat="28.219535" lon="105.641762"><ele>938.2239</ele><time>2026-01-30T18:25:30.000Z</time></trkpt>
        <trkpt lat="28.219492" lon="105.641728"><ele>941.8511</ele><time>2026-01-30T18:25:39.000Z</time></trkpt>
        <trkpt lat="28.219468" lon="105.641673"><ele>942.6216</ele><time>2026-01-30T18:25:53.000Z</time></trkpt>
        <trkpt lat="28.219458" lon="105.641623"><ele>944.77496</ele><time>2026-01-30T18:26:01.000Z</time></trkpt>
        <trkpt lat="28.219415" lon="105.6416"><ele>946.60547</ele><time>2026-01-30T18:26:17.000Z</time></trkpt>
        <trkpt lat="28.219397" lon="105.641554"><ele>945.74866</ele><time>2026-01-30T18:26:26.000Z</time></trkpt>
        <trkpt lat="28.219352" lon="105.641558"><ele>946.8819</ele><time>2026-01-30T18:26:38.000Z</time></trkpt>
        <trkpt lat="28.219321" lon="105.641588"><ele>947.14984</ele><time>2026-01-30T18:26:41.000Z</time></trkpt>
        <trkpt lat="28.21926" lon="105.641626"><ele>946.15826</ele><time>2026-01-30T18:26:51.000Z</time></trkpt>
        <trkpt lat="28.219247" lon="105.641582"><ele>949.4915</ele><time>2026-01-30T18:27:01.000Z</time></trkpt>
        <trkpt lat="28.219242" lon="105.641526"><ele>953.7535</ele><time>2026-01-30T18:27:09.000Z</time></trkpt>
        <trkpt lat="28.219209" lon="105.641478"><ele>955.1014</ele><time>2026-01-30T18:27:21.000Z</time></trkpt>
        <trkpt lat="28.219244" lon="105.641453"><ele>955.5867</ele><time>2026-01-30T18:27:29.000Z</time></trkpt>
        <trkpt lat="28.21927" lon="105.6414"><ele>956.9686</ele><time>2026-01-30T18:27:37.000Z</time></trkpt>
        <trkpt lat="28.219303" lon="105.641364"><ele>958.8011</ele><time>2026-01-30T18:27:43.000Z</time></trkpt>
        <trkpt lat="28.21927" lon="105.641335"><ele>961.02954</ele><time>2026-01-30T18:27:57.000Z</time></trkpt>
        <trkpt lat="28.219261" lon="105.641283"><ele>965.9101</ele><time>2026-01-30T18:28:24.000Z</time></trkpt>
        <trkpt lat="28.219287" lon="105.641236"><ele>968.00824</ele><time>2026-01-30T18:28:35.000Z</time></trkpt>
        <trkpt lat="28.21924" lon="105.641223"><ele>969.4282</ele><time>2026-01-30T18:28:45.000Z</time></trkpt>
        <trkpt lat="28.21919" lon="105.641213"><ele>972.8878</ele><time>2026-01-30T18:28:55.000Z</time></trkpt>
        <trkpt lat="28.219182" lon="105.641161"><ele>977.7266</ele><time>2026-01-30T18:29:16.000Z</time></trkpt>
        <trkpt lat="28.219172" lon="105.641109"><ele>979.6888</ele><time>2026-01-30T18:29:35.000Z</time></trkpt>
        <trkpt lat="28.21918" lon="105.641059"><ele>981.45</ele><time>2026-01-30T18:30:33.000Z</time></trkpt>
        <trkpt lat="28.219171" lon="105.641009"><ele>985.2486</ele><time>2026-01-30T18:31:13.000Z</time></trkpt>
        <trkpt lat="28.219183" lon="105.640962"><ele>986.60425</ele><time>2026-01-30T18:31:22.000Z</time></trkpt>
        <trkpt lat="28.219145" lon="105.640925"><ele>991.7141</ele><time>2026-01-30T18:31:43.000Z</time></trkpt>
        <trkpt lat="28.219096" lon="105.640942"><ele>996.0642</ele><time>2026-01-30T18:31:57.000Z</time></trkpt>
        <trkpt lat="28.219057" lon="105.640966"><ele>995.2867</ele><time>2026-01-30T18:32:07.000Z</time></trkpt>
        <trkpt lat="28.219018" lon="105.640953"><ele>995.8122</ele><time>2026-01-30T18:32:12.000Z</time></trkpt>
        <trkpt lat="28.219029" lon="105.640922"><ele>996.0363</ele><time>2026-01-30T18:32:16.000Z</time></trkpt>
        <trkpt lat="28.219066" lon="105.64088"><ele>996.6157</ele><time>2026-01-30T18:32:21.000Z</time></trkpt>
        <trkpt lat="28.219068" lon="105.640815"><ele>996.9843</ele><time>2026-01-30T18:32:34.000Z</time></trkpt>
        <trkpt lat="28.219026" lon="105.640812"><ele>998.2469</ele><time>2026-01-30T18:32:41.000Z</time></trkpt>
        <trkpt lat="28.218986" lon="105.640768"><ele>997.92535</ele><time>2026-01-30T18:33:00.000Z</time></trkpt>
        <trkpt lat="28.218972" lon="105.640721"><ele>998.6145</ele><time>2026-01-30T18:33:08.000Z</time></trkpt>
        <trkpt lat="28.218935" lon="105.640752"><ele>1001.3811</ele><time>2026-01-30T18:35:57.000Z</time></trkpt>
        <trkpt lat="28.218972" lon="105.640711"><ele>998.3394</ele><time>2026-01-30T18:38:13.000Z</time></trkpt>
        <trkpt lat="28.219012" lon="105.640688"><ele>998.0303</ele><time>2026-01-30T18:38:22.000Z</time></trkpt>
        <trkpt lat="28.219059" lon="105.640672"><ele>998.4784</ele><time>2026-01-30T18:38:27.000Z</time></trkpt>
        <trkpt lat="28.219109" lon="105.640659"><ele>997.7528</ele><time>2026-01-30T18:38:31.000Z</time></trkpt>
        <trkpt lat="28.219158" lon="105.640624"><ele>998.1831</ele><time>2026-01-30T18:38:36.000Z</time></trkpt>
        <trkpt lat="28.219188" lon="105.640573"><ele>999.2655</ele><time>2026-01-30T18:38:41.000Z</time></trkpt>
        <trkpt lat="28.219206" lon="105.640515"><ele>999.74615</ele><time>2026-01-30T18:38:48.000Z</time></trkpt>
        <trkpt lat="28.219235" lon="105.640472"><ele>1000.48816</ele><time>2026-01-30T18:38:55.000Z</time></trkpt>
        <trkpt lat="28.219242" lon="105.640425"><ele>1001.036</ele><time>2026-01-30T18:39:00.000Z</time></trkpt>
        <trkpt lat="28.219256" lon="105.640364"><ele>1000.3818</ele><time>2026-01-30T18:39:09.000Z</time></trkpt>
        <trkpt lat="28.219287" lon="105.640334"><ele>999.6915</ele><time>2026-01-30T18:39:14.000Z</time></trkpt>
        <trkpt lat="28.219322" lon="105.640287"><ele>998.7348</ele><time>2026-01-30T18:39:19.000Z</time></trkpt>
        <trkpt lat="28.219356" lon="105.640232"><ele>998.5772</ele><time>2026-01-30T18:39:25.000Z</time></trkpt>
        <trkpt lat="28.219383" lon="105.640188"><ele>998.4022</ele><time>2026-01-30T18:39:29.000Z</time></trkpt>
        <trkpt lat="28.219422" lon="105.640146"><ele>998.326</ele><time>2026-01-30T18:39:34.000Z</time></trkpt>
        <trkpt lat="28.219448" lon="105.6401"><ele>998.7512</ele><time>2026-01-30T18:39:40.000Z</time></trkpt>
        <trkpt lat="28.219487" lon="105.640074"><ele>998.0305</ele><time>2026-01-30T18:39:45.000Z</time></trkpt>
        <trkpt lat="28.219534" lon="105.640044"><ele>997.29736</ele><time>2026-01-30T18:39:51.000Z</time></trkpt>
        <trkpt lat="28.219578" lon="105.640028"><ele>995.0652</ele><time>2026-01-30T18:39:56.000Z</time></trkpt>
        <trkpt lat="28.219616" lon="105.640053"><ele>993.379</ele><time>2026-01-30T18:40:01.000Z</time></trkpt>
        <trkpt lat="28.219652" lon="105.6401"><ele>992.8263</ele><time>2026-01-30T18:40:09.000Z</time></trkpt>
        <trkpt lat="28.219682" lon="105.640143"><ele>994.0935</ele><time>2026-01-30T18:40:32.000Z</time></trkpt>
        <trkpt lat="28.219661" lon="105.640096"><ele>991.3276</ele><time>2026-01-30T18:41:17.000Z</time></trkpt>
        <trkpt lat="28.219645" lon="105.640145"><ele>991.71295</ele><time>2026-01-30T18:41:31.000Z</time></trkpt>
        <trkpt lat="28.219682" lon="105.640169"><ele>990.99036</ele><time>2026-01-30T18:41:40.000Z</time></trkpt>
        <trkpt lat="28.219644" lon="105.640151"><ele>992.4097</ele><time>2026-01-30T18:43:49.000Z</time></trkpt>
        <trkpt lat="28.219644" lon="105.640101"><ele>990.0899</ele><time>2026-01-30T18:44:04.000Z</time></trkpt>
        <trkpt lat="28.21962" lon="105.640056"><ele>992.68634</ele><time>2026-01-30T18:44:52.000Z</time></trkpt>
        <trkpt lat="28.21957" lon="105.640041"><ele>995.13995</ele><time>2026-01-30T18:45:03.000Z</time></trkpt>
        <trkpt lat="28.219524" lon="105.640069"><ele>997.0473</ele><time>2026-01-30T18:45:13.000Z</time></trkpt>
        <trkpt lat="28.219477" lon="105.640091"><ele>997.93695</ele><time>2026-01-30T18:45:20.000Z</time></trkpt>
        <trkpt lat="28.219422" lon="105.640096"><ele>998.4154</ele><time>2026-01-30T18:45:26.000Z</time></trkpt>
        <trkpt lat="28.21937" lon="105.640075"><ele>999.94604</ele><time>2026-01-30T18:45:33.000Z</time></trkpt>
        <trkpt lat="28.21932" lon="105.640073"><ele>1003.2021</ele><time>2026-01-30T18:45:41.000Z</time></trkpt>
        <trkpt lat="28.219271" lon="105.64007"><ele>1005.2591</ele><time>2026-01-30T18:45:47.000Z</time></trkpt>
        <trkpt lat="28.219219" lon="105.640076"><ele>1005.9408</ele><time>2026-01-30T18:45:54.000Z</time></trkpt>
        <trkpt lat="28.21918" lon="105.640095"><ele>1007.03076</ele><time>2026-01-30T18:45:58.000Z</time></trkpt>
        <trkpt lat="28.219128" lon="105.640107"><ele>1007.6608</ele><time>2026-01-30T18:46:04.000Z</time></trkpt>
        <trkpt lat="28.21908" lon="105.640101"><ele>1008.42456</ele><time>2026-01-30T18:46:10.000Z</time></trkpt>
        <trkpt lat="28.219028" lon="105.640104"><ele>1010.658</ele><time>2026-01-30T18:46:17.000Z</time></trkpt>
        <trkpt lat="28.218979" lon="105.640129"><ele>1010.12195</ele><time>2026-01-30T18:46:26.000Z</time></trkpt>
        <trkpt lat="28.218947" lon="105.640167"><ele>1010.6285</ele><time>2026-01-30T18:46:32.000Z</time></trkpt>
        <trkpt lat="28.218951" lon="105.640221"><ele>1010.93866</ele><time>2026-01-30T18:46:37.000Z</time></trkpt>
        <trkpt lat="28.218965" lon="105.640275"><ele>1009.90155</ele><time>2026-01-30T18:46:42.000Z</time></trkpt>
        <trkpt lat="28.218981" lon="105.640336"><ele>1008.0696</ele><time>2026-01-30T18:46:48.000Z</time></trkpt>
        <trkpt lat="28.218988" lon="105.640387"><ele>1006.7227</ele><time>2026-01-30T18:46:53.000Z</time></trkpt>
        <trkpt lat="28.218984" lon="105.640444"><ele>1005.9917</ele><time>2026-01-30T18:46:58.000Z</time></trkpt>
        <trkpt lat="28.21898" lon="105.640502"><ele>1004.65173</ele><time>2026-01-30T18:47:03.000Z</time></trkpt>
        <trkpt lat="28.21897" lon="105.64056"><ele>1003.4892</ele><time>2026-01-30T18:47:08.000Z</time></trkpt>
        <trkpt lat="28.218959" lon="105.640611"><ele>1002.35144</ele><time>2026-01-30T18:47:12.000Z</time></trkpt>
        <trkpt lat="28.218948" lon="105.640667"><ele>1000.68915</ele><time>2026-01-30T18:47:16.000Z</time></trkpt>
        <trkpt lat="28.218935" lon="105.640721"><ele>1000.3291</ele><time>2026-01-30T18:47:20.000Z</time></trkpt>
        <trkpt lat="28.218897" lon="105.640762"><ele>999.9324</ele><time>2026-01-30T18:47:26.000Z</time></trkpt>
        <trkpt lat="28.218843" lon="105.640762"><ele>1000.355</ele><time>2026-01-30T18:47:34.000Z</time></trkpt>
        <trkpt lat="28.218801" lon="105.640766"><ele>1001.6083</ele><time>2026-01-30T18:47:39.000Z</time></trkpt>
        <trkpt lat="28.218749" lon="105.640783"><ele>1004.1758</ele><time>2026-01-30T18:47:45.000Z</time></trkpt>
        <trkpt lat="28.218701" lon="105.6408"><ele>1005.9743</ele><time>2026-01-30T18:47:50.000Z</time></trkpt>
        <trkpt lat="28.218649" lon="105.64081"><ele>1006.8233</ele><time>2026-01-30T18:47:56.000Z</time></trkpt>
        <trkpt lat="28.218597" lon="105.640814"><ele>1008.644</ele><time>2026-01-30T18:48:02.000Z</time></trkpt>
        <trkpt lat="28.21855" lon="105.640818"><ele>1009.7468</ele><time>2026-01-30T18:48:08.000Z</time></trkpt>
        <trkpt lat="28.218507" lon="105.640823"><ele>1011.4179</ele><time>2026-01-30T18:48:13.000Z</time></trkpt>
        <trkpt lat="28.218454" lon="105.640827"><ele>1012.43414</ele><time>2026-01-30T18:48:24.000Z</time></trkpt>
        <trkpt lat="28.218407" lon="105.640836"><ele>1012.9016</ele><time>2026-01-30T18:48:31.000Z</time></trkpt>
        <trkpt lat="28.21836" lon="105.64084"><ele>1014.37915</ele><time>2026-01-30T18:48:36.000Z</time></trkpt>
        <trkpt lat="28.218309" lon="105.640838"><ele>1015.05774</ele><time>2026-01-30T18:48:42.000Z</time></trkpt>
        <trkpt lat="28.218258" lon="105.640819"><ele>1014.8979</ele><time>2026-01-30T18:48:48.000Z</time></trkpt>
        <trkpt lat="28.218216" lon="105.640795"><ele>1015.4349</ele><time>2026-01-30T18:48:53.000Z</time></trkpt>
        <trkpt lat="28.218177" lon="105.640764"><ele>1015.60376</ele><time>2026-01-30T18:48:58.000Z</time></trkpt>
        <trkpt lat="28.218134" lon="105.64074"><ele>1015.3135</ele><time>2026-01-30T18:49:04.000Z</time></trkpt>
        <trkpt lat="28.218091" lon="105.640716"><ele>1015.1303</ele><time>2026-01-30T18:49:10.000Z</time></trkpt>
        <trkpt lat="28.218041" lon="105.640697"><ele>1015.9258</ele><time>2026-01-30T18:49:16.000Z</time></trkpt>
        <trkpt lat="28.217992" lon="105.640696"><ele>1017.7552</ele><time>2026-01-30T18:49:22.000Z</time></trkpt>
        <trkpt lat="28.217938" lon="105.64069"><ele>1018.61597</ele><time>2026-01-30T18:49:28.000Z</time></trkpt>
        <trkpt lat="28.21789" lon="105.640687"><ele>1018.69086</ele><time>2026-01-30T18:49:33.000Z</time></trkpt>
        <trkpt lat="28.217836" lon="105.640679"><ele>1017.6715</ele><time>2026-01-30T18:49:39.000Z</time></trkpt>
        <trkpt lat="28.217785" lon="105.640671"><ele>1017.1928</ele><time>2026-01-30T18:49:44.000Z</time></trkpt>
        <trkpt lat="28.217729" lon="105.640665"><ele>1017.42993</ele><time>2026-01-30T18:49:49.000Z</time></trkpt>
        <trkpt lat="28.217674" lon="105.640666"><ele>1018.1276</ele><time>2026-01-30T18:49:54.000Z</time></trkpt>
        <trkpt lat="28.217619" lon="105.640672"><ele>1018.20703</ele><time>2026-01-30T18:49:59.000Z</time></trkpt>
        <trkpt lat="28.21757" lon="105.640677"><ele>1018.59357</ele><time>2026-01-30T18:50:03.000Z</time></trkpt>
        <trkpt lat="28.217515" lon="105.640683"><ele>1019.39966</ele><time>2026-01-30T18:50:08.000Z</time></trkpt>
        <trkpt lat="28.217468" lon="105.640693"><ele>1020.11456</ele><time>2026-01-30T18:50:13.000Z</time></trkpt>
        <trkpt lat="28.217423" lon="105.640701"><ele>1020.6916</ele><time>2026-01-30T18:50:18.000Z</time></trkpt>
        <trkpt lat="28.217378" lon="105.640703"><ele>1020.5503</ele><time>2026-01-30T18:50:22.000Z</time></trkpt>
        <trkpt lat="28.217328" lon="105.640694"><ele>1021.2604</ele><time>2026-01-30T18:50:27.000Z</time></trkpt>
        <trkpt lat="28.217277" lon="105.64068"><ele>1021.6233</ele><time>2026-01-30T18:50:32.000Z</time></trkpt>
        <trkpt lat="28.217231" lon="105.640676"><ele>1022.1573</ele><time>2026-01-30T18:50:36.000Z</time></trkpt>
        <trkpt lat="28.217175" lon="105.640676"><ele>1022.44525</ele><time>2026-01-30T18:50:41.000Z</time></trkpt>
        <trkpt lat="28.21712" lon="105.640672"><ele>1021.06195</ele><time>2026-01-30T18:50:47.000Z</time></trkpt>
        <trkpt lat="28.217075" lon="105.640675"><ele>1020.67633</ele><time>2026-01-30T18:50:52.000Z</time></trkpt>
        <trkpt lat="28.217029" lon="105.640699"><ele>1021.45667</ele><time>2026-01-30T18:50:57.000Z</time></trkpt>
        <trkpt lat="28.216976" lon="105.640723"><ele>1020.3543</ele><time>2026-01-30T18:51:03.000Z</time></trkpt>
        <trkpt lat="28.216932" lon="105.640751"><ele>1020.3918</ele><time>2026-01-30T18:51:08.000Z</time></trkpt>
        <trkpt lat="28.216895" lon="105.640777"><ele>1020.9617</ele><time>2026-01-30T18:51:12.000Z</time></trkpt>
        <trkpt lat="28.216845" lon="105.640794"><ele>1020.90784</ele><time>2026-01-30T18:51:17.000Z</time></trkpt>
        <trkpt lat="28.216792" lon="105.640795"><ele>1020.45715</ele><time>2026-01-30T18:51:22.000Z</time></trkpt>
        <trkpt lat="28.216747" lon="105.640777"><ele>1020.56335</ele><time>2026-01-30T18:51:26.000Z</time></trkpt>
        <trkpt lat="28.216696" lon="105.640746"><ele>1021.3777</ele><time>2026-01-30T18:51:31.000Z</time></trkpt>
        <trkpt lat="28.216651" lon="105.64072"><ele>1021.87823</ele><time>2026-01-30T18:51:35.000Z</time></trkpt>
        <trkpt lat="28.216608" lon="105.640694"><ele>1022.46844</ele><time>2026-01-30T18:51:39.000Z</time></trkpt>
        <trkpt lat="28.216563" lon="105.640664"><ele>1022.8437</ele><time>2026-01-30T18:51:44.000Z</time></trkpt>
        <trkpt lat="28.216522" lon="105.640636"><ele>1023.1322</ele><time>2026-01-30T18:51:48.000Z</time></trkpt>
        <trkpt lat="28.216476" lon="105.640607"><ele>1023.0232</ele><time>2026-01-30T18:51:53.000Z</time></trkpt>
        <trkpt lat="28.216428" lon="105.640585"><ele>1023.77734</ele><time>2026-01-30T18:51:57.000Z</time></trkpt>
        <trkpt lat="28.216377" lon="105.640563"><ele>1024.9105</ele><time>2026-01-30T18:52:02.000Z</time></trkpt>
        <trkpt lat="28.216327" lon="105.640552"><ele>1024.6592</ele><time>2026-01-30T18:52:06.000Z</time></trkpt>
        <trkpt lat="28.216279" lon="105.640549"><ele>1025.1526</ele><time>2026-01-30T18:52:10.000Z</time></trkpt>
        <trkpt lat="28.216229" lon="105.640547"><ele>1025.7373</ele><time>2026-01-30T18:52:15.000Z</time></trkpt>
        <trkpt lat="28.216179" lon="105.640548"><ele>1026.6392</ele><time>2026-01-30T18:52:21.000Z</time></trkpt>
        <trkpt lat="28.216134" lon="105.64056"><ele>1026.9294</ele><time>2026-01-30T18:52:35.000Z</time></trkpt>
        <trkpt lat="28.216107" lon="105.640598"><ele>1026.1123</ele><time>2026-01-30T18:52:48.000Z</time></trkpt>
        <trkpt lat="28.216113" lon="105.640645"><ele>1024.9419</ele><time>2026-01-30T18:52:54.000Z</time></trkpt>
        <trkpt lat="28.216134" lon="105.640703"><ele>1023.0743</ele><time>2026-01-30T18:53:01.000Z</time></trkpt>
        <trkpt lat="28.21612" lon="105.640755"><ele>1019.41016</ele><time>2026-01-30T18:54:04.000Z</time></trkpt>
        <trkpt lat="28.216103" lon="105.640802"><ele>1022.38586</ele><time>2026-01-30T18:54:29.000Z</time></trkpt>
        <trkpt lat="28.216123" lon="105.640857"><ele>1022.42053</ele><time>2026-01-30T18:55:05.000Z</time></trkpt>
        <trkpt lat="28.216125" lon="105.640908"><ele>1021.4106</ele><time>2026-01-30T18:55:16.000Z</time></trkpt>
        <trkpt lat="28.216139" lon="105.64096"><ele>1020.4734</ele><time>2026-01-30T18:55:22.000Z</time></trkpt>
        <trkpt lat="28.21617" lon="105.641"><ele>1019.9831</ele><time>2026-01-30T18:55:28.000Z</time></trkpt>
        <trkpt lat="28.216193" lon="105.641047"><ele>1018.8251</ele><time>2026-01-30T18:55:35.000Z</time></trkpt>
        <trkpt lat="28.216218" lon="105.641094"><ele>1017.72925</ele><time>2026-01-30T18:55:41.000Z</time></trkpt>
        <trkpt lat="28.216205" lon="105.64115"><ele>1018.0647</ele><time>2026-01-30T18:55:48.000Z</time></trkpt>
        <trkpt lat="28.216223" lon="105.641195"><ele>1018.4515</ele><time>2026-01-30T18:55:54.000Z</time></trkpt>
        <trkpt lat="28.216259" lon="105.641236"><ele>1017.0327</ele><time>2026-01-30T18:56:00.000Z</time></trkpt>
        <trkpt lat="28.216301" lon="105.641269"><ele>1015.3449</ele><time>2026-01-30T18:56:08.000Z</time></trkpt>
        <trkpt lat="28.216338" lon="105.641293"><ele>1013.69183</ele><time>2026-01-30T18:56:13.000Z</time></trkpt>
        <trkpt lat="28.216374" lon="105.641339"><ele>1012.0714</ele><time>2026-01-30T18:56:21.000Z</time></trkpt>
        <trkpt lat="28.216392" lon="105.641388"><ele>1008.59424</ele><time>2026-01-30T18:56:29.000Z</time></trkpt>
        <trkpt lat="28.216367" lon="105.641433"><ele>1006.80597</ele><time>2026-01-30T18:56:37.000Z</time></trkpt>
        <trkpt lat="28.216366" lon="105.641487"><ele>1006.6577</ele><time>2026-01-30T18:56:44.000Z</time></trkpt>
        <trkpt lat="28.216381" lon="105.641549"><ele>1006.11615</ele><time>2026-01-30T18:56:56.000Z</time></trkpt>
        <trkpt lat="28.216411" lon="105.641581"><ele>1005.1841</ele><time>2026-01-30T18:57:00.000Z</time></trkpt>
        <trkpt lat="28.216458" lon="105.641618"><ele>1002.28424</ele><time>2026-01-30T18:57:07.000Z</time></trkpt>
        <trkpt lat="28.216503" lon="105.641629"><ele>1001.3444</ele><time>2026-01-30T18:57:12.000Z</time></trkpt>
        <trkpt lat="28.216553" lon="105.641633"><ele>999.3233</ele><time>2026-01-30T18:57:19.000Z</time></trkpt>
        <trkpt lat="28.216559" lon="105.64158"><ele>997.6426</ele><time>2026-01-30T18:57:25.000Z</time></trkpt>
        <trkpt lat="28.216556" lon="105.641613"><ele>999.08716</ele><time>2026-01-30T18:57:41.000Z</time></trkpt>
        <trkpt lat="28.216579" lon="105.641666"><ele>999.9735</ele><time>2026-01-30T18:57:48.000Z</time></trkpt>
        <trkpt lat="28.216613" lon="105.641699"><ele>999.63464</ele><time>2026-01-30T18:57:53.000Z</time></trkpt>
        <trkpt lat="28.216659" lon="105.641728"><ele>999.257</ele><time>2026-01-30T18:57:59.000Z</time></trkpt>
        <trkpt lat="28.216665" lon="105.641777"><ele>999.00256</ele><time>2026-01-30T18:58:05.000Z</time></trkpt>
        <trkpt lat="28.21666" lon="105.641836"><ele>998.10046</ele><time>2026-01-30T18:58:11.000Z</time></trkpt>
        <trkpt lat="28.216651" lon="105.641888"><ele>997.952</ele><time>2026-01-30T18:58:16.000Z</time></trkpt>
        <trkpt lat="28.216639" lon="105.641946"><ele>998.21545</ele><time>2026-01-30T18:58:22.000Z</time></trkpt>
        <trkpt lat="28.216635" lon="105.641997"><ele>997.45</ele><time>2026-01-30T18:58:27.000Z</time></trkpt>
        <trkpt lat="28.216628" lon="105.642048"><ele>996.7184</ele><time>2026-01-30T18:58:31.000Z</time></trkpt>
        <trkpt lat="28.216617" lon="105.642113"><ele>996.1789</ele><time>2026-01-30T18:58:38.000Z</time></trkpt>
        <trkpt lat="28.216592" lon="105.642156"><ele>996.6138</ele><time>2026-01-30T18:58:45.000Z</time></trkpt>
        <trkpt lat="28.216543" lon="105.642171"><ele>996.927</ele><time>2026-01-30T18:58:53.000Z</time></trkpt>
        <trkpt lat="28.216493" lon="105.642146"><ele>998.22614</ele><time>2026-01-30T18:59:03.000Z</time></trkpt>
        <trkpt lat="28.216457" lon="105.642099"><ele>1000.1515</ele><time>2026-01-30T18:59:11.000Z</time></trkpt>
        <trkpt lat="28.216429" lon="105.64206"><ele>1000.14343</ele><time>2026-01-30T18:59:17.000Z</time></trkpt>
        <trkpt lat="28.216396" lon="105.642012"><ele>999.06134</ele><time>2026-01-30T18:59:24.000Z</time></trkpt>
        <trkpt lat="28.216362" lon="105.641985"><ele>999.33545</ele><time>2026-01-30T18:59:28.000Z</time></trkpt>
        <trkpt lat="28.216309" lon="105.641972"><ele>1001.77325</ele><time>2026-01-30T18:59:34.000Z</time></trkpt>
        <trkpt lat="28.216251" lon="105.641965"><ele>1002.68866</ele><time>2026-01-30T18:59:42.000Z</time></trkpt>
        <trkpt lat="28.216206" lon="105.641985"><ele>1003.8499</ele><time>2026-01-30T18:59:49.000Z</time></trkpt>
        <trkpt lat="28.216164" lon="105.642025"><ele>1003.1955</ele><time>2026-01-30T18:59:57.000Z</time></trkpt>
        <trkpt lat="28.21612" lon="105.642054"><ele>1002.9043</ele><time>2026-01-30T19:00:04.000Z</time></trkpt>
        <trkpt lat="28.21607" lon="105.642066"><ele>1004.5315</ele><time>2026-01-30T19:00:12.000Z</time></trkpt>
        <trkpt lat="28.216022" lon="105.642081"><ele>1007.2594</ele><time>2026-01-30T19:00:25.000Z</time></trkpt>
        <trkpt lat="28.216009" lon="105.642132"><ele>1007.99207</ele><time>2026-01-30T19:01:49.000Z</time></trkpt>
        <trkpt lat="28.215953" lon="105.642115"><ele>1008.0152</ele><time>2026-01-30T19:02:58.000Z</time></trkpt>
        <trkpt lat="28.215902" lon="105.642094"><ele>1008.9415</ele><time>2026-01-30T19:03:32.000Z</time></trkpt>
        <trkpt lat="28.215906" lon="105.64205"><ele>1008.6253</ele><time>2026-01-30T19:03:39.000Z</time></trkpt>
        <trkpt lat="28.21594" lon="105.642002"><ele>1010.43884</ele><time>2026-01-30T19:04:00.000Z</time></trkpt>
        <trkpt lat="28.215952" lon="105.641943"><ele>1010.8408</ele><time>2026-01-30T19:04:46.000Z</time></trkpt>
        <trkpt lat="28.215969" lon="105.641903"><ele>1010.255</ele><time>2026-01-30T19:04:52.000Z</time></trkpt>
        <trkpt lat="28.215977" lon="105.641846"><ele>1009.35394</ele><time>2026-01-30T19:05:02.000Z</time></trkpt>
        <trkpt lat="28.215991" lon="105.641794"><ele>1011.9675</ele><time>2026-01-30T19:05:17.000Z</time></trkpt>
        <trkpt lat="28.216" lon="105.641743"><ele>1014.0497</ele><time>2026-01-30T19:05:34.000Z</time></trkpt>
        <trkpt lat="28.216017" lon="105.641698"><ele>1016.87427</ele><time>2026-01-30T19:05:43.000Z</time></trkpt>
        <trkpt lat="28.216052" lon="105.641659"><ele>1018.1248</ele><time>2026-01-30T19:06:06.000Z</time></trkpt>
        <trkpt lat="28.216083" lon="105.641629"><ele>1018.3531</ele><time>2026-01-30T19:06:13.000Z</time></trkpt>
        <trkpt lat="28.216083" lon="105.641572"><ele>1019.4841</ele><time>2026-01-30T19:06:20.000Z</time></trkpt>
        <trkpt lat="28.216059" lon="105.641522"><ele>1018.6692</ele><time>2026-01-30T19:06:27.000Z</time></trkpt>
        <trkpt lat="28.216016" lon="105.641508"><ele>1018.33234</ele><time>2026-01-30T19:06:33.000Z</time></trkpt>
        <trkpt lat="28.215966" lon="105.641529"><ele>1020.24365</ele><time>2026-01-30T19:06:41.000Z</time></trkpt>
        <trkpt lat="28.215926" lon="105.641563"><ele>1021.5283</ele><time>2026-01-30T19:06:50.000Z</time></trkpt>
        <trkpt lat="28.21588" lon="105.641558"><ele>1023.191</ele><time>2026-01-30T19:07:01.000Z</time></trkpt>
        <trkpt lat="28.215828" lon="105.641528"><ele>1026.9681</ele><time>2026-01-30T19:07:16.000Z</time></trkpt>
        <trkpt lat="28.215782" lon="105.64154"><ele>1028.1942</ele><time>2026-01-30T19:07:26.000Z</time></trkpt>
        <trkpt lat="28.215745" lon="105.641517"><ele>1026.9424</ele><time>2026-01-30T19:07:32.000Z</time></trkpt>
        <trkpt lat="28.215724" lon="105.641475"><ele>1026.8938</ele><time>2026-01-30T19:07:36.000Z</time></trkpt>
        <trkpt lat="28.215678" lon="105.641448"><ele>1027.0424</ele><time>2026-01-30T19:07:44.000Z</time></trkpt>
        <trkpt lat="28.21563" lon="105.641448"><ele>1028.2023</ele><time>2026-01-30T19:07:52.000Z</time></trkpt>
        <trkpt lat="28.215589" lon="105.641469"><ele>1029.0385</ele><time>2026-01-30T19:07:59.000Z</time></trkpt>
        <trkpt lat="28.215549" lon="105.641506"><ele>1028.7665</ele><time>2026-01-30T19:08:05.000Z</time></trkpt>
        <trkpt lat="28.215524" lon="105.641556"><ele>1029.118</ele><time>2026-01-30T19:08:12.000Z</time></trkpt>
        <trkpt lat="28.215489" lon="105.641601"><ele>1029.8757</ele><time>2026-01-30T19:08:21.000Z</time></trkpt>
        <trkpt lat="28.215448" lon="105.641631"><ele>1030.3132</ele><time>2026-01-30T19:08:43.000Z</time></trkpt>
        <trkpt lat="28.215416" lon="105.641668"><ele>1029.7731</ele><time>2026-01-30T19:08:54.000Z</time></trkpt>
        <trkpt lat="28.215374" lon="105.64166"><ele>1030.7416</ele><time>2026-01-30T19:09:00.000Z</time></trkpt>
        <trkpt lat="28.215341" lon="105.641606"><ele>1031.0485</ele><time>2026-01-30T19:09:08.000Z</time></trkpt>
        <trkpt lat="28.215304" lon="105.641559"><ele>1033.477</ele><time>2026-01-30T19:09:18.000Z</time></trkpt>
        <trkpt lat="28.215271" lon="105.641522"><ele>1034.0123</ele><time>2026-01-30T19:09:33.000Z</time></trkpt>
        <trkpt lat="28.215279" lon="105.641574"><ele>1038.4425</ele><time>2026-01-30T19:10:19.000Z</time></trkpt>
        <trkpt lat="28.215323" lon="105.641592"><ele>1036.769</ele><time>2026-01-30T19:10:38.000Z</time></trkpt>
        <trkpt lat="28.215352" lon="105.641631"><ele>1032.3184</ele><time>2026-01-30T19:10:50.000Z</time></trkpt>
        <trkpt lat="28.215357" lon="105.641687"><ele>1034.5547</ele><time>2026-01-30T19:11:03.000Z</time></trkpt>
        <trkpt lat="28.215343" lon="105.641638"><ele>1034.2836</ele><time>2026-01-30T19:11:23.000Z</time></trkpt>
        <trkpt lat="28.215328" lon="105.641581"><ele>1033.9302</ele><time>2026-01-30T19:11:35.000Z</time></trkpt>
        <trkpt lat="28.215293" lon="105.641542"><ele>1035.037</ele><time>2026-01-30T19:11:43.000Z</time></trkpt>
        <trkpt lat="28.215247" lon="105.641533"><ele>1036.081</ele><time>2026-01-30T19:11:49.000Z</time></trkpt>
        <trkpt lat="28.215197" lon="105.641538"><ele>1037.7789</ele><time>2026-01-30T19:11:57.000Z</time></trkpt>
        <trkpt lat="28.215165" lon="105.641581"><ele>1036.2888</ele><time>2026-01-30T19:12:26.000Z</time></trkpt>
        <trkpt lat="28.215129" lon="105.641624"><ele>1036.0839</ele><time>2026-01-30T19:13:08.000Z</time></trkpt>
        <trkpt lat="28.215091" lon="105.641628"><ele>1037.2423</ele><time>2026-01-30T19:13:13.000Z</time></trkpt>
        <trkpt lat="28.215037" lon="105.641646"><ele>1038.992</ele><time>2026-01-30T19:13:20.000Z</time></trkpt>
        <trkpt lat="28.214978" lon="105.641647"><ele>1038.5953</ele><time>2026-01-30T19:13:26.000Z</time></trkpt>
        <trkpt lat="28.21493" lon="105.641643"><ele>1038.8123</ele><time>2026-01-30T19:13:30.000Z</time></trkpt>
        <trkpt lat="28.214881" lon="105.641652"><ele>1039.0961</ele><time>2026-01-30T19:13:34.000Z</time></trkpt>
        <trkpt lat="28.214848" lon="105.641687"><ele>1039.2854</ele><time>2026-01-30T19:13:38.000Z</time></trkpt>
        <trkpt lat="28.21481" lon="105.641734"><ele>1039.5167</ele><time>2026-01-30T19:13:43.000Z</time></trkpt>
        <trkpt lat="28.21478" lon="105.641784"><ele>1039.6207</ele><time>2026-01-30T19:13:48.000Z</time></trkpt>
        <trkpt lat="28.214759" lon="105.641834"><ele>1040.4634</ele><time>2026-01-30T19:13:52.000Z</time></trkpt>
        <trkpt lat="28.214752" lon="105.641896"><ele>1039.9517</ele><time>2026-01-30T19:13:58.000Z</time></trkpt>
        <trkpt lat="28.214781" lon="105.641948"><ele>1037.9994</ele><time>2026-01-30T19:14:08.000Z</time></trkpt>
        <trkpt lat="28.214772" lon="105.641999"><ele>1035.4152</ele><time>2026-01-30T19:15:28.000Z</time></trkpt>
        <trkpt lat="28.214786" lon="105.642045"><ele>1033.5475</ele><time>2026-01-30T19:15:42.000Z</time></trkpt>
        <trkpt lat="28.21476" lon="105.642083"><ele>1031.1586</ele><time>2026-01-30T19:15:52.000Z</time></trkpt>
        <trkpt lat="28.214739" lon="105.642137"><ele>1030.412</ele><time>2026-01-30T19:16:01.000Z</time></trkpt>
        <trkpt lat="28.214704" lon="105.642172"><ele>1029.9384</ele><time>2026-01-30T19:16:12.000Z</time></trkpt>
        <trkpt lat="28.214665" lon="105.642216"><ele>1029.823</ele><time>2026-01-30T19:16:28.000Z</time></trkpt>
        <trkpt lat="28.214648" lon="105.642266"><ele>1028.8329</ele><time>2026-01-30T19:16:50.000Z</time></trkpt>
        <trkpt lat="28.214636" lon="105.642314"><ele>1027.0829</ele><time>2026-01-30T19:16:55.000Z</time></trkpt>
        <trkpt lat="28.214617" lon="105.642379"><ele>1025.1118</ele><time>2026-01-30T19:17:03.000Z</time></trkpt>
        <trkpt lat="28.214615" lon="105.642434"><ele>1026.6241</ele><time>2026-01-30T19:17:13.000Z</time></trkpt>
        <trkpt lat="28.214628" lon="105.642486"><ele>1027.5796</ele><time>2026-01-30T19:17:18.000Z</time></trkpt>
        <trkpt lat="28.214651" lon="105.642537"><ele>1028.0802</ele><time>2026-01-30T19:17:23.000Z</time></trkpt>
        <trkpt lat="28.214698" lon="105.642573"><ele>1033.6813</ele><time>2026-01-30T19:17:40.000Z</time></trkpt>
        <trkpt lat="28.21473" lon="105.64259"><ele>1035.6284</ele><time>2026-01-30T19:17:45.000Z</time></trkpt>
        <trkpt lat="28.214773" lon="105.64263"><ele>1035.322</ele><time>2026-01-30T19:17:54.000Z</time></trkpt>
        <trkpt lat="28.214803" lon="105.642681"><ele>1033.1641</ele><time>2026-01-30T19:18:00.000Z</time></trkpt>
        <trkpt lat="28.214836" lon="105.642721"><ele>1032.29</ele><time>2026-01-30T19:18:05.000Z</time></trkpt>
        <trkpt lat="28.214882" lon="105.642749"><ele>1033.7721</ele><time>2026-01-30T19:18:20.000Z</time></trkpt>
        <trkpt lat="28.214908" lon="105.642786"><ele>1035.1885</ele><time>2026-01-30T19:18:32.000Z</time></trkpt>
        <trkpt lat="28.214929" lon="105.642835"><ele>1036.7433</ele><time>2026-01-30T19:18:43.000Z</time></trkpt>
        <trkpt lat="28.214972" lon="105.642861"><ele>1036.586</ele><time>2026-01-30T19:18:54.000Z</time></trkpt>
        <trkpt lat="28.215013" lon="105.642889"><ele>1037.0632</ele><time>2026-01-30T19:19:07.000Z</time></trkpt>
        <trkpt lat="28.215052" lon="105.6429"><ele>1037.4252</ele><time>2026-01-30T19:19:14.000Z</time></trkpt>
        <trkpt lat="28.2151" lon="105.642926"><ele>1041.1083</ele><time>2026-01-30T19:19:50.000Z</time></trkpt>
        <trkpt lat="28.215139" lon="105.642926"><ele>1041.4473</ele><time>2026-01-30T19:19:58.000Z</time></trkpt>
        <trkpt lat="28.215181" lon="105.642959"><ele>1041.1389</ele><time>2026-01-30T19:20:07.000Z</time></trkpt>
        <trkpt lat="28.215192" lon="105.64301"><ele>1040.9849</ele><time>2026-01-30T19:20:14.000Z</time></trkpt>
        <trkpt lat="28.215209" lon="105.643062"><ele>1041.365</ele><time>2026-01-30T19:20:25.000Z</time></trkpt>
        <trkpt lat="28.215201" lon="105.64311"><ele>1041.4982</ele><time>2026-01-30T19:20:34.000Z</time></trkpt>
        <trkpt lat="28.215156" lon="105.643115"><ele>1045.134</ele><time>2026-01-30T19:20:44.000Z</time></trkpt>
        <trkpt lat="28.215105" lon="105.643102"><ele>1048.3461</ele><time>2026-01-30T19:20:59.000Z</time></trkpt>
        <trkpt lat="28.215061" lon="105.643115"><ele>1054.1136</ele><time>2026-01-30T19:21:19.000Z</time></trkpt>
        <trkpt lat="28.215026" lon="105.643151"><ele>1054.9178</ele><time>2026-01-30T19:21:30.000Z</time></trkpt>
        <trkpt lat="28.214988" lon="105.643187"><ele>1057.0337</ele><time>2026-01-30T19:21:44.000Z</time></trkpt>
        <trkpt lat="28.214943" lon="105.643185"><ele>1059.2692</ele><time>2026-01-30T19:21:57.000Z</time></trkpt>
        <trkpt lat="28.214897" lon="105.643214"><ele>1058.0266</ele><time>2026-01-30T19:22:29.000Z</time></trkpt>
        <trkpt lat="28.214856" lon="105.643231"><ele>1062.6003</ele><time>2026-01-30T19:22:40.000Z</time></trkpt>
        <trkpt lat="28.214807" lon="105.643238"><ele>1065.3127</ele><time>2026-01-30T19:22:49.000Z</time></trkpt>
        <trkpt lat="28.214762" lon="105.643258"><ele>1067.8397</ele><time>2026-01-30T19:23:04.000Z</time></trkpt>
        <trkpt lat="28.214712" lon="105.643258"><ele>1072.5552</ele><time>2026-01-30T19:23:22.000Z</time></trkpt>
        <trkpt lat="28.21471" lon="105.643306"><ele>1072.0493</ele><time>2026-01-30T19:23:35.000Z</time></trkpt>
        <trkpt lat="28.214726" lon="105.643357"><ele>1073.233</ele><time>2026-01-30T19:23:46.000Z</time></trkpt>
        <trkpt lat="28.214762" lon="105.643397"><ele>1077.1592</ele><time>2026-01-30T19:24:02.000Z</time></trkpt>
        <trkpt lat="28.214785" lon="105.643437"><ele>1077.2307</ele><time>2026-01-30T19:24:08.000Z</time></trkpt>
        <trkpt lat="28.214817" lon="105.643491"><ele>1077.669</ele><time>2026-01-30T19:24:17.000Z</time></trkpt>
        <trkpt lat="28.214835" lon="105.643548"><ele>1079.9921</ele><time>2026-01-30T19:26:00.000Z</time></trkpt>
        <trkpt lat="28.214836" lon="105.64359"><ele>1081.8834</ele><time>2026-01-30T19:26:07.000Z</time></trkpt>
        <trkpt lat="28.214845" lon="105.643556"><ele>1080.9882</ele><time>2026-01-30T19:26:31.000Z</time></trkpt>
        <trkpt lat="28.214826" lon="105.64351"><ele>1078.504</ele><time>2026-01-30T19:26:38.000Z</time></trkpt>
        <trkpt lat="28.214848" lon="105.643557"><ele>1080.6145</ele><time>2026-01-30T19:29:45.000Z</time></trkpt>
        <trkpt lat="28.214849" lon="105.643606"><ele>1081.6621</ele><time>2026-01-30T19:29:52.000Z</time></trkpt>
        <trkpt lat="28.214804" lon="105.643636"><ele>1084.2426</ele><time>2026-01-30T19:30:00.000Z</time></trkpt>
        <trkpt lat="28.214753" lon="105.643652"><ele>1086.4675</ele><time>2026-01-30T19:30:09.000Z</time></trkpt>
        <trkpt lat="28.214705" lon="105.643645"><ele>1088.9237</ele><time>2026-01-30T19:30:15.000Z</time></trkpt>
        <trkpt lat="28.214654" lon="105.643618"><ele>1090.75</ele><time>2026-01-30T19:30:21.000Z</time></trkpt>
        <trkpt lat="28.214613" lon="105.643584"><ele>1091.5519</ele><time>2026-01-30T19:30:26.000Z</time></trkpt>
        <trkpt lat="28.214565" lon="105.64356"><ele>1092.5468</ele><time>2026-01-30T19:30:33.000Z</time></trkpt>
        <trkpt lat="28.214521" lon="105.643562"><ele>1093.1519</ele><time>2026-01-30T19:30:38.000Z</time></trkpt>
        <trkpt lat="28.214466" lon="105.643564"><ele>1093.1189</ele><time>2026-01-30T19:30:44.000Z</time></trkpt>
        <trkpt lat="28.214412" lon="105.643563"><ele>1094.6835</ele><time>2026-01-30T19:30:51.000Z</time></trkpt>
        <trkpt lat="28.214368" lon="105.643555"><ele>1096.1115</ele><time>2026-01-30T19:30:56.000Z</time></trkpt>
        <trkpt lat="28.214322" lon="105.64355"><ele>1097.2036</ele><time>2026-01-30T19:31:01.000Z</time></trkpt>
        <trkpt lat="28.214278" lon="105.643542"><ele>1097.631</ele><time>2026-01-30T19:31:05.000Z</time></trkpt>
        <trkpt lat="28.214226" lon="105.643539"><ele>1097.9542</ele><time>2026-01-30T19:31:10.000Z</time></trkpt>
        <trkpt lat="28.214178" lon="105.643525"><ele>1098.1825</ele><time>2026-01-30T19:31:14.000Z</time></trkpt>
        <trkpt lat="28.214121" lon="105.643507"><ele>1098.273</ele><time>2026-01-30T19:31:20.000Z</time></trkpt>
        <trkpt lat="28.214073" lon="105.643505"><ele>1098.9476</ele><time>2026-01-30T19:31:26.000Z</time></trkpt>
        <trkpt lat="28.214021" lon="105.643514"><ele>1100.1818</ele><time>2026-01-30T19:31:33.000Z</time></trkpt>
        <trkpt lat="28.213977" lon="105.643515"><ele>1101.119</ele><time>2026-01-30T19:31:38.000Z</time></trkpt>
        <trkpt lat="28.213929" lon="105.643508"><ele>1101.7676</ele><time>2026-01-30T19:31:44.000Z</time></trkpt>
        <trkpt lat="28.213881" lon="105.643514"><ele>1102.6519</ele><time>2026-01-30T19:31:51.000Z</time></trkpt>
        <trkpt lat="28.21383" lon="105.64353"><ele>1103.1079</ele><time>2026-01-30T19:31:57.000Z</time></trkpt>
        <trkpt lat="28.213781" lon="105.643549"><ele>1105.3242</ele><time>2026-01-30T19:32:03.000Z</time></trkpt>
        <trkpt lat="28.213736" lon="105.64356"><ele>1106.9554</ele><time>2026-01-30T19:32:08.000Z</time></trkpt>
        <trkpt lat="28.213682" lon="105.643569"><ele>1108.1477</ele><time>2026-01-30T19:32:15.000Z</time></trkpt>
        <trkpt lat="28.213636" lon="105.643583"><ele>1108.4774</ele><time>2026-01-30T19:32:20.000Z</time></trkpt>
        <trkpt lat="28.213581" lon="105.643598"><ele>1110.7665</ele><time>2026-01-30T19:32:26.000Z</time></trkpt>
        <trkpt lat="28.213534" lon="105.643613"><ele>1112.5232</ele><time>2026-01-30T19:32:31.000Z</time></trkpt>
        <trkpt lat="28.213481" lon="105.643623"><ele>1114.5055</ele><time>2026-01-30T19:32:37.000Z</time></trkpt>
        <trkpt lat="28.213433" lon="105.643631"><ele>1115.3146</ele><time>2026-01-30T19:32:42.000Z</time></trkpt>
        <trkpt lat="28.213389" lon="105.643658"><ele>1116.6521</ele><time>2026-01-30T19:32:47.000Z</time></trkpt>
        <trkpt lat="28.213349" lon="105.643698"><ele>1118.322</ele><time>2026-01-30T19:32:53.000Z</time></trkpt>
        <trkpt lat="28.213302" lon="105.643718"><ele>1120.5724</ele><time>2026-01-30T19:32:59.000Z</time></trkpt>
        <trkpt lat="28.213257" lon="105.64374"><ele>1121.2417</ele><time>2026-01-30T19:33:05.000Z</time></trkpt>
        <trkpt lat="28.213208" lon="105.64375"><ele>1122.0911</ele><time>2026-01-30T19:33:11.000Z</time></trkpt>
        <trkpt lat="28.213152" lon="105.64376"><ele>1124.6174</ele><time>2026-01-30T19:33:17.000Z</time></trkpt>
        <trkpt lat="28.213097" lon="105.643774"><ele>1125.6602</ele><time>2026-01-30T19:33:23.000Z</time></trkpt>
        <trkpt lat="28.213049" lon="105.643793"><ele>1125.6061</ele><time>2026-01-30T19:33:28.000Z</time></trkpt>
        <trkpt lat="28.212998" lon="105.643803"><ele>1125.5195</ele><time>2026-01-30T19:33:33.000Z</time></trkpt>
        <trkpt lat="28.213015" lon="105.643844"><ele>1127.8253</ele><time>2026-01-30T19:33:49.000Z</time></trkpt>
        <trkpt lat="28.213068" lon="105.64386"><ele>1128.6835</ele><time>2026-01-30T19:33:56.000Z</time></trkpt>
        <trkpt lat="28.213114" lon="105.643863"><ele>1129.9698</ele><time>2026-01-30T19:34:01.000Z</time></trkpt>
        <trkpt lat="28.213162" lon="105.643861"><ele>1131.3959</ele><time>2026-01-30T19:34:06.000Z</time></trkpt>
        <trkpt lat="28.213214" lon="105.643874"><ele>1132.7181</ele><time>2026-01-30T19:34:17.000Z</time></trkpt>
        <trkpt lat="28.213255" lon="105.643876"><ele>1133.0151</ele><time>2026-01-30T19:34:23.000Z</time></trkpt>
        <trkpt lat="28.213303" lon="105.643885"><ele>1133.6329</ele><time>2026-01-30T19:34:30.000Z</time></trkpt>
        <trkpt lat="28.213355" lon="105.643901"><ele>1133.8624</ele><time>2026-01-30T19:34:42.000Z</time></trkpt>
        <trkpt lat="28.213394" lon="105.643924"><ele>1136.7877</ele><time>2026-01-30T19:34:53.000Z</time></trkpt>
        <trkpt lat="28.213437" lon="105.643951"><ele>1136.4393</ele><time>2026-01-30T19:35:23.000Z</time></trkpt>
        <trkpt lat="28.213476" lon="105.643951"><ele>1137.1282</ele><time>2026-01-30T19:35:29.000Z</time></trkpt>
        <trkpt lat="28.213518" lon="105.643973"><ele>1137.9583</ele><time>2026-01-30T19:35:34.000Z</time></trkpt>
        <trkpt lat="28.213566" lon="105.644006"><ele>1139.1246</ele><time>2026-01-30T19:35:43.000Z</time></trkpt>
        <trkpt lat="28.213607" lon="105.644034"><ele>1139.7236</ele><time>2026-01-30T19:35:59.000Z</time></trkpt>
        <trkpt lat="28.21365" lon="105.644054"><ele>1142.2372</ele><time>2026-01-30T19:37:32.000Z</time></trkpt>
        <trkpt lat="28.213687" lon="105.644078"><ele>1143.9951</ele><time>2026-01-30T19:37:41.000Z</time></trkpt>
        <trkpt lat="28.213725" lon="105.644114"><ele>1144.6594</ele><time>2026-01-30T19:37:48.000Z</time></trkpt>
        <trkpt lat="28.213765" lon="105.644156"><ele>1146.0634</ele><time>2026-01-30T19:37:56.000Z</time></trkpt>
        <trkpt lat="28.21381" lon="105.644184"><ele>1147.824</ele><time>2026-01-30T19:38:05.000Z</time></trkpt>
        <trkpt lat="28.213848" lon="105.644209"><ele>1149.1748</ele><time>2026-01-30T19:38:12.000Z</time></trkpt>
        <trkpt lat="28.213882" lon="105.644247"><ele>1151.6372</ele><time>2026-01-30T19:38:19.000Z</time></trkpt>
        <trkpt lat="28.213918" lon="105.64429"><ele>1152.8553</ele><time>2026-01-30T19:38:26.000Z</time></trkpt>
        <trkpt lat="28.213951" lon="105.64433"><ele>1153.7257</ele><time>2026-01-30T19:38:33.000Z</time></trkpt>
        <trkpt lat="28.21398" lon="105.644374"><ele>1153.2755</ele><time>2026-01-30T19:38:43.000Z</time></trkpt>
        <trkpt lat="28.214003" lon="105.644415"><ele>1152.839</ele><time>2026-01-30T19:38:50.000Z</time></trkpt>
        <trkpt lat="28.214043" lon="105.64446"><ele>1153.391</ele><time>2026-01-30T19:38:58.000Z</time></trkpt>
        <trkpt lat="28.214085" lon="105.644489"><ele>1153.2305</ele><time>2026-01-30T19:39:04.000Z</time></trkpt>
        <trkpt lat="28.214126" lon="105.644518"><ele>1154.2396</ele><time>2026-01-30T19:39:09.000Z</time></trkpt>
        <trkpt lat="28.214173" lon="105.644544"><ele>1156.4313</ele><time>2026-01-30T19:39:16.000Z</time></trkpt>
        <trkpt lat="28.214221" lon="105.644556"><ele>1158.5657</ele><time>2026-01-30T19:39:23.000Z</time></trkpt>
        <trkpt lat="28.214272" lon="105.644568"><ele>1160.7433</ele><time>2026-01-30T19:39:31.000Z</time></trkpt>
        <trkpt lat="28.214321" lon="105.64458"><ele>1162.5743</ele><time>2026-01-30T19:39:38.000Z</time></trkpt>
        <trkpt lat="28.214369" lon="105.644588"><ele>1163.9131</ele><time>2026-01-30T19:39:45.000Z</time></trkpt>
        <trkpt lat="28.214423" lon="105.644603"><ele>1166.1516</ele><time>2026-01-30T19:39:57.000Z</time></trkpt>
        <trkpt lat="28.214466" lon="105.644615"><ele>1166.5865</ele><time>2026-01-30T19:40:05.000Z</time></trkpt>
        <trkpt lat="28.214509" lon="105.644642"><ele>1167.3081</ele><time>2026-01-30T19:40:17.000Z</time></trkpt>
        <trkpt lat="28.214547" lon="105.644675"><ele>1168.3153</ele><time>2026-01-30T19:40:28.000Z</time></trkpt>
        <trkpt lat="28.214582" lon="105.644696"><ele>1168.5944</ele><time>2026-01-30T19:40:33.000Z</time></trkpt>
        <trkpt lat="28.214634" lon="105.644729"><ele>1169.6752</ele><time>2026-01-30T19:40:41.000Z</time></trkpt>
        <trkpt lat="28.214675" lon="105.644759"><ele>1170.9995</ele><time>2026-01-30T19:40:48.000Z</time></trkpt>
        <trkpt lat="28.214722" lon="105.644772"><ele>1173.2382</ele><time>2026-01-30T19:40:55.000Z</time></trkpt>
        <trkpt lat="28.214773" lon="105.644788"><ele>1175.5612</ele><time>2026-01-30T19:41:09.000Z</time></trkpt>
        <trkpt lat="28.214809" lon="105.644804"><ele>1175.747</ele><time>2026-01-30T19:41:15.000Z</time></trkpt>
        <trkpt lat="28.214857" lon="105.644818"><ele>1176.9764</ele><time>2026-01-30T19:41:21.000Z</time></trkpt>
        <trkpt lat="28.214913" lon="105.64483"><ele>1177.7089</ele><time>2026-01-30T19:41:28.000Z</time></trkpt>
        <trkpt lat="28.214961" lon="105.644832"><ele>1177.6053</ele><time>2026-01-30T19:41:34.000Z</time></trkpt>
        <trkpt lat="28.215009" lon="105.644826"><ele>1179.0757</ele><time>2026-01-30T19:41:39.000Z</time></trkpt>
        <trkpt lat="28.215066" lon="105.644823"><ele>1180.0511</ele><time>2026-01-30T19:41:45.000Z</time></trkpt>
        <trkpt lat="28.215114" lon="105.644809"><ele>1181.0977</ele><time>2026-01-30T19:41:50.000Z</time></trkpt>
        <trkpt lat="28.215161" lon="105.64481"><ele>1181.5082</ele><time>2026-01-30T19:41:55.000Z</time></trkpt>
        <trkpt lat="28.215211" lon="105.644823"><ele>1181.6399</ele><time>2026-01-30T19:42:00.000Z</time></trkpt>
        <trkpt lat="28.215251" lon="105.644854"><ele>1182.0759</ele><time>2026-01-30T19:42:05.000Z</time></trkpt>
        <trkpt lat="28.215276" lon="105.644906"><ele>1182.8118</ele><time>2026-01-30T19:42:10.000Z</time></trkpt>
        <trkpt lat="28.215302" lon="105.644962"><ele>1184.1295</ele><time>2026-01-30T19:42:20.000Z</time></trkpt>
        <trkpt lat="28.21527" lon="105.645005"><ele>1184.1276</ele><time>2026-01-30T19:43:33.000Z</time></trkpt>
        <trkpt lat="28.215278" lon="105.645049"><ele>1184.0344</ele><time>2026-01-30T19:43:38.000Z</time></trkpt>
        <trkpt lat="28.215279" lon="105.645116"><ele>1185.2148</ele><time>2026-01-30T19:43:43.000Z</time></trkpt>
        <trkpt lat="28.215289" lon="105.645175"><ele>1185.6848</ele><time>2026-01-30T19:43:47.000Z</time></trkpt>
        <trkpt lat="28.215304" lon="105.645241"><ele>1185.7131</ele><time>2026-01-30T19:43:52.000Z</time></trkpt>
        <trkpt lat="28.215313" lon="105.645292"><ele>1186.8496</ele><time>2026-01-30T19:43:56.000Z</time></trkpt>
        <trkpt lat="28.215319" lon="105.645343"><ele>1187.1183</ele><time>2026-01-30T19:44:00.000Z</time></trkpt>
        <trkpt lat="28.215329" lon="105.645395"><ele>1187.6283</ele><time>2026-01-30T19:44:04.000Z</time></trkpt>
        <trkpt lat="28.215341" lon="105.645454"><ele>1188.915</ele><time>2026-01-30T19:44:09.000Z</time></trkpt>
        <trkpt lat="28.215353" lon="105.64551"><ele>1190.0657</ele><time>2026-01-30T19:44:15.000Z</time></trkpt>
        <trkpt lat="28.215358" lon="105.645558"><ele>1191.3328</ele><time>2026-01-30T19:44:20.000Z</time></trkpt>
        <trkpt lat="28.215362" lon="105.645609"><ele>1192.4834</ele><time>2026-01-30T19:44:25.000Z</time></trkpt>
        <trkpt lat="28.215352" lon="105.645665"><ele>1193.1211</ele><time>2026-01-30T19:44:32.000Z</time></trkpt>
        <trkpt lat="28.215321" lon="105.645711"><ele>1192.275</ele><time>2026-01-30T19:44:42.000Z</time></trkpt>
        <trkpt lat="28.215286" lon="105.645729"><ele>1193.263</ele><time>2026-01-30T19:44:46.000Z</time></trkpt>
        <trkpt lat="28.215232" lon="105.645736"><ele>1193.921</ele><time>2026-01-30T19:44:53.000Z</time></trkpt>
        <trkpt lat="28.215186" lon="105.645771"><ele>1193.9164</ele><time>2026-01-30T19:45:25.000Z</time></trkpt>
        <trkpt lat="28.215178" lon="105.645811"><ele>1194.0321</ele><time>2026-01-30T19:45:29.000Z</time></trkpt>
        <trkpt lat="28.215153" lon="105.645868"><ele>1193.1228</ele><time>2026-01-30T19:45:34.000Z</time></trkpt>
        <trkpt lat="28.215134" lon="105.64594"><ele>1193.7223</ele><time>2026-01-30T19:45:41.000Z</time></trkpt>
        <trkpt lat="28.215118" lon="105.645985"><ele>1193.4432</ele><time>2026-01-30T19:45:45.000Z</time></trkpt>
        <trkpt lat="28.215106" lon="105.64604"><ele>1193.7192</ele><time>2026-01-30T19:45:50.000Z</time></trkpt>
        <trkpt lat="28.215098" lon="105.646095"><ele>1193.6233</ele><time>2026-01-30T19:45:55.000Z</time></trkpt>
        <trkpt lat="28.21509" lon="105.646144"><ele>1193.8712</ele><time>2026-01-30T19:45:59.000Z</time></trkpt>
        <trkpt lat="28.215072" lon="105.646195"><ele>1193.8789</ele><time>2026-01-30T19:46:04.000Z</time></trkpt>
        <trkpt lat="28.215064" lon="105.646257"><ele>1193.9907</ele><time>2026-01-30T19:46:09.000Z</time></trkpt>
        <trkpt lat="28.215051" lon="105.646322"><ele>1195.2814</ele><time>2026-01-30T19:46:15.000Z</time></trkpt>
        <trkpt lat="28.215043" lon="105.646375"><ele>1196.5765</ele><time>2026-01-30T19:46:20.000Z</time></trkpt>
        <trkpt lat="28.215033" lon="105.64643"><ele>1197.3597</ele><time>2026-01-30T19:46:26.000Z</time></trkpt>
        <trkpt lat="28.215021" lon="105.646485"><ele>1198.4504</ele><time>2026-01-30T19:46:32.000Z</time></trkpt>
        <trkpt lat="28.215036" lon="105.646537"><ele>1198.9545</ele><time>2026-01-30T19:46:37.000Z</time></trkpt>
        <trkpt lat="28.215054" lon="105.646586"><ele>1199.8473</ele><time>2026-01-30T19:46:41.000Z</time></trkpt>
        <trkpt lat="28.215082" lon="105.64663"><ele>1200.3228</ele><time>2026-01-30T19:46:45.000Z</time></trkpt>
        <trkpt lat="28.215133" lon="105.646663"><ele>1201.0559</ele><time>2026-01-30T19:46:50.000Z</time></trkpt>
        <trkpt lat="28.21518" lon="105.646666"><ele>1202.6771</ele><time>2026-01-30T19:46:54.000Z</time></trkpt>
        <trkpt lat="28.215231" lon="105.646657"><ele>1203.7391</ele><time>2026-01-30T19:46:58.000Z</time></trkpt>
        <trkpt lat="28.215286" lon="105.646636"><ele>1204.1196</ele><time>2026-01-30T19:47:04.000Z</time></trkpt>
        <trkpt lat="28.215333" lon="105.646617"><ele>1205.5176</ele><time>2026-01-30T19:47:14.000Z</time></trkpt>
        <trkpt lat="28.215374" lon="105.646604"><ele>1206.1906</ele><time>2026-01-30T19:47:19.000Z</time></trkpt>
        <trkpt lat="28.215423" lon="105.646606"><ele>1206.9528</ele><time>2026-01-30T19:47:23.000Z</time></trkpt>
        <trkpt lat="28.215484" lon="105.646624"><ele>1208.0848</ele><time>2026-01-30T19:47:29.000Z</time></trkpt>
        <trkpt lat="28.215518" lon="105.646675"><ele>1208.3605</ele><time>2026-01-30T19:47:35.000Z</time></trkpt>
        <trkpt lat="28.215544" lon="105.646726"><ele>1208.589</ele><time>2026-01-30T19:47:40.000Z</time></trkpt>
        <trkpt lat="28.215571" lon="105.646781"><ele>1209.0131</ele><time>2026-01-30T19:47:45.000Z</time></trkpt>
        <trkpt lat="28.215601" lon="105.646825"><ele>1209.7474</ele><time>2026-01-30T19:47:49.000Z</time></trkpt>
        <trkpt lat="28.215631" lon="105.646872"><ele>1209.4408</ele><time>2026-01-30T19:47:54.000Z</time></trkpt>
        <trkpt lat="28.215657" lon="105.646913"><ele>1209.7839</ele><time>2026-01-30T19:47:58.000Z</time></trkpt>
        <trkpt lat="28.215678" lon="105.646968"><ele>1210.4581</ele><time>2026-01-30T19:48:03.000Z</time></trkpt>
        <trkpt lat="28.215687" lon="105.647021"><ele>1211.2781</ele><time>2026-01-30T19:48:07.000Z</time></trkpt>
        <trkpt lat="28.21568" lon="105.647083"><ele>1212.2305</ele><time>2026-01-30T19:48:12.000Z</time></trkpt>
        <trkpt lat="28.215675" lon="105.64714"><ele>1212.4446</ele><time>2026-01-30T19:48:17.000Z</time></trkpt>
        <trkpt lat="28.215675" lon="105.647189"><ele>1212.5076</ele><time>2026-01-30T19:48:21.000Z</time></trkpt>
        <trkpt lat="28.215692" lon="105.647249"><ele>1213.499</ele><time>2026-01-30T19:48:26.000Z</time></trkpt>
        <trkpt lat="28.215728" lon="105.647292"><ele>1214.9873</ele><time>2026-01-30T19:48:31.000Z</time></trkpt>
        <trkpt lat="28.215773" lon="105.647322"><ele>1216.1073</ele><time>2026-01-30T19:48:36.000Z</time></trkpt>
        <trkpt lat="28.21582" lon="105.647343"><ele>1216.9612</ele><time>2026-01-30T19:48:41.000Z</time></trkpt>
        <trkpt lat="28.215868" lon="105.647356"><ele>1217.6729</ele><time>2026-01-30T19:48:46.000Z</time></trkpt>
        <trkpt lat="28.215918" lon="105.647369"><ele>1218.7124</ele><time>2026-01-30T19:48:51.000Z</time></trkpt>
        <trkpt lat="28.215969" lon="105.647382"><ele>1219.8652</ele><time>2026-01-30T19:48:56.000Z</time></trkpt>
        <trkpt lat="28.216012" lon="105.647394"><ele>1220.4246</ele><time>2026-01-30T19:49:00.000Z</time></trkpt>
        <trkpt lat="28.216056" lon="105.647423"><ele>1220.5554</ele><time>2026-01-30T19:49:05.000Z</time></trkpt>
        <trkpt lat="28.216091" lon="105.647466"><ele>1221.9728</ele><time>2026-01-30T19:49:10.000Z</time></trkpt>
        <trkpt lat="28.216118" lon="105.647508"><ele>1222.2052</ele><time>2026-01-30T19:49:14.000Z</time></trkpt>
        <trkpt lat="28.216144" lon="105.647552"><ele>1222.6742</ele><time>2026-01-30T19:49:18.000Z</time></trkpt>
        <trkpt lat="28.216174" lon="105.647603"><ele>1222.6824</ele><time>2026-01-30T19:49:23.000Z</time></trkpt>
        <trkpt lat="28.216199" lon="105.647648"><ele>1222.8077</ele><time>2026-01-30T19:49:28.000Z</time></trkpt>
        <trkpt lat="28.216244" lon="105.647659"><ele>1221.741</ele><time>2026-01-30T19:50:08.000Z</time></trkpt>
        <trkpt lat="28.216267" lon="105.647706"><ele>1223.4519</ele><time>2026-01-30T19:50:48.000Z</time></trkpt>
        <trkpt lat="28.216306" lon="105.647693"><ele>1224.336</ele><time>2026-01-30T19:50:57.000Z</time></trkpt>
        <trkpt lat="28.216328" lon="105.647646"><ele>1225.4374</ele><time>2026-01-30T19:51:02.000Z</time></trkpt>
        <trkpt lat="28.216355" lon="105.647585"><ele>1224.3052</ele><time>2026-01-30T19:51:08.000Z</time></trkpt>
        <trkpt lat="28.216373" lon="105.647527"><ele>1224.6337</ele><time>2026-01-30T19:51:13.000Z</time></trkpt>
        <trkpt lat="28.216382" lon="105.64747"><ele>1224.8486</ele><time>2026-01-30T19:51:18.000Z</time></trkpt>
        <trkpt lat="28.216394" lon="105.64741"><ele>1223.6802</ele><time>2026-01-30T19:51:24.000Z</time></trkpt>
        <trkpt lat="28.216411" lon="105.647362"><ele>1221.7698</ele><time>2026-01-30T19:51:29.000Z</time></trkpt>
        <trkpt lat="28.21644" lon="105.647318"><ele>1221.3628</ele><time>2026-01-30T19:51:35.000Z</time></trkpt>
        <trkpt lat="28.216461" lon="105.647271"><ele>1221.248</ele><time>2026-01-30T19:51:41.000Z</time></trkpt>
        <trkpt lat="28.216465" lon="105.64732"><ele>1222.5604</ele><time>2026-01-30T19:52:31.000Z</time></trkpt>
        <trkpt lat="28.216513" lon="105.647349"><ele>1222.2928</ele><time>2026-01-30T19:53:47.000Z</time></trkpt>
        <trkpt lat="28.216549" lon="105.647314"><ele>1222.3577</ele><time>2026-01-30T19:53:54.000Z</time></trkpt>
        <trkpt lat="28.216597" lon="105.647327"><ele>1222.2413</ele><time>2026-01-30T19:54:03.000Z</time></trkpt>
        <trkpt lat="28.216648" lon="105.647341"><ele>1222.924</ele><time>2026-01-30T19:54:09.000Z</time></trkpt>
        <trkpt lat="28.2167" lon="105.64735"><ele>1222.852</ele><time>2026-01-30T19:54:15.000Z</time></trkpt>
        <trkpt lat="28.216746" lon="105.647342"><ele>1221.9525</ele><time>2026-01-30T19:54:20.000Z</time></trkpt>
        <trkpt lat="28.216778" lon="105.647381"><ele>1225.6161</ele><time>2026-01-30T19:55:27.000Z</time></trkpt>
        <trkpt lat="28.216752" lon="105.647425"><ele>1225.5684</ele><time>2026-01-30T19:57:07.000Z</time></trkpt>
        <trkpt lat="28.216724" lon="105.647442"><ele>1225.7141</ele><time>2026-01-30T19:57:15.000Z</time></trkpt>
        <trkpt lat="28.216669" lon="105.647463"><ele>1228.1981</ele><time>2026-01-30T19:57:26.000Z</time></trkpt>
        <trkpt lat="28.216622" lon="105.647483"><ele>1228.8546</ele><time>2026-01-30T19:57:59.000Z</time></trkpt>
        <trkpt lat="28.216592" lon="105.647524"><ele>1228.3356</ele><time>2026-01-30T19:58:27.000Z</time></trkpt>
        <trkpt lat="28.216628" lon="105.647559"><ele>1228.584</ele><time>2026-01-30T19:58:43.000Z</time></trkpt>
        <trkpt lat="28.21666" lon="105.647599"><ele>1235.0957</ele><time>2026-01-30T19:59:12.000Z</time></trkpt>
        <trkpt lat="28.216636" lon="105.647642"><ele>1238.8341</ele><time>2026-01-30T19:59:45.000Z</time></trkpt>
        <trkpt lat="28.216658" lon="105.647687"><ele>1241.2513</ele><time>2026-01-30T20:00:05.000Z</time></trkpt>
        <trkpt lat="28.216699" lon="105.647713"><ele>1244.2811</ele><time>2026-01-30T20:00:36.000Z</time></trkpt>
        <trkpt lat="28.216743" lon="105.647722"><ele>1245.3141</ele><time>2026-01-30T20:00:53.000Z</time></trkpt>
        <trkpt lat="28.216788" lon="105.647732"><ele>1244.5966</ele><time>2026-01-30T20:01:05.000Z</time></trkpt>
        <trkpt lat="28.216834" lon="105.647735"><ele>1249.1432</ele><time>2026-01-30T20:01:24.000Z</time></trkpt>
        <trkpt lat="28.216877" lon="105.647715"><ele>1246.9387</ele><time>2026-01-30T20:03:53.000Z</time></trkpt>
        <trkpt lat="28.216918" lon="105.647743"><ele>1254.0951</ele><time>2026-01-30T20:05:41.000Z</time></trkpt>
        <trkpt lat="28.216965" lon="105.647728"><ele>1254.1467</ele><time>2026-01-30T20:06:07.000Z</time></trkpt>
        <trkpt lat="28.21701" lon="105.647726"><ele>1258.4937</ele><time>2026-01-30T20:06:21.000Z</time></trkpt>
        <trkpt lat="28.217055" lon="105.647711"><ele>1261.9968</ele><time>2026-01-30T20:06:43.000Z</time></trkpt>
        <trkpt lat="28.217112" lon="105.64772"><ele>1264.6741</ele><time>2026-01-30T20:07:10.000Z</time></trkpt>
        <trkpt lat="28.217153" lon="105.6477"><ele>1266.5502</ele><time>2026-01-30T20:07:30.000Z</time></trkpt>
        <trkpt lat="28.217195" lon="105.647684"><ele>1269.9672</ele><time>2026-01-30T20:07:41.000Z</time></trkpt>
        <trkpt lat="28.217251" lon="105.647686"><ele>1274.3699</ele><time>2026-01-30T20:07:53.000Z</time></trkpt>
        <trkpt lat="28.217301" lon="105.647684"><ele>1277.971</ele><time>2026-01-30T20:08:07.000Z</time></trkpt>
        <trkpt lat="28.217342" lon="105.647661"><ele>1280.8289</ele><time>2026-01-30T20:08:23.000Z</time></trkpt>
        <trkpt lat="28.217386" lon="105.647657"><ele>1282.2258</ele><time>2026-01-30T20:08:35.000Z</time></trkpt>
        <trkpt lat="28.217431" lon="105.647675"><ele>1287.5496</ele><time>2026-01-30T20:08:54.000Z</time></trkpt>
        <trkpt lat="28.217478" lon="105.647671"><ele>1290.6921</ele><time>2026-01-30T20:09:17.000Z</time></trkpt>
        <trkpt lat="28.217523" lon="105.647668"><ele>1294.5823</ele><time>2026-01-30T20:09:47.000Z</time></trkpt>
        <trkpt lat="28.217567" lon="105.647656"><ele>1297.4149</ele><time>2026-01-30T20:10:02.000Z</time></trkpt>
        <trkpt lat="28.217615" lon="105.647639"><ele>1296.7979</ele><time>2026-01-30T20:10:18.000Z</time></trkpt>
        <trkpt lat="28.217659" lon="105.647625"><ele>1300.8873</ele><time>2026-01-30T20:10:46.000Z</time></trkpt>
        <trkpt lat="28.217703" lon="105.647598"><ele>1300.6086</ele><time>2026-01-30T20:11:26.000Z</time></trkpt>
        <trkpt lat="28.217748" lon="105.647598"><ele>1302.5278</ele><time>2026-01-30T20:11:58.000Z</time></trkpt>
        <trkpt lat="28.217776" lon="105.647557"><ele>1306.0703</ele><time>2026-01-30T20:12:38.000Z</time></trkpt>
        <trkpt lat="28.217822" lon="105.647549"><ele>1308.4703</ele><time>2026-01-30T20:13:17.000Z</time></trkpt>
        <trkpt lat="28.217867" lon="105.647537"><ele>1312.8357</ele><time>2026-01-30T20:13:43.000Z</time></trkpt>
        <trkpt lat="28.217917" lon="105.647528"><ele>1315.328</ele><time>2026-01-30T20:14:03.000Z</time></trkpt>
        <trkpt lat="28.217963" lon="105.647521"><ele>1317.7274</ele><time>2026-01-30T20:14:26.000Z</time></trkpt>
        <trkpt lat="28.218001" lon="105.647494"><ele>1319.8636</ele><time>2026-01-30T20:14:39.000Z</time></trkpt>
        <trkpt lat="28.218049" lon="105.647473"><ele>1321.614</ele><time>2026-01-30T20:14:50.000Z</time></trkpt>
        <trkpt lat="28.218088" lon="105.647444"><ele>1323.5134</ele><time>2026-01-30T20:15:06.000Z</time></trkpt>
        <trkpt lat="28.218124" lon="105.647414"><ele>1324.344</ele><time>2026-01-30T20:15:18.000Z</time></trkpt>
        <trkpt lat="28.218167" lon="105.6474"><ele>1324.3984</ele><time>2026-01-30T20:15:26.000Z</time></trkpt>
        <trkpt lat="28.218215" lon="105.647385"><ele>1324.4186</ele><time>2026-01-30T20:15:35.000Z</time></trkpt>
        <trkpt lat="28.218271" lon="105.647371"><ele>1323.6146</ele><time>2026-01-30T20:15:45.000Z</time></trkpt>
        <trkpt lat="28.218318" lon="105.647357"><ele>1323.5896</ele><time>2026-01-30T20:15:54.000Z</time></trkpt>
        <trkpt lat="28.218356" lon="105.647322"><ele>1324.5028</ele><time>2026-01-30T20:16:05.000Z</time></trkpt>
        <trkpt lat="28.218399" lon="105.647298"><ele>1324.0486</ele><time>2026-01-30T20:16:28.000Z</time></trkpt>
        <trkpt lat="28.218436" lon="105.647266"><ele>1327.6348</ele><time>2026-01-30T20:17:12.000Z</time></trkpt>
        <trkpt lat="28.218481" lon="105.647236"><ele>1331.3329</ele><time>2026-01-30T20:17:48.000Z</time></trkpt>
        <trkpt lat="28.218536" lon="105.647222"><ele>1335.6992</ele><time>2026-01-30T20:18:47.000Z</time></trkpt>
        <trkpt lat="28.218575" lon="105.647198"><ele>1340.5626</ele><time>2026-01-30T20:19:43.000Z</time></trkpt>
        <trkpt lat="28.218617" lon="105.64717"><ele>1342.7518</ele><time>2026-01-30T20:20:20.000Z</time></trkpt>
        <trkpt lat="28.218656" lon="105.647148"><ele>1343.7959</ele><time>2026-01-30T20:20:31.000Z</time></trkpt>
        <trkpt lat="28.218701" lon="105.647119"><ele>1345.0453</ele><time>2026-01-30T20:20:41.000Z</time></trkpt>
        <trkpt lat="28.218741" lon="105.647089"><ele>1347.9469</ele><time>2026-01-30T20:20:52.000Z</time></trkpt>
        <trkpt lat="28.218788" lon="105.647085"><ele>1346.8953</ele><time>2026-01-30T20:21:11.000Z</time></trkpt>
        <trkpt lat="28.218837" lon="105.647097"><ele>1346.0094</ele><time>2026-01-30T20:21:33.000Z</time></trkpt>
        <trkpt lat="28.218883" lon="105.647114"><ele>1347.3835</ele><time>2026-01-30T20:21:43.000Z</time></trkpt>
        <trkpt lat="28.21893" lon="105.647128"><ele>1347.2197</ele><time>2026-01-30T20:21:53.000Z</time></trkpt>
        <trkpt lat="28.218974" lon="105.647158"><ele>1349.1396</ele><time>2026-01-30T20:22:09.000Z</time></trkpt>
        <trkpt lat="28.219013" lon="105.647129"><ele>1349.6749</ele><time>2026-01-30T20:22:23.000Z</time></trkpt>
        <trkpt lat="28.219057" lon="105.647114"><ele>1345.8301</ele><time>2026-01-30T20:22:35.000Z</time></trkpt>
        <trkpt lat="28.2191" lon="105.647098"><ele>1345.4557</ele><time>2026-01-30T20:22:43.000Z</time></trkpt>
        <trkpt lat="28.219144" lon="105.647067"><ele>1347.7308</ele><time>2026-01-30T20:23:01.000Z</time></trkpt>
        <trkpt lat="28.219184" lon="105.647049"><ele>1348.9335</ele><time>2026-01-30T20:23:12.000Z</time></trkpt>
        <trkpt lat="28.219226" lon="105.64702"><ele>1351.37</ele><time>2026-01-30T20:23:25.000Z</time></trkpt>
        <trkpt lat="28.219271" lon="105.647022"><ele>1351.9879</ele><time>2026-01-30T20:23:35.000Z</time></trkpt>
        <trkpt lat="28.219318" lon="105.647043"><ele>1350.9507</ele><time>2026-01-30T20:23:49.000Z</time></trkpt>
        <trkpt lat="28.219362" lon="105.647049"><ele>1350.7369</ele><time>2026-01-30T20:24:01.000Z</time></trkpt>
        <trkpt lat="28.219408" lon="105.647065"><ele>1349.6322</ele><time>2026-01-30T20:30:03.000Z</time></trkpt>
        <trkpt lat="28.219459" lon="105.647057"><ele>1347.5294</ele><time>2026-01-30T20:40:44.000Z</time></trkpt>
        <trkpt lat="28.219504" lon="105.647062"><ele>1343.9813</ele><time>2026-01-30T20:41:10.000Z</time></trkpt>
        <trkpt lat="28.219555" lon="105.647056"><ele>1341.0219</ele><time>2026-01-30T20:41:29.000Z</time></trkpt>
        <trkpt lat="28.219601" lon="105.647051"><ele>1338.2374</ele><time>2026-01-30T20:41:56.000Z</time></trkpt>
        <trkpt lat="28.219644" lon="105.647031"><ele>1337.1946</ele><time>2026-01-30T20:42:17.000Z</time></trkpt>
        <trkpt lat="28.219696" lon="105.647024"><ele>1336.9364</ele><time>2026-01-30T20:42:44.000Z</time></trkpt>
        <trkpt lat="28.219742" lon="105.647005"><ele>1335.1539</ele><time>2026-01-30T20:42:57.000Z</time></trkpt>
        <trkpt lat="28.219791" lon="105.646989"><ele>1333.5575</ele><time>2026-01-30T20:43:33.000Z</time></trkpt>
        <trkpt lat="28.219839" lon="105.646988"><ele>1331.1752</ele><time>2026-01-30T20:43:44.000Z</time></trkpt>
        <trkpt lat="28.219889" lon="105.646988"><ele>1332.4525</ele><time>2026-01-30T20:43:58.000Z</time></trkpt>
        <trkpt lat="28.219938" lon="105.646987"><ele>1333.2339</ele><time>2026-01-30T20:44:15.000Z</time></trkpt>
        <trkpt lat="28.219983" lon="105.646981"><ele>1334.7299</ele><time>2026-01-30T20:44:26.000Z</time></trkpt>
        <trkpt lat="28.220029" lon="105.646968"><ele>1335.969</ele><time>2026-01-30T20:44:35.000Z</time></trkpt>
        <trkpt lat="28.220079" lon="105.646967"><ele>1339.4447</ele><time>2026-01-30T20:44:56.000Z</time></trkpt>
        <trkpt lat="28.220124" lon="105.64696"><ele>1341.3297</ele><time>2026-01-30T20:45:15.000Z</time></trkpt>
        <trkpt lat="28.220159" lon="105.646925"><ele>1345.4863</ele><time>2026-01-30T20:45:37.000Z</time></trkpt>
        <trkpt lat="28.220207" lon="105.646936"><ele>1351.0939</ele><time>2026-01-30T20:46:01.000Z</time></trkpt>
        <trkpt lat="28.220245" lon="105.646965"><ele>1351.7666</ele><time>2026-01-30T20:46:19.000Z</time></trkpt>
        <trkpt lat="28.220258" lon="105.64702"><ele>1353.5719</ele><time>2026-01-30T20:46:51.000Z</time></trkpt>
        <trkpt lat="28.220285" lon="105.64698"><ele>1354.5051</ele><time>2026-01-30T20:47:08.000Z</time></trkpt>
        <trkpt lat="28.220284" lon="105.646927"><ele>1358.3733</ele><time>2026-01-30T20:47:29.000Z</time></trkpt>
        <trkpt lat="28.220298" lon="105.646878"><ele>1362.4906</ele><time>2026-01-30T20:47:45.000Z</time></trkpt>
        <trkpt lat="28.220339" lon="105.64685"><ele>1356.626</ele><time>2026-01-30T20:48:44.000Z</time></trkpt>
        <trkpt lat="28.220388" lon="105.646838"><ele>1353.1938</ele><time>2026-01-30T20:49:21.000Z</time></trkpt>
        <trkpt lat="28.220436" lon="105.646842"><ele>1352.3842</ele><time>2026-01-30T20:49:28.000Z</time></trkpt>
        <trkpt lat="28.220498" lon="105.646847"><ele>1350.6663</ele><time>2026-01-30T20:49:34.000Z</time></trkpt>
        <trkpt lat="28.220559" lon="105.646844"><ele>1350.0581</ele><time>2026-01-30T20:49:42.000Z</time></trkpt>
        <trkpt lat="28.220606" lon="105.646853"><ele>1349.2317</ele><time>2026-01-30T20:50:06.000Z</time></trkpt>
        <trkpt lat="28.22065" lon="105.646855"><ele>1350.6014</ele><time>2026-01-30T20:50:18.000Z</time></trkpt>
        <trkpt lat="28.220705" lon="105.646849"><ele>1355.7291</ele><time>2026-01-30T20:50:35.000Z</time></trkpt>
        <trkpt lat="28.220754" lon="105.646863"><ele>1359.7738</ele><time>2026-01-30T20:50:53.000Z</time></trkpt>
        <trkpt lat="28.220801" lon="105.646874"><ele>1362.3151</ele><time>2026-01-30T20:51:07.000Z</time></trkpt>
        <trkpt lat="28.220841" lon="105.646847"><ele>1363.8656</ele><time>2026-01-30T20:51:17.000Z</time></trkpt>
        <trkpt lat="28.220886" lon="105.646826"><ele>1363.5864</ele><time>2026-01-30T20:51:27.000Z</time></trkpt>
        <trkpt lat="28.22092" lon="105.646793"><ele>1364.0399</ele><time>2026-01-30T20:51:33.000Z</time></trkpt>
        <trkpt lat="28.220969" lon="105.646789"><ele>1363.5538</ele><time>2026-01-30T20:51:58.000Z</time></trkpt>
        <trkpt lat="28.221025" lon="105.646799"><ele>1362.793</ele><time>2026-01-30T20:52:14.000Z</time></trkpt>
        <trkpt lat="28.221065" lon="105.646813"><ele>1363.363</ele><time>2026-01-30T20:52:19.000Z</time></trkpt>
        <trkpt lat="28.221116" lon="105.646822"><ele>1362.1711</ele><time>2026-01-30T20:52:24.000Z</time></trkpt>
        <trkpt lat="28.221169" lon="105.646842"><ele>1362.7104</ele><time>2026-01-30T20:52:29.000Z</time></trkpt>
        <trkpt lat="28.221219" lon="105.646864"><ele>1364.1088</ele><time>2026-01-30T20:52:36.000Z</time></trkpt>
        <trkpt lat="28.221263" lon="105.646893"><ele>1365.0822</ele><time>2026-01-30T20:52:47.000Z</time></trkpt>
        <trkpt lat="28.22131" lon="105.64691"><ele>1368.4155</ele><time>2026-01-30T20:53:17.000Z</time></trkpt>
        <trkpt lat="28.221352" lon="105.64691"><ele>1370.2</ele><time>2026-01-30T20:53:24.000Z</time></trkpt>
        <trkpt lat="28.221411" lon="105.646925"><ele>1370.5781</ele><time>2026-01-30T20:53:35.000Z</time></trkpt>
        <trkpt lat="28.221458" lon="105.646933"><ele>1369.5878</ele><time>2026-01-30T20:53:41.000Z</time></trkpt>
        <trkpt lat="28.221509" lon="105.646943"><ele>1370.1664</ele><time>2026-01-30T20:53:50.000Z</time></trkpt>
        <trkpt lat="28.221558" lon="105.646956"><ele>1371.5717</ele><time>2026-01-30T20:54:01.000Z</time></trkpt>
        <trkpt lat="28.221604" lon="105.646938"><ele>1372.3494</ele><time>2026-01-30T20:54:07.000Z</time></trkpt>
        <trkpt lat="28.22165" lon="105.646955"><ele>1371.9222</ele><time>2026-01-30T20:54:17.000Z</time></trkpt>
        <trkpt lat="28.221685" lon="105.64699"><ele>1371.8934</ele><time>2026-01-30T20:54:33.000Z</time></trkpt>
        <trkpt lat="28.221729" lon="105.647005"><ele>1371.1162</ele><time>2026-01-30T20:55:09.000Z</time></trkpt>
        <trkpt lat="28.221681" lon="105.647025"><ele>1372.9525</ele><time>2026-01-30T20:56:27.000Z</time></trkpt>
        <trkpt lat="28.221656" lon="105.647077"><ele>1373.1196</ele><time>2026-01-30T20:56:57.000Z</time></trkpt>
        <trkpt lat="28.22165" lon="105.647142"><ele>1373.4314</ele><time>2026-01-30T20:57:12.000Z</time></trkpt>
        <trkpt lat="28.221655" lon="105.6472"><ele>1371.0635</ele><time>2026-01-30T20:57:24.000Z</time></trkpt>
        <trkpt lat="28.221653" lon="105.647249"><ele>1368.9442</ele><time>2026-01-30T20:57:31.000Z</time></trkpt>
        <trkpt lat="28.221669" lon="105.647309"><ele>1364.5388</ele><time>2026-01-30T20:57:48.000Z</time></trkpt>
        <trkpt lat="28.221708" lon="105.647332"><ele>1363.5178</ele><time>2026-01-30T20:57:57.000Z</time></trkpt>
        <trkpt lat="28.221749" lon="105.647369"><ele>1365.727</ele><time>2026-01-30T20:58:10.000Z</time></trkpt>
        <trkpt lat="28.221782" lon="105.647409"><ele>1368.4403</ele><time>2026-01-30T20:58:26.000Z</time></trkpt>
        <trkpt lat="28.221817" lon="105.647437"><ele>1370.3813</ele><time>2026-01-30T20:58:34.000Z</time></trkpt>
        <trkpt lat="28.221842" lon="105.647483"><ele>1371.9087</ele><time>2026-01-30T20:58:44.000Z</time></trkpt>
        <trkpt lat="28.221863" lon="105.647532"><ele>1373.2455</ele><time>2026-01-30T20:59:12.000Z</time></trkpt>
        <trkpt lat="28.221868" lon="105.647583"><ele>1374.1106</ele><time>2026-01-30T20:59:52.000Z</time></trkpt>
        <trkpt lat="28.221872" lon="105.647637"><ele>1373.9434</ele><time>2026-01-30T21:00:29.000Z</time></trkpt>
        <trkpt lat="28.221873" lon="105.647693"><ele>1367.8007</ele><time>2026-01-30T21:00:46.000Z</time></trkpt>
        <trkpt lat="28.221859" lon="105.647744"><ele>1365.8263</ele><time>2026-01-30T21:00:56.000Z</time></trkpt>
        <trkpt lat="28.221852" lon="105.647798"><ele>1364.7446</ele><time>2026-01-30T21:01:09.000Z</time></trkpt>
        <trkpt lat="28.221847" lon="105.647846"><ele>1365.3568</ele><time>2026-01-30T21:01:18.000Z</time></trkpt>
        <trkpt lat="28.221859" lon="105.647897"><ele>1365.6158</ele><time>2026-01-30T21:01:28.000Z</time></trkpt>
        <trkpt lat="28.221892" lon="105.647937"><ele>1361.9982</ele><time>2026-01-30T21:01:39.000Z</time></trkpt>
        <trkpt lat="28.221931" lon="105.64797"><ele>1357.1888</ele><time>2026-01-30T21:01:49.000Z</time></trkpt>
        <trkpt lat="28.221968" lon="105.647997"><ele>1355.352</ele><time>2026-01-30T21:01:55.000Z</time></trkpt>
        <trkpt lat="28.222004" lon="105.64802"><ele>1355.0126</ele><time>2026-01-30T21:01:59.000Z</time></trkpt>
        <trkpt lat="28.222056" lon="105.648048"><ele>1353.1416</ele><time>2026-01-30T21:02:07.000Z</time></trkpt>
        <trkpt lat="28.222091" lon="105.64808"><ele>1351.6877</ele><time>2026-01-30T21:02:13.000Z</time></trkpt>
        <trkpt lat="28.222138" lon="105.648099"><ele>1349.4567</ele><time>2026-01-30T21:02:25.000Z</time></trkpt>
        <trkpt lat="28.222178" lon="105.648123"><ele>1348.739</ele><time>2026-01-30T21:02:32.000Z</time></trkpt>
        <trkpt lat="28.222213" lon="105.64816"><ele>1349.912</ele><time>2026-01-30T21:02:37.000Z</time></trkpt>
        <trkpt lat="28.222249" lon="105.648201"><ele>1350.0559</ele><time>2026-01-30T21:02:43.000Z</time></trkpt>
        <trkpt lat="28.222276" lon="105.648252"><ele>1348.4961</ele><time>2026-01-30T21:02:53.000Z</time></trkpt>
        <trkpt lat="28.222285" lon="105.648307"><ele>1348.1</ele><time>2026-01-30T21:03:27.000Z</time></trkpt>
        <trkpt lat="28.222271" lon="105.648356"><ele>1342.1508</ele><time>2026-01-30T21:04:41.000Z</time></trkpt>
        <trkpt lat="28.222297" lon="105.648392"><ele>1343.8555</ele><time>2026-01-30T21:04:48.000Z</time></trkpt>
        <trkpt lat="28.222315" lon="105.648444"><ele>1344.3525</ele><time>2026-01-30T21:04:56.000Z</time></trkpt>
        <trkpt lat="28.222324" lon="105.648498"><ele>1342.861</ele><time>2026-01-30T21:05:28.000Z</time></trkpt>
        <trkpt lat="28.222362" lon="105.648534"><ele>1338.5106</ele><time>2026-01-30T21:06:24.000Z</time></trkpt>
        <trkpt lat="28.22239" lon="105.648576"><ele>1335.3531</ele><time>2026-01-30T21:07:03.000Z</time></trkpt>
        <trkpt lat="28.22244" lon="105.648593"><ele>1328.1406</ele><time>2026-01-30T21:07:33.000Z</time></trkpt>
        <trkpt lat="28.222487" lon="105.648604"><ele>1326.4205</ele><time>2026-01-30T21:07:41.000Z</time></trkpt>
        <trkpt lat="28.222533" lon="105.648624"><ele>1327.1776</ele><time>2026-01-30T21:07:47.000Z</time></trkpt>
        <trkpt lat="28.222573" lon="105.64866"><ele>1326.3705</ele><time>2026-01-30T21:07:55.000Z</time></trkpt>
        <trkpt lat="28.222618" lon="105.648675"><ele>1325.8246</ele><time>2026-01-30T21:08:00.000Z</time></trkpt>
        <trkpt lat="28.222662" lon="105.64869"><ele>1325.6069</ele><time>2026-01-30T21:08:04.000Z</time></trkpt>
        <trkpt lat="28.222718" lon="105.648711"><ele>1327.2798</ele><time>2026-01-30T21:08:12.000Z</time></trkpt>
        <trkpt lat="28.222766" lon="105.648725"><ele>1328.5708</ele><time>2026-01-30T21:08:20.000Z</time></trkpt>
        <trkpt lat="28.222811" lon="105.648736"><ele>1330.8987</ele><time>2026-01-30T21:08:32.000Z</time></trkpt>
        <trkpt lat="28.222859" lon="105.648726"><ele>1330.0736</ele><time>2026-01-30T21:08:41.000Z</time></trkpt>
        <trkpt lat="28.222907" lon="105.648718"><ele>1328.7821</ele><time>2026-01-30T21:08:46.000Z</time></trkpt>
        <trkpt lat="28.222957" lon="105.648712"><ele>1327.7983</ele><time>2026-01-30T21:08:51.000Z</time></trkpt>
        <trkpt lat="28.223007" lon="105.648722"><ele>1328.3412</ele><time>2026-01-30T21:08:56.000Z</time></trkpt>
        <trkpt lat="28.223059" lon="105.648739"><ele>1329.6301</ele><time>2026-01-30T21:09:02.000Z</time></trkpt>
        <trkpt lat="28.223112" lon="105.648765"><ele>1329.7657</ele><time>2026-01-30T21:09:09.000Z</time></trkpt>
        <trkpt lat="28.223161" lon="105.648775"><ele>1329.2072</ele><time>2026-01-30T21:09:39.000Z</time></trkpt>
        <trkpt lat="28.22319" lon="105.648796"><ele>1327.6168</ele><time>2026-01-30T21:09:45.000Z</time></trkpt>
        <trkpt lat="28.223243" lon="105.648825"><ele>1328.7412</ele><time>2026-01-30T21:09:56.000Z</time></trkpt>
        <trkpt lat="28.223292" lon="105.648855"><ele>1329.2163</ele><time>2026-01-30T21:10:03.000Z</time></trkpt>
        <trkpt lat="28.223342" lon="105.648876"><ele>1327.0211</ele><time>2026-01-30T21:10:10.000Z</time></trkpt>
        <trkpt lat="28.223389" lon="105.648899"><ele>1325.0803</ele><time>2026-01-30T21:10:17.000Z</time></trkpt>
        <trkpt lat="28.223434" lon="105.648903"><ele>1323.7766</ele><time>2026-01-30T21:10:23.000Z</time></trkpt>
        <trkpt lat="28.223483" lon="105.648912"><ele>1321.0492</ele><time>2026-01-30T21:10:31.000Z</time></trkpt>
        <trkpt lat="28.223522" lon="105.648932"><ele>1319.186</ele><time>2026-01-30T21:10:36.000Z</time></trkpt>
        <trkpt lat="28.223575" lon="105.64897"><ele>1318.2704</ele><time>2026-01-30T21:10:50.000Z</time></trkpt>
        <trkpt lat="28.223614" lon="105.64899"><ele>1317.3458</ele><time>2026-01-30T21:10:56.000Z</time></trkpt>
        <trkpt lat="28.223662" lon="105.649034"><ele>1314.5482</ele><time>2026-01-30T21:11:09.000Z</time></trkpt>
        <trkpt lat="28.223705" lon="105.649058"><ele>1312.9379</ele><time>2026-01-30T21:11:17.000Z</time></trkpt>
        <trkpt lat="28.223751" lon="105.64908"><ele>1312.4573</ele><time>2026-01-30T21:11:34.000Z</time></trkpt>
        <trkpt lat="28.223799" lon="105.64908"><ele>1310.6704</ele><time>2026-01-30T21:11:54.000Z</time></trkpt>
        <trkpt lat="28.223844" lon="105.649098"><ele>1310.5948</ele><time>2026-01-30T21:12:06.000Z</time></trkpt>
        <trkpt lat="28.223884" lon="105.649068"><ele>1308.2247</ele><time>2026-01-30T21:12:17.000Z</time></trkpt>
        <trkpt lat="28.223939" lon="105.649051"><ele>1306.8312</ele><time>2026-01-30T21:12:25.000Z</time></trkpt>
        <trkpt lat="28.22399" lon="105.649035"><ele>1306.0879</ele><time>2026-01-30T21:12:30.000Z</time></trkpt>
        <trkpt lat="28.224051" lon="105.649024"><ele>1305.693</ele><time>2026-01-30T21:12:37.000Z</time></trkpt>
        <trkpt lat="28.224096" lon="105.648994"><ele>1304.7343</ele><time>2026-01-30T21:12:44.000Z</time></trkpt>
        <trkpt lat="28.224134" lon="105.648973"><ele>1304.5055</ele><time>2026-01-30T21:12:48.000Z</time></trkpt>
        <trkpt lat="28.22418" lon="105.648996"><ele>1305.8821</ele><time>2026-01-30T21:12:58.000Z</time></trkpt>
        <trkpt lat="28.224228" lon="105.649013"><ele>1300.9836</ele><time>2026-01-30T21:15:07.000Z</time></trkpt>
        <trkpt lat="28.224272" lon="105.648984"><ele>1297.3342</ele><time>2026-01-30T21:15:42.000Z</time></trkpt>
        <trkpt lat="28.224299" lon="105.649029"><ele>1292.8574</ele><time>2026-01-30T21:15:55.000Z</time></trkpt>
        <trkpt lat="28.224282" lon="105.649075"><ele>1292.2821</ele><time>2026-01-30T21:16:03.000Z</time></trkpt>
        <trkpt lat="28.224257" lon="105.649129"><ele>1289.2238</ele><time>2026-01-30T21:16:11.000Z</time></trkpt>
        <trkpt lat="28.224231" lon="105.649177"><ele>1287.9365</ele><time>2026-01-30T21:16:17.000Z</time></trkpt>
        <trkpt lat="28.224197" lon="105.649213"><ele>1288.8569</ele><time>2026-01-30T21:16:21.000Z</time></trkpt>
        <trkpt lat="28.22415" lon="105.649257"><ele>1288.9728</ele><time>2026-01-30T21:16:26.000Z</time></trkpt>
        <trkpt lat="28.224119" lon="105.649304"><ele>1289.3823</ele><time>2026-01-30T21:16:30.000Z</time></trkpt>
        <trkpt lat="28.224083" lon="105.649338"><ele>1289.8271</ele><time>2026-01-30T21:16:34.000Z</time></trkpt>
        <trkpt lat="28.224038" lon="105.649374"><ele>1288.3323</ele><time>2026-01-30T21:16:40.000Z</time></trkpt>
        <trkpt lat="28.224" lon="105.649418"><ele>1288.729</ele><time>2026-01-30T21:16:46.000Z</time></trkpt>
        <trkpt lat="28.223972" lon="105.64946"><ele>1289.5425</ele><time>2026-01-30T21:16:50.000Z</time></trkpt>
        <trkpt lat="28.223949" lon="105.649507"><ele>1290.2114</ele><time>2026-01-30T21:16:54.000Z</time></trkpt>
        <trkpt lat="28.223927" lon="105.649565"><ele>1290.1913</ele><time>2026-01-30T21:17:02.000Z</time></trkpt>
        <trkpt lat="28.223911" lon="105.649617"><ele>1287.0442</ele><time>2026-01-30T21:17:20.000Z</time></trkpt>
        <trkpt lat="28.223886" lon="105.649659"><ele>1288.0984</ele><time>2026-01-30T21:17:29.000Z</time></trkpt>
        <trkpt lat="28.223864" lon="105.649714"><ele>1288.4384</ele><time>2026-01-30T21:18:07.000Z</time></trkpt>
        <trkpt lat="28.223847" lon="105.649763"><ele>1292.0283</ele><time>2026-01-30T21:18:29.000Z</time></trkpt>
        <trkpt lat="28.223819" lon="105.649807"><ele>1292.5425</ele><time>2026-01-30T21:18:43.000Z</time></trkpt>
        <trkpt lat="28.223858" lon="105.64983"><ele>1291.7279</ele><time>2026-01-30T21:18:53.000Z</time></trkpt>
        <trkpt lat="28.223909" lon="105.649833"><ele>1291.2572</ele><time>2026-01-30T21:18:59.000Z</time></trkpt>
        <trkpt lat="28.223958" lon="105.649834"><ele>1291.5101</ele><time>2026-01-30T21:19:05.000Z</time></trkpt>
        <trkpt lat="28.224004" lon="105.649854"><ele>1291.665</ele><time>2026-01-30T21:19:15.000Z</time></trkpt>
        <trkpt lat="28.224044" lon="105.649866"><ele>1292.2662</ele><time>2026-01-30T21:19:21.000Z</time></trkpt>
        <trkpt lat="28.224096" lon="105.649853"><ele>1293.1766</ele><time>2026-01-30T21:19:28.000Z</time></trkpt>
        <trkpt lat="28.224141" lon="105.649857"><ele>1295.288</ele><time>2026-01-30T21:19:34.000Z</time></trkpt>
        <trkpt lat="28.224188" lon="105.649846"><ele>1295.5918</ele><time>2026-01-30T21:19:42.000Z</time></trkpt>
        <trkpt lat="28.224234" lon="105.649839"><ele>1295.4445</ele><time>2026-01-30T21:19:51.000Z</time></trkpt>
        <trkpt lat="28.224286" lon="105.649819"><ele>1296.8661</ele><time>2026-01-30T21:20:04.000Z</time></trkpt>
        <trkpt lat="28.224328" lon="105.649819"><ele>1296.3002</ele><time>2026-01-30T21:20:10.000Z</time></trkpt>
        <trkpt lat="28.224386" lon="105.649831"><ele>1296.8777</ele><time>2026-01-30T21:20:20.000Z</time></trkpt>
        <trkpt lat="28.224432" lon="105.649844"><ele>1298.6178</ele><time>2026-01-30T21:20:28.000Z</time></trkpt>
        <trkpt lat="28.224479" lon="105.649859"><ele>1301.5262</ele><time>2026-01-30T21:20:41.000Z</time></trkpt>
        <trkpt lat="28.224521" lon="105.64986"><ele>1300.6454</ele><time>2026-01-30T21:20:47.000Z</time></trkpt>
        <trkpt lat="28.224571" lon="105.649845"><ele>1300.0154</ele><time>2026-01-30T21:20:56.000Z</time></trkpt>
        <trkpt lat="28.224616" lon="105.649846"><ele>1300.3346</ele><time>2026-01-30T21:21:02.000Z</time></trkpt>
        <trkpt lat="28.224674" lon="105.649851"><ele>1301.5045</ele><time>2026-01-30T21:21:16.000Z</time></trkpt>
        <trkpt lat="28.224719" lon="105.649859"><ele>1303.1698</ele><time>2026-01-30T21:21:27.000Z</time></trkpt>
        <trkpt lat="28.224763" lon="105.649839"><ele>1302.843</ele><time>2026-01-30T21:21:46.000Z</time></trkpt>
        <trkpt lat="28.224807" lon="105.649836"><ele>1302.516</ele><time>2026-01-30T21:21:56.000Z</time></trkpt>
        <trkpt lat="28.224848" lon="105.649813"><ele>1302.4916</ele><time>2026-01-30T21:22:04.000Z</time></trkpt>
        <trkpt lat="28.224889" lon="105.649782"><ele>1302.0046</ele><time>2026-01-30T21:22:13.000Z</time></trkpt>
        <trkpt lat="28.22493" lon="105.64976"><ele>1300.5077</ele><time>2026-01-30T21:22:20.000Z</time></trkpt>
        <trkpt lat="28.224967" lon="105.649724"><ele>1300.3291</ele><time>2026-01-30T21:22:43.000Z</time></trkpt>
        <trkpt lat="28.225007" lon="105.6497"><ele>1298.384</ele><time>2026-01-30T21:23:47.000Z</time></trkpt>
        <trkpt lat="28.225033" lon="105.649653"><ele>1297.3993</ele><time>2026-01-30T21:23:59.000Z</time></trkpt>
        <trkpt lat="28.225073" lon="105.649622"><ele>1298.284</ele><time>2026-01-30T21:24:12.000Z</time></trkpt>
        <trkpt lat="28.225097" lon="105.649575"><ele>1296.396</ele><time>2026-01-30T21:24:24.000Z</time></trkpt>
        <trkpt lat="28.225123" lon="105.649529"><ele>1295.5239</ele><time>2026-01-30T21:24:37.000Z</time></trkpt>
        <trkpt lat="28.225158" lon="105.649499"><ele>1293.8649</ele><time>2026-01-30T21:24:45.000Z</time></trkpt>
        <trkpt lat="28.225202" lon="105.64947"><ele>1293.7156</ele><time>2026-01-30T21:24:57.000Z</time></trkpt>
        <trkpt lat="28.225247" lon="105.649457"><ele>1293.011</ele><time>2026-01-30T21:25:16.000Z</time></trkpt>
        <trkpt lat="28.225278" lon="105.649415"><ele>1291.317</ele><time>2026-01-30T21:25:30.000Z</time></trkpt>
        <trkpt lat="28.225316" lon="105.649384"><ele>1289.5704</ele><time>2026-01-30T21:25:39.000Z</time></trkpt>
        <trkpt lat="28.225362" lon="105.649363"><ele>1286.9243</ele><time>2026-01-30T21:25:54.000Z</time></trkpt>
        <trkpt lat="28.2254" lon="105.649334"><ele>1285.1248</ele><time>2026-01-30T21:26:05.000Z</time></trkpt>
        <trkpt lat="28.225427" lon="105.649289"><ele>1283.6636</ele><time>2026-01-30T21:26:17.000Z</time></trkpt>
        <trkpt lat="28.225462" lon="105.649257"><ele>1284.6245</ele><time>2026-01-30T21:26:24.000Z</time></trkpt>
        <trkpt lat="28.225505" lon="105.649231"><ele>1283.032</ele><time>2026-01-30T21:26:31.000Z</time></trkpt>
        <trkpt lat="28.225549" lon="105.649206"><ele>1281.5518</ele><time>2026-01-30T21:26:38.000Z</time></trkpt>
        <trkpt lat="28.22559" lon="105.649174"><ele>1282.5016</ele><time>2026-01-30T21:26:47.000Z</time></trkpt>
        <trkpt lat="28.225632" lon="105.649192"><ele>1285.4996</ele><time>2026-01-30T21:27:33.000Z</time></trkpt>
        <trkpt lat="28.22568" lon="105.6492"><ele>1282.8313</ele><time>2026-01-30T21:28:05.000Z</time></trkpt>
        <trkpt lat="28.225705" lon="105.649243"><ele>1279.6732</ele><time>2026-01-30T21:28:22.000Z</time></trkpt>
        <trkpt lat="28.225724" lon="105.649293"><ele>1278.4229</ele><time>2026-01-30T21:28:56.000Z</time></trkpt>
        <trkpt lat="28.225734" lon="105.649343"><ele>1276.151</ele><time>2026-01-30T21:29:15.000Z</time></trkpt>
        <trkpt lat="28.225693" lon="105.649371"><ele>1273.4497</ele><time>2026-01-30T21:29:25.000Z</time></trkpt>
        <trkpt lat="28.225651" lon="105.6494"><ele>1274.2688</ele><time>2026-01-30T21:29:42.000Z</time></trkpt>
        <trkpt lat="28.225607" lon="105.649411"><ele>1275.6973</ele><time>2026-01-30T21:29:50.000Z</time></trkpt>
        <trkpt lat="28.225561" lon="105.649454"><ele>1276.6255</ele><time>2026-01-30T21:29:57.000Z</time></trkpt>
        <trkpt lat="28.225516" lon="105.649485"><ele>1276.6002</ele><time>2026-01-30T21:30:09.000Z</time></trkpt>
        <trkpt lat="28.2255" lon="105.649532"><ele>1277.7412</ele><time>2026-01-30T21:30:16.000Z</time></trkpt>
        <trkpt lat="28.225459" lon="105.649564"><ele>1278.2228</ele><time>2026-01-30T21:30:32.000Z</time></trkpt>
        <trkpt lat="28.225408" lon="105.649583"><ele>1277.7943</ele><time>2026-01-30T21:30:55.000Z</time></trkpt>
        <trkpt lat="28.225362" lon="105.649601"><ele>1279.1844</ele><time>2026-01-30T21:31:16.000Z</time></trkpt>
        <trkpt lat="28.225326" lon="105.649634"><ele>1280.2733</ele><time>2026-01-30T21:31:31.000Z</time></trkpt>
        <trkpt lat="28.225293" lon="105.649683"><ele>1280.0364</ele><time>2026-01-30T21:31:53.000Z</time></trkpt>
        <trkpt lat="28.225264" lon="105.649726"><ele>1277.2272</ele><time>2026-01-30T21:32:09.000Z</time></trkpt>
        <trkpt lat="28.225288" lon="105.649776"><ele>1274.6626</ele><time>2026-01-30T21:32:28.000Z</time></trkpt>
        <trkpt lat="28.225309" lon="105.649824"><ele>1272.0155</ele><time>2026-01-30T21:33:05.000Z</time></trkpt>
        <trkpt lat="28.225329" lon="105.649864"><ele>1271.8547</ele><time>2026-01-30T21:33:14.000Z</time></trkpt>
        <trkpt lat="28.225357" lon="105.649906"><ele>1270.8568</ele><time>2026-01-30T21:33:20.000Z</time></trkpt>
        <trkpt lat="28.225388" lon="105.649951"><ele>1268.219</ele><time>2026-01-30T21:33:27.000Z</time></trkpt>
        <trkpt lat="28.225402" lon="105.650005"><ele>1268.071</ele><time>2026-01-30T21:33:35.000Z</time></trkpt>
        <trkpt lat="28.225402" lon="105.650059"><ele>1269.8468</ele><time>2026-01-30T21:33:41.000Z</time></trkpt>
        <trkpt lat="28.225414" lon="105.650116"><ele>1271.6991</ele><time>2026-01-30T21:33:51.000Z</time></trkpt>
        <trkpt lat="28.225453" lon="105.650152"><ele>1271.1146</ele><time>2026-01-30T21:34:05.000Z</time></trkpt>
        <trkpt lat="28.225498" lon="105.650179"><ele>1271.1707</ele><time>2026-01-30T21:34:15.000Z</time></trkpt>
        <trkpt lat="28.225535" lon="105.650206"><ele>1270.205</ele><time>2026-01-30T21:34:21.000Z</time></trkpt>
        <trkpt lat="28.225586" lon="105.650222"><ele>1269.0306</ele><time>2026-01-30T21:34:29.000Z</time></trkpt>
        <trkpt lat="28.225601" lon="105.650275"><ele>1267.1997</ele><time>2026-01-30T21:35:21.000Z</time></trkpt>
        <trkpt lat="28.225568" lon="105.650311"><ele>1267.5712</ele><time>2026-01-30T21:35:30.000Z</time></trkpt>
        <trkpt lat="28.225557" lon="105.650366"><ele>1264.133</ele><time>2026-01-30T21:35:49.000Z</time></trkpt>
        <trkpt lat="28.225541" lon="105.650415"><ele>1263.2651</ele><time>2026-01-30T21:36:50.000Z</time></trkpt>
        <trkpt lat="28.225567" lon="105.650461"><ele>1266.2858</ele><time>2026-01-30T21:37:02.000Z</time></trkpt>
        <trkpt lat="28.225586" lon="105.65051"><ele>1266.8635</ele><time>2026-01-30T21:37:09.000Z</time></trkpt>
        <trkpt lat="28.225587" lon="105.650562"><ele>1267.097</ele><time>2026-01-30T21:37:16.000Z</time></trkpt>
        <trkpt lat="28.225617" lon="105.6506"><ele>1265.1112</ele><time>2026-01-30T21:37:24.000Z</time></trkpt>
        <trkpt lat="28.225644" lon="105.650643"><ele>1261.9883</ele><time>2026-01-30T21:37:31.000Z</time></trkpt>
        <trkpt lat="28.225679" lon="105.650679"><ele>1261.074</ele><time>2026-01-30T21:37:37.000Z</time></trkpt>
        <trkpt lat="28.225716" lon="105.650715"><ele>1261.8539</ele><time>2026-01-30T21:37:44.000Z</time></trkpt>
        <trkpt lat="28.225743" lon="105.650767"><ele>1261.9906</ele><time>2026-01-30T21:38:03.000Z</time></trkpt>
        <trkpt lat="28.225786" lon="105.650781"><ele>1259.1447</ele><time>2026-01-30T21:38:27.000Z</time></trkpt>
        <trkpt lat="28.225837" lon="105.650789"><ele>1257.7457</ele><time>2026-01-30T21:38:38.000Z</time></trkpt>
        <trkpt lat="28.22588" lon="105.650808"><ele>1255.5984</ele><time>2026-01-30T21:38:49.000Z</time></trkpt>
        <trkpt lat="28.225915" lon="105.650844"><ele>1253.9186</ele><time>2026-01-30T21:38:58.000Z</time></trkpt>
        <trkpt lat="28.225953" lon="105.650877"><ele>1252.748</ele><time>2026-01-30T21:39:06.000Z</time></trkpt>
        <trkpt lat="28.225991" lon="105.650913"><ele>1253.1304</ele><time>2026-01-30T21:39:15.000Z</time></trkpt>
        <trkpt lat="28.226038" lon="105.650931"><ele>1250.7173</ele><time>2026-01-30T21:39:29.000Z</time></trkpt>
        <trkpt lat="28.22606" lon="105.650974"><ele>1248.2577</ele><time>2026-01-30T21:39:40.000Z</time></trkpt>
        <trkpt lat="28.2261" lon="105.650983"><ele>1247.524</ele><time>2026-01-30T21:39:47.000Z</time></trkpt>
        <trkpt lat="28.226145" lon="105.651005"><ele>1245.5168</ele><time>2026-01-30T21:40:09.000Z</time></trkpt>
        <trkpt lat="28.226193" lon="105.650997"><ele>1243.2396</ele><time>2026-01-30T21:40:41.000Z</time></trkpt>
        <trkpt lat="28.226193" lon="105.651052"><ele>1240.9409</ele><time>2026-01-30T21:40:58.000Z</time></trkpt>
        <trkpt lat="28.226206" lon="105.651104"><ele>1238.3768</ele><time>2026-01-30T21:41:18.000Z</time></trkpt>
        <trkpt lat="28.226222" lon="105.651155"><ele>1236.6454</ele><time>2026-01-30T21:41:49.000Z</time></trkpt>
        <trkpt lat="28.226244" lon="105.6512"><ele>1231.8723</ele><time>2026-01-30T21:42:21.000Z</time></trkpt>
        <trkpt lat="28.226272" lon="105.651247"><ele>1228.7902</ele><time>2026-01-30T21:42:49.000Z</time></trkpt>
        <trkpt lat="28.226316" lon="105.651269"><ele>1226.1179</ele><time>2026-01-30T21:43:18.000Z</time></trkpt>
        <trkpt lat="28.22635" lon="105.651309"><ele>1223.1104</ele><time>2026-01-30T21:43:42.000Z</time></trkpt>
        <trkpt lat="28.226358" lon="105.65136"><ele>1221.8859</ele><time>2026-01-30T21:43:54.000Z</time></trkpt>
        <trkpt lat="28.226385" lon="105.651403"><ele>1218.106</ele><time>2026-01-30T21:44:18.000Z</time></trkpt>
        <trkpt lat="28.226433" lon="105.651406"><ele>1211.8265</ele><time>2026-01-30T21:44:48.000Z</time></trkpt>
        <trkpt lat="28.226477" lon="105.651403"><ele>1207.0516</ele><time>2026-01-30T21:45:04.000Z</time></trkpt>
        <trkpt lat="28.226527" lon="105.651418"><ele>1205.8346</ele><time>2026-01-30T21:45:18.000Z</time></trkpt>
        <trkpt lat="28.226574" lon="105.651432"><ele>1205.0024</ele><time>2026-01-30T21:45:52.000Z</time></trkpt>
        <trkpt lat="28.226618" lon="105.651444"><ele>1201.5992</ele><time>2026-01-30T21:46:09.000Z</time></trkpt>
        <trkpt lat="28.226665" lon="105.651451"><ele>1201.393</ele><time>2026-01-30T21:46:16.000Z</time></trkpt>
        <trkpt lat="28.226668" lon="105.6515"><ele>1197.4313</ele><time>2026-01-30T21:46:26.000Z</time></trkpt>
        <trkpt lat="28.226708" lon="105.651505"><ele>1198.019</ele><time>2026-01-30T21:46:36.000Z</time></trkpt>
        <trkpt lat="28.226752" lon="105.651533"><ele>1195.0719</ele><time>2026-01-30T21:46:44.000Z</time></trkpt>
        <trkpt lat="28.226787" lon="105.651574"><ele>1190.3506</ele><time>2026-01-30T21:46:59.000Z</time></trkpt>
        <trkpt lat="28.226769" lon="105.651621"><ele>1188.6799</ele><time>2026-01-30T21:47:12.000Z</time></trkpt>
        <trkpt lat="28.226811" lon="105.651645"><ele>1190.1917</ele><time>2026-01-30T21:47:38.000Z</time></trkpt>
        <trkpt lat="28.226843" lon="105.651676"><ele>1187.7776</ele><time>2026-01-30T21:47:46.000Z</time></trkpt>
        <trkpt lat="28.22688" lon="105.651715"><ele>1183.4141</ele><time>2026-01-30T21:47:59.000Z</time></trkpt>
        <trkpt lat="28.226913" lon="105.651752"><ele>1178.9426</ele><time>2026-01-30T21:48:16.000Z</time></trkpt>
        <trkpt lat="28.226959" lon="105.651769"><ele>1178.5254</ele><time>2026-01-30T21:48:36.000Z</time></trkpt>
        <trkpt lat="28.226989" lon="105.651814"><ele>1176.4144</ele><time>2026-01-30T21:48:51.000Z</time></trkpt>
        <trkpt lat="28.227024" lon="105.651852"><ele>1169.9534</ele><time>2026-01-30T21:49:05.000Z</time></trkpt>
        <trkpt lat="28.227067" lon="105.651865"><ele>1169.8688</ele><time>2026-01-30T21:49:14.000Z</time></trkpt>
        <trkpt lat="28.227109" lon="105.651895"><ele>1166.6895</ele><time>2026-01-30T21:49:49.000Z</time></trkpt>
        <trkpt lat="28.227153" lon="105.651879"><ele>1163.369</ele><time>2026-01-30T21:50:19.000Z</time></trkpt>
        <trkpt lat="28.227189" lon="105.651915"><ele>1161.6473</ele><time>2026-01-30T21:50:40.000Z</time></trkpt>
        <trkpt lat="28.22723" lon="105.651939"><ele>1161.4398</ele><time>2026-01-30T21:50:48.000Z</time></trkpt>
        <trkpt lat="28.227247" lon="105.651992"><ele>1161.199</ele><time>2026-01-30T21:50:56.000Z</time></trkpt>
        <trkpt lat="28.227274" lon="105.652036"><ele>1160.0032</ele><time>2026-01-30T21:51:03.000Z</time></trkpt>
        <trkpt lat="28.227312" lon="105.652072"><ele>1156.2811</ele><time>2026-01-30T21:51:24.000Z</time></trkpt>
        <trkpt lat="28.227355" lon="105.652093"><ele>1156.365</ele><time>2026-01-30T21:52:02.000Z</time></trkpt>
        <trkpt lat="28.227374" lon="105.652149"><ele>1148.6818</ele><time>2026-01-30T21:52:21.000Z</time></trkpt>
        <trkpt lat="28.227386" lon="105.6522"><ele>1152.6621</ele><time>2026-01-30T21:55:05.000Z</time></trkpt>
        <trkpt lat="28.227378" lon="105.652146"><ele>1151.9534</ele><time>2026-01-30T21:58:31.000Z</time></trkpt>
        <trkpt lat="28.227371" lon="105.652203"><ele>1156.2633</ele><time>2026-01-30T22:02:18.000Z</time></trkpt>
        <trkpt lat="28.227339" lon="105.65225"><ele>1156.2251</ele><time>2026-01-30T22:02:47.000Z</time></trkpt>
        <trkpt lat="28.227297" lon="105.652266"><ele>1152.831</ele><time>2026-01-30T22:02:53.000Z</time></trkpt>
        <trkpt lat="28.227245" lon="105.652277"><ele>1151.1409</ele><time>2026-01-30T22:02:59.000Z</time></trkpt>
        <trkpt lat="28.227195" lon="105.652302"><ele>1149.0675</ele><time>2026-01-30T22:03:07.000Z</time></trkpt>
        <trkpt lat="28.227173" lon="105.652361"><ele>1148.3118</ele><time>2026-01-30T22:03:17.000Z</time></trkpt>
        <trkpt lat="28.227172" lon="105.652418"><ele>1151.8546</ele><time>2026-01-30T22:03:50.000Z</time></trkpt>
        <trkpt lat="28.227174" lon="105.652461"><ele>1152.7498</ele><time>2026-01-30T22:03:57.000Z</time></trkpt>
        <trkpt lat="28.227173" lon="105.652522"><ele>1153.8</ele><time>2026-01-30T22:04:03.000Z</time></trkpt>
        <trkpt lat="28.227178" lon="105.652581"><ele>1154.4027</ele><time>2026-01-30T22:04:09.000Z</time></trkpt>
        <trkpt lat="28.227211" lon="105.652621"><ele>1152.1992</ele><time>2026-01-30T22:04:17.000Z</time></trkpt>
        <trkpt lat="28.22726" lon="105.652661"><ele>1152.6234</ele><time>2026-01-30T22:04:26.000Z</time></trkpt>
        <trkpt lat="28.227295" lon="105.652702"><ele>1151.5122</ele><time>2026-01-30T22:04:34.000Z</time></trkpt>
        <trkpt lat="28.227313" lon="105.652756"><ele>1152.5048</ele><time>2026-01-30T22:04:47.000Z</time></trkpt>
        <trkpt lat="28.227326" lon="105.652809"><ele>1153.4442</ele><time>2026-01-30T22:04:55.000Z</time></trkpt>
        <trkpt lat="28.227312" lon="105.652868"><ele>1154.2611</ele><time>2026-01-30T22:05:04.000Z</time></trkpt>
        <trkpt lat="28.227354" lon="105.652867"><ele>1153.1029</ele><time>2026-01-30T22:06:13.000Z</time></trkpt>
        <trkpt lat="28.22731" lon="105.652854"><ele>1153.8503</ele><time>2026-01-30T22:06:37.000Z</time></trkpt>
        <trkpt lat="28.227318" lon="105.652809"><ele>1151.5507</ele><time>2026-01-30T22:06:49.000Z</time></trkpt>
        <trkpt lat="28.227332" lon="105.652753"><ele>1152.4856</ele><time>2026-01-30T22:07:10.000Z</time></trkpt>
        <trkpt lat="28.227311" lon="105.652718"><ele>1152.6583</ele><time>2026-01-30T22:07:14.000Z</time></trkpt>
        <trkpt lat="28.227283" lon="105.652663"><ele>1154.0752</ele><time>2026-01-30T22:07:19.000Z</time></trkpt>
        <trkpt lat="28.227243" lon="105.652626"><ele>1154.5568</ele><time>2026-01-30T22:07:24.000Z</time></trkpt>
        <trkpt lat="28.227207" lon="105.652588"><ele>1154.1038</ele><time>2026-01-30T22:07:29.000Z</time></trkpt>
        <trkpt lat="28.227213" lon="105.652644"><ele>1148.5718</ele><time>2026-01-30T22:08:23.000Z</time></trkpt>
        <trkpt lat="28.22725" lon="105.652686"><ele>1149.0173</ele><time>2026-01-30T22:08:30.000Z</time></trkpt>
        <trkpt lat="28.227275" lon="105.65272"><ele>1149.6329</ele><time>2026-01-30T22:08:34.000Z</time></trkpt>
        <trkpt lat="28.227304" lon="105.652764"><ele>1150.6543</ele><time>2026-01-30T22:08:39.000Z</time></trkpt>
        <trkpt lat="28.227328" lon="105.652813"><ele>1151.2046</ele><time>2026-01-30T22:08:44.000Z</time></trkpt>
        <trkpt lat="28.227305" lon="105.652861"><ele>1151.5225</ele><time>2026-01-30T22:08:51.000Z</time></trkpt>
        <trkpt lat="28.227326" lon="105.652898"><ele>1152.5895</ele><time>2026-01-30T22:09:10.000Z</time></trkpt>
        <trkpt lat="28.227373" lon="105.652894"><ele>1153.2258</ele><time>2026-01-30T22:09:22.000Z</time></trkpt>
        <trkpt lat="28.227418" lon="105.652906"><ele>1153.7551</ele><time>2026-01-30T22:09:29.000Z</time></trkpt>
        <trkpt lat="28.227467" lon="105.652904"><ele>1153.244</ele><time>2026-01-30T22:09:35.000Z</time></trkpt>
        <trkpt lat="28.227524" lon="105.652901"><ele>1152.2825</ele><time>2026-01-30T22:09:42.000Z</time></trkpt>
        <trkpt lat="28.227557" lon="105.652917"><ele>1152.8402</ele><time>2026-01-30T22:09:45.000Z</time></trkpt>
        <trkpt lat="28.227613" lon="105.652914"><ele>1153.1854</ele><time>2026-01-30T22:09:50.000Z</time></trkpt>
        <trkpt lat="28.22766" lon="105.652902"><ele>1152.8829</ele><time>2026-01-30T22:09:54.000Z</time></trkpt>
        <trkpt lat="28.227711" lon="105.652891"><ele>1152.4805</ele><time>2026-01-30T22:09:59.000Z</time></trkpt>
        <trkpt lat="28.227765" lon="105.652878"><ele>1150.5637</ele><time>2026-01-30T22:10:04.000Z</time></trkpt>
        <trkpt lat="28.227823" lon="105.652877"><ele>1150.3767</ele><time>2026-01-30T22:10:10.000Z</time></trkpt>
        <trkpt lat="28.227851" lon="105.652916"><ele>1150.7799</ele><time>2026-01-30T22:10:15.000Z</time></trkpt>
        <trkpt lat="28.227868" lon="105.652972"><ele>1149.9972</ele><time>2026-01-30T22:10:20.000Z</time></trkpt>
        <trkpt lat="28.227876" lon="105.65303"><ele>1148.6885</ele><time>2026-01-30T22:10:25.000Z</time></trkpt>
        <trkpt lat="28.227876" lon="105.653087"><ele>1147.4724</ele><time>2026-01-30T22:10:30.000Z</time></trkpt>
        <trkpt lat="28.227866" lon="105.653141"><ele>1146.0977</ele><time>2026-01-30T22:10:36.000Z</time></trkpt>
        <trkpt lat="28.22787" lon="105.653188"><ele>1145.6569</ele><time>2026-01-30T22:10:40.000Z</time></trkpt>
        <trkpt lat="28.227895" lon="105.653236"><ele>1143.4034</ele><time>2026-01-30T22:10:46.000Z</time></trkpt>
        <trkpt lat="28.227938" lon="105.653257"><ele>1142.6478</ele><time>2026-01-30T22:10:52.000Z</time></trkpt>
        <trkpt lat="28.227987" lon="105.653267"><ele>1143.2794</ele><time>2026-01-30T22:10:57.000Z</time></trkpt>
        <trkpt lat="28.228032" lon="105.653276"><ele>1143.9858</ele><time>2026-01-30T22:11:01.000Z</time></trkpt>
        <trkpt lat="28.228081" lon="105.653293"><ele>1143.539</ele><time>2026-01-30T22:11:06.000Z</time></trkpt>
        <trkpt lat="28.228127" lon="105.653299"><ele>1143.381</ele><time>2026-01-30T22:11:11.000Z</time></trkpt>
        <trkpt lat="28.22818" lon="105.6533"><ele>1142.8022</ele><time>2026-01-30T22:11:16.000Z</time></trkpt>
        <trkpt lat="28.228231" lon="105.653329"><ele>1140.4901</ele><time>2026-01-30T22:11:22.000Z</time></trkpt>
        <trkpt lat="28.228261" lon="105.653369"><ele>1139.4064</ele><time>2026-01-30T22:11:26.000Z</time></trkpt>
        <trkpt lat="28.228291" lon="105.65342"><ele>1139.1036</ele><time>2026-01-30T22:11:31.000Z</time></trkpt>
        <trkpt lat="28.228331" lon="105.653415"><ele>1137.4021</ele><time>2026-01-30T22:11:40.000Z</time></trkpt>
        <trkpt lat="28.228379" lon="105.653401"><ele>1134.4734</ele><time>2026-01-30T22:12:12.000Z</time></trkpt>
        <trkpt lat="28.228425" lon="105.653389"><ele>1131.6512</ele><time>2026-01-30T22:12:30.000Z</time></trkpt>
        <trkpt lat="28.228473" lon="105.653394"><ele>1130.3401</ele><time>2026-01-30T22:12:38.000Z</time></trkpt>
        <trkpt lat="28.228524" lon="105.653404"><ele>1128.1241</ele><time>2026-01-30T22:12:49.000Z</time></trkpt>
        <trkpt lat="28.228576" lon="105.65341"><ele>1125.6139</ele><time>2026-01-30T22:13:08.000Z</time></trkpt>
        <trkpt lat="28.228625" lon="105.653412"><ele>1123.3745</ele><time>2026-01-30T22:13:18.000Z</time></trkpt>
        <trkpt lat="28.228672" lon="105.653413"><ele>1123.2739</ele><time>2026-01-30T22:13:22.000Z</time></trkpt>
        <trkpt lat="28.228727" lon="105.653417"><ele>1123.5336</ele><time>2026-01-30T22:13:28.000Z</time></trkpt>
        <trkpt lat="28.228779" lon="105.653423"><ele>1123.8038</ele><time>2026-01-30T22:13:34.000Z</time></trkpt>
        <trkpt lat="28.228831" lon="105.653441"><ele>1124.272</ele><time>2026-01-30T22:13:41.000Z</time></trkpt>
        <trkpt lat="28.228873" lon="105.65348"><ele>1125.6141</ele><time>2026-01-30T22:13:55.000Z</time></trkpt>
        <trkpt lat="28.228907" lon="105.653499"><ele>1126.144</ele><time>2026-01-30T22:14:01.000Z</time></trkpt>
        <trkpt lat="28.22893" lon="105.653552"><ele>1126.2941</ele><time>2026-01-30T22:14:08.000Z</time></trkpt>
        <trkpt lat="28.228924" lon="105.653608"><ele>1127.2465</ele><time>2026-01-30T22:14:16.000Z</time></trkpt>
        <trkpt lat="28.228911" lon="105.653662"><ele>1128.6448</ele><time>2026-01-30T22:14:39.000Z</time></trkpt>
        <trkpt lat="28.228926" lon="105.653707"><ele>1126.2184</ele><time>2026-01-30T22:14:49.000Z</time></trkpt>
        <trkpt lat="28.228961" lon="105.653755"><ele>1123.2983</ele><time>2026-01-30T22:15:06.000Z</time></trkpt>
        <trkpt lat="28.228976" lon="105.653803"><ele>1122.1729</ele><time>2026-01-30T22:15:15.000Z</time></trkpt>
        <trkpt lat="28.228994" lon="105.653847"><ele>1123.2299</ele><time>2026-01-30T22:15:20.000Z</time></trkpt>
        <trkpt lat="28.229029" lon="105.653892"><ele>1122.0873</ele><time>2026-01-30T22:15:31.000Z</time></trkpt>
        <trkpt lat="28.229048" lon="105.653935"><ele>1121.717</ele><time>2026-01-30T22:15:40.000Z</time></trkpt>
        <trkpt lat="28.229092" lon="105.653953"><ele>1118.743</ele><time>2026-01-30T22:15:51.000Z</time></trkpt>
        <trkpt lat="28.229139" lon="105.653969"><ele>1116.4426</ele><time>2026-01-30T22:15:57.000Z</time></trkpt>
        <trkpt lat="28.229184" lon="105.653994"><ele>1114.4822</ele><time>2026-01-30T22:16:04.000Z</time></trkpt>
        <trkpt lat="28.229227" lon="105.654019"><ele>1114.0961</ele><time>2026-01-30T22:16:09.000Z</time></trkpt>
        <trkpt lat="28.229279" lon="105.654038"><ele>1114.2972</ele><time>2026-01-30T22:16:16.000Z</time></trkpt>
        <trkpt lat="28.229325" lon="105.65406"><ele>1113.6168</ele><time>2026-01-30T22:16:23.000Z</time></trkpt>
        <trkpt lat="28.229365" lon="105.654092"><ele>1112.4822</ele><time>2026-01-30T22:16:29.000Z</time></trkpt>
        <trkpt lat="28.229396" lon="105.654126"><ele>1111.9844</ele><time>2026-01-30T22:16:33.000Z</time></trkpt>
        <trkpt lat="28.229442" lon="105.654181"><ele>1110.9563</ele><time>2026-01-30T22:16:42.000Z</time></trkpt>
        <trkpt lat="28.229464" lon="105.654226"><ele>1111.032</ele><time>2026-01-30T22:16:49.000Z</time></trkpt>
        <trkpt lat="28.229505" lon="105.654242"><ele>1111.7635</ele><time>2026-01-30T22:16:58.000Z</time></trkpt>
        <trkpt lat="28.229554" lon="105.654258"><ele>1111.3718</ele><time>2026-01-30T22:17:16.000Z</time></trkpt>
        <trkpt lat="28.229588" lon="105.654229"><ele>1110.2103</ele><time>2026-01-30T22:17:25.000Z</time></trkpt>
        <trkpt lat="28.229639" lon="105.654244"><ele>1108.1082</ele><time>2026-01-30T22:17:38.000Z</time></trkpt>
        <trkpt lat="28.229682" lon="105.654227"><ele>1106.9878</ele><time>2026-01-30T22:17:57.000Z</time></trkpt>
        <trkpt lat="28.229711" lon="105.654264"><ele>1105.1023</ele><time>2026-01-30T22:18:06.000Z</time></trkpt>
        <trkpt lat="28.229757" lon="105.654276"><ele>1102.0027</ele><time>2026-01-30T22:18:16.000Z</time></trkpt>
        <trkpt lat="28.229801" lon="105.654305"><ele>1098.056</ele><time>2026-01-30T22:18:30.000Z</time></trkpt>
        <trkpt lat="28.229842" lon="105.654283"><ele>1097.0326</ele><time>2026-01-30T22:18:38.000Z</time></trkpt>
        <trkpt lat="28.229895" lon="105.654294"><ele>1096.0419</ele><time>2026-01-30T22:18:45.000Z</time></trkpt>
        <trkpt lat="28.229943" lon="105.654319"><ele>1096.7146</ele><time>2026-01-30T22:18:51.000Z</time></trkpt>
        <trkpt lat="28.229985" lon="105.654313"><ele>1098.0607</ele><time>2026-01-30T22:18:56.000Z</time></trkpt>
        <trkpt lat="28.230043" lon="105.654316"><ele>1097.7042</ele><time>2026-01-30T22:19:02.000Z</time></trkpt>
        <trkpt lat="28.230099" lon="105.65432"><ele>1095.678</ele><time>2026-01-30T22:19:08.000Z</time></trkpt>
        <trkpt lat="28.230145" lon="105.654347"><ele>1091.9983</ele><time>2026-01-30T22:19:16.000Z</time></trkpt>
        <trkpt lat="28.230188" lon="105.654374"><ele>1089.0289</ele><time>2026-01-30T22:19:26.000Z</time></trkpt>
        <trkpt lat="28.23023" lon="105.65436"><ele>1087.5995</ele><time>2026-01-30T22:19:34.000Z</time></trkpt>
        <trkpt lat="28.230276" lon="105.654375"><ele>1085.6207</ele><time>2026-01-30T22:19:42.000Z</time></trkpt>
        <trkpt lat="28.230324" lon="105.654374"><ele>1082.965</ele><time>2026-01-30T22:19:55.000Z</time></trkpt>
        <trkpt lat="28.230371" lon="105.654367"><ele>1081.4923</ele><time>2026-01-30T22:20:06.000Z</time></trkpt>
        <trkpt lat="28.230421" lon="105.654366"><ele>1079.0951</ele><time>2026-01-30T22:20:16.000Z</time></trkpt>
        <trkpt lat="28.230442" lon="105.654321"><ele>1079.7499</ele><time>2026-01-30T22:20:28.000Z</time></trkpt>
        <trkpt lat="28.230477" lon="105.654289"><ele>1078.0239</ele><time>2026-01-30T22:20:38.000Z</time></trkpt>
        <trkpt lat="28.230528" lon="105.654281"><ele>1073.799</ele><time>2026-01-30T22:20:55.000Z</time></trkpt>
        <trkpt lat="28.23054" lon="105.65433"><ele>1074.8505</ele><time>2026-01-30T22:21:05.000Z</time></trkpt>
        <trkpt lat="28.230579" lon="105.654351"><ele>1076.5334</ele><time>2026-01-30T22:21:14.000Z</time></trkpt>
        <trkpt lat="28.230544" lon="105.654353"><ele>1076.2438</ele><time>2026-01-30T22:21:22.000Z</time></trkpt>
        <trkpt lat="28.230517" lon="105.654387"><ele>1075.7405</ele><time>2026-01-30T22:21:27.000Z</time></trkpt>
        <trkpt lat="28.230515" lon="105.654437"><ele>1074.7506</ele><time>2026-01-30T22:21:32.000Z</time></trkpt>
        <trkpt lat="28.230513" lon="105.654496"><ele>1074.0143</ele><time>2026-01-30T22:21:38.000Z</time></trkpt>
        <trkpt lat="28.230498" lon="105.654547"><ele>1071.9186</ele><time>2026-01-30T22:21:44.000Z</time></trkpt>
        <trkpt lat="28.230472" lon="105.6546"><ele>1071.5135</ele><time>2026-01-30T22:21:50.000Z</time></trkpt>
        <trkpt lat="28.230435" lon="105.654644"><ele>1072.1923</ele><time>2026-01-30T22:21:56.000Z</time></trkpt>
        <trkpt lat="28.2304" lon="105.654684"><ele>1072.5619</ele><time>2026-01-30T22:22:02.000Z</time></trkpt>
        <trkpt lat="28.230422" lon="105.654726"><ele>1073.9056</ele><time>2026-01-30T22:22:09.000Z</time></trkpt>
        <trkpt lat="28.230467" lon="105.654756"><ele>1077.4055</ele><time>2026-01-30T22:22:16.000Z</time></trkpt>
        <trkpt lat="28.230512" lon="105.654792"><ele>1079.5419</ele><time>2026-01-30T22:22:23.000Z</time></trkpt>
        <trkpt lat="28.230549" lon="105.654836"><ele>1077.7104</ele><time>2026-01-30T22:22:31.000Z</time></trkpt>
        <trkpt lat="28.230582" lon="105.654882"><ele>1075.4363</ele><time>2026-01-30T22:22:39.000Z</time></trkpt>
        <trkpt lat="28.230618" lon="105.654923"><ele>1074.4569</ele><time>2026-01-30T22:22:45.000Z</time></trkpt>
        <trkpt lat="28.230622" lon="105.654984"><ele>1074.7212</ele><time>2026-01-30T22:22:52.000Z</time></trkpt>
        <trkpt lat="28.230592" lon="105.655032"><ele>1072.6809</ele><time>2026-01-30T22:23:04.000Z</time></trkpt>
        <trkpt lat="28.230644" lon="105.655033"><ele>1071.3881</ele><time>2026-01-30T22:23:21.000Z</time></trkpt>
        <trkpt lat="28.23069" lon="105.65504"><ele>1070.9603</ele><time>2026-01-30T22:23:29.000Z</time></trkpt>
        <trkpt lat="28.230726" lon="105.655076"><ele>1068.3923</ele><time>2026-01-30T22:23:41.000Z</time></trkpt>
        <trkpt lat="28.230762" lon="105.655115"><ele>1066.4948</ele><time>2026-01-30T22:23:50.000Z</time></trkpt>
        <trkpt lat="28.23081" lon="105.65512"><ele>1067.824</ele><time>2026-01-30T22:23:58.000Z</time></trkpt>
        <trkpt lat="28.230835" lon="105.655075"><ele>1065.8574</ele><time>2026-01-30T22:24:05.000Z</time></trkpt>
        <trkpt lat="28.230844" lon="105.655119"><ele>1062.4248</ele><time>2026-01-30T22:24:21.000Z</time></trkpt>
        <trkpt lat="28.230849" lon="105.655182"><ele>1063.2083</ele><time>2026-01-30T22:24:33.000Z</time></trkpt>
        <trkpt lat="28.230895" lon="105.655191"><ele>1064.8394</ele><time>2026-01-30T22:24:40.000Z</time></trkpt>
        <trkpt lat="28.230929" lon="105.655232"><ele>1064.3184</ele><time>2026-01-30T22:24:57.000Z</time></trkpt>
        <trkpt lat="28.230959" lon="105.655269"><ele>1064.001</ele><time>2026-01-30T22:25:06.000Z</time></trkpt>
        <trkpt lat="28.230935" lon="105.65531"><ele>1060.0199</ele><time>2026-01-30T22:25:18.000Z</time></trkpt>
        <trkpt lat="28.230882" lon="105.65531"><ele>1065.2786</ele><time>2026-01-30T22:25:54.000Z</time></trkpt>
        <trkpt lat="28.230836" lon="105.655315"><ele>1066.4913</ele><time>2026-01-30T22:26:04.000Z</time></trkpt>
        <trkpt lat="28.230794" lon="105.65535"><ele>1067.1433</ele><time>2026-01-30T22:26:15.000Z</time></trkpt>
        <trkpt lat="28.230746" lon="105.655361"><ele>1066.213</ele><time>2026-01-30T22:26:25.000Z</time></trkpt>
        <trkpt lat="28.2307" lon="105.655373"><ele>1067.1814</ele><time>2026-01-30T22:26:36.000Z</time></trkpt>
        <trkpt lat="28.230656" lon="105.655383"><ele>1070.5978</ele><time>2026-01-30T22:26:48.000Z</time></trkpt>
        <trkpt lat="28.230613" lon="105.655405"><ele>1072.2026</ele><time>2026-01-30T22:27:03.000Z</time></trkpt>
        <trkpt lat="28.230566" lon="105.655408"><ele>1074.5997</ele><time>2026-01-30T22:27:29.000Z</time></trkpt>
        <trkpt lat="28.230522" lon="105.655385"><ele>1073.078</ele><time>2026-01-30T22:27:41.000Z</time></trkpt>
        <trkpt lat="28.230477" lon="105.655358"><ele>1074.6113</ele><time>2026-01-30T22:27:55.000Z</time></trkpt>
        <trkpt lat="28.230442" lon="105.655392"><ele>1079.5216</ele><time>2026-01-30T22:28:16.000Z</time></trkpt>
        <trkpt lat="28.23045" lon="105.655448"><ele>1079.5812</ele><time>2026-01-30T22:28:36.000Z</time></trkpt>
        <trkpt lat="28.23043" lon="105.655498"><ele>1082.8373</ele><time>2026-01-30T22:29:00.000Z</time></trkpt>
        <trkpt lat="28.230389" lon="105.655531"><ele>1084.8214</ele><time>2026-01-30T22:29:17.000Z</time></trkpt>
        <trkpt lat="28.23035" lon="105.65549"><ele>1083.9893</ele><time>2026-01-30T22:29:41.000Z</time></trkpt>
        <trkpt lat="28.230315" lon="105.655459"><ele>1082.8899</ele><time>2026-01-30T22:29:51.000Z</time></trkpt>
        <trkpt lat="28.230267" lon="105.655455"><ele>1085.8859</ele><time>2026-01-30T22:30:01.000Z</time></trkpt>
        <trkpt lat="28.230236" lon="105.655416"><ele>1086.7448</ele><time>2026-01-30T22:30:13.000Z</time></trkpt>
        <trkpt lat="28.23021" lon="105.655368"><ele>1090.0735</ele><time>2026-01-30T22:30:29.000Z</time></trkpt>
        <trkpt lat="28.230161" lon="105.655353"><ele>1091.7008</ele><time>2026-01-30T22:30:41.000Z</time></trkpt>
        <trkpt lat="28.230146" lon="105.655308"><ele>1092.7756</ele><time>2026-01-30T22:30:49.000Z</time></trkpt>
        <trkpt lat="28.230158" lon="105.655246"><ele>1095.6116</ele><time>2026-01-30T22:31:03.000Z</time></trkpt>
        <trkpt lat="28.230145" lon="105.655197"><ele>1091.2991</ele><time>2026-01-30T22:31:20.000Z</time></trkpt>
        <trkpt lat="28.230146" lon="105.655139"><ele>1091.0712</ele><time>2026-01-30T22:31:32.000Z</time></trkpt>
        <trkpt lat="28.230123" lon="105.655091"><ele>1090.4781</ele><time>2026-01-30T22:31:45.000Z</time></trkpt>
        <trkpt lat="28.230075" lon="105.655086"><ele>1091.9622</ele><time>2026-01-30T22:32:00.000Z</time></trkpt>
        <trkpt lat="28.230033" lon="105.655051"><ele>1097.0161</ele><time>2026-01-30T22:32:18.000Z</time></trkpt>
        <trkpt lat="28.229991" lon="105.655031"><ele>1099.1099</ele><time>2026-01-30T22:32:28.000Z</time></trkpt>
        <trkpt lat="28.229948" lon="105.655065"><ele>1100.3905</ele><time>2026-01-30T22:32:40.000Z</time></trkpt>
        <trkpt lat="28.229904" lon="105.65507"><ele>1102.369</ele><time>2026-01-30T22:32:49.000Z</time></trkpt>
        <trkpt lat="28.229883" lon="105.655112"><ele>1102.0267</ele><time>2026-01-30T22:33:01.000Z</time></trkpt>
        <trkpt lat="28.229873" lon="105.655066"><ele>1102.3934</ele><time>2026-01-30T22:33:19.000Z</time></trkpt>
        <trkpt lat="28.229835" lon="105.655033"><ele>1103.3241</ele><time>2026-01-30T22:33:38.000Z</time></trkpt>
        <trkpt lat="28.22981" lon="105.654989"><ele>1105.6124</ele><time>2026-01-30T22:33:50.000Z</time></trkpt>
        <trkpt lat="28.229786" lon="105.654942"><ele>1106.8387</ele><time>2026-01-30T22:33:56.000Z</time></trkpt>
        <trkpt lat="28.229757" lon="105.654906"><ele>1105.6677</ele><time>2026-01-30T22:34:00.000Z</time></trkpt>
        <trkpt lat="28.229704" lon="105.654892"><ele>1105.8755</ele><time>2026-01-30T22:34:36.000Z</time></trkpt>
        <trkpt lat="28.229692" lon="105.654842"><ele>1107.4065</ele><time>2026-01-30T22:35:30.000Z</time></trkpt>
        <trkpt lat="28.229692" lon="105.654789"><ele>1109.3091</ele><time>2026-01-30T22:36:06.000Z</time></trkpt>
        <trkpt lat="28.229674" lon="105.65475"><ele>1106.7957</ele><time>2026-01-30T22:36:17.000Z</time></trkpt>
        <trkpt lat="28.229651" lon="105.654696"><ele>1103.609</ele><time>2026-01-30T22:36:35.000Z</time></trkpt>
        <trkpt lat="28.229639" lon="105.654648"><ele>1104.6453</ele><time>2026-01-30T22:36:54.000Z</time></trkpt>
        <trkpt lat="28.229607" lon="105.654611"><ele>1105.926</ele><time>2026-01-30T22:37:07.000Z</time></trkpt>
        <trkpt lat="28.229565" lon="105.654632"><ele>1109.9949</ele><time>2026-01-30T22:37:21.000Z</time></trkpt>
        <trkpt lat="28.229566" lon="105.654588"><ele>1109.7626</ele><time>2026-01-30T22:37:29.000Z</time></trkpt>
        <trkpt lat="28.229546" lon="105.654535"><ele>1109.2817</ele><time>2026-01-30T22:37:39.000Z</time></trkpt>
        <trkpt lat="28.22952" lon="105.654486"><ele>1110.9546</ele><time>2026-01-30T22:37:49.000Z</time></trkpt>
        <trkpt lat="28.229494" lon="105.654444"><ele>1110.4271</ele><time>2026-01-30T22:37:57.000Z</time></trkpt>
        <trkpt lat="28.229493" lon="105.654391"><ele>1110.8143</ele><time>2026-01-30T22:38:06.000Z</time></trkpt>
        <trkpt lat="28.229526" lon="105.654352"><ele>1114.7682</ele><time>2026-01-30T22:38:19.000Z</time></trkpt>
        <trkpt lat="28.229524" lon="105.654302"><ele>1116.6536</ele><time>2026-01-30T22:38:28.000Z</time></trkpt>
        <trkpt lat="28.229515" lon="105.654251"><ele>1117.4564</ele><time>2026-01-30T22:38:33.000Z</time></trkpt>
        <trkpt lat="28.229451" lon="105.654216"><ele>1110.954</ele><time>2026-01-30T22:38:55.000Z</time></trkpt>
        <trkpt lat="28.229429" lon="105.654191"><ele>1110.4865</ele><time>2026-01-30T22:38:58.000Z</time></trkpt>
        <trkpt lat="28.229397" lon="105.654126"><ele>1112.2488</ele><time>2026-01-30T22:39:05.000Z</time></trkpt>
        <trkpt lat="28.229358" lon="105.654076"><ele>1114.8986</ele><time>2026-01-30T22:39:12.000Z</time></trkpt>
        <trkpt lat="28.229312" lon="105.654051"><ele>1117.1296</ele><time>2026-01-30T22:39:20.000Z</time></trkpt>
        <trkpt lat="28.229273" lon="105.654026"><ele>1118.6697</ele><time>2026-01-30T22:39:26.000Z</time></trkpt>
        <trkpt lat="28.229226" lon="105.654007"><ele>1119.3318</ele><time>2026-01-30T22:39:31.000Z</time></trkpt>
        <trkpt lat="28.229194" lon="105.653973"><ele>1118.9701</ele><time>2026-01-30T22:39:35.000Z</time></trkpt>
        <trkpt lat="28.229147" lon="105.653948"><ele>1119.0226</ele><time>2026-01-30T22:39:42.000Z</time></trkpt>
        <trkpt lat="28.229097" lon="105.653931"><ele>1122.5032</ele><time>2026-01-30T22:39:49.000Z</time></trkpt>
        <trkpt lat="28.229076" lon="105.653885"><ele>1123.5679</ele><time>2026-01-30T22:39:59.000Z</time></trkpt>
        <trkpt lat="28.229046" lon="105.653853"><ele>1123.744</ele><time>2026-01-30T22:40:06.000Z</time></trkpt>
        <trkpt lat="28.229016" lon="105.653805"><ele>1124.148</ele><time>2026-01-30T22:40:12.000Z</time></trkpt>
        <trkpt lat="28.228996" lon="105.653752"><ele>1123.7073</ele><time>2026-01-30T22:40:19.000Z</time></trkpt>
        <trkpt lat="28.228962" lon="105.653717"><ele>1124.4375</ele><time>2026-01-30T22:40:26.000Z</time></trkpt>
        <trkpt lat="28.228926" lon="105.653672"><ele>1127.3528</ele><time>2026-01-30T22:40:38.000Z</time></trkpt>
        <trkpt lat="28.228925" lon="105.653618"><ele>1126.8958</ele><time>2026-01-30T22:40:44.000Z</time></trkpt>
        <trkpt lat="28.228942" lon="105.65356"><ele>1125.0748</ele><time>2026-01-30T22:40:52.000Z</time></trkpt>
        <trkpt lat="28.228945" lon="105.653508"><ele>1127.522</ele><time>2026-01-30T22:41:00.000Z</time></trkpt>
        <trkpt lat="28.228909" lon="105.653464"><ele>1127.6003</ele><time>2026-01-30T22:41:09.000Z</time></trkpt>
        <trkpt lat="28.228867" lon="105.653434"><ele>1125.1907</ele><time>2026-01-30T22:41:16.000Z</time></trkpt>
        <trkpt lat="28.228825" lon="105.653425"><ele>1125.4136</ele><time>2026-01-30T22:41:21.000Z</time></trkpt>
        <trkpt lat="28.228774" lon="105.653422"><ele>1126.2784</ele><time>2026-01-30T22:41:25.000Z</time></trkpt>
        <trkpt lat="28.22872" lon="105.653419"><ele>1127.4053</ele><time>2026-01-30T22:41:29.000Z</time></trkpt>
        <trkpt lat="28.228659" lon="105.65342"><ele>1128.9724</ele><time>2026-01-30T22:41:36.000Z</time></trkpt>
        <trkpt lat="28.22861" lon="105.653415"><ele>1132.4785</ele><time>2026-01-30T22:41:43.000Z</time></trkpt>
        <trkpt lat="28.228565" lon="105.653401"><ele>1134.225</ele><time>2026-01-30T22:41:50.000Z</time></trkpt>
        <trkpt lat="28.228517" lon="105.653397"><ele>1136.0863</ele><time>2026-01-30T22:42:00.000Z</time></trkpt>
        <trkpt lat="28.228469" lon="105.653402"><ele>1137.6069</ele><time>2026-01-30T22:42:13.000Z</time></trkpt>
        <trkpt lat="28.228429" lon="105.653426"><ele>1140.7917</ele><time>2026-01-30T22:42:24.000Z</time></trkpt>
        <trkpt lat="28.228385" lon="105.653413"><ele>1142.8433</ele><time>2026-01-30T22:42:38.000Z</time></trkpt>
        <trkpt lat="28.228345" lon="105.653406"><ele>1141.6921</ele><time>2026-01-30T22:42:44.000Z</time></trkpt>
        <trkpt lat="28.228295" lon="105.653373"><ele>1141.2917</ele><time>2026-01-30T22:44:15.000Z</time></trkpt>
        <trkpt lat="28.228285" lon="105.653336"><ele>1142.6136</ele><time>2026-01-30T22:44:21.000Z</time></trkpt>
        <trkpt lat="28.228238" lon="105.653293"><ele>1142.9797</ele><time>2026-01-30T22:44:36.000Z</time></trkpt>
        <trkpt lat="28.228191" lon="105.653273"><ele>1142.4663</ele><time>2026-01-30T22:44:45.000Z</time></trkpt>
        <trkpt lat="28.228147" lon="105.653292"><ele>1142.4855</ele><time>2026-01-30T22:44:51.000Z</time></trkpt>
        <trkpt lat="28.228103" lon="105.653282"><ele>1144.9814</ele><time>2026-01-30T22:44:57.000Z</time></trkpt>
        <trkpt lat="28.228055" lon="105.653259"><ele>1145.3429</ele><time>2026-01-30T22:45:03.000Z</time></trkpt>
        <trkpt lat="28.228008" lon="105.653239"><ele>1144.8551</ele><time>2026-01-30T22:45:09.000Z</time></trkpt>
        <trkpt lat="28.227954" lon="105.65323"><ele>1145.272</ele><time>2026-01-30T22:45:16.000Z</time></trkpt>
        <trkpt lat="28.227918" lon="105.653196"><ele>1146.3271</ele><time>2026-01-30T22:45:22.000Z</time></trkpt>
        <trkpt lat="28.227895" lon="105.65314"><ele>1146.3904</ele><time>2026-01-30T22:45:29.000Z</time></trkpt>
        <trkpt lat="28.227888" lon="105.653078"><ele>1147.0809</ele><time>2026-01-30T22:45:37.000Z</time></trkpt>
        <trkpt lat="28.227905" lon="105.653021"><ele>1147.3226</ele><time>2026-01-30T22:45:45.000Z</time></trkpt>
        <trkpt lat="28.227917" lon="105.652969"><ele>1150.08</ele><time>2026-01-30T22:45:53.000Z</time></trkpt>
        <trkpt lat="28.227901" lon="105.652921"><ele>1153.1305</ele><time>2026-01-30T22:45:59.000Z</time></trkpt>
        <trkpt lat="28.227871" lon="105.652874"><ele>1156.3881</ele><time>2026-01-30T22:46:04.000Z</time></trkpt>
        <trkpt lat="28.227822" lon="105.65287"><ele>1158.9032</ele><time>2026-01-30T22:46:11.000Z</time></trkpt>
        <trkpt lat="28.22777" lon="105.652892"><ele>1159.404</ele><time>2026-01-30T22:46:18.000Z</time></trkpt>
        <trkpt lat="28.227723" lon="105.652898"><ele>1159.3113</ele><time>2026-01-30T22:46:23.000Z</time></trkpt>
        <trkpt lat="28.227668" lon="105.652899"><ele>1157.7383</ele><time>2026-01-30T22:46:29.000Z</time></trkpt>
        <trkpt lat="28.227617" lon="105.652894"><ele>1156.122</ele><time>2026-01-30T22:46:34.000Z</time></trkpt>
        <trkpt lat="28.227567" lon="105.652887"><ele>1155.2484</ele><time>2026-01-30T22:46:39.000Z</time></trkpt>
        <trkpt lat="28.227511" lon="105.652891"><ele>1155.5244</ele><time>2026-01-30T22:46:46.000Z</time></trkpt>
        <trkpt lat="28.227462" lon="105.652902"><ele>1156.3882</ele><time>2026-01-30T22:46:52.000Z</time></trkpt>
        <trkpt lat="28.227413" lon="105.65289"><ele>1156.8633</ele><time>2026-01-30T22:46:57.000Z</time></trkpt>
        <trkpt lat="28.227364" lon="105.65289"><ele>1153.9684</ele><time>2026-01-30T22:47:03.000Z</time></trkpt>
        <trkpt lat="28.227329" lon="105.652864"><ele>1151.7902</ele><time>2026-01-30T22:47:08.000Z</time></trkpt>
        <trkpt lat="28.22734" lon="105.652815"><ele>1148.9407</ele><time>2026-01-30T22:47:14.000Z</time></trkpt>
        <trkpt lat="28.227334" lon="105.652752"><ele>1148.1083</ele><time>2026-01-30T22:47:19.000Z</time></trkpt>
        <trkpt lat="28.227303" lon="105.652696"><ele>1148.6444</ele><time>2026-01-30T22:47:24.000Z</time></trkpt>
        <trkpt lat="28.227268" lon="105.652653"><ele>1149.7057</ele><time>2026-01-30T22:47:28.000Z</time></trkpt>
        <trkpt lat="28.227229" lon="105.652619"><ele>1150.4689</ele><time>2026-01-30T22:47:32.000Z</time></trkpt>
        <trkpt lat="28.227202" lon="105.65257"><ele>1149.6798</ele><time>2026-01-30T22:47:37.000Z</time></trkpt>
        <trkpt lat="28.227203" lon="105.652513"><ele>1147.1475</ele><time>2026-01-30T22:47:43.000Z</time></trkpt>
        <trkpt lat="28.227204" lon="105.652457"><ele>1146.5953</ele><time>2026-01-30T22:47:48.000Z</time></trkpt>
        <trkpt lat="28.227163" lon="105.652432"><ele>1145.0697</ele><time>2026-01-30T22:48:03.000Z</time></trkpt>
        <trkpt lat="28.227114" lon="105.652423"><ele>1143.9979</ele><time>2026-01-30T22:48:09.000Z</time></trkpt>
        <trkpt lat="28.227065" lon="105.652441"><ele>1143.4159</ele><time>2026-01-30T22:48:14.000Z</time></trkpt>
        <trkpt lat="28.227019" lon="105.652459"><ele>1142.8881</ele><time>2026-01-30T22:48:18.000Z</time></trkpt>
        <trkpt lat="28.226973" lon="105.652486"><ele>1143.4115</ele><time>2026-01-30T22:48:22.000Z</time></trkpt>
        <trkpt lat="28.226919" lon="105.652508"><ele>1144.6652</ele><time>2026-01-30T22:48:28.000Z</time></trkpt>
        <trkpt lat="28.226884" lon="105.652561"><ele>1146.2991</ele><time>2026-01-30T22:48:44.000Z</time></trkpt>
        <trkpt lat="28.226845" lon="105.652582"><ele>1142.9331</ele><time>2026-01-30T22:48:53.000Z</time></trkpt>
        <trkpt lat="28.226793" lon="105.652597"><ele>1138.3004</ele><time>2026-01-30T22:49:03.000Z</time></trkpt>
        <trkpt lat="28.226745" lon="105.652616"><ele>1135.3185</ele><time>2026-01-30T22:49:15.000Z</time></trkpt>
        <trkpt lat="28.226707" lon="105.652644"><ele>1134.3671</ele><time>2026-01-30T22:49:24.000Z</time></trkpt>
        <trkpt lat="28.226661" lon="105.652659"><ele>1131.9594</ele><time>2026-01-30T22:49:33.000Z</time></trkpt>
        <trkpt lat="28.226617" lon="105.652673"><ele>1129.3705</ele><time>2026-01-30T22:49:41.000Z</time></trkpt>
        <trkpt lat="28.226586" lon="105.65271"><ele>1128.1464</ele><time>2026-01-30T22:49:47.000Z</time></trkpt>
        <trkpt lat="28.226583" lon="105.652768"><ele>1125.3473</ele><time>2026-01-30T22:49:56.000Z</time></trkpt>
        <trkpt lat="28.226576" lon="105.652817"><ele>1123.6644</ele><time>2026-01-30T22:50:01.000Z</time></trkpt>
        <trkpt lat="28.226545" lon="105.652865"><ele>1120.5697</ele><time>2026-01-30T22:50:09.000Z</time></trkpt>
        <trkpt lat="28.226503" lon="105.652891"><ele>1118.4447</ele><time>2026-01-30T22:50:15.000Z</time></trkpt>
        <trkpt lat="28.226456" lon="105.652871"><ele>1113.8706</ele><time>2026-01-30T22:50:23.000Z</time></trkpt>
        <trkpt lat="28.226417" lon="105.652845"><ele>1112.4401</ele><time>2026-01-30T22:50:28.000Z</time></trkpt>
        <trkpt lat="28.226375" lon="105.652851"><ele>1112.0369</ele><time>2026-01-30T22:50:33.000Z</time></trkpt>
        <trkpt lat="28.226342" lon="105.65289"><ele>1110.0247</ele><time>2026-01-30T22:50:39.000Z</time></trkpt>
        <trkpt lat="28.226339" lon="105.652945"><ele>1107.9059</ele><time>2026-01-30T22:50:43.000Z</time></trkpt>
        <trkpt lat="28.226313" lon="105.652997"><ele>1105.6588</ele><time>2026-01-30T22:50:48.000Z</time></trkpt>
        <trkpt lat="28.226266" lon="105.653016"><ele>1103.2704</ele><time>2026-01-30T22:50:53.000Z</time></trkpt>
        <trkpt lat="28.226219" lon="105.653021"><ele>1101.5273</ele><time>2026-01-30T22:50:57.000Z</time></trkpt>
        <trkpt lat="28.226168" lon="105.653024"><ele>1100.1609</ele><time>2026-01-30T22:51:02.000Z</time></trkpt>
        <trkpt lat="28.226126" lon="105.653043"><ele>1100.5422</ele><time>2026-01-30T22:51:06.000Z</time></trkpt>
        <trkpt lat="28.226078" lon="105.653072"><ele>1100.8914</ele><time>2026-01-30T22:51:11.000Z</time></trkpt>
        <trkpt lat="28.226099" lon="105.653039"><ele>1095.6493</ele><time>2026-01-30T22:51:29.000Z</time></trkpt>
        <trkpt lat="28.226119" lon="105.652981"><ele>1093.3818</ele><time>2026-01-30T22:51:35.000Z</time></trkpt>
        <trkpt lat="28.226141" lon="105.65293"><ele>1093.0203</ele><time>2026-01-30T22:51:41.000Z</time></trkpt>
        <trkpt lat="28.226147" lon="105.652881"><ele>1092.4349</ele><time>2026-01-30T22:51:45.000Z</time></trkpt>
        <trkpt lat="28.226148" lon="105.652812"><ele>1089.5747</ele><time>2026-01-30T22:51:52.000Z</time></trkpt>
        <trkpt lat="28.226133" lon="105.652748"><ele>1086.6226</ele><time>2026-01-30T22:51:59.000Z</time></trkpt>
        <trkpt lat="28.226091" lon="105.652715"><ele>1085.9298</ele><time>2026-01-30T22:52:05.000Z</time></trkpt>
        <trkpt lat="28.226044" lon="105.6527"><ele>1087.1178</ele><time>2026-01-30T22:52:09.000Z</time></trkpt>
        <trkpt lat="28.225987" lon="105.652695"><ele>1087.7988</ele><time>2026-01-30T22:52:14.000Z</time></trkpt>
        <trkpt lat="28.22593" lon="105.652715"><ele>1086.5925</ele><time>2026-01-30T22:52:19.000Z</time></trkpt>
        <trkpt lat="28.225875" lon="105.652759"><ele>1084.6794</ele><time>2026-01-30T22:52:28.000Z</time></trkpt>
        <trkpt lat="28.225839" lon="105.652784"><ele>1083.4232</ele><time>2026-01-30T22:52:33.000Z</time></trkpt>
        <trkpt lat="28.225794" lon="105.652796"><ele>1081.2351</ele><time>2026-01-30T22:52:38.000Z</time></trkpt>
        <trkpt lat="28.225756" lon="105.652821"><ele>1079.5637</ele><time>2026-01-30T22:52:42.000Z</time></trkpt>
        <trkpt lat="28.225713" lon="105.652841"><ele>1078.0254</ele><time>2026-01-30T22:52:46.000Z</time></trkpt>
        <trkpt lat="28.225667" lon="105.652856"><ele>1076.6704</ele><time>2026-01-30T22:52:50.000Z</time></trkpt>
        <trkpt lat="28.225619" lon="105.65288"><ele>1075.6919</ele><time>2026-01-30T22:52:54.000Z</time></trkpt>
        <trkpt lat="28.225571" lon="105.652907"><ele>1075.1001</ele><time>2026-01-30T22:52:57.000Z</time></trkpt>
        <trkpt lat="28.22552" lon="105.652918"><ele>1075.2905</ele><time>2026-01-30T22:53:01.000Z</time></trkpt>
        <trkpt lat="28.225459" lon="105.65293"><ele>1073.614</ele><time>2026-01-30T22:53:08.000Z</time></trkpt>
        <trkpt lat="28.225419" lon="105.652947"><ele>1072.4364</ele><time>2026-01-30T22:53:13.000Z</time></trkpt>
        <trkpt lat="28.22538" lon="105.652972"><ele>1072.5078</ele><time>2026-01-30T22:53:18.000Z</time></trkpt>
        <trkpt lat="28.225342" lon="105.653025"><ele>1072.0521</ele><time>2026-01-30T22:53:23.000Z</time></trkpt>
        <trkpt lat="28.225318" lon="105.653081"><ele>1071.6415</ele><time>2026-01-30T22:53:27.000Z</time></trkpt>
        <trkpt lat="28.225277" lon="105.653125"><ele>1069.5294</ele><time>2026-01-30T22:53:32.000Z</time></trkpt>
        <trkpt lat="28.225238" lon="105.653154"><ele>1067.8265</ele><time>2026-01-30T22:53:36.000Z</time></trkpt>
        <trkpt lat="28.225186" lon="105.653182"><ele>1066.0532</ele><time>2026-01-30T22:53:43.000Z</time></trkpt>
        <trkpt lat="28.22516" lon="105.65322"><ele>1065.3456</ele><time>2026-01-30T22:53:48.000Z</time></trkpt>
        <trkpt lat="28.225135" lon="105.65327"><ele>1064.2361</ele><time>2026-01-30T22:53:53.000Z</time></trkpt>
        <trkpt lat="28.225102" lon="105.653306"><ele>1063.1127</ele><time>2026-01-30T22:53:57.000Z</time></trkpt>
        <trkpt lat="28.22507" lon="105.653346"><ele>1061.3582</ele><time>2026-01-30T22:54:01.000Z</time></trkpt>
        <trkpt lat="28.225048" lon="105.653387"><ele>1060.4149</ele><time>2026-01-30T22:54:04.000Z</time></trkpt>
        <trkpt lat="28.225016" lon="105.653441"><ele>1058.2035</ele><time>2026-01-30T22:54:09.000Z</time></trkpt>
        <trkpt lat="28.224978" lon="105.653482"><ele>1056.8948</ele><time>2026-01-30T22:54:14.000Z</time></trkpt>
        <trkpt lat="28.224958" lon="105.653523"><ele>1057.163</ele><time>2026-01-30T22:54:17.000Z</time></trkpt>
        <trkpt lat="28.224928" lon="105.653572"><ele>1056.8636</ele><time>2026-01-30T22:54:21.000Z</time></trkpt>
        <trkpt lat="28.224894" lon="105.653618"><ele>1056.7661</ele><time>2026-01-30T22:54:26.000Z</time></trkpt>
        <trkpt lat="28.224861" lon="105.653663"><ele>1056.2664</ele><time>2026-01-30T22:54:31.000Z</time></trkpt>
        <trkpt lat="28.224832" lon="105.653714"><ele>1052.9296</ele><time>2026-01-30T22:55:12.000Z</time></trkpt>
        <trkpt lat="28.22482" lon="105.653737"><ele>1053.1647</ele><time>2026-01-30T22:55:16.000Z</time></trkpt>
        <trkpt lat="28.224803" lon="105.653787"><ele>1053.8176</ele><time>2026-01-30T22:55:19.000Z</time></trkpt>
        <trkpt lat="28.224793" lon="105.653855"><ele>1053.1895</ele><time>2026-01-30T22:55:26.000Z</time></trkpt>
        <trkpt lat="28.22482" lon="105.653897"><ele>1051.1212</ele><time>2026-01-30T22:55:32.000Z</time></trkpt>
        <trkpt lat="28.2248" lon="105.653951"><ele>1049.4958</ele><time>2026-01-30T22:55:57.000Z</time></trkpt>
        <trkpt lat="28.224775" lon="105.653999"><ele>1052.5078</ele><time>2026-01-30T22:56:04.000Z</time></trkpt>
        <trkpt lat="28.224748" lon="105.65404"><ele>1053.9968</ele><time>2026-01-30T22:56:07.000Z</time></trkpt>
        <trkpt lat="28.224679" lon="105.654072"><ele>1055.0848</ele><time>2026-01-30T22:56:37.000Z</time></trkpt>
        <trkpt lat="28.224644" lon="105.654099"><ele>1051.9595</ele><time>2026-01-30T22:56:52.000Z</time></trkpt>
        <trkpt lat="28.224665" lon="105.654129"><ele>1055.0347</ele><time>2026-01-30T22:56:54.000Z</time></trkpt>
        <trkpt lat="28.224717" lon="105.654131"><ele>1055.3981</ele><time>2026-01-30T22:57:00.000Z</time></trkpt>
        <trkpt lat="28.224689" lon="105.654153"><ele>1054.4786</ele><time>2026-01-30T22:57:13.000Z</time></trkpt>
        <trkpt lat="28.224646" lon="105.654159"><ele>1054.992</ele><time>2026-01-30T22:57:17.000Z</time></trkpt>
        <trkpt lat="28.224683" lon="105.654148"><ele>1051.9592</ele><time>2026-01-30T22:57:51.000Z</time></trkpt>
        <trkpt lat="28.224646" lon="105.654168"><ele>1051.4683</ele><time>2026-01-30T22:58:00.000Z</time></trkpt>
        <trkpt lat="28.224667" lon="105.654158"><ele>1050.921</ele><time>2026-01-30T22:58:06.000Z</time></trkpt>
        <trkpt lat="28.224705" lon="105.654133"><ele>1050.7274</ele><time>2026-01-30T22:58:10.000Z</time></trkpt>
        <trkpt lat="28.224739" lon="105.654075"><ele>1050.2562</ele><time>2026-01-30T22:58:18.000Z</time></trkpt>
        <trkpt lat="28.22472" lon="105.654022"><ele>1051.6401</ele><time>2026-01-30T22:58:25.000Z</time></trkpt>
        <trkpt lat="28.224689" lon="105.653977"><ele>1050.3956</ele><time>2026-01-30T22:58:32.000Z</time></trkpt>
        <trkpt lat="28.224649" lon="105.653948"><ele>1050.2474</ele><time>2026-01-30T22:58:36.000Z</time></trkpt>
        <trkpt lat="28.22467" lon="105.653907"><ele>1050.9124</ele><time>2026-01-30T22:58:45.000Z</time></trkpt>
        <trkpt lat="28.224689" lon="105.653963"><ele>1052.2089</ele><time>2026-01-30T22:59:46.000Z</time></trkpt>
        <trkpt lat="28.224696" lon="105.654002"><ele>1052.3969</ele><time>2026-01-30T22:59:49.000Z</time></trkpt>
        <trkpt lat="28.22472" lon="105.654078"><ele>1053.0145</ele><time>2026-01-30T23:00:32.000Z</time></trkpt>
        <trkpt lat="28.224765" lon="105.654092"><ele>1052.888</ele><time>2026-01-30T23:00:42.000Z</time></trkpt>
        <trkpt lat="28.224726" lon="105.654076"><ele>1051.5408</ele><time>2026-01-30T23:01:00.000Z</time></trkpt>
        <trkpt lat="28.224769" lon="105.654085"><ele>1054.3588</ele><time>2026-01-30T23:02:35.000Z</time></trkpt>
        <trkpt lat="28.224729" lon="105.654057"><ele>1053.9762</ele><time>2026-01-30T23:05:22.000Z</time></trkpt>
        <trkpt lat="28.224693" lon="105.654062"><ele>1054.71</ele><time>2026-01-30T23:05:26.000Z</time></trkpt>
        <trkpt lat="28.22473" lon="105.654079"><ele>1054.4519</ele><time>2026-01-30T23:06:10.000Z</time></trkpt>
        <trkpt lat="28.224685" lon="105.654088"><ele>1055.5677</ele><time>2026-01-30T23:07:32.000Z</time></trkpt>
        <trkpt lat="28.224661" lon="105.654028"><ele>1051.5742</ele><time>2026-01-30T23:09:59.000Z</time></trkpt>
        <trkpt lat="28.224693" lon="105.654069"><ele>1055.542</ele><time>2026-01-30T23:10:37.000Z</time></trkpt>
        <trkpt lat="28.224731" lon="105.654067"><ele>1055.3916</ele><time>2026-01-30T23:10:48.000Z</time></trkpt>
        <trkpt lat="28.224708" lon="105.654104"><ele>1056.824</ele><time>2026-01-30T23:13:12.000Z</time></trkpt>
        <trkpt lat="28.224673" lon="105.654125"><ele>1056.6998</ele><time>2026-01-30T23:13:16.000Z</time></trkpt>
        <trkpt lat="28.224622" lon="105.654145"><ele>1055.2668</ele><time>2026-01-30T23:13:22.000Z</time></trkpt>
        <trkpt lat="28.224573" lon="105.654155"><ele>1054.1969</ele><time>2026-01-30T23:13:27.000Z</time></trkpt>
        <trkpt lat="28.224516" lon="105.654172"><ele>1053.8258</ele><time>2026-01-30T23:13:36.000Z</time></trkpt>
        <trkpt lat="28.224475" lon="105.654188"><ele>1053.5791</ele><time>2026-01-30T23:13:41.000Z</time></trkpt>
        <trkpt lat="28.224431" lon="105.654194"><ele>1052.2015</ele><time>2026-01-30T23:13:45.000Z</time></trkpt>
        <trkpt lat="28.224383" lon="105.654209"><ele>1049.9175</ele><time>2026-01-30T23:13:50.000Z</time></trkpt>
        <trkpt lat="28.224334" lon="105.654226"><ele>1050.1093</ele><time>2026-01-30T23:13:54.000Z</time></trkpt>
        <trkpt lat="28.224298" lon="105.654269"><ele>1050.7937</ele><time>2026-01-30T23:13:58.000Z</time></trkpt>
        <trkpt lat="28.224287" lon="105.654332"><ele>1050.2769</ele><time>2026-01-30T23:14:02.000Z</time></trkpt>
        <trkpt lat="28.224313" lon="105.65439"><ele>1050.1357</ele><time>2026-01-30T23:14:06.000Z</time></trkpt>
        <trkpt lat="28.224355" lon="105.654431"><ele>1049.2308</ele><time>2026-01-30T23:14:10.000Z</time></trkpt>
        <trkpt lat="28.224408" lon="105.654451"><ele>1047.9359</ele><time>2026-01-30T23:14:14.000Z</time></trkpt>
        <trkpt lat="28.224465" lon="105.654471"><ele>1046.0769</ele><time>2026-01-30T23:14:19.000Z</time></trkpt>
        <trkpt lat="28.224507" lon="105.654492"><ele>1045.4149</ele><time>2026-01-30T23:14:23.000Z</time></trkpt>
        <trkpt lat="28.224549" lon="105.654525"><ele>1044.6022</ele><time>2026-01-30T23:14:28.000Z</time></trkpt>
        <trkpt lat="28.224589" lon="105.654555"><ele>1043.9735</ele><time>2026-01-30T23:14:33.000Z</time></trkpt>
        <trkpt lat="28.224637" lon="105.654577"><ele>1043.5856</ele><time>2026-01-30T23:14:38.000Z</time></trkpt>
        <trkpt lat="28.224679" lon="105.654608"><ele>1043.3257</ele><time>2026-01-30T23:14:43.000Z</time></trkpt>
        <trkpt lat="28.224716" lon="105.654642"><ele>1042.4137</ele><time>2026-01-30T23:14:48.000Z</time></trkpt>
        <trkpt lat="28.224763" lon="105.654676"><ele>1041.4456</ele><time>2026-01-30T23:14:53.000Z</time></trkpt>
        <trkpt lat="28.224809" lon="105.654703"><ele>1041.1052</ele><time>2026-01-30T23:14:57.000Z</time></trkpt>
        <trkpt lat="28.224863" lon="105.65472"><ele>1040.562</ele><time>2026-01-30T23:15:02.000Z</time></trkpt>
        <trkpt lat="28.224903" lon="105.654743"><ele>1040.0945</ele><time>2026-01-30T23:15:06.000Z</time></trkpt>
        <trkpt lat="28.224941" lon="105.654774"><ele>1039.7612</ele><time>2026-01-30T23:15:10.000Z</time></trkpt>
        <trkpt lat="28.224986" lon="105.654806"><ele>1038.8997</ele><time>2026-01-30T23:15:15.000Z</time></trkpt>
        <trkpt lat="28.225025" lon="105.65485"><ele>1038.378</ele><time>2026-01-30T23:15:21.000Z</time></trkpt>
        <trkpt lat="28.225047" lon="105.654897"><ele>1037.2278</ele><time>2026-01-30T23:15:27.000Z</time></trkpt>
        <trkpt lat="28.225041" lon="105.654947"><ele>1035.6554</ele><time>2026-01-30T23:15:32.000Z</time></trkpt>
        <trkpt lat="28.225042" lon="105.655007"><ele>1034.6296</ele><time>2026-01-30T23:15:38.000Z</time></trkpt>
        <trkpt lat="28.225049" lon="105.655062"><ele>1033.9863</ele><time>2026-01-30T23:15:43.000Z</time></trkpt>
        <trkpt lat="28.225063" lon="105.655114"><ele>1034.174</ele><time>2026-01-30T23:15:47.000Z</time></trkpt>
        <trkpt lat="28.225069" lon="105.65518"><ele>1032.2737</ele><time>2026-01-30T23:15:53.000Z</time></trkpt>
        <trkpt lat="28.225059" lon="105.655232"><ele>1031.4865</ele><time>2026-01-30T23:15:57.000Z</time></trkpt>
        <trkpt lat="28.225043" lon="105.655287"><ele>1029.6504</ele><time>2026-01-30T23:16:02.000Z</time></trkpt>
        <trkpt lat="28.225027" lon="105.655338"><ele>1028.2483</ele><time>2026-01-30T23:16:07.000Z</time></trkpt>
        <trkpt lat="28.224994" lon="105.655384"><ele>1028.434</ele><time>2026-01-30T23:16:12.000Z</time></trkpt>
        <trkpt lat="28.22496" lon="105.655422"><ele>1029.1056</ele><time>2026-01-30T23:16:16.000Z</time></trkpt>
        <trkpt lat="28.224915" lon="105.655461"><ele>1029.1019</ele><time>2026-01-30T23:16:21.000Z</time></trkpt>
        <trkpt lat="28.224872" lon="105.655484"><ele>1028.7887</ele><time>2026-01-30T23:16:25.000Z</time></trkpt>
        <trkpt lat="28.224824" lon="105.655515"><ele>1028.2133</ele><time>2026-01-30T23:16:29.000Z</time></trkpt>
        <trkpt lat="28.224803" lon="105.655569"><ele>1027.1375</ele><time>2026-01-30T23:16:34.000Z</time></trkpt>
        <trkpt lat="28.224838" lon="105.655587"><ele>1024.5486</ele><time>2026-01-30T23:16:39.000Z</time></trkpt>
        <trkpt lat="28.224878" lon="105.65557"><ele>1022.92487</ele><time>2026-01-30T23:16:42.000Z</time></trkpt>
        <trkpt lat="28.224932" lon="105.655541"><ele>1021.7496</ele><time>2026-01-30T23:16:47.000Z</time></trkpt>
        <trkpt lat="28.22498" lon="105.655505"><ele>1020.86536</ele><time>2026-01-30T23:16:52.000Z</time></trkpt>
        <trkpt lat="28.225023" lon="105.655475"><ele>1018.8678</ele><time>2026-01-30T23:16:57.000Z</time></trkpt>
        <trkpt lat="28.225071" lon="105.655464"><ele>1017.15753</ele><time>2026-01-30T23:17:02.000Z</time></trkpt>
        <trkpt lat="28.22512" lon="105.655434"><ele>1015.14844</ele><time>2026-01-30T23:17:07.000Z</time></trkpt>
        <trkpt lat="28.225156" lon="105.655398"><ele>1013.6388</ele><time>2026-01-30T23:17:11.000Z</time></trkpt>
        <trkpt lat="28.225198" lon="105.655358"><ele>1013.4602</ele><time>2026-01-30T23:17:15.000Z</time></trkpt>
        <trkpt lat="28.225238" lon="105.655308"><ele>1012.2945</ele><time>2026-01-30T23:17:19.000Z</time></trkpt>
        <trkpt lat="28.225265" lon="105.655255"><ele>1010.23553</ele><time>2026-01-30T23:17:23.000Z</time></trkpt>
        <trkpt lat="28.225299" lon="105.655268"><ele>1008.0212</ele><time>2026-01-30T23:17:27.000Z</time></trkpt>
        <trkpt lat="28.225302" lon="105.655315"><ele>1007.7946</ele><time>2026-01-30T23:17:30.000Z</time></trkpt>
        <trkpt lat="28.225289" lon="105.655385"><ele>1009.2911</ele><time>2026-01-30T23:17:34.000Z</time></trkpt>
        <trkpt lat="28.225247" lon="105.655454"><ele>1011.44305</ele><time>2026-01-30T23:17:40.000Z</time></trkpt>
        <trkpt lat="28.225196" lon="105.655499"><ele>1010.6455</ele><time>2026-01-30T23:17:46.000Z</time></trkpt>
        <trkpt lat="28.225156" lon="105.65554"><ele>1009.37946</ele><time>2026-01-30T23:17:52.000Z</time></trkpt>
        <trkpt lat="28.225125" lon="105.655581"><ele>1008.9419</ele><time>2026-01-30T23:17:56.000Z</time></trkpt>
        <trkpt lat="28.225097" lon="105.655632"><ele>1006.6773</ele><time>2026-01-30T23:18:01.000Z</time></trkpt>
        <trkpt lat="28.225074" lon="105.655682"><ele>1006.44305</ele><time>2026-01-30T23:18:05.000Z</time></trkpt>
        <trkpt lat="28.225055" lon="105.655747"><ele>1005.4017</ele><time>2026-01-30T23:18:10.000Z</time></trkpt>
        <trkpt lat="28.225043" lon="105.655803"><ele>1003.79584</ele><time>2026-01-30T23:18:14.000Z</time></trkpt>
        <trkpt lat="28.225018" lon="105.655862"><ele>1001.149</ele><time>2026-01-30T23:18:20.000Z</time></trkpt>
        <trkpt lat="28.224989" lon="105.655903"><ele>999.8955</ele><time>2026-01-30T23:18:25.000Z</time></trkpt>
        <trkpt lat="28.224956" lon="105.655938"><ele>999.17694</ele><time>2026-01-30T23:18:30.000Z</time></trkpt>
        <trkpt lat="28.224914" lon="105.655966"><ele>999.3054</ele><time>2026-01-30T23:18:35.000Z</time></trkpt>
        <trkpt lat="28.224865" lon="105.655985"><ele>998.16376</ele><time>2026-01-30T23:18:40.000Z</time></trkpt>
        <trkpt lat="28.224813" lon="105.655992"><ele>996.93396</ele><time>2026-01-30T23:18:45.000Z</time></trkpt>
        <trkpt lat="28.224756" lon="105.655994"><ele>996.09814</ele><time>2026-01-30T23:18:50.000Z</time></trkpt>
        <trkpt lat="28.224707" lon="105.656002"><ele>995.6802</ele><time>2026-01-30T23:18:54.000Z</time></trkpt>
        <trkpt lat="28.224658" lon="105.65601"><ele>995.66815</ele><time>2026-01-30T23:18:58.000Z</time></trkpt>
        <trkpt lat="28.224603" lon="105.656025"><ele>995.8293</ele><time>2026-01-30T23:19:03.000Z</time></trkpt>
        <trkpt lat="28.224565" lon="105.65606"><ele>995.6153</ele><time>2026-01-30T23:19:09.000Z</time></trkpt>
        <trkpt lat="28.224596" lon="105.656063"><ele>994.28357</ele><time>2026-01-30T23:19:14.000Z</time></trkpt>
        <trkpt lat="28.224646" lon="105.656043"><ele>994.2744</ele><time>2026-01-30T23:19:19.000Z</time></trkpt>
        <trkpt lat="28.224704" lon="105.656029"><ele>994.06396</ele><time>2026-01-30T23:19:24.000Z</time></trkpt>
        <trkpt lat="28.22476" lon="105.656023"><ele>994.3402</ele><time>2026-01-30T23:19:29.000Z</time></trkpt>
        <trkpt lat="28.224808" lon="105.656023"><ele>994.8967</ele><time>2026-01-30T23:19:33.000Z</time></trkpt>
        <trkpt lat="28.224865" lon="105.656023"><ele>995.11694</ele><time>2026-01-30T23:19:38.000Z</time></trkpt>
        <trkpt lat="28.22492" lon="105.656015"><ele>994.7775</ele><time>2026-01-30T23:19:43.000Z</time></trkpt>
        <trkpt lat="28.224973" lon="105.656003"><ele>994.52905</ele><time>2026-01-30T23:19:48.000Z</time></trkpt>
        <trkpt lat="28.225023" lon="105.655983"><ele>994.2168</ele><time>2026-01-30T23:19:53.000Z</time></trkpt>
        <trkpt lat="28.225072" lon="105.655952"><ele>994.3757</ele><time>2026-01-30T23:19:58.000Z</time></trkpt>
        <trkpt lat="28.225118" lon="105.655914"><ele>993.5435</ele><time>2026-01-30T23:20:03.000Z</time></trkpt>
        <trkpt lat="28.225157" lon="105.655871"><ele>992.80756</ele><time>2026-01-30T23:20:08.000Z</time></trkpt>
        <trkpt lat="28.225193" lon="105.655832"><ele>990.849</ele><time>2026-01-30T23:20:13.000Z</time></trkpt>
        <trkpt lat="28.225221" lon="105.655786"><ele>989.6332</ele><time>2026-01-30T23:20:18.000Z</time></trkpt>
        <trkpt lat="28.225255" lon="105.655745"><ele>990.0449</ele><time>2026-01-30T23:20:23.000Z</time></trkpt>
        <trkpt lat="28.225296" lon="105.65572"><ele>991.30786</ele><time>2026-01-30T23:20:27.000Z</time></trkpt>
        <trkpt lat="28.225341" lon="105.6557"><ele>991.9842</ele><time>2026-01-30T23:20:31.000Z</time></trkpt>
        <trkpt lat="28.225397" lon="105.655683"><ele>992.39355</ele><time>2026-01-30T23:20:37.000Z</time></trkpt>
        <trkpt lat="28.225436" lon="105.65566"><ele>991.4019</ele><time>2026-01-30T23:20:42.000Z</time></trkpt>
        <trkpt lat="28.225476" lon="105.655633"><ele>988.3976</ele><time>2026-01-30T23:20:48.000Z</time></trkpt>
        <trkpt lat="28.225518" lon="105.655617"><ele>987.967</ele><time>2026-01-30T23:20:53.000Z</time></trkpt>
        <trkpt lat="28.225554" lon="105.655587"><ele>986.828</ele><time>2026-01-30T23:20:57.000Z</time></trkpt>
        <trkpt lat="28.22559" lon="105.655546"><ele>984.2792</ele><time>2026-01-30T23:21:01.000Z</time></trkpt>
        <trkpt lat="28.225626" lon="105.655494"><ele>982.6864</ele><time>2026-01-30T23:21:05.000Z</time></trkpt>
        <trkpt lat="28.22565" lon="105.655431"><ele>979.99243</ele><time>2026-01-30T23:21:09.000Z</time></trkpt>
        <trkpt lat="28.225667" lon="105.655381"><ele>977.9208</ele><time>2026-01-30T23:21:12.000Z</time></trkpt>
        <trkpt lat="28.225674" lon="105.655327"><ele>975.7621</ele><time>2026-01-30T23:21:15.000Z</time></trkpt>
        <trkpt lat="28.225665" lon="105.655258"><ele>974.49713</ele><time>2026-01-30T23:21:20.000Z</time></trkpt>
        <trkpt lat="28.225653" lon="105.655208"><ele>976.1176</ele><time>2026-01-30T23:21:24.000Z</time></trkpt>
        <trkpt lat="28.225641" lon="105.655158"><ele>977.2548</ele><time>2026-01-30T23:21:28.000Z</time></trkpt>
        <trkpt lat="28.225632" lon="105.655105"><ele>978.5825</ele><time>2026-01-30T23:21:32.000Z</time></trkpt>
        <trkpt lat="28.225636" lon="105.655059"><ele>979.95825</ele><time>2026-01-30T23:21:35.000Z</time></trkpt>
        <trkpt lat="28.225655" lon="105.654999"><ele>982.6727</ele><time>2026-01-30T23:21:39.000Z</time></trkpt>
        <trkpt lat="28.225685" lon="105.654957"><ele>983.87</ele><time>2026-01-30T23:21:42.000Z</time></trkpt>
        <trkpt lat="28.225719" lon="105.654936"><ele>984.2643</ele><time>2026-01-30T23:21:44.000Z</time></trkpt>
        <trkpt lat="28.225771" lon="105.654931"><ele>984.12164</ele><time>2026-01-30T23:21:47.000Z</time></trkpt>
        <trkpt lat="28.225832" lon="105.65497"><ele>981.71344</ele><time>2026-01-30T23:21:52.000Z</time></trkpt>
        <trkpt lat="28.225878" lon="105.655024"><ele>978.7093</ele><time>2026-01-30T23:21:56.000Z</time></trkpt>
        <trkpt lat="28.225916" lon="105.655065"><ele>976.45276</ele><time>2026-01-30T23:21:59.000Z</time></trkpt>
        <trkpt lat="28.225968" lon="105.655107"><ele>975.0364</ele><time>2026-01-30T23:22:03.000Z</time></trkpt>
        <trkpt lat="28.226017" lon="105.655133"><ele>973.683</ele><time>2026-01-30T23:22:07.000Z</time></trkpt>
        <trkpt lat="28.226068" lon="105.655142"><ele>972.0657</ele><time>2026-01-30T23:22:11.000Z</time></trkpt>
        <trkpt lat="28.226123" lon="105.655145"><ele>970.06146</ele><time>2026-01-30T23:22:16.000Z</time></trkpt>
        <trkpt lat="28.226166" lon="105.655133"><ele>969.40186</ele><time>2026-01-30T23:22:20.000Z</time></trkpt>
        <trkpt lat="28.22621" lon="105.655115"><ele>968.42554</ele><time>2026-01-30T23:22:24.000Z</time></trkpt>
        <trkpt lat="28.22626" lon="105.655088"><ele>967.39703</ele><time>2026-01-30T23:22:29.000Z</time></trkpt>
        <trkpt lat="28.226306" lon="105.655065"><ele>967.86926</ele><time>2026-01-30T23:22:34.000Z</time></trkpt>
        <trkpt lat="28.226349" lon="105.655039"><ele>967.09204</ele><time>2026-01-30T23:22:40.000Z</time></trkpt>
        <trkpt lat="28.2264" lon="105.655022"><ele>966.55457</ele><time>2026-01-30T23:22:45.000Z</time></trkpt>
        <trkpt lat="28.226444" lon="105.655024"><ele>965.8762</ele><time>2026-01-30T23:22:48.000Z</time></trkpt>
        <trkpt lat="28.226501" lon="105.655029"><ele>965.55316</ele><time>2026-01-30T23:22:52.000Z</time></trkpt>
        <trkpt lat="28.226545" lon="105.655047"><ele>965.44727</ele><time>2026-01-30T23:22:55.000Z</time></trkpt>
        <trkpt lat="28.226599" lon="105.655065"><ele>963.9924</ele><time>2026-01-30T23:22:59.000Z</time></trkpt>
        <trkpt lat="28.226646" lon="105.655076"><ele>962.8412</ele><time>2026-01-30T23:23:03.000Z</time></trkpt>
        <trkpt lat="28.226701" lon="105.655079"><ele>960.7241</ele><time>2026-01-30T23:23:08.000Z</time></trkpt>
        <trkpt lat="28.226755" lon="105.655086"><ele>958.78577</ele><time>2026-01-30T23:23:13.000Z</time></trkpt>
        <trkpt lat="28.2268" lon="105.655088"><ele>957.747</ele><time>2026-01-30T23:23:17.000Z</time></trkpt>
        <trkpt lat="28.226843" lon="105.655116"><ele>956.67865</ele><time>2026-01-30T23:23:21.000Z</time></trkpt>
        <trkpt lat="28.226888" lon="105.655139"><ele>955.8</ele><time>2026-01-30T23:23:25.000Z</time></trkpt>
        <trkpt lat="28.226933" lon="105.655149"><ele>955.9547</ele><time>2026-01-30T23:23:29.000Z</time></trkpt>
        <trkpt lat="28.226986" lon="105.655144"><ele>955.58057</ele><time>2026-01-30T23:23:34.000Z</time></trkpt>
        <trkpt lat="28.227043" lon="105.655135"><ele>954.6481</ele><time>2026-01-30T23:23:39.000Z</time></trkpt>
        <trkpt lat="28.227095" lon="105.655134"><ele>953.2672</ele><time>2026-01-30T23:23:44.000Z</time></trkpt>
        <trkpt lat="28.227143" lon="105.655164"><ele>952.0877</ele><time>2026-01-30T23:23:49.000Z</time></trkpt>
        <trkpt lat="28.227192" lon="105.655196"><ele>949.41504</ele><time>2026-01-30T23:23:54.000Z</time></trkpt>
        <trkpt lat="28.227242" lon="105.655207"><ele>947.2136</ele><time>2026-01-30T23:23:58.000Z</time></trkpt>
        <trkpt lat="28.227294" lon="105.655203"><ele>945.60126</ele><time>2026-01-30T23:24:02.000Z</time></trkpt>
        <trkpt lat="28.227347" lon="105.655202"><ele>945.0601</ele><time>2026-01-30T23:24:06.000Z</time></trkpt>
        <trkpt lat="28.227399" lon="105.655194"><ele>942.8056</ele><time>2026-01-30T23:24:11.000Z</time></trkpt>
        <trkpt lat="28.227439" lon="105.65519"><ele>942.4521</ele><time>2026-01-30T23:24:14.000Z</time></trkpt>
        <trkpt lat="28.227501" lon="105.655186"><ele>942.11566</ele><time>2026-01-30T23:24:19.000Z</time></trkpt>
        <trkpt lat="28.227548" lon="105.655172"><ele>941.8588</ele><time>2026-01-30T23:24:23.000Z</time></trkpt>
        <trkpt lat="28.227588" lon="105.655164"><ele>942.1141</ele><time>2026-01-30T23:24:26.000Z</time></trkpt>
        <trkpt lat="28.227636" lon="105.655144"><ele>941.257</ele><time>2026-01-30T23:24:30.000Z</time></trkpt>
        <trkpt lat="28.227674" lon="105.655123"><ele>941.0868</ele><time>2026-01-30T23:24:33.000Z</time></trkpt>
        <trkpt lat="28.227717" lon="105.655094"><ele>940.89465</ele><time>2026-01-30T23:24:37.000Z</time></trkpt>
        <trkpt lat="28.227761" lon="105.655075"><ele>941.29315</ele><time>2026-01-30T23:24:41.000Z</time></trkpt>
        <trkpt lat="28.22781" lon="105.655062"><ele>941.16473</ele><time>2026-01-30T23:24:45.000Z</time></trkpt>
        <trkpt lat="28.22786" lon="105.655042"><ele>940.11633</ele><time>2026-01-30T23:24:49.000Z</time></trkpt>
        <trkpt lat="28.227915" lon="105.655033"><ele>939.3773</ele><time>2026-01-30T23:24:53.000Z</time></trkpt>
        <trkpt lat="28.227971" lon="105.65505"><ele>937.72894</ele><time>2026-01-30T23:24:59.000Z</time></trkpt>
        <trkpt lat="28.22802" lon="105.655074"><ele>935.25494</ele><time>2026-01-30T23:25:05.000Z</time></trkpt>
        <trkpt lat="28.22806" lon="105.655093"><ele>933.75793</ele><time>2026-01-30T23:25:09.000Z</time></trkpt>
        <trkpt lat="28.228101" lon="105.655119"><ele>933.16125</ele><time>2026-01-30T23:25:13.000Z</time></trkpt>
        <trkpt lat="28.228145" lon="105.655149"><ele>932.8077</ele><time>2026-01-30T23:25:17.000Z</time></trkpt>
        <trkpt lat="28.228197" lon="105.655179"><ele>932.651</ele><time>2026-01-30T23:25:22.000Z</time></trkpt>
        <trkpt lat="28.228249" lon="105.6552"><ele>932.5083</ele><time>2026-01-30T23:25:27.000Z</time></trkpt>
        <trkpt lat="28.228294" lon="105.655208"><ele>932.1961</ele><time>2026-01-30T23:25:31.000Z</time></trkpt>
        <trkpt lat="28.22834" lon="105.655219"><ele>932.02515</ele><time>2026-01-30T23:25:35.000Z</time></trkpt>
        <trkpt lat="28.228384" lon="105.655233"><ele>932.5212</ele><time>2026-01-30T23:25:39.000Z</time></trkpt>
        <trkpt lat="28.228418" lon="105.655259"><ele>932.99615</ele><time>2026-01-30T23:25:42.000Z</time></trkpt>
        <trkpt lat="28.228453" lon="105.655313"><ele>932.8938</ele><time>2026-01-30T23:25:47.000Z</time></trkpt>
        <trkpt lat="28.228475" lon="105.655368"><ele>933.18835</ele><time>2026-01-30T23:25:51.000Z</time></trkpt>
        <trkpt lat="28.228506" lon="105.655411"><ele>931.5651</ele><time>2026-01-30T23:25:55.000Z</time></trkpt>
        <trkpt lat="28.228543" lon="105.655446"><ele>930.30554</ele><time>2026-01-30T23:25:59.000Z</time></trkpt>
        <trkpt lat="28.228583" lon="105.655477"><ele>928.9059</ele><time>2026-01-30T23:26:03.000Z</time></trkpt>
        <trkpt lat="28.228625" lon="105.655509"><ele>928.75165</ele><time>2026-01-30T23:26:07.000Z</time></trkpt>
        <trkpt lat="28.228668" lon="105.655544"><ele>928.09235</ele><time>2026-01-30T23:26:12.000Z</time></trkpt>
        <trkpt lat="28.228703" lon="105.655572"><ele>926.8799</ele><time>2026-01-30T23:26:16.000Z</time></trkpt>
        <trkpt lat="28.22874" lon="105.6556"><ele>925.48755</ele><time>2026-01-30T23:26:20.000Z</time></trkpt>
        <trkpt lat="28.22878" lon="105.655626"><ele>924.27734</ele><time>2026-01-30T23:26:24.000Z</time></trkpt>
        <trkpt lat="28.228821" lon="105.655661"><ele>925.59784</ele><time>2026-01-30T23:26:28.000Z</time></trkpt>
        <trkpt lat="28.228862" lon="105.655705"><ele>928.4812</ele><time>2026-01-30T23:26:33.000Z</time></trkpt>
        <trkpt lat="28.228899" lon="105.655741"><ele>930.92413</ele><time>2026-01-30T23:26:37.000Z</time></trkpt>
        <trkpt lat="28.228935" lon="105.655783"><ele>930.87885</ele><time>2026-01-30T23:26:41.000Z</time></trkpt>
        <trkpt lat="28.22897" lon="105.655826"><ele>931.18176</ele><time>2026-01-30T23:26:46.000Z</time></trkpt>
        <trkpt lat="28.228995" lon="105.655867"><ele>930.7252</ele><time>2026-01-30T23:26:50.000Z</time></trkpt>
        <trkpt lat="28.229026" lon="105.655908"><ele>931.6203</ele><time>2026-01-30T23:26:54.000Z</time></trkpt>
        <trkpt lat="28.229054" lon="105.655951"><ele>932.92535</ele><time>2026-01-30T23:26:58.000Z</time></trkpt>
        <trkpt lat="28.229082" lon="105.656003"><ele>933.8377</ele><time>2026-01-30T23:27:02.000Z</time></trkpt>
        <trkpt lat="28.229103" lon="105.65606"><ele>934.75604</ele><time>2026-01-30T23:27:06.000Z</time></trkpt>
        <trkpt lat="28.229118" lon="105.656121"><ele>935.2805</ele><time>2026-01-30T23:27:10.000Z</time></trkpt>
        <trkpt lat="28.229148" lon="105.656167"><ele>935.0708</ele><time>2026-01-30T23:27:14.000Z</time></trkpt>
        <trkpt lat="28.229192" lon="105.656214"><ele>933.78296</ele><time>2026-01-30T23:27:19.000Z</time></trkpt>
        <trkpt lat="28.229231" lon="105.656256"><ele>933.3774</ele><time>2026-01-30T23:27:24.000Z</time></trkpt>
        <trkpt lat="28.229266" lon="105.656289"><ele>932.13635</ele><time>2026-01-30T23:27:28.000Z</time></trkpt>
        <trkpt lat="28.229302" lon="105.65633"><ele>931.5085</ele><time>2026-01-30T23:27:32.000Z</time></trkpt>
        <trkpt lat="28.229339" lon="105.65638"><ele>931.4461</ele><time>2026-01-30T23:27:36.000Z</time></trkpt>
        <trkpt lat="28.229366" lon="105.656431"><ele>931.84033</ele><time>2026-01-30T23:27:40.000Z</time></trkpt>
        <trkpt lat="28.229408" lon="105.656469"><ele>931.6263</ele><time>2026-01-30T23:27:45.000Z</time></trkpt>
        <trkpt lat="28.229446" lon="105.656507"><ele>929.5695</ele><time>2026-01-30T23:27:50.000Z</time></trkpt>
        <trkpt lat="28.229477" lon="105.656544"><ele>927.44775</ele><time>2026-01-30T23:27:54.000Z</time></trkpt>
        <trkpt lat="28.229519" lon="105.656583"><ele>926.59564</ele><time>2026-01-30T23:27:58.000Z</time></trkpt>
        <trkpt lat="28.229561" lon="105.65663"><ele>926.8754</ele><time>2026-01-30T23:28:02.000Z</time></trkpt>
        <trkpt lat="28.229587" lon="105.656675"><ele>927.2806</ele><time>2026-01-30T23:28:05.000Z</time></trkpt>
        <trkpt lat="28.229622" lon="105.656731"><ele>926.4721</ele><time>2026-01-30T23:28:09.000Z</time></trkpt>
        <trkpt lat="28.229661" lon="105.656767"><ele>925.19464</ele><time>2026-01-30T23:28:13.000Z</time></trkpt>
        <trkpt lat="28.229694" lon="105.656816"><ele>922.8843</ele><time>2026-01-30T23:28:18.000Z</time></trkpt>
        <trkpt lat="28.229713" lon="105.656865"><ele>921.4997</ele><time>2026-01-30T23:28:22.000Z</time></trkpt>
        <trkpt lat="28.229728" lon="105.656918"><ele>921.3912</ele><time>2026-01-30T23:28:26.000Z</time></trkpt>
        <trkpt lat="28.229735" lon="105.656973"><ele>921.33075</ele><time>2026-01-30T23:28:30.000Z</time></trkpt>
        <trkpt lat="28.229751" lon="105.657028"><ele>921.36115</ele><time>2026-01-30T23:28:34.000Z</time></trkpt>
        <trkpt lat="28.229774" lon="105.657088"><ele>922.026</ele><time>2026-01-30T23:28:39.000Z</time></trkpt>
        <trkpt lat="28.229795" lon="105.657135"><ele>922.06934</ele><time>2026-01-30T23:28:43.000Z</time></trkpt>
        <trkpt lat="28.22982" lon="105.657182"><ele>922.1198</ele><time>2026-01-30T23:28:47.000Z</time></trkpt>
        <trkpt lat="28.229851" lon="105.657244"><ele>920.7258</ele><time>2026-01-30T23:28:53.000Z</time></trkpt>
        <trkpt lat="28.229863" lon="105.657295"><ele>919.282</ele><time>2026-01-30T23:28:58.000Z</time></trkpt>
        <trkpt lat="28.229873" lon="105.657336"><ele>919.5285</ele><time>2026-01-30T23:29:01.000Z</time></trkpt>
        <trkpt lat="28.229894" lon="105.657395"><ele>918.80206</ele><time>2026-01-30T23:29:05.000Z</time></trkpt>
        <trkpt lat="28.229926" lon="105.65745"><ele>917.43005</ele><time>2026-01-30T23:29:09.000Z</time></trkpt>
        <trkpt lat="28.229967" lon="105.657486"><ele>914.7259</ele><time>2026-01-30T23:29:13.000Z</time></trkpt>
        <trkpt lat="28.230012" lon="105.657503"><ele>912.0161</ele><time>2026-01-30T23:29:17.000Z</time></trkpt>
        <trkpt lat="28.230058" lon="105.657521"><ele>909.7135</ele><time>2026-01-30T23:29:21.000Z</time></trkpt>
        <trkpt lat="28.230113" lon="105.657529"><ele>906.79376</ele><time>2026-01-30T23:29:26.000Z</time></trkpt>
        <trkpt lat="28.230155" lon="105.657549"><ele>905.0497</ele><time>2026-01-30T23:29:30.000Z</time></trkpt>
        <trkpt lat="28.230201" lon="105.657569"><ele>903.12335</ele><time>2026-01-30T23:29:35.000Z</time></trkpt>
        <trkpt lat="28.230251" lon="105.657575"><ele>901.76965</ele><time>2026-01-30T23:29:39.000Z</time></trkpt>
        <trkpt lat="28.23031" lon="105.65757"><ele>900.4578</ele><time>2026-01-30T23:29:44.000Z</time></trkpt>
        <trkpt lat="28.230362" lon="105.657578"><ele>901.1907</ele><time>2026-01-30T23:29:48.000Z</time></trkpt>
        <trkpt lat="28.230417" lon="105.65757"><ele>901.1308</ele><time>2026-01-30T23:29:53.000Z</time></trkpt>
        <trkpt lat="28.230471" lon="105.657569"><ele>899.90643</ele><time>2026-01-30T23:29:58.000Z</time></trkpt>
        <trkpt lat="28.230512" lon="105.657586"><ele>899.9097</ele><time>2026-01-30T23:30:01.000Z</time></trkpt>
        <trkpt lat="28.230559" lon="105.657622"><ele>900.38885</ele><time>2026-01-30T23:30:05.000Z</time></trkpt>
        <trkpt lat="28.230584" lon="105.657666"><ele>900.95013</ele><time>2026-01-30T23:30:08.000Z</time></trkpt>
        <trkpt lat="28.230605" lon="105.657714"><ele>901.7161</ele><time>2026-01-30T23:30:11.000Z</time></trkpt>
        <trkpt lat="28.23064" lon="105.657753"><ele>902.2147</ele><time>2026-01-30T23:30:15.000Z</time></trkpt>
        <trkpt lat="28.230688" lon="105.657749"><ele>901.7821</ele><time>2026-01-30T23:30:20.000Z</time></trkpt>
        <trkpt lat="28.230735" lon="105.657735"><ele>901.0591</ele><time>2026-01-30T23:30:24.000Z</time></trkpt>
        <trkpt lat="28.230782" lon="105.65773"><ele>899.92523</ele><time>2026-01-30T23:30:28.000Z</time></trkpt>
        <trkpt lat="28.230838" lon="105.657723"><ele>898.8623</ele><time>2026-01-30T23:30:33.000Z</time></trkpt>
        <trkpt lat="28.230881" lon="105.657703"><ele>898.02264</ele><time>2026-01-30T23:30:37.000Z</time></trkpt>
        <trkpt lat="28.230913" lon="105.657664"><ele>896.3496</ele><time>2026-01-30T23:30:41.000Z</time></trkpt>
        <trkpt lat="28.230949" lon="105.657616"><ele>894.29</ele><time>2026-01-30T23:30:46.000Z</time></trkpt>
        <trkpt lat="28.230984" lon="105.657573"><ele>893.1898</ele><time>2026-01-30T23:30:51.000Z</time></trkpt>
        <trkpt lat="28.231023" lon="105.657536"><ele>892.6515</ele><time>2026-01-30T23:30:56.000Z</time></trkpt>
        <trkpt lat="28.231059" lon="105.657492"><ele>891.2594</ele><time>2026-01-30T23:31:01.000Z</time></trkpt>
        <trkpt lat="28.231091" lon="105.657448"><ele>889.90784</ele><time>2026-01-30T23:31:06.000Z</time></trkpt>
        <trkpt lat="28.231115" lon="105.657405"><ele>889.223</ele><time>2026-01-30T23:31:10.000Z</time></trkpt>
        <trkpt lat="28.231144" lon="105.657366"><ele>890.07715</ele><time>2026-01-30T23:31:14.000Z</time></trkpt>
        <trkpt lat="28.231187" lon="105.657333"><ele>891.35175</ele><time>2026-01-30T23:31:19.000Z</time></trkpt>
        <trkpt lat="28.231227" lon="105.657313"><ele>892.76483</ele><time>2026-01-30T23:31:23.000Z</time></trkpt>
        <trkpt lat="28.231273" lon="105.657305"><ele>893.0981</ele><time>2026-01-30T23:31:27.000Z</time></trkpt>
        <trkpt lat="28.231328" lon="105.657293"><ele>892.41345</ele><time>2026-01-30T23:31:32.000Z</time></trkpt>
        <trkpt lat="28.231371" lon="105.657276"><ele>891.1251</ele><time>2026-01-30T23:31:36.000Z</time></trkpt>
        <trkpt lat="28.231415" lon="105.657237"><ele>889.1917</ele><time>2026-01-30T23:31:41.000Z</time></trkpt>
        <trkpt lat="28.231453" lon="105.657191"><ele>886.74097</ele><time>2026-01-30T23:31:46.000Z</time></trkpt>
        <trkpt lat="28.231475" lon="105.657147"><ele>885.8963</ele><time>2026-01-30T23:31:50.000Z</time></trkpt>
        <trkpt lat="28.231508" lon="105.65711"><ele>885.88574</ele><time>2026-01-30T23:31:54.000Z</time></trkpt>
        <trkpt lat="28.231543" lon="105.657059"><ele>886.19183</ele><time>2026-01-30T23:31:59.000Z</time></trkpt>
        <trkpt lat="28.231578" lon="105.657021"><ele>886.5572</ele><time>2026-01-30T23:32:03.000Z</time></trkpt>
        <trkpt lat="28.231616" lon="105.656974"><ele>887.1138</ele><time>2026-01-30T23:32:08.000Z</time></trkpt>
        <trkpt lat="28.231639" lon="105.656922"><ele>885.8293</ele><time>2026-01-30T23:32:12.000Z</time></trkpt>
        <trkpt lat="28.23167" lon="105.656873"><ele>884.3365</ele><time>2026-01-30T23:32:16.000Z</time></trkpt>
        <trkpt lat="28.231708" lon="105.656832"><ele>883.84515</ele><time>2026-01-30T23:32:21.000Z</time></trkpt>
        <trkpt lat="28.231753" lon="105.656826"><ele>885.669</ele><time>2026-01-30T23:32:25.000Z</time></trkpt>
        <trkpt lat="28.231802" lon="105.656836"><ele>888.2463</ele><time>2026-01-30T23:32:29.000Z</time></trkpt>
        <trkpt lat="28.231847" lon="105.656855"><ele>890.2924</ele><time>2026-01-30T23:32:32.000Z</time></trkpt>
        <trkpt lat="28.231887" lon="105.656911"><ele>891.05475</ele><time>2026-01-30T23:32:56.000Z</time></trkpt>
        <trkpt lat="28.231917" lon="105.656876"><ele>891.70654</ele><time>2026-01-30T23:33:43.000Z</time></trkpt>
        <trkpt lat="28.231967" lon="105.656845"><ele>892.1682</ele><time>2026-01-30T23:33:49.000Z</time></trkpt>
        <trkpt lat="28.232009" lon="105.656833"><ele>894.7323</ele><time>2026-01-30T23:33:53.000Z</time></trkpt>
        <trkpt lat="28.23205" lon="105.65681"><ele>895.66797</ele><time>2026-01-30T23:33:57.000Z</time></trkpt>
        <trkpt lat="28.232096" lon="105.656788"><ele>897.9208</ele><time>2026-01-30T23:34:02.000Z</time></trkpt>
        <trkpt lat="28.232142" lon="105.656766"><ele>898.74896</ele><time>2026-01-30T23:34:07.000Z</time></trkpt>
        <trkpt lat="28.232185" lon="105.656752"><ele>900.06854</ele><time>2026-01-30T23:34:11.000Z</time></trkpt>
        <trkpt lat="28.232244" lon="105.656744"><ele>894.1352</ele><time>2026-01-30T23:35:32.000Z</time></trkpt>
        <trkpt lat="28.232273" lon="105.656726"><ele>894.46387</ele><time>2026-01-30T23:35:39.000Z</time></trkpt>
        <trkpt lat="28.232336" lon="105.656718"><ele>897.9514</ele><time>2026-01-30T23:35:46.000Z</time></trkpt>
        <trkpt lat="28.232387" lon="105.656708"><ele>899.3883</ele><time>2026-01-30T23:35:52.000Z</time></trkpt>
        <trkpt lat="28.232442" lon="105.656699"><ele>900.728</ele><time>2026-01-30T23:35:58.000Z</time></trkpt>
        <trkpt lat="28.232491" lon="105.656698"><ele>901.84283</ele><time>2026-01-30T23:36:03.000Z</time></trkpt>
        <trkpt lat="28.232541" lon="105.656688"><ele>901.63385</ele><time>2026-01-30T23:36:08.000Z</time></trkpt>
        <trkpt lat="28.232581" lon="105.656667"><ele>901.0399</ele><time>2026-01-30T23:36:12.000Z</time></trkpt>
        <trkpt lat="28.232635" lon="105.656657"><ele>900.42316</ele><time>2026-01-30T23:36:17.000Z</time></trkpt>
        <trkpt lat="28.232686" lon="105.656661"><ele>900.1344</ele><time>2026-01-30T23:36:22.000Z</time></trkpt>
        <trkpt lat="28.232734" lon="105.656664"><ele>900.7677</ele><time>2026-01-30T23:36:27.000Z</time></trkpt>
        <trkpt lat="28.23277" lon="105.656644"><ele>899.92035</ele><time>2026-01-30T23:36:31.000Z</time></trkpt>
        <trkpt lat="28.232819" lon="105.656611"><ele>898.6075</ele><time>2026-01-30T23:36:36.000Z</time></trkpt>
        <trkpt lat="28.232853" lon="105.656572"><ele>897.29236</ele><time>2026-01-30T23:36:40.000Z</time></trkpt>
        <trkpt lat="28.232884" lon="105.656525"><ele>895.792</ele><time>2026-01-30T23:36:45.000Z</time></trkpt>
        <trkpt lat="28.232914" lon="105.656485"><ele>894.72205</ele><time>2026-01-30T23:36:49.000Z</time></trkpt>
        <trkpt lat="28.232952" lon="105.656455"><ele>894.9684</ele><time>2026-01-30T23:36:53.000Z</time></trkpt>
        <trkpt lat="28.233004" lon="105.656431"><ele>896.39087</ele><time>2026-01-30T23:36:58.000Z</time></trkpt>
        <trkpt lat="28.233053" lon="105.656407"><ele>896.79626</ele><time>2026-01-30T23:37:03.000Z</time></trkpt>
        <trkpt lat="28.233095" lon="105.656392"><ele>896.7674</ele><time>2026-01-30T23:37:07.000Z</time></trkpt>
        <trkpt lat="28.233147" lon="105.656371"><ele>896.776</ele><time>2026-01-30T23:37:11.000Z</time></trkpt>
        <trkpt lat="28.233197" lon="105.656343"><ele>896.8044</ele><time>2026-01-30T23:37:15.000Z</time></trkpt>
        <trkpt lat="28.233245" lon="105.656309"><ele>896.7019</ele><time>2026-01-30T23:37:19.000Z</time></trkpt>
        <trkpt lat="28.233286" lon="105.656274"><ele>896.4288</ele><time>2026-01-30T23:37:23.000Z</time></trkpt>
        <trkpt lat="28.233327" lon="105.656236"><ele>896.7238</ele><time>2026-01-30T23:37:28.000Z</time></trkpt>
        <trkpt lat="28.233351" lon="105.656188"><ele>895.7774</ele><time>2026-01-30T23:37:40.000Z</time></trkpt>
        <trkpt lat="28.23337" lon="105.656132"><ele>894.2636</ele><time>2026-01-30T23:37:56.000Z</time></trkpt>
        <trkpt lat="28.233386" lon="105.656095"><ele>892.63885</ele><time>2026-01-30T23:38:00.000Z</time></trkpt>
        <trkpt lat="28.233405" lon="105.656047"><ele>891.61444</ele><time>2026-01-30T23:38:04.000Z</time></trkpt>
        <trkpt lat="28.233432" lon="105.655989"><ele>889.6867</ele><time>2026-01-30T23:38:09.000Z</time></trkpt>
        <trkpt lat="28.233466" lon="105.655947"><ele>889.05414</ele><time>2026-01-30T23:38:13.000Z</time></trkpt>
        <trkpt lat="28.233503" lon="105.655902"><ele>888.5738</ele><time>2026-01-30T23:38:18.000Z</time></trkpt>
        <trkpt lat="28.23354" lon="105.65587"><ele>888.66754</ele><time>2026-01-30T23:38:22.000Z</time></trkpt>
        <trkpt lat="28.233578" lon="105.65584"><ele>888.77673</ele><time>2026-01-30T23:38:26.000Z</time></trkpt>
        <trkpt lat="28.233619" lon="105.655807"><ele>889.4827</ele><time>2026-01-30T23:38:31.000Z</time></trkpt>
        <trkpt lat="28.233652" lon="105.655775"><ele>890.16046</ele><time>2026-01-30T23:38:35.000Z</time></trkpt>
        <trkpt lat="28.233689" lon="105.655745"><ele>890.79144</ele><time>2026-01-30T23:38:39.000Z</time></trkpt>
        <trkpt lat="28.233722" lon="105.655708"><ele>891.3672</ele><time>2026-01-30T23:38:43.000Z</time></trkpt>
        <trkpt lat="28.233743" lon="105.655652"><ele>891.3886</ele><time>2026-01-30T23:38:48.000Z</time></trkpt>
        <trkpt lat="28.233741" lon="105.655596"><ele>889.7478</ele><time>2026-01-30T23:38:53.000Z</time></trkpt>
        <trkpt lat="28.233733" lon="105.655546"><ele>888.51776</ele><time>2026-01-30T23:38:57.000Z</time></trkpt>
        <trkpt lat="28.233717" lon="105.655492"><ele>886.95874</ele><time>2026-01-30T23:39:01.000Z</time></trkpt>
        <trkpt lat="28.233701" lon="105.655438"><ele>885.7064</ele><time>2026-01-30T23:39:05.000Z</time></trkpt>
        <trkpt lat="28.233698" lon="105.655379"><ele>887.6328</ele><time>2026-01-30T23:39:10.000Z</time></trkpt>
        <trkpt lat="28.233716" lon="105.655337"><ele>889.4642</ele><time>2026-01-30T23:39:13.000Z</time></trkpt>
        <trkpt lat="28.233743" lon="105.655296"><ele>890.2165</ele><time>2026-01-30T23:39:16.000Z</time></trkpt>
        <trkpt lat="28.233781" lon="105.65526"><ele>891.3129</ele><time>2026-01-30T23:39:19.000Z</time></trkpt>
        <trkpt lat="28.233837" lon="105.655233"><ele>891.3237</ele><time>2026-01-30T23:39:24.000Z</time></trkpt>
        <trkpt lat="28.23389" lon="105.655225"><ele>892.0344</ele><time>2026-01-30T23:39:28.000Z</time></trkpt>
        <trkpt lat="28.233946" lon="105.655217"><ele>892.84235</ele><time>2026-01-30T23:39:33.000Z</time></trkpt>
        <trkpt lat="28.233997" lon="105.655197"><ele>892.99274</ele><time>2026-01-30T23:39:38.000Z</time></trkpt>
        <trkpt lat="28.234036" lon="105.655167"><ele>893.42645</ele><time>2026-01-30T23:39:42.000Z</time></trkpt>
        <trkpt lat="28.23408" lon="105.655131"><ele>894.45996</ele><time>2026-01-30T23:39:47.000Z</time></trkpt>
        <trkpt lat="28.234112" lon="105.655087"><ele>894.7073</ele><time>2026-01-30T23:39:52.000Z</time></trkpt>
        <trkpt lat="28.234136" lon="105.65503"><ele>894.9491</ele><time>2026-01-30T23:40:10.000Z</time></trkpt>
        <trkpt lat="28.234142" lon="105.65499"><ele>895.20294</ele><time>2026-01-30T23:40:16.000Z</time></trkpt>
        <trkpt lat="28.23414" lon="105.654934"><ele>893.9724</ele><time>2026-01-30T23:40:21.000Z</time></trkpt>
        <trkpt lat="28.234123" lon="105.654878"><ele>892.6088</ele><time>2026-01-30T23:40:26.000Z</time></trkpt>
        <trkpt lat="28.234117" lon="105.654809"><ele>892.3373</ele><time>2026-01-30T23:40:38.000Z</time></trkpt>
        <trkpt lat="28.234108" lon="105.654768"><ele>892.2572</ele><time>2026-01-30T23:40:42.000Z</time></trkpt>
        <trkpt lat="28.234085" lon="105.654717"><ele>891.62634</ele><time>2026-01-30T23:40:47.000Z</time></trkpt>
        <trkpt lat="28.234061" lon="105.654671"><ele>891.4907</ele><time>2026-01-30T23:40:51.000Z</time></trkpt>
        <trkpt lat="28.234051" lon="105.654612"><ele>891.08966</ele><time>2026-01-30T23:40:56.000Z</time></trkpt>
        <trkpt lat="28.234052" lon="105.654544"><ele>889.85315</ele><time>2026-01-30T23:41:01.000Z</time></trkpt>
        <trkpt lat="28.234083" lon="105.65449"><ele>889.0599</ele><time>2026-01-30T23:41:15.000Z</time></trkpt>
        <trkpt lat="28.23412" lon="105.654476"><ele>889.08636</ele><time>2026-01-30T23:41:19.000Z</time></trkpt>
        <trkpt lat="28.234166" lon="105.65444"><ele>888.2365</ele><time>2026-01-30T23:41:24.000Z</time></trkpt>
        <trkpt lat="28.234193" lon="105.654382"><ele>886.9643</ele><time>2026-01-30T23:41:29.000Z</time></trkpt>
        <trkpt lat="28.234198" lon="105.654316"><ele>886.6391</ele><time>2026-01-30T23:41:35.000Z</time></trkpt>
        <trkpt lat="28.234196" lon="105.654259"><ele>886.5176</ele><time>2026-01-30T23:41:40.000Z</time></trkpt>
        <trkpt lat="28.234223" lon="105.654211"><ele>886.95886</ele><time>2026-01-30T23:41:45.000Z</time></trkpt>
        <trkpt lat="28.234275" lon="105.654198"><ele>887.9184</ele><time>2026-01-30T23:41:50.000Z</time></trkpt>
        <trkpt lat="28.234324" lon="105.654218"><ele>889.3567</ele><time>2026-01-30T23:41:55.000Z</time></trkpt>
        <trkpt lat="28.234379" lon="105.654236"><ele>890.5822</ele><time>2026-01-30T23:42:01.000Z</time></trkpt>
        <trkpt lat="28.234431" lon="105.654249"><ele>890.4628</ele><time>2026-01-30T23:42:06.000Z</time></trkpt>
        <trkpt lat="28.234482" lon="105.654259"><ele>889.95325</ele><time>2026-01-30T23:42:12.000Z</time></trkpt>
        <trkpt lat="28.234526" lon="105.654267"><ele>889.51404</ele><time>2026-01-30T23:42:16.000Z</time></trkpt>
        <trkpt lat="28.234579" lon="105.65427"><ele>890.479</ele><time>2026-01-30T23:42:21.000Z</time></trkpt>
        <trkpt lat="28.234624" lon="105.654249"><ele>892.62006</ele><time>2026-01-30T23:42:26.000Z</time></trkpt>
        <trkpt lat="28.234674" lon="105.654239"><ele>894.8898</ele><time>2026-01-30T23:42:31.000Z</time></trkpt>
        <trkpt lat="28.23471" lon="105.654278"><ele>894.9148</ele><time>2026-01-30T23:42:39.000Z</time></trkpt>
        <trkpt lat="28.234719" lon="105.654336"><ele>894.18536</ele><time>2026-01-30T23:42:54.000Z</time></trkpt>
        <trkpt lat="28.234738" lon="105.654383"><ele>893.1938</ele><time>2026-01-30T23:43:01.000Z</time></trkpt>
        <trkpt lat="28.234766" lon="105.654427"><ele>893.4247</ele><time>2026-01-30T23:43:06.000Z</time></trkpt>
        <trkpt lat="28.234803" lon="105.654468"><ele>892.84595</ele><time>2026-01-30T23:43:11.000Z</time></trkpt>
        <trkpt lat="28.234844" lon="105.654506"><ele>893.5919</ele><time>2026-01-30T23:43:16.000Z</time></trkpt>
        <trkpt lat="28.234871" lon="105.654551"><ele>893.52454</ele><time>2026-01-30T23:43:20.000Z</time></trkpt>
        <trkpt lat="28.234891" lon="105.654602"><ele>893.88135</ele><time>2026-01-30T23:43:24.000Z</time></trkpt>
        <trkpt lat="28.234916" lon="105.654658"><ele>894.63403</ele><time>2026-01-30T23:43:29.000Z</time></trkpt>
        <trkpt lat="28.234952" lon="105.654693"><ele>894.3348</ele><time>2026-01-30T23:43:34.000Z</time></trkpt>
        <trkpt lat="28.234999" lon="105.654703"><ele>894.0531</ele><time>2026-01-30T23:43:39.000Z</time></trkpt>
        <trkpt lat="28.235048" lon="105.654719"><ele>893.60376</ele><time>2026-01-30T23:43:44.000Z</time></trkpt>
        <trkpt lat="28.235097" lon="105.654738"><ele>893.6382</ele><time>2026-01-30T23:43:49.000Z</time></trkpt>
        <trkpt lat="28.235143" lon="105.654756"><ele>893.3439</ele><time>2026-01-30T23:43:54.000Z</time></trkpt>
        <trkpt lat="28.235181" lon="105.654767"><ele>892.8105</ele><time>2026-01-30T23:43:57.000Z</time></trkpt>
        <trkpt lat="28.235239" lon="105.654776"><ele>891.08606</ele><time>2026-01-30T23:44:02.000Z</time></trkpt>
        <trkpt lat="28.235285" lon="105.654763"><ele>889.3477</ele><time>2026-01-30T23:44:06.000Z</time></trkpt>
        <trkpt lat="28.235334" lon="105.654744"><ele>886.6947</ele><time>2026-01-30T23:44:11.000Z</time></trkpt>
        <trkpt lat="28.235383" lon="105.654734"><ele>884.796</ele><time>2026-01-30T23:44:16.000Z</time></trkpt>
        <trkpt lat="28.235428" lon="105.654742"><ele>884.5628</ele><time>2026-01-30T23:44:20.000Z</time></trkpt>
        <trkpt lat="28.235482" lon="105.654768"><ele>884.4886</ele><time>2026-01-30T23:44:24.000Z</time></trkpt>
        <trkpt lat="28.235538" lon="105.654794"><ele>883.3751</ele><time>2026-01-30T23:44:29.000Z</time></trkpt>
        <trkpt lat="28.235584" lon="105.654829"><ele>882.3244</ele><time>2026-01-30T23:44:34.000Z</time></trkpt>
        <trkpt lat="28.23562" lon="105.65486"><ele>880.87286</ele><time>2026-01-30T23:44:38.000Z</time></trkpt>
        <trkpt lat="28.23566" lon="105.654897"><ele>880.45685</ele><time>2026-01-30T23:44:42.000Z</time></trkpt>
        <trkpt lat="28.235699" lon="105.654935"><ele>880.3456</ele><time>2026-01-30T23:44:46.000Z</time></trkpt>
        <trkpt lat="28.23574" lon="105.654972"><ele>880.08466</ele><time>2026-01-30T23:44:50.000Z</time></trkpt>
        <trkpt lat="28.235784" lon="105.655006"><ele>879.9575</ele><time>2026-01-30T23:44:54.000Z</time></trkpt>
        <trkpt lat="28.23582" lon="105.655036"><ele>880.475</ele><time>2026-01-30T23:44:57.000Z</time></trkpt>
        <trkpt lat="28.235868" lon="105.655066"><ele>881.2613</ele><time>2026-01-30T23:45:01.000Z</time></trkpt>
        <trkpt lat="28.235918" lon="105.655088"><ele>881.99176</ele><time>2026-01-30T23:45:05.000Z</time></trkpt>
        <trkpt lat="28.235967" lon="105.655101"><ele>882.20575</ele><time>2026-01-30T23:45:09.000Z</time></trkpt>
        <trkpt lat="28.236015" lon="105.655114"><ele>882.541</ele><time>2026-01-30T23:45:13.000Z</time></trkpt>
        <trkpt lat="28.236064" lon="105.65513"><ele>881.25287</ele><time>2026-01-30T23:45:18.000Z</time></trkpt>
        <trkpt lat="28.236112" lon="105.655142"><ele>879.06433</ele><time>2026-01-30T23:45:22.000Z</time></trkpt>
        <trkpt lat="28.236133" lon="105.655192"><ele>875.4392</ele><time>2026-01-30T23:45:33.000Z</time></trkpt>
        <trkpt lat="28.236163" lon="105.655231"><ele>873.1641</ele><time>2026-01-30T23:45:52.000Z</time></trkpt>
        <trkpt lat="28.236203" lon="105.655249"><ele>873.2326</ele><time>2026-01-30T23:45:58.000Z</time></trkpt>
        <trkpt lat="28.236247" lon="105.65526"><ele>872.463</ele><time>2026-01-30T23:46:03.000Z</time></trkpt>
        <trkpt lat="28.236296" lon="105.655247"><ele>872.87305</ele><time>2026-01-30T23:46:08.000Z</time></trkpt>
        <trkpt lat="28.236328" lon="105.655202"><ele>873.10254</ele><time>2026-01-30T23:46:13.000Z</time></trkpt>
        <trkpt lat="28.236325" lon="105.655152"><ele>872.68085</ele><time>2026-01-30T23:46:17.000Z</time></trkpt>
        <trkpt lat="28.2363" lon="105.655099"><ele>871.5951</ele><time>2026-01-30T23:46:22.000Z</time></trkpt>
        <trkpt lat="28.236267" lon="105.655054"><ele>871.2797</ele><time>2026-01-30T23:46:27.000Z</time></trkpt>
        <trkpt lat="28.236242" lon="105.655005"><ele>871.4255</ele><time>2026-01-30T23:46:31.000Z</time></trkpt>
        <trkpt lat="28.236223" lon="105.654956"><ele>872.26526</ele><time>2026-01-30T23:46:35.000Z</time></trkpt>
        <trkpt lat="28.236198" lon="105.6549"><ele>870.7924</ele><time>2026-01-30T23:46:41.000Z</time></trkpt>
        <trkpt lat="28.236173" lon="105.654861"><ele>869.6424</ele><time>2026-01-30T23:46:45.000Z</time></trkpt>
        <trkpt lat="28.236148" lon="105.654813"><ele>869.5855</ele><time>2026-01-30T23:46:49.000Z</time></trkpt>
        <trkpt lat="28.236122" lon="105.654757"><ele>869.58844</ele><time>2026-01-30T23:46:55.000Z</time></trkpt>
        <trkpt lat="28.236091" lon="105.654714"><ele>868.65375</ele><time>2026-01-30T23:47:00.000Z</time></trkpt>
        <trkpt lat="28.236051" lon="105.65467"><ele>867.2943</ele><time>2026-01-30T23:47:14.000Z</time></trkpt>
        <trkpt lat="28.236029" lon="105.65464"><ele>867.12866</ele><time>2026-01-30T23:47:19.000Z</time></trkpt>
        <trkpt lat="28.236004" lon="105.654595"><ele>866.7297</ele><time>2026-01-30T23:47:23.000Z</time></trkpt>
        <trkpt lat="28.235979" lon="105.654543"><ele>865.6285</ele><time>2026-01-30T23:47:27.000Z</time></trkpt>
        <trkpt lat="28.235969" lon="105.654493"><ele>865.3431</ele><time>2026-01-30T23:47:30.000Z</time></trkpt>
        <trkpt lat="28.235961" lon="105.654429"><ele>867.0975</ele><time>2026-01-30T23:47:35.000Z</time></trkpt>
        <trkpt lat="28.235982" lon="105.654381"><ele>869.0777</ele><time>2026-01-30T23:47:40.000Z</time></trkpt>
        <trkpt lat="28.23602" lon="105.654355"><ele>870.588</ele><time>2026-01-30T23:47:44.000Z</time></trkpt>
        <trkpt lat="28.236073" lon="105.65433"><ele>871.8856</ele><time>2026-01-30T23:47:49.000Z</time></trkpt>
        <trkpt lat="28.236126" lon="105.654339"><ele>872.3829</ele><time>2026-01-30T23:47:54.000Z</time></trkpt>
        <trkpt lat="28.236167" lon="105.654372"><ele>871.64874</ele><time>2026-01-30T23:47:58.000Z</time></trkpt>
        <trkpt lat="28.236204" lon="105.654413"><ele>871.2722</ele><time>2026-01-30T23:48:02.000Z</time></trkpt>
        <trkpt lat="28.236246" lon="105.654449"><ele>870.606</ele><time>2026-01-30T23:48:06.000Z</time></trkpt>
        <trkpt lat="28.23629" lon="105.654482"><ele>869.7576</ele><time>2026-01-30T23:48:10.000Z</time></trkpt>
        <trkpt lat="28.236337" lon="105.654509"><ele>869.2252</ele><time>2026-01-30T23:48:14.000Z</time></trkpt>
        <trkpt lat="28.236387" lon="105.654523"><ele>868.41833</ele><time>2026-01-30T23:48:18.000Z</time></trkpt>
        <trkpt lat="28.236439" lon="105.654524"><ele>868.3273</ele><time>2026-01-30T23:48:22.000Z</time></trkpt>
        <trkpt lat="28.236501" lon="105.654519"><ele>867.0148</ele><time>2026-01-30T23:48:27.000Z</time></trkpt>
        <trkpt lat="28.23655" lon="105.654505"><ele>866.9755</ele><time>2026-01-30T23:48:31.000Z</time></trkpt>
        <trkpt lat="28.236604" lon="105.654481"><ele>866.53796</ele><time>2026-01-30T23:48:37.000Z</time></trkpt>
        <trkpt lat="28.236648" lon="105.654461"><ele>865.0852</ele><time>2026-01-30T23:48:42.000Z</time></trkpt>
        <trkpt lat="28.236694" lon="105.654432"><ele>863.8156</ele><time>2026-01-30T23:48:49.000Z</time></trkpt>
        <trkpt lat="28.236739" lon="105.654429"><ele>861.3648</ele><time>2026-01-30T23:48:56.000Z</time></trkpt>
        <trkpt lat="28.236781" lon="105.654432"><ele>860.51135</ele><time>2026-01-30T23:49:01.000Z</time></trkpt>
        <trkpt lat="28.236821" lon="105.654457"><ele>859.3874</ele><time>2026-01-30T23:49:06.000Z</time></trkpt>
        <trkpt lat="28.236861" lon="105.654498"><ele>858.8034</ele><time>2026-01-30T23:49:11.000Z</time></trkpt>
        <trkpt lat="28.236894" lon="105.654541"><ele>857.8231</ele><time>2026-01-30T23:49:16.000Z</time></trkpt>
        <trkpt lat="28.236921" lon="105.654582"><ele>857.5748</ele><time>2026-01-30T23:49:20.000Z</time></trkpt>
        <trkpt lat="28.236948" lon="105.654626"><ele>857.53094</ele><time>2026-01-30T23:49:24.000Z</time></trkpt>
        <trkpt lat="28.236986" lon="105.654677"><ele>856.6989</ele><time>2026-01-30T23:49:29.000Z</time></trkpt>
        <trkpt lat="28.23702" lon="105.654728"><ele>855.104</ele><time>2026-01-30T23:49:34.000Z</time></trkpt>
        <trkpt lat="28.237059" lon="105.654769"><ele>854.9409</ele><time>2026-01-30T23:49:38.000Z</time></trkpt>
        <trkpt lat="28.237097" lon="105.654795"><ele>855.23047</ele><time>2026-01-30T23:49:41.000Z</time></trkpt>
        <trkpt lat="28.23715" lon="105.654809"><ele>855.0134</ele><time>2026-01-30T23:49:45.000Z</time></trkpt>
        <trkpt lat="28.2372" lon="105.654789"><ele>854.6591</ele><time>2026-01-30T23:49:49.000Z</time></trkpt>
        <trkpt lat="28.237245" lon="105.654745"><ele>853.4305</ele><time>2026-01-30T23:49:54.000Z</time></trkpt>
        <trkpt lat="28.237269" lon="105.654681"><ele>850.6122</ele><time>2026-01-30T23:50:01.000Z</time></trkpt>
        <trkpt lat="28.237261" lon="105.654622"><ele>847.0294</ele><time>2026-01-30T23:50:07.000Z</time></trkpt>
        <trkpt lat="28.237268" lon="105.654562"><ele>844.48816</ele><time>2026-01-30T23:50:14.000Z</time></trkpt>
        <trkpt lat="28.23729" lon="105.654516"><ele>844.52246</ele><time>2026-01-30T23:50:19.000Z</time></trkpt>
        <trkpt lat="28.23733" lon="105.65449"><ele>844.7321</ele><time>2026-01-30T23:50:24.000Z</time></trkpt>
        <trkpt lat="28.237384" lon="105.654499"><ele>844.6417</ele><time>2026-01-30T23:50:31.000Z</time></trkpt>
        <trkpt lat="28.237432" lon="105.654528"><ele>845.2988</ele><time>2026-01-30T23:50:36.000Z</time></trkpt>
        <trkpt lat="28.237478" lon="105.654549"><ele>845.734</ele><time>2026-01-30T23:50:40.000Z</time></trkpt>
        <trkpt lat="28.237512" lon="105.654582"><ele>846.1371</ele><time>2026-01-30T23:50:43.000Z</time></trkpt>
        <trkpt lat="28.237561" lon="105.65462"><ele>846.7981</ele><time>2026-01-30T23:50:47.000Z</time></trkpt>
        <trkpt lat="28.237601" lon="105.654668"><ele>846.9958</ele><time>2026-01-30T23:50:51.000Z</time></trkpt>
        <trkpt lat="28.237642" lon="105.654708"><ele>845.9719</ele><time>2026-01-30T23:50:56.000Z</time></trkpt>
        <trkpt lat="28.237686" lon="105.654734"><ele>844.92236</ele><time>2026-01-30T23:51:01.000Z</time></trkpt>
        <trkpt lat="28.237742" lon="105.654748"><ele>843.18634</ele><time>2026-01-30T23:51:07.000Z</time></trkpt>
        <trkpt lat="28.237784" lon="105.654777"><ele>842.77466</ele><time>2026-01-30T23:51:11.000Z</time></trkpt>
        <trkpt lat="28.237837" lon="105.654784"><ele>841.0663</ele><time>2026-01-30T23:51:17.000Z</time></trkpt>
        <trkpt lat="28.23789" lon="105.654781"><ele>838.3794</ele><time>2026-01-30T23:51:22.000Z</time></trkpt>
        <trkpt lat="28.237935" lon="105.654777"><ele>836.6927</ele><time>2026-01-30T23:51:25.000Z</time></trkpt>
        <trkpt lat="28.237988" lon="105.65476"><ele>833.9824</ele><time>2026-01-30T23:51:29.000Z</time></trkpt>
        <trkpt lat="28.23804" lon="105.654717"><ele>828.04877</ele><time>2026-01-30T23:51:35.000Z</time></trkpt>
        <trkpt lat="28.238076" lon="105.65468"><ele>825.9759</ele><time>2026-01-30T23:51:39.000Z</time></trkpt>
        <trkpt lat="28.238123" lon="105.654663"><ele>822.25214</ele><time>2026-01-30T23:51:45.000Z</time></trkpt>
        <trkpt lat="28.238144" lon="105.654629"><ele>818.42883</ele><time>2026-01-30T23:51:50.000Z</time></trkpt>
        <trkpt lat="28.238172" lon="105.654591"><ele>816.3128</ele><time>2026-01-30T23:51:54.000Z</time></trkpt>
        <trkpt lat="28.238193" lon="105.654542"><ele>815.6796</ele><time>2026-01-30T23:51:58.000Z</time></trkpt>
        <trkpt lat="28.238182" lon="105.654486"><ele>815.9188</ele><time>2026-01-30T23:52:03.000Z</time></trkpt>
        <trkpt lat="28.238147" lon="105.654428"><ele>813.979</ele><time>2026-01-30T23:52:10.000Z</time></trkpt>
        <trkpt lat="28.238114" lon="105.654386"><ele>810.5544</ele><time>2026-01-30T23:52:16.000Z</time></trkpt>
        <trkpt lat="28.238105" lon="105.654329"><ele>809.01447</ele><time>2026-01-30T23:52:20.000Z</time></trkpt>
        <trkpt lat="28.238124" lon="105.654276"><ele>809.8237</ele><time>2026-01-30T23:52:23.000Z</time></trkpt>
        <trkpt lat="28.238171" lon="105.654244"><ele>812.5443</ele><time>2026-01-30T23:52:27.000Z</time></trkpt>
        <trkpt lat="28.238238" lon="105.654221"><ele>817.4946</ele><time>2026-01-30T23:52:33.000Z</time></trkpt>
        <trkpt lat="28.238286" lon="105.654217"><ele>820.2213</ele><time>2026-01-30T23:52:37.000Z</time></trkpt>
        <trkpt lat="28.238342" lon="105.654206"><ele>821.48987</ele><time>2026-01-30T23:52:42.000Z</time></trkpt>
        <trkpt lat="28.238383" lon="105.65418"><ele>822.0263</ele><time>2026-01-30T23:52:47.000Z</time></trkpt>
        <trkpt lat="28.238417" lon="105.654149"><ele>821.76984</ele><time>2026-01-30T23:52:51.000Z</time></trkpt>
        <trkpt lat="28.238458" lon="105.65413"><ele>821.38995</ele><time>2026-01-30T23:52:55.000Z</time></trkpt>
        <trkpt lat="28.238509" lon="105.654111"><ele>820.8385</ele><time>2026-01-30T23:52:59.000Z</time></trkpt>
        <trkpt lat="28.238555" lon="105.654084"><ele>819.6271</ele><time>2026-01-30T23:53:03.000Z</time></trkpt>
        <trkpt lat="28.238599" lon="105.654041"><ele>818.39</ele><time>2026-01-30T23:53:08.000Z</time></trkpt>
        <trkpt lat="28.238618" lon="105.653991"><ele>816.48016</ele><time>2026-01-30T23:53:13.000Z</time></trkpt>
        <trkpt lat="28.238641" lon="105.653936"><ele>814.73486</ele><time>2026-01-30T23:53:18.000Z</time></trkpt>
        <trkpt lat="28.238657" lon="105.653886"><ele>813.8892</ele><time>2026-01-30T23:53:22.000Z</time></trkpt>
        <trkpt lat="28.238673" lon="105.653824"><ele>812.7744</ele><time>2026-01-30T23:53:27.000Z</time></trkpt>
        <trkpt lat="28.238685" lon="105.653764"><ele>811.41144</ele><time>2026-01-30T23:53:32.000Z</time></trkpt>
        <trkpt lat="28.23869" lon="105.653702"><ele>810.5347</ele><time>2026-01-30T23:53:37.000Z</time></trkpt>
        <trkpt lat="28.238687" lon="105.653643"><ele>809.3689</ele><time>2026-01-30T23:53:42.000Z</time></trkpt>
        <trkpt lat="28.238698" lon="105.653581"><ele>809.1805</ele><time>2026-01-30T23:53:47.000Z</time></trkpt>
        <trkpt lat="28.238691" lon="105.653521"><ele>808.7475</ele><time>2026-01-30T23:53:53.000Z</time></trkpt>
        <trkpt lat="28.238688" lon="105.65346"><ele>809.5049</ele><time>2026-01-30T23:53:59.000Z</time></trkpt>
        <trkpt lat="28.238703" lon="105.653409"><ele>810.64197</ele><time>2026-01-30T23:54:03.000Z</time></trkpt>
        <trkpt lat="28.238734" lon="105.653359"><ele>812.73737</ele><time>2026-01-30T23:54:08.000Z</time></trkpt>
        <trkpt lat="28.238781" lon="105.653356"><ele>815.18536</ele><time>2026-01-30T23:54:13.000Z</time></trkpt>
        <trkpt lat="28.238803" lon="105.653399"><ele>815.536</ele><time>2026-01-30T23:54:17.000Z</time></trkpt>
        <trkpt lat="28.238815" lon="105.653458"><ele>815.9722</ele><time>2026-01-30T23:54:21.000Z</time></trkpt>
        <trkpt lat="28.238828" lon="105.653526"><ele>815.2533</ele><time>2026-01-30T23:54:28.000Z</time></trkpt>
        <trkpt lat="28.23885" lon="105.653568"><ele>814.13354</ele><time>2026-01-30T23:54:33.000Z</time></trkpt>
        <trkpt lat="28.238872" lon="105.653616"><ele>812.69183</ele><time>2026-01-30T23:54:39.000Z</time></trkpt>
        <trkpt lat="28.238881" lon="105.65367"><ele>810.0433</ele><time>2026-01-30T23:54:46.000Z</time></trkpt>
        <trkpt lat="28.238872" lon="105.653729"><ele>808.7613</ele><time>2026-01-30T23:54:53.000Z</time></trkpt>
        <trkpt lat="28.238865" lon="105.653778"><ele>808.1271</ele><time>2026-01-30T23:54:58.000Z</time></trkpt>
        <trkpt lat="28.238851" lon="105.653836"><ele>806.40814</ele><time>2026-01-30T23:55:07.000Z</time></trkpt>
        <trkpt lat="28.238828" lon="105.653883"><ele>805.5197</ele><time>2026-01-30T23:55:15.000Z</time></trkpt>
        <trkpt lat="28.238815" lon="105.653934"><ele>804.8451</ele><time>2026-01-30T23:55:21.000Z</time></trkpt>
        <trkpt lat="28.238806" lon="105.65399"><ele>802.3861</ele><time>2026-01-30T23:55:27.000Z</time></trkpt>
        <trkpt lat="28.238806" lon="105.654057"><ele>800.2518</ele><time>2026-01-30T23:55:35.000Z</time></trkpt>
        <trkpt lat="28.238794" lon="105.654111"><ele>797.3575</ele><time>2026-01-30T23:55:43.000Z</time></trkpt>
        <trkpt lat="28.238777" lon="105.654155"><ele>795.5154</ele><time>2026-01-30T23:55:48.000Z</time></trkpt>
        <trkpt lat="28.23876" lon="105.654201"><ele>794.693</ele><time>2026-01-30T23:55:52.000Z</time></trkpt>
        <trkpt lat="28.238733" lon="105.654251"><ele>794.138</ele><time>2026-01-30T23:55:57.000Z</time></trkpt>
        <trkpt lat="28.238701" lon="105.65429"><ele>793.637</ele><time>2026-01-30T23:56:01.000Z</time></trkpt>
        <trkpt lat="28.23866" lon="105.654338"><ele>792.9374</ele><time>2026-01-30T23:56:07.000Z</time></trkpt>
        <trkpt lat="28.238634" lon="105.654391"><ele>791.81866</ele><time>2026-01-30T23:56:13.000Z</time></trkpt>
        <trkpt lat="28.238594" lon="105.654427"><ele>791.07275</ele><time>2026-01-30T23:56:20.000Z</time></trkpt>
        <trkpt lat="28.238558" lon="105.654456"><ele>790.2399</ele><time>2026-01-30T23:56:24.000Z</time></trkpt>
        <trkpt lat="28.238553" lon="105.654503"><ele>790.2935</ele><time>2026-01-30T23:56:29.000Z</time></trkpt>
        <trkpt lat="28.238576" lon="105.654569"><ele>789.9885</ele><time>2026-01-30T23:56:35.000Z</time></trkpt>
        <trkpt lat="28.23861" lon="105.65463"><ele>788.8709</ele><time>2026-01-30T23:56:41.000Z</time></trkpt>
        <trkpt lat="28.23861" lon="105.654683"><ele>788.39343</ele><time>2026-01-30T23:56:47.000Z</time></trkpt>
        <trkpt lat="28.238599" lon="105.654736"><ele>788.5411</ele><time>2026-01-30T23:56:52.000Z</time></trkpt>
        <trkpt lat="28.238553" lon="105.654784"><ele>787.5307</ele><time>2026-01-30T23:57:00.000Z</time></trkpt>
        <trkpt lat="28.238528" lon="105.654826"><ele>786.22675</ele><time>2026-01-30T23:57:06.000Z</time></trkpt>
        <trkpt lat="28.238508" lon="105.654878"><ele>785.7295</ele><time>2026-01-30T23:57:16.000Z</time></trkpt>
        <trkpt lat="28.238488" lon="105.654931"><ele>787.3192</ele><time>2026-01-30T23:57:33.000Z</time></trkpt>
        <trkpt lat="28.238489" lon="105.654982"><ele>789.2223</ele><time>2026-01-30T23:57:48.000Z</time></trkpt>
        <trkpt lat="28.238487" lon="105.655036"><ele>789.5766</ele><time>2026-01-30T23:58:01.000Z</time></trkpt>
        <trkpt lat="28.23847" lon="105.655085"><ele>785.9093</ele><time>2026-01-30T23:58:10.000Z</time></trkpt>
        <trkpt lat="28.238447" lon="105.655134"><ele>784.9132</ele><time>2026-01-30T23:58:16.000Z</time></trkpt>
        <trkpt lat="28.238408" lon="105.655168"><ele>783.6183</ele><time>2026-01-30T23:58:23.000Z</time></trkpt>
        <trkpt lat="28.238369" lon="105.6552"><ele>780.8691</ele><time>2026-01-30T23:58:28.000Z</time></trkpt>
        <trkpt lat="28.23834" lon="105.655247"><ele>779.48676</ele><time>2026-01-30T23:58:33.000Z</time></trkpt>
        <trkpt lat="28.238332" lon="105.655302"><ele>778.5095</ele><time>2026-01-30T23:58:37.000Z</time></trkpt>
        <trkpt lat="28.238332" lon="105.655368"><ele>777.7568</ele><time>2026-01-30T23:58:43.000Z</time></trkpt>
        <trkpt lat="28.238338" lon="105.655424"><ele>776.82806</ele><time>2026-01-30T23:58:47.000Z</time></trkpt>
        <trkpt lat="28.238338" lon="105.655487"><ele>775.54535</ele><time>2026-01-30T23:58:52.000Z</time></trkpt>
        <trkpt lat="28.238346" lon="105.655549"><ele>775.4496</ele><time>2026-01-30T23:58:57.000Z</time></trkpt>
        <trkpt lat="28.238352" lon="105.6556"><ele>775.3132</ele><time>2026-01-30T23:59:01.000Z</time></trkpt>
        <trkpt lat="28.238336" lon="105.655652"><ele>774.78546</ele><time>2026-01-30T23:59:07.000Z</time></trkpt>
        <trkpt lat="28.238306" lon="105.655704"><ele>774.82605</ele><time>2026-01-30T23:59:16.000Z</time></trkpt>
        <trkpt lat="28.238275" lon="105.655749"><ele>774.6341</ele><time>2026-01-30T23:59:22.000Z</time></trkpt>
        <trkpt lat="28.238245" lon="105.655797"><ele>774.34283</ele><time>2026-01-30T23:59:26.000Z</time></trkpt>
        <trkpt lat="28.23822" lon="105.655846"><ele>774.0247</ele><time>2026-01-30T23:59:30.000Z</time></trkpt>
        <trkpt lat="28.238205" lon="105.655902"><ele>774.04926</ele><time>2026-01-30T23:59:34.000Z</time></trkpt>
        <trkpt lat="28.238203" lon="105.655951"><ele>773.7514</ele><time>2026-01-30T23:59:37.000Z</time></trkpt>
        <trkpt lat="28.238187" lon="105.656009"><ele>773.7565</ele><time>2026-01-30T23:59:42.000Z</time></trkpt>
        <trkpt lat="28.238155" lon="105.656069"><ele>775.14954</ele><time>2026-01-30T23:59:51.000Z</time></trkpt>
        <trkpt lat="28.23814" lon="105.656108"><ele>775.73773</ele><time>2026-01-30T23:59:55.000Z</time></trkpt>
        <trkpt lat="28.238119" lon="105.656163"><ele>774.8374</ele><time>2026-01-30T23:59:59.000Z</time></trkpt>
        <trkpt lat="28.2381" lon="105.656223"><ele>774.8993</ele><time>2026-01-31T00:00:03.000Z</time></trkpt>
        <trkpt lat="28.238055" lon="105.656269"><ele>773.79596</ele><time>2026-01-31T00:00:09.000Z</time></trkpt>
        <trkpt lat="28.238023" lon="105.656308"><ele>773.0403</ele><time>2026-01-31T00:00:13.000Z</time></trkpt>
        <trkpt lat="28.238004" lon="105.656359"><ele>772.17017</ele><time>2026-01-31T00:00:18.000Z</time></trkpt>
        <trkpt lat="28.237994" lon="105.656412"><ele>771.9298</ele><time>2026-01-31T00:00:21.000Z</time></trkpt>
        <trkpt lat="28.23799" lon="105.656477"><ele>771.5551</ele><time>2026-01-31T00:00:26.000Z</time></trkpt>
        <trkpt lat="28.238012" lon="105.656527"><ele>771.0156</ele><time>2026-01-31T00:00:31.000Z</time></trkpt>
        <trkpt lat="28.238042" lon="105.656577"><ele>769.65784</ele><time>2026-01-31T00:00:39.000Z</time></trkpt>
        <trkpt lat="28.238059" lon="105.656625"><ele>770.5049</ele><time>2026-01-31T00:00:49.000Z</time></trkpt>
        <trkpt lat="28.238068" lon="105.656667"><ele>770.57983</ele><time>2026-01-31T00:00:54.000Z</time></trkpt>
        <trkpt lat="28.238026" lon="105.656664"><ele>770.79926</ele><time>2026-01-31T00:02:45.000Z</time></trkpt>
        <trkpt lat="28.238054" lon="105.656714"><ele>768.155</ele><time>2026-01-31T00:03:16.000Z</time></trkpt>
        <trkpt lat="28.238088" lon="105.656754"><ele>769.0787</ele><time>2026-01-31T00:03:44.000Z</time></trkpt>
        <trkpt lat="28.238099" lon="105.656796"><ele>767.54346</ele><time>2026-01-31T00:03:53.000Z</time></trkpt>
        <trkpt lat="28.238141" lon="105.656803"><ele>763.65906</ele><time>2026-01-31T00:04:00.000Z</time></trkpt>
        <trkpt lat="28.238188" lon="105.656779"><ele>761.2996</ele><time>2026-01-31T00:04:07.000Z</time></trkpt>
        <trkpt lat="28.23822" lon="105.656737"><ele>759.5351</ele><time>2026-01-31T00:04:13.000Z</time></trkpt>
        <trkpt lat="28.238267" lon="105.656735"><ele>752.30835</ele><time>2026-01-31T00:04:30.000Z</time></trkpt>
        <trkpt lat="28.238281" lon="105.656698"><ele>749.725</ele><time>2026-01-31T00:04:36.000Z</time></trkpt>
        <trkpt lat="28.238307" lon="105.656644"><ele>747.5615</ele><time>2026-01-31T00:04:48.000Z</time></trkpt>
        <trkpt lat="28.238299" lon="105.656592"><ele>743.9069</ele><time>2026-01-31T00:05:07.000Z</time></trkpt>
        <trkpt lat="28.238338" lon="105.656567"><ele>747.4607</ele><time>2026-01-31T00:05:21.000Z</time></trkpt>
        <trkpt lat="28.238375" lon="105.656525"><ele>742.5095</ele><time>2026-01-31T00:05:43.000Z</time></trkpt>
        <trkpt lat="28.238373" lon="105.656475"><ele>737.7497</ele><time>2026-01-31T00:05:59.000Z</time></trkpt>
        <trkpt lat="28.238385" lon="105.656426"><ele>738.7213</ele><time>2026-01-31T00:06:08.000Z</time></trkpt>
        <trkpt lat="28.238379" lon="105.656473"><ele>734.4226</ele><time>2026-01-31T00:06:30.000Z</time></trkpt>
        <trkpt lat="28.238389" lon="105.656525"><ele>734.3322</ele><time>2026-01-31T00:06:46.000Z</time></trkpt>
        <trkpt lat="28.23843" lon="105.656552"><ele>733.28656</ele><time>2026-01-31T00:07:56.000Z</time></trkpt>
        <trkpt lat="28.23843" lon="105.656606"><ele>731.21136</ele><time>2026-01-31T00:08:08.000Z</time></trkpt>
        <trkpt lat="28.238479" lon="105.656637"><ele>727.8609</ele><time>2026-01-31T00:08:22.000Z</time></trkpt>
        <trkpt lat="28.238492" lon="105.656691"><ele>714.8708</ele><time>2026-01-31T00:11:49.000Z</time></trkpt>
        <trkpt lat="28.238496" lon="105.656744"><ele>708.1097</ele><time>2026-01-31T00:12:20.000Z</time></trkpt>
        <trkpt lat="28.238456" lon="105.65677"><ele>703.0765</ele><time>2026-01-31T00:12:37.000Z</time></trkpt>
        <trkpt lat="28.238484" lon="105.656808"><ele>704.56555</ele><time>2026-01-31T00:12:45.000Z</time></trkpt>
        <trkpt lat="28.238448" lon="105.65683"><ele>704.7271</ele><time>2026-01-31T00:13:05.000Z</time></trkpt>
        <trkpt lat="28.238481" lon="105.656848"><ele>704.47034</ele><time>2026-01-31T00:13:15.000Z</time></trkpt>
        <trkpt lat="28.238532" lon="105.65684"><ele>704.97</ele><time>2026-01-31T00:13:21.000Z</time></trkpt>
        <trkpt lat="28.238574" lon="105.656804"><ele>701.1939</ele><time>2026-01-31T00:13:31.000Z</time></trkpt>
        <trkpt lat="28.238604" lon="105.656764"><ele>703.04877</ele><time>2026-01-31T00:13:42.000Z</time></trkpt>
        <trkpt lat="28.238584" lon="105.656717"><ele>700.03564</ele><time>2026-01-31T00:14:20.000Z</time></trkpt>
        <trkpt lat="28.238616" lon="105.656678"><ele>693.2738</ele><time>2026-01-31T00:15:41.000Z</time></trkpt>
        <trkpt lat="28.238647" lon="105.656634"><ele>696.5215</ele><time>2026-01-31T00:15:52.000Z</time></trkpt>
        <trkpt lat="28.238687" lon="105.656634"><ele>695.084</ele><time>2026-01-31T00:15:57.000Z</time></trkpt>
        <trkpt lat="28.238704" lon="105.656595"><ele>695.1641</ele><time>2026-01-31T00:16:03.000Z</time></trkpt>
        <trkpt lat="28.238725" lon="105.656546"><ele>696.13165</ele><time>2026-01-31T00:16:10.000Z</time></trkpt>
        <trkpt lat="28.238763" lon="105.656518"><ele>693.0416</ele><time>2026-01-31T00:16:17.000Z</time></trkpt>
        <trkpt lat="28.238785" lon="105.656557"><ele>690.6457</ele><time>2026-01-31T00:16:24.000Z</time></trkpt>
        <trkpt lat="28.238834" lon="105.656586"><ele>688.44025</ele><time>2026-01-31T00:17:09.000Z</time></trkpt>
        <trkpt lat="28.238868" lon="105.656538"><ele>684.25684</ele><time>2026-01-31T00:17:33.000Z</time></trkpt>
        <trkpt lat="28.238871" lon="105.656498"><ele>681.3335</ele><time>2026-01-31T00:17:38.000Z</time></trkpt>
        <trkpt lat="28.238917" lon="105.656465"><ele>678.07184</ele><time>2026-01-31T00:17:49.000Z</time></trkpt>
        <trkpt lat="28.238938" lon="105.656524"><ele>677.1636</ele><time>2026-01-31T00:18:00.000Z</time></trkpt>
        <trkpt lat="28.238942" lon="105.656582"><ele>676.0797</ele><time>2026-01-31T00:18:10.000Z</time></trkpt>
        <trkpt lat="28.238914" lon="105.656637"><ele>674.61975</ele><time>2026-01-31T00:18:19.000Z</time></trkpt>
        <trkpt lat="28.238925" lon="105.656684"><ele>675.6609</ele><time>2026-01-31T00:18:25.000Z</time></trkpt>
        <trkpt lat="28.238919" lon="105.656743"><ele>671.1142</ele><time>2026-01-31T00:18:36.000Z</time></trkpt>
        <trkpt lat="28.238941" lon="105.656786"><ele>665.91327</ele><time>2026-01-31T00:18:47.000Z</time></trkpt>
        <trkpt lat="28.238982" lon="105.65674"><ele>666.2268</ele><time>2026-01-31T00:19:15.000Z</time></trkpt>
        <trkpt lat="28.239003" lon="105.656693"><ele>665.86633</ele><time>2026-01-31T00:19:20.000Z</time></trkpt>
        <trkpt lat="28.239022" lon="105.65663"><ele>665.721</ele><time>2026-01-31T00:19:25.000Z</time></trkpt>
        <trkpt lat="28.239049" lon="105.656573"><ele>665.7539</ele><time>2026-01-31T00:19:30.000Z</time></trkpt>
        <trkpt lat="28.239062" lon="105.656523"><ele>664.97675</ele><time>2026-01-31T00:19:34.000Z</time></trkpt>
        <trkpt lat="28.239071" lon="105.656477"><ele>665.5639</ele><time>2026-01-31T00:19:37.000Z</time></trkpt>
        <trkpt lat="28.23908" lon="105.656414"><ele>666.05115</ele><time>2026-01-31T00:19:42.000Z</time></trkpt>
        <trkpt lat="28.23913" lon="105.656368"><ele>671.1823</ele><time>2026-01-31T00:20:15.000Z</time></trkpt>
        <trkpt lat="28.239146" lon="105.656335"><ele>670.2926</ele><time>2026-01-31T00:20:19.000Z</time></trkpt>
        <trkpt lat="28.23917" lon="105.656274"><ele>669.2364</ele><time>2026-01-31T00:20:23.000Z</time></trkpt>
        <trkpt lat="28.23918" lon="105.656204"><ele>668.0582</ele><time>2026-01-31T00:20:27.000Z</time></trkpt>
        <trkpt lat="28.239189" lon="105.656148"><ele>667.8912</ele><time>2026-01-31T00:20:30.000Z</time></trkpt>
        <trkpt lat="28.239201" lon="105.656092"><ele>668.2459</ele><time>2026-01-31T00:20:33.000Z</time></trkpt>
        <trkpt lat="28.239219" lon="105.656025"><ele>668.9206</ele><time>2026-01-31T00:20:37.000Z</time></trkpt>
        <trkpt lat="28.239235" lon="105.655968"><ele>668.6502</ele><time>2026-01-31T00:20:41.000Z</time></trkpt>
        <trkpt lat="28.239242" lon="105.655907"><ele>667.2394</ele><time>2026-01-31T00:20:46.000Z</time></trkpt>
        <trkpt lat="28.239239" lon="105.655859"><ele>666.53174</ele><time>2026-01-31T00:20:50.000Z</time></trkpt>
        <trkpt lat="28.239245" lon="105.655801"><ele>666.14056</ele><time>2026-01-31T00:20:54.000Z</time></trkpt>
        <trkpt lat="28.239251" lon="105.655741"><ele>665.8403</ele><time>2026-01-31T00:20:58.000Z</time></trkpt>
        <trkpt lat="28.239263" lon="105.655683"><ele>665.77026</ele><time>2026-01-31T00:21:02.000Z</time></trkpt>
        <trkpt lat="28.239285" lon="105.655621"><ele>666.1889</ele><time>2026-01-31T00:21:06.000Z</time></trkpt>
        <trkpt lat="28.239311" lon="105.655565"><ele>666.6552</ele><time>2026-01-31T00:21:10.000Z</time></trkpt>
        <trkpt lat="28.239329" lon="105.655505"><ele>667.0476</ele><time>2026-01-31T00:21:14.000Z</time></trkpt>
        <trkpt lat="28.239341" lon="105.655446"><ele>667.4139</ele><time>2026-01-31T00:21:18.000Z</time></trkpt>
        <trkpt lat="28.239339" lon="105.655384"><ele>665.7268</ele><time>2026-01-31T00:21:23.000Z</time></trkpt>
        <trkpt lat="28.239338" lon="105.655324"><ele>662.9456</ele><time>2026-01-31T00:21:29.000Z</time></trkpt>
        <trkpt lat="28.239329" lon="105.655267"><ele>660.8185</ele><time>2026-01-31T00:21:34.000Z</time></trkpt>
        <trkpt lat="28.239334" lon="105.655217"><ele>660.6985</ele><time>2026-01-31T00:21:38.000Z</time></trkpt>
        <trkpt lat="28.239348" lon="105.655154"><ele>660.6054</ele><time>2026-01-31T00:21:43.000Z</time></trkpt>
        <trkpt lat="28.239368" lon="105.655102"><ele>660.6065</ele><time>2026-01-31T00:21:48.000Z</time></trkpt>
        <trkpt lat="28.239379" lon="105.655034"><ele>659.7351</ele><time>2026-01-31T00:22:00.000Z</time></trkpt>
        <trkpt lat="28.239385" lon="105.654994"><ele>660.1152</ele><time>2026-01-31T00:22:04.000Z</time></trkpt>
        <trkpt lat="28.239391" lon="105.65493"><ele>660.0545</ele><time>2026-01-31T00:22:09.000Z</time></trkpt>
        <trkpt lat="28.239399" lon="105.654874"><ele>659.56604</ele><time>2026-01-31T00:22:13.000Z</time></trkpt>
        <trkpt lat="28.23941" lon="105.654817"><ele>659.15826</ele><time>2026-01-31T00:22:17.000Z</time></trkpt>
        <trkpt lat="28.239417" lon="105.654756"><ele>658.7987</ele><time>2026-01-31T00:22:21.000Z</time></trkpt>
        <trkpt lat="28.239426" lon="105.654696"><ele>656.8997</ele><time>2026-01-31T00:22:25.000Z</time></trkpt>
        <trkpt lat="28.239433" lon="105.654639"><ele>655.06085</ele><time>2026-01-31T00:22:29.000Z</time></trkpt>
        <trkpt lat="28.239447" lon="105.654588"><ele>654.9326</ele><time>2026-01-31T00:22:33.000Z</time></trkpt>
        <trkpt lat="28.239458" lon="105.654527"><ele>654.17914</ele><time>2026-01-31T00:22:38.000Z</time></trkpt>
        <trkpt lat="28.239469" lon="105.654469"><ele>653.09796</ele><time>2026-01-31T00:22:43.000Z</time></trkpt>
        <trkpt lat="28.239487" lon="105.654416"><ele>655.2545</ele><time>2026-01-31T00:22:47.000Z</time></trkpt>
        <trkpt lat="28.239501" lon="105.65436"><ele>655.868</ele><time>2026-01-31T00:22:51.000Z</time></trkpt>
        <trkpt lat="28.239512" lon="105.654305"><ele>655.40186</ele><time>2026-01-31T00:22:55.000Z</time></trkpt>
        <trkpt lat="28.239528" lon="105.654242"><ele>654.7604</ele><time>2026-01-31T00:23:01.000Z</time></trkpt>
        <trkpt lat="28.239537" lon="105.654185"><ele>655.2219</ele><time>2026-01-31T00:23:05.000Z</time></trkpt>
        <trkpt lat="28.239568" lon="105.654131"><ele>658.8405</ele><time>2026-01-31T00:23:10.000Z</time></trkpt>
        <trkpt lat="28.239599" lon="105.654077"><ele>660.31757</ele><time>2026-01-31T00:23:15.000Z</time></trkpt>
        <trkpt lat="28.239627" lon="105.654023"><ele>661.57</ele><time>2026-01-31T00:23:19.000Z</time></trkpt>
        <trkpt lat="28.239664" lon="105.653987"><ele>661.6784</ele><time>2026-01-31T00:23:23.000Z</time></trkpt>
        <trkpt lat="28.239687" lon="105.653938"><ele>660.049</ele><time>2026-01-31T00:23:28.000Z</time></trkpt>
        <trkpt lat="28.239699" lon="105.653891"><ele>658.4891</ele><time>2026-01-31T00:23:32.000Z</time></trkpt>
        <trkpt lat="28.239725" lon="105.653835"><ele>659.06116</ele><time>2026-01-31T00:23:37.000Z</time></trkpt>
        <trkpt lat="28.239768" lon="105.653833"><ele>658.3329</ele><time>2026-01-31T00:23:41.000Z</time></trkpt>
        <trkpt lat="28.239816" lon="105.653863"><ele>656.0511</ele><time>2026-01-31T00:23:45.000Z</time></trkpt>
        <trkpt lat="28.239848" lon="105.653917"><ele>652.28156</ele><time>2026-01-31T00:23:51.000Z</time></trkpt>
        <trkpt lat="28.239873" lon="105.653968"><ele>649.7867</ele><time>2026-01-31T00:23:55.000Z</time></trkpt>
        <trkpt lat="28.239896" lon="105.654019"><ele>647.4655</ele><time>2026-01-31T00:23:59.000Z</time></trkpt>
        <trkpt lat="28.239924" lon="105.654065"><ele>646.0943</ele><time>2026-01-31T00:24:03.000Z</time></trkpt>
        <trkpt lat="28.239959" lon="105.654115"><ele>644.38257</ele><time>2026-01-31T00:24:08.000Z</time></trkpt>
        <trkpt lat="28.240001" lon="105.65415"><ele>644.44446</ele><time>2026-01-31T00:24:12.000Z</time></trkpt>
        <trkpt lat="28.240037" lon="105.654195"><ele>646.3932</ele><time>2026-01-31T00:24:17.000Z</time></trkpt>
        <trkpt lat="28.240085" lon="105.654226"><ele>649.1093</ele><time>2026-01-31T00:24:23.000Z</time></trkpt>
        <trkpt lat="28.240131" lon="105.654229"><ele>651.33246</ele><time>2026-01-31T00:24:27.000Z</time></trkpt>
        <trkpt lat="28.240188" lon="105.654234"><ele>654.1191</ele><time>2026-01-31T00:24:34.000Z</time></trkpt>
        <trkpt lat="28.240241" lon="105.654232"><ele>653.482</ele><time>2026-01-31T00:25:05.000Z</time></trkpt>
        <trkpt lat="28.240273" lon="105.654203"><ele>653.624</ele><time>2026-01-31T00:25:13.000Z</time></trkpt>
        <trkpt lat="28.24031" lon="105.654162"><ele>653.13434</ele><time>2026-01-31T00:25:18.000Z</time></trkpt>
        <trkpt lat="28.240345" lon="105.654126"><ele>652.86304</ele><time>2026-01-31T00:25:22.000Z</time></trkpt>
        <trkpt lat="28.240388" lon="105.654082"><ele>653.1894</ele><time>2026-01-31T00:25:28.000Z</time></trkpt>
        <trkpt lat="28.24042" lon="105.654037"><ele>653.63824</ele><time>2026-01-31T00:25:33.000Z</time></trkpt>
        <trkpt lat="28.240461" lon="105.654006"><ele>654.29205</ele><time>2026-01-31T00:25:37.000Z</time></trkpt>
        <trkpt lat="28.240495" lon="105.653969"><ele>655.25635</ele><time>2026-01-31T00:25:41.000Z</time></trkpt>
        <trkpt lat="28.24053" lon="105.653943"><ele>656.32465</ele><time>2026-01-31T00:25:44.000Z</time></trkpt>
        <trkpt lat="28.240573" lon="105.653897"><ele>658.59705</ele><time>2026-01-31T00:25:49.000Z</time></trkpt>
        <trkpt lat="28.240596" lon="105.653847"><ele>659.13885</ele><time>2026-01-31T00:25:54.000Z</time></trkpt>
        <trkpt lat="28.240608" lon="105.653798"><ele>660.2766</ele><time>2026-01-31T00:25:58.000Z</time></trkpt>
        <trkpt lat="28.240645" lon="105.653753"><ele>660.2808</ele><time>2026-01-31T00:26:04.000Z</time></trkpt>
        <trkpt lat="28.240688" lon="105.65372"><ele>660.05383</ele><time>2026-01-31T00:26:14.000Z</time></trkpt>
        <trkpt lat="28.240704" lon="105.653677"><ele>658.66864</ele><time>2026-01-31T00:26:21.000Z</time></trkpt>
        <trkpt lat="28.240752" lon="105.653636"><ele>661.1306</ele><time>2026-01-31T00:26:39.000Z</time></trkpt>
        <trkpt lat="28.240785" lon="105.653602"><ele>660.4198</ele><time>2026-01-31T00:26:48.000Z</time></trkpt>
        <trkpt lat="28.240829" lon="105.653568"><ele>660.3414</ele><time>2026-01-31T00:26:55.000Z</time></trkpt>
        <trkpt lat="28.240867" lon="105.653536"><ele>662.88257</ele><time>2026-01-31T00:26:59.000Z</time></trkpt>
        <trkpt lat="28.24092" lon="105.65354"><ele>659.9781</ele><time>2026-01-31T00:27:20.000Z</time></trkpt>
        <trkpt lat="28.240926" lon="105.653587"><ele>658.43604</ele><time>2026-01-31T00:27:25.000Z</time></trkpt>
        <trkpt lat="28.240967" lon="105.653571"><ele>660.35974</ele><time>2026-01-31T00:27:39.000Z</time></trkpt>
        <trkpt lat="28.241009" lon="105.653567"><ele>660.7707</ele><time>2026-01-31T00:27:45.000Z</time></trkpt>
        <trkpt lat="28.241068" lon="105.653577"><ele>659.4688</ele><time>2026-01-31T00:27:52.000Z</time></trkpt>
        <trkpt lat="28.241043" lon="105.653532"><ele>669.9825</ele><time>2026-01-31T00:28:07.000Z</time></trkpt>
        <trkpt lat="28.241055" lon="105.653482"><ele>673.92706</ele><time>2026-01-31T00:28:22.000Z</time></trkpt>
        <trkpt lat="28.241079" lon="105.653434"><ele>675.8308</ele><time>2026-01-31T00:28:50.000Z</time></trkpt>
        <trkpt lat="28.241111" lon="105.653416"><ele>676.9141</ele><time>2026-01-31T00:28:56.000Z</time></trkpt>
        <trkpt lat="28.241141" lon="105.653367"><ele>677.3901</ele><time>2026-01-31T00:29:06.000Z</time></trkpt>
        <trkpt lat="28.241184" lon="105.653364"><ele>677.745</ele><time>2026-01-31T00:29:14.000Z</time></trkpt>
        <trkpt lat="28.241202" lon="105.653327"><ele>680.439</ele><time>2026-01-31T00:29:20.000Z</time></trkpt>
        <trkpt lat="28.241205" lon="105.653267"><ele>685.0047</ele><time>2026-01-31T00:29:33.000Z</time></trkpt>
        <trkpt lat="28.241212" lon="105.653216"><ele>687.51794</ele><time>2026-01-31T00:29:52.000Z</time></trkpt>
        <trkpt lat="28.241238" lon="105.653178"><ele>687.05945</ele><time>2026-01-31T00:29:59.000Z</time></trkpt>
        <trkpt lat="28.241276" lon="105.653127"><ele>689.98834</ele><time>2026-01-31T00:30:12.000Z</time></trkpt>
        <trkpt lat="28.241308" lon="105.653084"><ele>693.7173</ele><time>2026-01-31T00:30:22.000Z</time></trkpt>
        <trkpt lat="28.241334" lon="105.653121"><ele>695.0829</ele><time>2026-01-31T00:30:34.000Z</time></trkpt>
        <trkpt lat="28.241334" lon="105.653169"><ele>694.19073</ele><time>2026-01-31T00:30:39.000Z</time></trkpt>
        <trkpt lat="28.241375" lon="105.6532"><ele>701.07043</ele><time>2026-01-31T00:31:00.000Z</time></trkpt>
        <trkpt lat="28.241405" lon="105.653157"><ele>702.73834</ele><time>2026-01-31T00:31:33.000Z</time></trkpt>
        <trkpt lat="28.241446" lon="105.653142"><ele>706.57086</ele><time>2026-01-31T00:31:43.000Z</time></trkpt>
        <trkpt lat="28.241493" lon="105.653147"><ele>711.02234</ele><time>2026-01-31T00:31:52.000Z</time></trkpt>
        <trkpt lat="28.241544" lon="105.653127"><ele>713.2438</ele><time>2026-01-31T00:32:03.000Z</time></trkpt>
        <trkpt lat="28.24156" lon="105.653174"><ele>717.5608</ele><time>2026-01-31T00:32:25.000Z</time></trkpt>
        <trkpt lat="28.24157" lon="105.653225"><ele>721.44824</ele><time>2026-01-31T00:32:39.000Z</time></trkpt>
        <trkpt lat="28.241605" lon="105.653192"><ele>723.8761</ele><time>2026-01-31T00:33:01.000Z</time></trkpt>
        <trkpt lat="28.241648" lon="105.653205"><ele>731.8458</ele><time>2026-01-31T00:33:20.000Z</time></trkpt>
        <trkpt lat="28.241677" lon="105.653161"><ele>735.0393</ele><time>2026-01-31T00:33:39.000Z</time></trkpt>
        <trkpt lat="28.241712" lon="105.653131"><ele>736.19116</ele><time>2026-01-31T00:33:48.000Z</time></trkpt>
        <trkpt lat="28.241727" lon="105.653183"><ele>732.3633</ele><time>2026-01-31T00:35:39.000Z</time></trkpt>
        <trkpt lat="28.241705" lon="105.653229"><ele>730.11835</ele><time>2026-01-31T00:36:05.000Z</time></trkpt>
        <trkpt lat="28.241662" lon="105.653227"><ele>730.4352</ele><time>2026-01-31T00:36:13.000Z</time></trkpt>
        <trkpt lat="28.241645" lon="105.653178"><ele>732.15283</ele><time>2026-01-31T00:36:25.000Z</time></trkpt>
        <trkpt lat="28.241623" lon="105.65322"><ele>725.04755</ele><time>2026-01-31T00:37:09.000Z</time></trkpt>
        <trkpt lat="28.24158" lon="105.653232"><ele>723.3223</ele><time>2026-01-31T00:37:20.000Z</time></trkpt>
        <trkpt lat="28.241537" lon="105.653203"><ele>720.3426</ele><time>2026-01-31T00:37:36.000Z</time></trkpt>
        <trkpt lat="28.241547" lon="105.653153"><ele>719.19324</ele><time>2026-01-31T00:37:49.000Z</time></trkpt>
        <trkpt lat="28.24156" lon="105.653098"><ele>719.85504</ele><time>2026-01-31T00:38:09.000Z</time></trkpt>
        <trkpt lat="28.241528" lon="105.653133"><ele>715.2497</ele><time>2026-01-31T00:38:18.000Z</time></trkpt>
        <trkpt lat="28.24148" lon="105.653136"><ele>711.4079</ele><time>2026-01-31T00:38:28.000Z</time></trkpt>
        <trkpt lat="28.241429" lon="105.653141"><ele>703.4404</ele><time>2026-01-31T00:38:46.000Z</time></trkpt>
        <trkpt lat="28.241407" lon="105.653186"><ele>701.3527</ele><time>2026-01-31T00:38:55.000Z</time></trkpt>
        <trkpt lat="28.241361" lon="105.653211"><ele>701.16394</ele><time>2026-01-31T00:39:10.000Z</time></trkpt>
        <trkpt lat="28.24133" lon="105.653173"><ele>700.26575</ele><time>2026-01-31T00:39:24.000Z</time></trkpt>
        <trkpt lat="28.24132" lon="105.653119"><ele>696.79144</ele><time>2026-01-31T00:39:34.000Z</time></trkpt>
        <trkpt lat="28.241286" lon="105.653066"><ele>695.7222</ele><time>2026-01-31T00:39:43.000Z</time></trkpt>
        <trkpt lat="28.241274" lon="105.653104"><ele>695.0063</ele><time>2026-01-31T00:39:47.000Z</time></trkpt>
        <trkpt lat="28.241253" lon="105.653173"><ele>692.8068</ele><time>2026-01-31T00:39:57.000Z</time></trkpt>
        <trkpt lat="28.241223" lon="105.653225"><ele>681.9402</ele><time>2026-01-31T00:40:21.000Z</time></trkpt>
        <trkpt lat="28.241233" lon="105.653258"><ele>681.30536</ele><time>2026-01-31T00:40:25.000Z</time></trkpt>
        <trkpt lat="28.241194" lon="105.653292"><ele>680.84296</ele><time>2026-01-31T00:40:40.000Z</time></trkpt>
        <trkpt lat="28.241157" lon="105.653332"><ele>677.8584</ele><time>2026-01-31T00:40:54.000Z</time></trkpt>
        <trkpt lat="28.241137" lon="105.653382"><ele>674.09686</ele><time>2026-01-31T00:41:15.000Z</time></trkpt>
        <trkpt lat="28.241092" lon="105.6534"><ele>670.30615</ele><time>2026-01-31T00:41:32.000Z</time></trkpt>
        <trkpt lat="28.241093" lon="105.653448"><ele>669.43085</ele><time>2026-01-31T00:41:41.000Z</time></trkpt>
        <trkpt lat="28.241065" lon="105.653488"><ele>672.0562</ele><time>2026-01-31T00:41:50.000Z</time></trkpt>
        <trkpt lat="28.241021" lon="105.653524"><ele>672.3437</ele><time>2026-01-31T00:41:59.000Z</time></trkpt>
        <trkpt lat="28.241006" lon="105.653576"><ele>672.54486</ele><time>2026-01-31T00:42:09.000Z</time></trkpt>
        <trkpt lat="28.240993" lon="105.653627"><ele>672.98883</ele><time>2026-01-31T00:42:19.000Z</time></trkpt>
        <trkpt lat="28.240956" lon="105.653605"><ele>669.3981</ele><time>2026-01-31T00:42:27.000Z</time></trkpt>
        <trkpt lat="28.240906" lon="105.653602"><ele>663.75604</ele><time>2026-01-31T00:42:45.000Z</time></trkpt>
        <trkpt lat="28.240892" lon="105.653563"><ele>661.37915</ele><time>2026-01-31T00:42:50.000Z</time></trkpt>
        <trkpt lat="28.240881" lon="105.653507"><ele>659.2645</ele><time>2026-01-31T00:42:56.000Z</time></trkpt>
        <trkpt lat="28.240881" lon="105.653444"><ele>657.24084</ele><time>2026-01-31T00:43:02.000Z</time></trkpt>
        <trkpt lat="28.240886" lon="105.653387"><ele>655.86816</ele><time>2026-01-31T00:43:08.000Z</time></trkpt>
        <trkpt lat="28.240903" lon="105.653331"><ele>654.64685</ele><time>2026-01-31T00:43:14.000Z</time></trkpt>
        <trkpt lat="28.240913" lon="105.653281"><ele>654.75037</ele><time>2026-01-31T00:43:18.000Z</time></trkpt>
        <trkpt lat="28.240923" lon="105.653218"><ele>655.7624</ele><time>2026-01-31T00:43:23.000Z</time></trkpt>
        <trkpt lat="28.240943" lon="105.653168"><ele>656.49084</ele><time>2026-01-31T00:43:28.000Z</time></trkpt>
        <trkpt lat="28.240962" lon="105.653111"><ele>657.01184</ele><time>2026-01-31T00:43:40.000Z</time></trkpt>
        <trkpt lat="28.240994" lon="105.65307"><ele>653.5006</ele><time>2026-01-31T00:43:52.000Z</time></trkpt>
        <trkpt lat="28.241018" lon="105.653033"><ele>653.4538</ele><time>2026-01-31T00:43:57.000Z</time></trkpt>
        <trkpt lat="28.24104" lon="105.652986"><ele>653.53644</ele><time>2026-01-31T00:44:02.000Z</time></trkpt>
        <trkpt lat="28.241064" lon="105.652939"><ele>653.6002</ele><time>2026-01-31T00:44:07.000Z</time></trkpt>
        <trkpt lat="28.241088" lon="105.652884"><ele>653.88696</ele><time>2026-01-31T00:44:13.000Z</time></trkpt>
        <trkpt lat="28.241112" lon="105.652832"><ele>654.8243</ele><time>2026-01-31T00:44:19.000Z</time></trkpt>
        <trkpt lat="28.241151" lon="105.652792"><ele>654.0858</ele><time>2026-01-31T00:44:25.000Z</time></trkpt>
        <trkpt lat="28.241182" lon="105.652755"><ele>653.6253</ele><time>2026-01-31T00:44:29.000Z</time></trkpt>
        <trkpt lat="28.241219" lon="105.652712"><ele>653.49286</ele><time>2026-01-31T00:44:34.000Z</time></trkpt>
        <trkpt lat="28.241261" lon="105.652673"><ele>653.30084</ele><time>2026-01-31T00:44:40.000Z</time></trkpt>
        <trkpt lat="28.2413" lon="105.652639"><ele>652.98914</ele><time>2026-01-31T00:44:47.000Z</time></trkpt>
        <trkpt lat="28.241329" lon="105.652589"><ele>652.5817</ele><time>2026-01-31T00:44:53.000Z</time></trkpt>
        <trkpt lat="28.241351" lon="105.652539"><ele>651.2072</ele><time>2026-01-31T00:44:59.000Z</time></trkpt>
        <trkpt lat="28.241373" lon="105.652481"><ele>648.3686</ele><time>2026-01-31T00:45:05.000Z</time></trkpt>
        <trkpt lat="28.241395" lon="105.652432"><ele>647.77185</ele><time>2026-01-31T00:45:10.000Z</time></trkpt>
        <trkpt lat="28.241413" lon="105.652384"><ele>648.3181</ele><time>2026-01-31T00:45:14.000Z</time></trkpt>
        <trkpt lat="28.241454" lon="105.652333"><ele>648.89667</ele><time>2026-01-31T00:45:23.000Z</time></trkpt>
        <trkpt lat="28.24148" lon="105.652295"><ele>648.33887</ele><time>2026-01-31T00:45:30.000Z</time></trkpt>
        <trkpt lat="28.24151" lon="105.652256"><ele>648.76855</ele><time>2026-01-31T00:45:35.000Z</time></trkpt>
        <trkpt lat="28.241527" lon="105.652208"><ele>648.3947</ele><time>2026-01-31T00:45:40.000Z</time></trkpt>
        <trkpt lat="28.241518" lon="105.652142"><ele>648.8439</ele><time>2026-01-31T00:45:47.000Z</time></trkpt>
        <trkpt lat="28.24153" lon="105.652096"><ele>649.9753</ele><time>2026-01-31T00:45:52.000Z</time></trkpt>
        <trkpt lat="28.241574" lon="105.65205"><ele>648.85986</ele><time>2026-01-31T00:45:59.000Z</time></trkpt>
        <trkpt lat="28.241605" lon="105.652006"><ele>649.0808</ele><time>2026-01-31T00:46:06.000Z</time></trkpt>
        <trkpt lat="28.241604" lon="105.651956"><ele>648.53015</ele><time>2026-01-31T00:46:12.000Z</time></trkpt>
        <trkpt lat="28.241616" lon="105.651885"><ele>651.1369</ele><time>2026-01-31T00:46:23.000Z</time></trkpt>
        <trkpt lat="28.241615" lon="105.651839"><ele>651.8789</ele><time>2026-01-31T00:46:28.000Z</time></trkpt>
        <trkpt lat="28.241652" lon="105.651823"><ele>651.8077</ele><time>2026-01-31T00:46:34.000Z</time></trkpt>
        <trkpt lat="28.2417" lon="105.651793"><ele>649.169</ele><time>2026-01-31T00:46:44.000Z</time></trkpt>
        <trkpt lat="28.241698" lon="105.651738"><ele>652.8427</ele><time>2026-01-31T00:46:52.000Z</time></trkpt>
        <trkpt lat="28.241689" lon="105.651676"><ele>657.0196</ele><time>2026-01-31T00:46:59.000Z</time></trkpt>
        <trkpt lat="28.241684" lon="105.65162"><ele>659.9409</ele><time>2026-01-31T00:47:05.000Z</time></trkpt>
        <trkpt lat="28.241682" lon="105.651566"><ele>662.6579</ele><time>2026-01-31T00:47:10.000Z</time></trkpt>
        <trkpt lat="28.241696" lon="105.651509"><ele>664.18896</ele><time>2026-01-31T00:47:15.000Z</time></trkpt>
        <trkpt lat="28.241694" lon="105.65146"><ele>665.35925</ele><time>2026-01-31T00:47:19.000Z</time></trkpt>
        <trkpt lat="28.241714" lon="105.651406"><ele>664.81177</ele><time>2026-01-31T00:47:26.000Z</time></trkpt>
        <trkpt lat="28.241761" lon="105.651379"><ele>663.72034</ele><time>2026-01-31T00:47:33.000Z</time></trkpt>
        <trkpt lat="28.241772" lon="105.651331"><ele>661.9863</ele><time>2026-01-31T00:47:40.000Z</time></trkpt>
        <trkpt lat="28.241772" lon="105.651277"><ele>662.2898</ele><time>2026-01-31T00:47:48.000Z</time></trkpt>
        <trkpt lat="28.241783" lon="105.651227"><ele>663.6295</ele><time>2026-01-31T00:47:54.000Z</time></trkpt>
        <trkpt lat="28.241802" lon="105.651176"><ele>663.7664</ele><time>2026-01-31T00:48:01.000Z</time></trkpt>
        <trkpt lat="28.241786" lon="105.651124"><ele>664.74066</ele><time>2026-01-31T00:48:08.000Z</time></trkpt>
        <trkpt lat="28.241783" lon="105.651068"><ele>666.6779</ele><time>2026-01-31T00:48:14.000Z</time></trkpt>
        <trkpt lat="28.241793" lon="105.651008"><ele>667.1137</ele><time>2026-01-31T00:48:20.000Z</time></trkpt>
        <trkpt lat="28.241804" lon="105.650945"><ele>666.7748</ele><time>2026-01-31T00:48:26.000Z</time></trkpt>
        <trkpt lat="28.241807" lon="105.650892"><ele>664.9748</ele><time>2026-01-31T00:48:31.000Z</time></trkpt>
        <trkpt lat="28.241822" lon="105.650833"><ele>664.0232</ele><time>2026-01-31T00:48:37.000Z</time></trkpt>
        <trkpt lat="28.241824" lon="105.65078"><ele>664.801</ele><time>2026-01-31T00:48:43.000Z</time></trkpt>
        <trkpt lat="28.241822" lon="105.650722"><ele>664.256</ele><time>2026-01-31T00:48:50.000Z</time></trkpt>
        <trkpt lat="28.241826" lon="105.65067"><ele>663.7483</ele><time>2026-01-31T00:48:56.000Z</time></trkpt>
        <trkpt lat="28.241817" lon="105.650622"><ele>663.32416</ele><time>2026-01-31T00:49:01.000Z</time></trkpt>
        <trkpt lat="28.241803" lon="105.650564"><ele>663.64435</ele><time>2026-01-31T00:49:10.000Z</time></trkpt>
        <trkpt lat="28.24179" lon="105.650516"><ele>662.43097</ele><time>2026-01-31T00:49:20.000Z</time></trkpt>
        <trkpt lat="28.241815" lon="105.65047"><ele>660.25775</ele><time>2026-01-31T00:49:27.000Z</time></trkpt>
        <trkpt lat="28.24183" lon="105.650406"><ele>660.7248</ele><time>2026-01-31T00:49:39.000Z</time></trkpt>
        <trkpt lat="28.241815" lon="105.650357"><ele>662.54376</ele><time>2026-01-31T00:49:49.000Z</time></trkpt>
        <trkpt lat="28.241798" lon="105.650307"><ele>662.2993</ele><time>2026-01-31T00:49:54.000Z</time></trkpt>
        <trkpt lat="28.241802" lon="105.650247"><ele>660.9339</ele><time>2026-01-31T00:50:00.000Z</time></trkpt>
        <trkpt lat="28.24182" lon="105.650193"><ele>657.8561</ele><time>2026-01-31T00:50:07.000Z</time></trkpt>
        <trkpt lat="28.241829" lon="105.650132"><ele>656.8706</ele><time>2026-01-31T00:50:19.000Z</time></trkpt>
        <trkpt lat="28.241818" lon="105.650085"><ele>653.90796</ele><time>2026-01-31T00:50:27.000Z</time></trkpt>
        <trkpt lat="28.241805" lon="105.650042"><ele>654.8646</ele><time>2026-01-31T00:50:31.000Z</time></trkpt>
        <trkpt lat="28.241799" lon="105.64999"><ele>655.3968</ele><time>2026-01-31T00:50:35.000Z</time></trkpt>
        <trkpt lat="28.241793" lon="105.649923"><ele>655.6264</ele><time>2026-01-31T00:50:45.000Z</time></trkpt>
        <trkpt lat="28.241804" lon="105.649871"><ele>655.10645</ele><time>2026-01-31T00:50:59.000Z</time></trkpt>
        <trkpt lat="28.241796" lon="105.649825"><ele>653.2409</ele><time>2026-01-31T00:51:07.000Z</time></trkpt>
        <trkpt lat="28.241798" lon="105.649771"><ele>653.8263</ele><time>2026-01-31T00:51:13.000Z</time></trkpt>
        <trkpt lat="28.241779" lon="105.649717"><ele>656.39435</ele><time>2026-01-31T00:52:05.000Z</time></trkpt>
        <trkpt lat="28.24174" lon="105.649681"><ele>649.56055</ele><time>2026-01-31T00:52:24.000Z</time></trkpt>
        <trkpt lat="28.24168" lon="105.649673"><ele>640.53265</ele><time>2026-01-31T00:53:22.000Z</time></trkpt>
        <trkpt lat="28.241646" lon="105.649662"><ele>639.9837</ele><time>2026-01-31T00:53:28.000Z</time></trkpt>
        <trkpt lat="28.241589" lon="105.64965"><ele>638.6151</ele><time>2026-01-31T00:53:36.000Z</time></trkpt>
        <trkpt lat="28.241549" lon="105.649616"><ele>641.8717</ele><time>2026-01-31T00:53:47.000Z</time></trkpt>
        <trkpt lat="28.241545" lon="105.649555"><ele>646.4776</ele><time>2026-01-31T00:54:12.000Z</time></trkpt>
        <trkpt lat="28.241503" lon="105.649538"><ele>647.8327</ele><time>2026-01-31T00:54:28.000Z</time></trkpt>
        <trkpt lat="28.241458" lon="105.649521"><ele>650.7584</ele><time>2026-01-31T00:54:40.000Z</time></trkpt>
        <trkpt lat="28.241454" lon="105.649458"><ele>656.46533</ele><time>2026-01-31T00:55:06.000Z</time></trkpt>
        <trkpt lat="28.241463" lon="105.649418"><ele>656.88055</ele><time>2026-01-31T00:55:10.000Z</time></trkpt>
        <trkpt lat="28.241469" lon="105.649363"><ele>656.2711</ele><time>2026-01-31T00:55:14.000Z</time></trkpt>
        <trkpt lat="28.241475" lon="105.649302"><ele>656.18353</ele><time>2026-01-31T00:55:18.000Z</time></trkpt>
        <trkpt lat="28.241484" lon="105.649233"><ele>655.57733</ele><time>2026-01-31T00:55:23.000Z</time></trkpt>
        <trkpt lat="28.241493" lon="105.649177"><ele>655.44684</ele><time>2026-01-31T00:55:27.000Z</time></trkpt>
        <trkpt lat="28.241496" lon="105.649123"><ele>655.26624</ele><time>2026-01-31T00:55:31.000Z</time></trkpt>
        <trkpt lat="28.241502" lon="105.649064"><ele>654.685</ele><time>2026-01-31T00:55:35.000Z</time></trkpt>
        <trkpt lat="28.241518" lon="105.649009"><ele>653.9404</ele><time>2026-01-31T00:55:39.000Z</time></trkpt>
        <trkpt lat="28.241533" lon="105.648954"><ele>654.3728</ele><time>2026-01-31T00:55:43.000Z</time></trkpt>
        <trkpt lat="28.241556" lon="105.648901"><ele>655.8725</ele><time>2026-01-31T00:55:47.000Z</time></trkpt>
        <trkpt lat="28.241585" lon="105.648857"><ele>657.02264</ele><time>2026-01-31T00:55:51.000Z</time></trkpt>
        <trkpt lat="28.241614" lon="105.648797"><ele>657.8503</ele><time>2026-01-31T00:55:56.000Z</time></trkpt>
        <trkpt lat="28.241637" lon="105.648749"><ele>657.5035</ele><time>2026-01-31T00:56:00.000Z</time></trkpt>
        <trkpt lat="28.241653" lon="105.648693"><ele>656.5888</ele><time>2026-01-31T00:56:04.000Z</time></trkpt>
        <trkpt lat="28.241662" lon="105.648634"><ele>655.1799</ele><time>2026-01-31T00:56:09.000Z</time></trkpt>
        <trkpt lat="28.241665" lon="105.648581"><ele>654.60425</ele><time>2026-01-31T00:56:13.000Z</time></trkpt>
        <trkpt lat="28.241662" lon="105.648528"><ele>654.0919</ele><time>2026-01-31T00:56:17.000Z</time></trkpt>
        <trkpt lat="28.241676" lon="105.648478"><ele>653.93274</ele><time>2026-01-31T00:56:21.000Z</time></trkpt>
        <trkpt lat="28.241707" lon="105.648436"><ele>654.77026</ele><time>2026-01-31T00:56:25.000Z</time></trkpt>
        <trkpt lat="28.241738" lon="105.648384"><ele>655.80206</ele><time>2026-01-31T00:56:30.000Z</time></trkpt>
        <trkpt lat="28.241765" lon="105.648332"><ele>655.35956</ele><time>2026-01-31T00:56:35.000Z</time></trkpt>
        <trkpt lat="28.241773" lon="105.648282"><ele>654.54016</ele><time>2026-01-31T00:56:39.000Z</time></trkpt>
        <trkpt lat="28.241784" lon="105.64823"><ele>653.1643</ele><time>2026-01-31T00:56:43.000Z</time></trkpt>
        <trkpt lat="28.24181" lon="105.648176"><ele>651.839</ele><time>2026-01-31T00:56:48.000Z</time></trkpt>
        <trkpt lat="28.241844" lon="105.648129"><ele>651.7087</ele><time>2026-01-31T00:56:52.000Z</time></trkpt>
        <trkpt lat="28.241874" lon="105.64808"><ele>651.64526</ele><time>2026-01-31T00:56:57.000Z</time></trkpt>
        <trkpt lat="28.241901" lon="105.648031"><ele>651.82855</ele><time>2026-01-31T00:57:02.000Z</time></trkpt>
        <trkpt lat="28.241912" lon="105.647977"><ele>651.60693</ele><time>2026-01-31T00:57:08.000Z</time></trkpt>
        <trkpt lat="28.241914" lon="105.647928"><ele>651.45355</ele><time>2026-01-31T00:57:12.000Z</time></trkpt>
        <trkpt lat="28.241924" lon="105.647884"><ele>651.3186</ele><time>2026-01-31T00:57:15.000Z</time></trkpt>
        <trkpt lat="28.241951" lon="105.647845"><ele>651.50323</ele><time>2026-01-31T00:57:18.000Z</time></trkpt>
        <trkpt lat="28.241988" lon="105.6478"><ele>651.0906</ele><time>2026-01-31T00:57:22.000Z</time></trkpt>
        <trkpt lat="28.242025" lon="105.647754"><ele>650.233</ele><time>2026-01-31T00:57:26.000Z</time></trkpt>
        <trkpt lat="28.242055" lon="105.647719"><ele>647.9822</ele><time>2026-01-31T00:57:29.000Z</time></trkpt>
        <trkpt lat="28.242088" lon="105.647671"><ele>644.92755</ele><time>2026-01-31T00:57:33.000Z</time></trkpt>
        <trkpt lat="28.242131" lon="105.647632"><ele>642.05115</ele><time>2026-01-31T00:57:37.000Z</time></trkpt>
        <trkpt lat="28.242169" lon="105.647594"><ele>639.07153</ele><time>2026-01-31T00:57:41.000Z</time></trkpt>
        <trkpt lat="28.242209" lon="105.647561"><ele>637.18933</ele><time>2026-01-31T00:57:45.000Z</time></trkpt>
        <trkpt lat="28.242249" lon="105.647547"><ele>638.4315</ele><time>2026-01-31T00:57:48.000Z</time></trkpt>
        <trkpt lat="28.242301" lon="105.647525"><ele>639.46014</ele><time>2026-01-31T00:57:52.000Z</time></trkpt>
        <trkpt lat="28.242348" lon="105.647496"><ele>640.02124</ele><time>2026-01-31T00:57:56.000Z</time></trkpt>
        <trkpt lat="28.242393" lon="105.647472"><ele>640.5676</ele><time>2026-01-31T00:58:00.000Z</time></trkpt>
        <trkpt lat="28.242438" lon="105.647445"><ele>640.3998</ele><time>2026-01-31T00:58:04.000Z</time></trkpt>
        <trkpt lat="28.242485" lon="105.647414"><ele>639.8238</ele><time>2026-01-31T00:58:08.000Z</time></trkpt>
        <trkpt lat="28.24253" lon="105.64738"><ele>639.5982</ele><time>2026-01-31T00:58:12.000Z</time></trkpt>
        <trkpt lat="28.242575" lon="105.647348"><ele>638.8729</ele><time>2026-01-31T00:58:16.000Z</time></trkpt>
        <trkpt lat="28.242609" lon="105.6473"><ele>638.0548</ele><time>2026-01-31T00:58:20.000Z</time></trkpt>
        <trkpt lat="28.242645" lon="105.64725"><ele>637.7303</ele><time>2026-01-31T00:58:24.000Z</time></trkpt>
        <trkpt lat="28.242667" lon="105.647195"><ele>637.6422</ele><time>2026-01-31T00:58:28.000Z</time></trkpt>
        <trkpt lat="28.242689" lon="105.647139"><ele>637.6141</ele><time>2026-01-31T00:58:32.000Z</time></trkpt>
        <trkpt lat="28.242716" lon="105.647091"><ele>637.3051</ele><time>2026-01-31T00:58:36.000Z</time></trkpt>
        <trkpt lat="28.242738" lon="105.647049"><ele>636.53986</ele><time>2026-01-31T00:58:39.000Z</time></trkpt>
        <trkpt lat="28.242766" lon="105.647001"><ele>635.5094</ele><time>2026-01-31T00:58:43.000Z</time></trkpt>
        <trkpt lat="28.242784" lon="105.646951"><ele>634.3936</ele><time>2026-01-31T00:58:47.000Z</time></trkpt>
        <trkpt lat="28.2428" lon="105.6469"><ele>633.90216</ele><time>2026-01-31T00:58:51.000Z</time></trkpt>
        <trkpt lat="28.242811" lon="105.646841"><ele>633.31006</ele><time>2026-01-31T00:58:55.000Z</time></trkpt>
        <trkpt lat="28.242819" lon="105.646785"><ele>632.95703</ele><time>2026-01-31T00:58:59.000Z</time></trkpt>
        <trkpt lat="28.242824" lon="105.64673"><ele>632.75757</ele><time>2026-01-31T00:59:03.000Z</time></trkpt>
        <trkpt lat="28.242825" lon="105.646674"><ele>632.5614</ele><time>2026-01-31T00:59:07.000Z</time></trkpt>
        <trkpt lat="28.24282" lon="105.646626"><ele>632.09155</ele><time>2026-01-31T00:59:10.000Z</time></trkpt>
        <trkpt lat="28.242818" lon="105.64656"><ele>632.06854</ele><time>2026-01-31T00:59:15.000Z</time></trkpt>
        <trkpt lat="28.242819" lon="105.646502"><ele>632.54926</ele><time>2026-01-31T00:59:19.000Z</time></trkpt>
        <trkpt lat="28.242823" lon="105.64644"><ele>632.93164</ele><time>2026-01-31T00:59:24.000Z</time></trkpt>
        <trkpt lat="28.242826" lon="105.646383"><ele>633.281</ele><time>2026-01-31T00:59:29.000Z</time></trkpt>
        <trkpt lat="28.242829" lon="105.646334"><ele>633.8287</ele><time>2026-01-31T00:59:33.000Z</time></trkpt>
        <trkpt lat="28.242833" lon="105.646272"><ele>634.3209</ele><time>2026-01-31T00:59:38.000Z</time></trkpt>
        <trkpt lat="28.242828" lon="105.646213"><ele>633.8348</ele><time>2026-01-31T00:59:43.000Z</time></trkpt>
        <trkpt lat="28.242817" lon="105.646162"><ele>633.43744</ele><time>2026-01-31T00:59:47.000Z</time></trkpt>
        <trkpt lat="28.242806" lon="105.646099"><ele>632.90796</ele><time>2026-01-31T00:59:52.000Z</time></trkpt>
        <trkpt lat="28.2428" lon="105.646048"><ele>632.77997</ele><time>2026-01-31T00:59:56.000Z</time></trkpt>
        <trkpt lat="28.242789" lon="105.645997"><ele>632.3344</ele><time>2026-01-31T01:00:00.000Z</time></trkpt>
        <trkpt lat="28.242776" lon="105.645937"><ele>631.9541</ele><time>2026-01-31T01:00:05.000Z</time></trkpt>
        <trkpt lat="28.242764" lon="105.645888"><ele>631.55743</ele><time>2026-01-31T01:00:09.000Z</time></trkpt>
        <trkpt lat="28.242741" lon="105.645837"><ele>631.5731</ele><time>2026-01-31T01:00:13.000Z</time></trkpt>
        <trkpt lat="28.242722" lon="105.645778"><ele>631.5342</ele><time>2026-01-31T01:00:18.000Z</time></trkpt>
        <trkpt lat="28.242712" lon="105.64572"><ele>632.3162</ele><time>2026-01-31T01:00:23.000Z</time></trkpt>
        <trkpt lat="28.242703" lon="105.64567"><ele>633.919</ele><time>2026-01-31T01:00:27.000Z</time></trkpt>
        <trkpt lat="28.242689" lon="105.645615"><ele>635.4207</ele><time>2026-01-31T01:00:31.000Z</time></trkpt>
        <trkpt lat="28.24267" lon="105.645553"><ele>636.89655</ele><time>2026-01-31T01:00:36.000Z</time></trkpt>
        <trkpt lat="28.24265" lon="105.645496"><ele>637.2691</ele><time>2026-01-31T01:00:41.000Z</time></trkpt>
        <trkpt lat="28.24263" lon="105.645442"><ele>636.7564</ele><time>2026-01-31T01:00:46.000Z</time></trkpt>
        <trkpt lat="28.242611" lon="105.645389"><ele>636.03</ele><time>2026-01-31T01:00:51.000Z</time></trkpt>
        <trkpt lat="28.242594" lon="105.645342"><ele>635.87177</ele><time>2026-01-31T01:00:55.000Z</time></trkpt>
        <trkpt lat="28.242574" lon="105.645294"><ele>635.7344</ele><time>2026-01-31T01:00:59.000Z</time></trkpt>
        <trkpt lat="28.24255" lon="105.645232"><ele>635.61975</ele><time>2026-01-31T01:01:04.000Z</time></trkpt>
        <trkpt lat="28.242524" lon="105.64518"><ele>635.7643</ele><time>2026-01-31T01:01:08.000Z</time></trkpt>
        <trkpt lat="28.242497" lon="105.645123"><ele>636.24554</ele><time>2026-01-31T01:01:13.000Z</time></trkpt>
        <trkpt lat="28.242469" lon="105.64507"><ele>636.30115</ele><time>2026-01-31T01:01:18.000Z</time></trkpt>
        <trkpt lat="28.242443" lon="105.645027"><ele>635.9063</ele><time>2026-01-31T01:01:22.000Z</time></trkpt>
        <trkpt lat="28.242408" lon="105.644991"><ele>636.3648</ele><time>2026-01-31T01:01:26.000Z</time></trkpt>
        <trkpt lat="28.242366" lon="105.64495"><ele>637.2303</ele><time>2026-01-31T01:01:31.000Z</time></trkpt>
        <trkpt lat="28.242328" lon="105.644914"><ele>637.3272</ele><time>2026-01-31T01:01:35.000Z</time></trkpt>
        <trkpt lat="28.242287" lon="105.64487"><ele>637.1682</ele><time>2026-01-31T01:01:39.000Z</time></trkpt>
        <trkpt lat="28.242256" lon="105.644832"><ele>637.7256</ele><time>2026-01-31T01:01:42.000Z</time></trkpt>
        <trkpt lat="28.24222" lon="105.644787"><ele>638.2575</ele><time>2026-01-31T01:01:46.000Z</time></trkpt>
        <trkpt lat="28.242176" lon="105.644742"><ele>638.9541</ele><time>2026-01-31T01:01:51.000Z</time></trkpt>
        <trkpt lat="28.242139" lon="105.644707"><ele>638.35864</ele><time>2026-01-31T01:01:55.000Z</time></trkpt>
        <trkpt lat="28.242095" lon="105.644678"><ele>637.40515</ele><time>2026-01-31T01:01:59.000Z</time></trkpt>
        <trkpt lat="28.24205" lon="105.644638"><ele>639.91797</ele><time>2026-01-31T01:02:04.000Z</time></trkpt>
        <trkpt lat="28.242008" lon="105.64461"><ele>642.2203</ele><time>2026-01-31T01:02:08.000Z</time></trkpt>
        <trkpt lat="28.241975" lon="105.644568"><ele>644.2889</ele><time>2026-01-31T01:02:13.000Z</time></trkpt>
        <trkpt lat="28.241942" lon="105.64452"><ele>645.14154</ele><time>2026-01-31T01:02:18.000Z</time></trkpt>
        <trkpt lat="28.241907" lon="105.644481"><ele>646.0782</ele><time>2026-01-31T01:02:23.000Z</time></trkpt>
        <trkpt lat="28.241881" lon="105.644447"><ele>647.4004</ele><time>2026-01-31T01:02:26.000Z</time></trkpt>
        <trkpt lat="28.241841" lon="105.644406"><ele>646.6623</ele><time>2026-01-31T01:02:30.000Z</time></trkpt>
        <trkpt lat="28.241788" lon="105.644362"><ele>644.5903</ele><time>2026-01-31T01:02:35.000Z</time></trkpt>
        <trkpt lat="28.24175" lon="105.644329"><ele>646.05286</ele><time>2026-01-31T01:02:39.000Z</time></trkpt>
        <trkpt lat="28.241712" lon="105.644295"><ele>647.2615</ele><time>2026-01-31T01:02:43.000Z</time></trkpt>
        <trkpt lat="28.241673" lon="105.644258"><ele>647.5534</ele><time>2026-01-31T01:02:47.000Z</time></trkpt>
        <trkpt lat="28.24163" lon="105.644228"><ele>644.83954</ele><time>2026-01-31T01:02:51.000Z</time></trkpt>
        <trkpt lat="28.241588" lon="105.644195"><ele>640.6446</ele><time>2026-01-31T01:02:55.000Z</time></trkpt>
        <trkpt lat="28.241545" lon="105.644159"><ele>638.468</ele><time>2026-01-31T01:02:59.000Z</time></trkpt>
        <trkpt lat="28.241513" lon="105.644112"><ele>641.67706</ele><time>2026-01-31T01:03:04.000Z</time></trkpt>
        <trkpt lat="28.241483" lon="105.644071"><ele>646.097</ele><time>2026-01-31T01:03:09.000Z</time></trkpt>
        <trkpt lat="28.241455" lon="105.64403"><ele>649.13025</ele><time>2026-01-31T01:03:13.000Z</time></trkpt>
        <trkpt lat="28.241425" lon="105.643984"><ele>651.799</ele><time>2026-01-31T01:03:17.000Z</time></trkpt>
        <trkpt lat="28.241387" lon="105.643934"><ele>654.44165</ele><time>2026-01-31T01:03:22.000Z</time></trkpt>
        <trkpt lat="28.241354" lon="105.64389"><ele>655.07275</ele><time>2026-01-31T01:03:26.000Z</time></trkpt>
        <trkpt lat="28.241326" lon="105.64385"><ele>653.9226</ele><time>2026-01-31T01:03:29.000Z</time></trkpt>
        <trkpt lat="28.241298" lon="105.643797"><ele>655.68097</ele><time>2026-01-31T01:03:33.000Z</time></trkpt>
        <trkpt lat="28.241264" lon="105.64374"><ele>656.9595</ele><time>2026-01-31T01:03:39.000Z</time></trkpt>
        <trkpt lat="28.241247" lon="105.643686"><ele>657.65106</ele><time>2026-01-31T01:03:43.000Z</time></trkpt>
        <trkpt lat="28.241236" lon="105.643631"><ele>658.2358</ele><time>2026-01-31T01:03:47.000Z</time></trkpt>
        <trkpt lat="28.241232" lon="105.643574"><ele>658.26666</ele><time>2026-01-31T01:03:51.000Z</time></trkpt>
        <trkpt lat="28.241225" lon="105.643518"><ele>658.11273</ele><time>2026-01-31T01:03:55.000Z</time></trkpt>
        <trkpt lat="28.241219" lon="105.64346"><ele>658.79504</ele><time>2026-01-31T01:03:59.000Z</time></trkpt>
        <trkpt lat="28.241212" lon="105.643405"><ele>659.2727</ele><time>2026-01-31T01:04:03.000Z</time></trkpt>
        <trkpt lat="28.241207" lon="105.643349"><ele>660.4309</ele><time>2026-01-31T01:04:07.000Z</time></trkpt>
        <trkpt lat="28.241211" lon="105.643291"><ele>662.24274</ele><time>2026-01-31T01:04:11.000Z</time></trkpt>
        <trkpt lat="28.241216" lon="105.643237"><ele>662.76465</ele><time>2026-01-31T01:04:15.000Z</time></trkpt>
        <trkpt lat="28.24121" lon="105.64318"><ele>663.40466</ele><time>2026-01-31T01:04:19.000Z</time></trkpt>
        <trkpt lat="28.241212" lon="105.643125"><ele>663.7771</ele><time>2026-01-31T01:04:23.000Z</time></trkpt>
        <trkpt lat="28.241224" lon="105.64307"><ele>666.0309</ele><time>2026-01-31T01:04:27.000Z</time></trkpt>
        <trkpt lat="28.241248" lon="105.643029"><ele>667.46515</ele><time>2026-01-31T01:04:30.000Z</time></trkpt>
        <trkpt lat="28.241268" lon="105.642973"><ele>664.30426</ele><time>2026-01-31T01:04:34.000Z</time></trkpt>
        <trkpt lat="28.24128" lon="105.642924"><ele>659.8242</ele><time>2026-01-31T01:04:37.000Z</time></trkpt>
        <trkpt lat="28.241284" lon="105.642865"><ele>652.4187</ele><time>2026-01-31T01:04:41.000Z</time></trkpt>
        <trkpt lat="28.241296" lon="105.6428"><ele>647.77106</ele><time>2026-01-31T01:04:47.000Z</time></trkpt>
        <trkpt lat="28.241313" lon="105.642753"><ele>643.1748</ele><time>2026-01-31T01:04:51.000Z</time></trkpt>
        <trkpt lat="28.241327" lon="105.642695"><ele>639.94525</ele><time>2026-01-31T01:04:56.000Z</time></trkpt>
        <trkpt lat="28.241345" lon="105.642641"><ele>637.86914</ele><time>2026-01-31T01:05:00.000Z</time></trkpt>
        <trkpt lat="28.241361" lon="105.642572"><ele>634.1682</ele><time>2026-01-31T01:05:05.000Z</time></trkpt>
        <trkpt lat="28.241385" lon="105.642513"><ele>635.61536</ele><time>2026-01-31T01:05:10.000Z</time></trkpt>
        <trkpt lat="28.24141" lon="105.642471"><ele>637.47906</ele><time>2026-01-31T01:05:14.000Z</time></trkpt>
        <trkpt lat="28.24144" lon="105.64243"><ele>638.30835</ele><time>2026-01-31T01:05:18.000Z</time></trkpt>
        <trkpt lat="28.241472" lon="105.642386"><ele>639.18695</ele><time>2026-01-31T01:05:23.000Z</time></trkpt>
        <trkpt lat="28.241505" lon="105.642359"><ele>640.1257</ele><time>2026-01-31T01:05:26.000Z</time></trkpt>
        <trkpt lat="28.241549" lon="105.642324"><ele>640.36115</ele><time>2026-01-31T01:05:31.000Z</time></trkpt>
        <trkpt lat="28.241584" lon="105.642303"><ele>640.3102</ele><time>2026-01-31T01:05:34.000Z</time></trkpt>
        <trkpt lat="28.241626" lon="105.642269"><ele>638.9829</ele><time>2026-01-31T01:05:39.000Z</time></trkpt>
        <trkpt lat="28.241671" lon="105.642242"><ele>637.30597</ele><time>2026-01-31T01:05:44.000Z</time></trkpt>
        <trkpt lat="28.241714" lon="105.642208"><ele>637.20123</ele><time>2026-01-31T01:05:49.000Z</time></trkpt>
        <trkpt lat="28.241754" lon="105.642176"><ele>636.1646</ele><time>2026-01-31T01:05:53.000Z</time></trkpt>
        <trkpt lat="28.241805" lon="105.642149"><ele>635.5927</ele><time>2026-01-31T01:05:57.000Z</time></trkpt>
        <trkpt lat="28.241857" lon="105.642119"><ele>637.16626</ele><time>2026-01-31T01:06:02.000Z</time></trkpt>
        <trkpt lat="28.241894" lon="105.6421"><ele>637.871</ele><time>2026-01-31T01:06:05.000Z</time></trkpt>
        <trkpt lat="28.24194" lon="105.642067"><ele>638.334</ele><time>2026-01-31T01:06:09.000Z</time></trkpt>
        <trkpt lat="28.241984" lon="105.642021"><ele>638.08124</ele><time>2026-01-31T01:06:13.000Z</time></trkpt>
        <trkpt lat="28.242038" lon="105.642009"><ele>638.4767</ele><time>2026-01-31T01:06:27.000Z</time></trkpt>
        <trkpt lat="28.24207" lon="105.642013"><ele>637.7486</ele><time>2026-01-31T01:06:31.000Z</time></trkpt>
        <trkpt lat="28.242124" lon="105.642"><ele>637.3949</ele><time>2026-01-31T01:06:36.000Z</time></trkpt>
        <trkpt lat="28.242174" lon="105.641974"><ele>635.783</ele><time>2026-01-31T01:06:40.000Z</time></trkpt>
        <trkpt lat="28.242223" lon="105.641941"><ele>635.71356</ele><time>2026-01-31T01:06:44.000Z</time></trkpt>
        <trkpt lat="28.242264" lon="105.641907"><ele>635.3671</ele><time>2026-01-31T01:06:48.000Z</time></trkpt>
        <trkpt lat="28.242311" lon="105.641873"><ele>634.99097</ele><time>2026-01-31T01:06:52.000Z</time></trkpt>
        <trkpt lat="28.242368" lon="105.641856"><ele>634.85895</ele><time>2026-01-31T01:06:57.000Z</time></trkpt>
        <trkpt lat="28.242417" lon="105.641862"><ele>634.8478</ele><time>2026-01-31T01:07:01.000Z</time></trkpt>
        <trkpt lat="28.242465" lon="105.641853"><ele>634.8883</ele><time>2026-01-31T01:07:05.000Z</time></trkpt>
        <trkpt lat="28.242522" lon="105.641853"><ele>634.7094</ele><time>2026-01-31T01:07:09.000Z</time></trkpt>
        <trkpt lat="28.242579" lon="105.641846"><ele>634.5224</ele><time>2026-01-31T01:07:13.000Z</time></trkpt>
        <trkpt lat="28.242631" lon="105.641823"><ele>633.8378</ele><time>2026-01-31T01:07:17.000Z</time></trkpt>
        <trkpt lat="28.242684" lon="105.641815"><ele>633.6208</ele><time>2026-01-31T01:07:21.000Z</time></trkpt>
        <trkpt lat="28.242733" lon="105.64181"><ele>633.78107</ele><time>2026-01-31T01:07:25.000Z</time></trkpt>
        <trkpt lat="28.24278" lon="105.641807"><ele>633.921</ele><time>2026-01-31T01:07:29.000Z</time></trkpt>
        <trkpt lat="28.242835" lon="105.641803"><ele>633.96075</ele><time>2026-01-31T01:07:33.000Z</time></trkpt>
        <trkpt lat="28.242878" lon="105.641784"><ele>633.61285</ele><time>2026-01-31T01:07:36.000Z</time></trkpt>
        <trkpt lat="28.24292" lon="105.641758"><ele>633.0286</ele><time>2026-01-31T01:07:39.000Z</time></trkpt>
        <trkpt lat="28.24297" lon="105.641737"><ele>631.80646</ele><time>2026-01-31T01:07:43.000Z</time></trkpt>
        <trkpt lat="28.243011" lon="105.641734"><ele>631.5377</ele><time>2026-01-31T01:07:46.000Z</time></trkpt>
        <trkpt lat="28.243068" lon="105.641725"><ele>630.34814</ele><time>2026-01-31T01:07:51.000Z</time></trkpt>
        <trkpt lat="28.243122" lon="105.641724"><ele>628.46844</ele><time>2026-01-31T01:07:56.000Z</time></trkpt>
      </trkseg>
  </trk>
</gpx>